<?xml version="1.0" encoding="UTF-8" standalone="no" ?>
<gpx xmlns="http://www.topografix.com/GPX/1/1" xmlns:xsi="http://www.w3.org/2001/XMLSchema-instance" xsi:schemaLocation="http://www.topografix.com/GPX/1/1 http://www.topografix.com/GPX/1/1/gpx.xsd" version="1.1" creator="VisuGPX - https://www.visugpx.com">
  <metadata>
    <name>2021 05 20 Vougeot</name>
  </metadata>
  <trk>
    <name><![CDATA[2021 05 20 Vougeot_1]]></name>
    <trkseg>
      <trkpt lat="47.17534" lon="4.96392">
        <ele>233.4</ele>
        <time>2021-05-20T05:49:16Z</time>
      </trkpt>
      <trkpt lat="47.17535" lon="4.96385">
        <ele>238.3</ele>
        <time>2021-05-20T05:49:28Z</time>
      </trkpt>
      <trkpt lat="47.17531" lon="4.96379">
        <ele>238.9</ele>
        <time>2021-05-20T05:49:33Z</time>
      </trkpt>
      <trkpt lat="47.17527" lon="4.96374">
        <ele>238.7</ele>
        <time>2021-05-20T05:49:40Z</time>
      </trkpt>
      <trkpt lat="47.17525" lon="4.96367">
        <ele>237</ele>
        <time>2021-05-20T05:49:44Z</time>
      </trkpt>
      <trkpt lat="47.17522" lon="4.9636">
        <ele>238.1</ele>
        <time>2021-05-20T05:49:47Z</time>
      </trkpt>
      <trkpt lat="47.17517" lon="4.96356">
        <ele>242.6</ele>
        <time>2021-05-20T05:49:54Z</time>
      </trkpt>
      <trkpt lat="47.17512" lon="4.96353">
        <ele>241.7</ele>
        <time>2021-05-20T05:49:58Z</time>
      </trkpt>
      <trkpt lat="47.17506" lon="4.9635">
        <ele>240.1</ele>
        <time>2021-05-20T05:50:04Z</time>
      </trkpt>
      <trkpt lat="47.17501" lon="4.96347">
        <ele>241.1</ele>
        <time>2021-05-20T05:50:08Z</time>
      </trkpt>
      <trkpt lat="47.17496" lon="4.96345">
        <ele>238.2</ele>
        <time>2021-05-20T05:50:14Z</time>
      </trkpt>
      <trkpt lat="47.17491" lon="4.96345">
        <ele>236.1</ele>
        <time>2021-05-20T05:50:22Z</time>
      </trkpt>
      <trkpt lat="47.17488" lon="4.96351">
        <ele>238.5</ele>
        <time>2021-05-20T05:50:25Z</time>
      </trkpt>
      <trkpt lat="47.17483" lon="4.96353">
        <ele>239.8</ele>
        <time>2021-05-20T05:50:30Z</time>
      </trkpt>
      <trkpt lat="47.17479" lon="4.96352">
        <ele>240.7</ele>
        <time>2021-05-20T05:50:34Z</time>
      </trkpt>
      <trkpt lat="47.17474" lon="4.96351">
        <ele>239.7</ele>
        <time>2021-05-20T05:50:38Z</time>
      </trkpt>
      <trkpt lat="47.17469" lon="4.9635">
        <ele>235.5</ele>
        <time>2021-05-20T05:50:41Z</time>
      </trkpt>
      <trkpt lat="47.17464" lon="4.9635">
        <ele>235.8</ele>
        <time>2021-05-20T05:50:47Z</time>
      </trkpt>
      <trkpt lat="47.17459" lon="4.96348">
        <ele>237.2</ele>
        <time>2021-05-20T05:50:51Z</time>
      </trkpt>
      <trkpt lat="47.17455" lon="4.96341">
        <ele>240.7</ele>
        <time>2021-05-20T05:50:55Z</time>
      </trkpt>
      <trkpt lat="47.17453" lon="4.96335">
        <ele>245</ele>
        <time>2021-05-20T05:51:00Z</time>
      </trkpt>
      <trkpt lat="47.17448" lon="4.96332">
        <ele>246.8</ele>
        <time>2021-05-20T05:51:04Z</time>
      </trkpt>
      <trkpt lat="47.17444" lon="4.96328">
        <ele>246.8</ele>
        <time>2021-05-20T05:51:06Z</time>
      </trkpt>
      <trkpt lat="47.17439" lon="4.96326">
        <ele>247.2</ele>
        <time>2021-05-20T05:51:09Z</time>
      </trkpt>
      <trkpt lat="47.17434" lon="4.96322">
        <ele>245</ele>
        <time>2021-05-20T05:51:16Z</time>
      </trkpt>
      <trkpt lat="47.17431" lon="4.96317">
        <ele>243.8</ele>
        <time>2021-05-20T05:51:19Z</time>
      </trkpt>
      <trkpt lat="47.17426" lon="4.96313">
        <ele>244.4</ele>
        <time>2021-05-20T05:51:22Z</time>
      </trkpt>
      <trkpt lat="47.17421" lon="4.9631">
        <ele>240.9</ele>
        <time>2021-05-20T05:51:29Z</time>
      </trkpt>
      <trkpt lat="47.17415" lon="4.96306">
        <ele>243</ele>
        <time>2021-05-20T05:51:34Z</time>
      </trkpt>
      <trkpt lat="47.17411" lon="4.96308">
        <ele>238.3</ele>
        <time>2021-05-20T05:51:39Z</time>
      </trkpt>
      <trkpt lat="47.17406" lon="4.96309">
        <ele>237.8</ele>
        <time>2021-05-20T05:51:43Z</time>
      </trkpt>
      <trkpt lat="47.174" lon="4.96307">
        <ele>236.1</ele>
        <time>2021-05-20T05:51:47Z</time>
      </trkpt>
      <trkpt lat="47.17396" lon="4.96303">
        <ele>239.3</ele>
        <time>2021-05-20T05:51:51Z</time>
      </trkpt>
      <trkpt lat="47.17391" lon="4.963">
        <ele>239.7</ele>
        <time>2021-05-20T05:51:55Z</time>
      </trkpt>
      <trkpt lat="47.17385" lon="4.96299">
        <ele>238.8</ele>
        <time>2021-05-20T05:51:58Z</time>
      </trkpt>
      <trkpt lat="47.1738" lon="4.963">
        <ele>240</ele>
        <time>2021-05-20T05:52:04Z</time>
      </trkpt>
      <trkpt lat="47.17376" lon="4.96302">
        <ele>241.9</ele>
        <time>2021-05-20T05:52:07Z</time>
      </trkpt>
      <trkpt lat="47.17369" lon="4.96303">
        <ele>239</ele>
        <time>2021-05-20T05:52:11Z</time>
      </trkpt>
      <trkpt lat="47.17363" lon="4.96304">
        <ele>236.5</ele>
        <time>2021-05-20T05:52:17Z</time>
      </trkpt>
      <trkpt lat="47.17357" lon="4.96304">
        <ele>236.3</ele>
        <time>2021-05-20T05:52:22Z</time>
      </trkpt>
      <trkpt lat="47.17352" lon="4.96303">
        <ele>236.7</ele>
        <time>2021-05-20T05:52:27Z</time>
      </trkpt>
      <trkpt lat="47.17347" lon="4.96301">
        <ele>237.8</ele>
        <time>2021-05-20T05:52:32Z</time>
      </trkpt>
      <trkpt lat="47.17341" lon="4.963">
        <ele>240.9</ele>
        <time>2021-05-20T05:52:36Z</time>
      </trkpt>
      <trkpt lat="47.17336" lon="4.963">
        <ele>243.3</ele>
        <time>2021-05-20T05:52:41Z</time>
      </trkpt>
      <trkpt lat="47.17331" lon="4.96298">
        <ele>246.8</ele>
        <time>2021-05-20T05:52:45Z</time>
      </trkpt>
      <trkpt lat="47.17326" lon="4.96297">
        <ele>241.9</ele>
        <time>2021-05-20T05:52:48Z</time>
      </trkpt>
      <trkpt lat="47.17322" lon="4.96298">
        <ele>241.3</ele>
        <time>2021-05-20T05:52:55Z</time>
      </trkpt>
      <trkpt lat="47.17318" lon="4.96294">
        <ele>239.6</ele>
        <time>2021-05-20T05:53:20Z</time>
      </trkpt>
      <trkpt lat="47.17313" lon="4.96293">
        <ele>239.9</ele>
        <time>2021-05-20T05:53:24Z</time>
      </trkpt>
      <trkpt lat="47.17308" lon="4.96292">
        <ele>240.4</ele>
        <time>2021-05-20T05:53:27Z</time>
      </trkpt>
      <trkpt lat="47.17303" lon="4.9629">
        <ele>238.8</ele>
        <time>2021-05-20T05:53:32Z</time>
      </trkpt>
      <trkpt lat="47.17299" lon="4.96288">
        <ele>238.1</ele>
        <time>2021-05-20T05:53:36Z</time>
      </trkpt>
      <trkpt lat="47.17295" lon="4.96285">
        <ele>240</ele>
        <time>2021-05-20T05:53:41Z</time>
      </trkpt>
      <trkpt lat="47.17288" lon="4.96284">
        <ele>239.3</ele>
        <time>2021-05-20T05:53:44Z</time>
      </trkpt>
      <trkpt lat="47.17283" lon="4.96285">
        <ele>240.8</ele>
        <time>2021-05-20T05:53:48Z</time>
      </trkpt>
      <trkpt lat="47.17277" lon="4.96286">
        <ele>240.4</ele>
        <time>2021-05-20T05:53:54Z</time>
      </trkpt>
      <trkpt lat="47.17273" lon="4.96283">
        <ele>240.6</ele>
        <time>2021-05-20T05:53:57Z</time>
      </trkpt>
      <trkpt lat="47.17268" lon="4.96281">
        <ele>242.7</ele>
        <time>2021-05-20T05:53:59Z</time>
      </trkpt>
      <trkpt lat="47.17264" lon="4.96279">
        <ele>244.4</ele>
        <time>2021-05-20T05:54:02Z</time>
      </trkpt>
      <trkpt lat="47.17259" lon="4.96277">
        <ele>241.8</ele>
        <time>2021-05-20T05:54:06Z</time>
      </trkpt>
      <trkpt lat="47.17254" lon="4.96277">
        <ele>243.3</ele>
        <time>2021-05-20T05:54:12Z</time>
      </trkpt>
      <trkpt lat="47.17248" lon="4.96276">
        <ele>242.7</ele>
        <time>2021-05-20T05:54:16Z</time>
      </trkpt>
      <trkpt lat="47.17243" lon="4.96276">
        <ele>241.7</ele>
        <time>2021-05-20T05:54:19Z</time>
      </trkpt>
      <trkpt lat="47.17238" lon="4.96277">
        <ele>241.8</ele>
        <time>2021-05-20T05:54:22Z</time>
      </trkpt>
      <trkpt lat="47.17233" lon="4.96277">
        <ele>242.4</ele>
        <time>2021-05-20T05:54:31Z</time>
      </trkpt>
      <trkpt lat="47.17228" lon="4.96274">
        <ele>241.2</ele>
        <time>2021-05-20T05:54:34Z</time>
      </trkpt>
      <trkpt lat="47.17224" lon="4.96272">
        <ele>242.1</ele>
        <time>2021-05-20T05:54:36Z</time>
      </trkpt>
      <trkpt lat="47.17219" lon="4.9627">
        <ele>242.1</ele>
        <time>2021-05-20T05:54:38Z</time>
      </trkpt>
      <trkpt lat="47.17214" lon="4.96268">
        <ele>245</ele>
        <time>2021-05-20T05:54:41Z</time>
      </trkpt>
      <trkpt lat="47.17209" lon="4.96267">
        <ele>245</ele>
        <time>2021-05-20T05:54:49Z</time>
      </trkpt>
      <trkpt lat="47.17204" lon="4.96267">
        <ele>245.1</ele>
        <time>2021-05-20T05:54:53Z</time>
      </trkpt>
      <trkpt lat="47.17197" lon="4.96264">
        <ele>245.4</ele>
        <time>2021-05-20T05:54:57Z</time>
      </trkpt>
      <trkpt lat="47.17191" lon="4.96264">
        <ele>241.8</ele>
        <time>2021-05-20T05:55:00Z</time>
      </trkpt>
      <trkpt lat="47.17186" lon="4.96263">
        <ele>240.6</ele>
        <time>2021-05-20T05:55:06Z</time>
      </trkpt>
      <trkpt lat="47.17181" lon="4.9626">
        <ele>239.7</ele>
        <time>2021-05-20T05:55:10Z</time>
      </trkpt>
      <trkpt lat="47.17175" lon="4.96257">
        <ele>241.2</ele>
        <time>2021-05-20T05:55:14Z</time>
      </trkpt>
      <trkpt lat="47.1717" lon="4.96256">
        <ele>240.9</ele>
        <time>2021-05-20T05:55:16Z</time>
      </trkpt>
      <trkpt lat="47.17164" lon="4.96257">
        <ele>240.2</ele>
        <time>2021-05-20T05:55:24Z</time>
      </trkpt>
      <trkpt lat="47.17159" lon="4.96255">
        <ele>243.2</ele>
        <time>2021-05-20T05:55:28Z</time>
      </trkpt>
      <trkpt lat="47.17154" lon="4.96253">
        <ele>242.2</ele>
        <time>2021-05-20T05:55:31Z</time>
      </trkpt>
      <trkpt lat="47.17149" lon="4.96253">
        <ele>243.9</ele>
        <time>2021-05-20T05:55:33Z</time>
      </trkpt>
      <trkpt lat="47.17144" lon="4.96254">
        <ele>240.4</ele>
        <time>2021-05-20T05:55:41Z</time>
      </trkpt>
      <trkpt lat="47.17139" lon="4.96253">
        <ele>242.7</ele>
        <time>2021-05-20T05:55:45Z</time>
      </trkpt>
      <trkpt lat="47.17133" lon="4.96251">
        <ele>242.1</ele>
        <time>2021-05-20T05:55:48Z</time>
      </trkpt>
      <trkpt lat="47.17127" lon="4.9625">
        <ele>241.9</ele>
        <time>2021-05-20T05:55:52Z</time>
      </trkpt>
      <trkpt lat="47.17121" lon="4.9625">
        <ele>242</ele>
        <time>2021-05-20T05:55:59Z</time>
      </trkpt>
      <trkpt lat="47.17114" lon="4.96247">
        <ele>241.1</ele>
        <time>2021-05-20T05:56:03Z</time>
      </trkpt>
      <trkpt lat="47.17109" lon="4.96247">
        <ele>238.3</ele>
        <time>2021-05-20T05:56:07Z</time>
      </trkpt>
      <trkpt lat="47.17104" lon="4.96249">
        <ele>238.2</ele>
        <time>2021-05-20T05:56:11Z</time>
      </trkpt>
      <trkpt lat="47.17098" lon="4.96248">
        <ele>241.1</ele>
        <time>2021-05-20T05:56:18Z</time>
      </trkpt>
      <trkpt lat="47.17093" lon="4.96249">
        <ele>243.3</ele>
        <time>2021-05-20T05:56:21Z</time>
      </trkpt>
      <trkpt lat="47.17088" lon="4.96247">
        <ele>242.6</ele>
        <time>2021-05-20T05:56:24Z</time>
      </trkpt>
      <trkpt lat="47.17083" lon="4.96248">
        <ele>242.1</ele>
        <time>2021-05-20T05:56:26Z</time>
      </trkpt>
      <trkpt lat="47.17078" lon="4.96248">
        <ele>242.5</ele>
        <time>2021-05-20T05:56:32Z</time>
      </trkpt>
      <trkpt lat="47.17073" lon="4.96246">
        <ele>240.6</ele>
        <time>2021-05-20T05:56:36Z</time>
      </trkpt>
      <trkpt lat="47.17068" lon="4.96244">
        <ele>241.6</ele>
        <time>2021-05-20T05:56:39Z</time>
      </trkpt>
      <trkpt lat="47.17063" lon="4.96244">
        <ele>242.7</ele>
        <time>2021-05-20T05:56:41Z</time>
      </trkpt>
      <trkpt lat="47.17057" lon="4.96242">
        <ele>241.1</ele>
        <time>2021-05-20T05:56:44Z</time>
      </trkpt>
      <trkpt lat="47.17052" lon="4.96243">
        <ele>242.1</ele>
        <time>2021-05-20T05:56:53Z</time>
      </trkpt>
      <trkpt lat="47.17048" lon="4.96246">
        <ele>243.3</ele>
        <time>2021-05-20T05:56:57Z</time>
      </trkpt>
      <trkpt lat="47.17043" lon="4.96246">
        <ele>242.9</ele>
        <time>2021-05-20T05:56:59Z</time>
      </trkpt>
      <trkpt lat="47.17037" lon="4.96246">
        <ele>242.5</ele>
        <time>2021-05-20T05:57:01Z</time>
      </trkpt>
      <trkpt lat="47.17033" lon="4.96246">
        <ele>243.1</ele>
        <time>2021-05-20T05:57:08Z</time>
      </trkpt>
      <trkpt lat="47.17028" lon="4.96245">
        <ele>243.4</ele>
        <time>2021-05-20T05:57:12Z</time>
      </trkpt>
      <trkpt lat="47.17023" lon="4.96245">
        <ele>244.1</ele>
        <time>2021-05-20T05:57:15Z</time>
      </trkpt>
      <trkpt lat="47.17019" lon="4.96245">
        <ele>242.9</ele>
        <time>2021-05-20T05:57:18Z</time>
      </trkpt>
      <trkpt lat="47.17014" lon="4.96247">
        <ele>240.9</ele>
        <time>2021-05-20T05:57:22Z</time>
      </trkpt>
      <trkpt lat="47.17008" lon="4.96246">
        <ele>245.1</ele>
        <time>2021-05-20T05:57:29Z</time>
      </trkpt>
      <trkpt lat="47.17003" lon="4.96244">
        <ele>246</ele>
        <time>2021-05-20T05:57:32Z</time>
      </trkpt>
      <trkpt lat="47.16997" lon="4.96245">
        <ele>246</ele>
        <time>2021-05-20T05:57:35Z</time>
      </trkpt>
      <trkpt lat="47.16992" lon="4.96246">
        <ele>243.5</ele>
        <time>2021-05-20T05:57:38Z</time>
      </trkpt>
      <trkpt lat="47.16987" lon="4.96246">
        <ele>243.2</ele>
        <time>2021-05-20T05:57:45Z</time>
      </trkpt>
      <trkpt lat="47.16982" lon="4.96244">
        <ele>243.3</ele>
        <time>2021-05-20T05:57:49Z</time>
      </trkpt>
      <trkpt lat="47.16977" lon="4.96245">
        <ele>242.2</ele>
        <time>2021-05-20T05:57:52Z</time>
      </trkpt>
      <trkpt lat="47.16972" lon="4.96244">
        <ele>242.6</ele>
        <time>2021-05-20T05:57:54Z</time>
      </trkpt>
      <trkpt lat="47.16966" lon="4.96244">
        <ele>242.4</ele>
        <time>2021-05-20T05:57:57Z</time>
      </trkpt>
      <trkpt lat="47.16961" lon="4.96246">
        <ele>240.9</ele>
        <time>2021-05-20T05:58:00Z</time>
      </trkpt>
      <trkpt lat="47.16955" lon="4.96247">
        <ele>243</ele>
        <time>2021-05-20T05:58:08Z</time>
      </trkpt>
      <trkpt lat="47.1695" lon="4.96248">
        <ele>244.6</ele>
        <time>2021-05-20T05:58:12Z</time>
      </trkpt>
      <trkpt lat="47.16945" lon="4.96249">
        <ele>245.4</ele>
        <time>2021-05-20T05:58:15Z</time>
      </trkpt>
      <trkpt lat="47.16941" lon="4.96251">
        <ele>244.2</ele>
        <time>2021-05-20T05:58:23Z</time>
      </trkpt>
      <trkpt lat="47.16935" lon="4.96253">
        <ele>242.3</ele>
        <time>2021-05-20T05:58:27Z</time>
      </trkpt>
      <trkpt lat="47.16928" lon="4.96254">
        <ele>242.6</ele>
        <time>2021-05-20T05:58:30Z</time>
      </trkpt>
      <trkpt lat="47.16924" lon="4.96258">
        <ele>240.7</ele>
        <time>2021-05-20T05:58:32Z</time>
      </trkpt>
      <trkpt lat="47.1692" lon="4.96261">
        <ele>240.6</ele>
        <time>2021-05-20T05:58:39Z</time>
      </trkpt>
      <trkpt lat="47.16914" lon="4.96263">
        <ele>240.3</ele>
        <time>2021-05-20T05:58:43Z</time>
      </trkpt>
      <trkpt lat="47.16907" lon="4.96265">
        <ele>242.8</ele>
        <time>2021-05-20T05:58:47Z</time>
      </trkpt>
      <trkpt lat="47.16903" lon="4.96268">
        <ele>241.5</ele>
        <time>2021-05-20T05:58:50Z</time>
      </trkpt>
      <trkpt lat="47.16898" lon="4.96268">
        <ele>239.9</ele>
        <time>2021-05-20T05:58:57Z</time>
      </trkpt>
      <trkpt lat="47.16892" lon="4.96266">
        <ele>239.6</ele>
        <time>2021-05-20T05:59:01Z</time>
      </trkpt>
      <trkpt lat="47.16887" lon="4.96266">
        <ele>241</ele>
        <time>2021-05-20T05:59:03Z</time>
      </trkpt>
      <trkpt lat="47.16881" lon="4.96267">
        <ele>239.7</ele>
        <time>2021-05-20T05:59:06Z</time>
      </trkpt>
      <trkpt lat="47.16877" lon="4.96267">
        <ele>239.7</ele>
        <time>2021-05-20T05:59:12Z</time>
      </trkpt>
      <trkpt lat="47.16871" lon="4.96268">
        <ele>238.2</ele>
        <time>2021-05-20T05:59:17Z</time>
      </trkpt>
      <trkpt lat="47.16866" lon="4.96271">
        <ele>239.8</ele>
        <time>2021-05-20T05:59:20Z</time>
      </trkpt>
      <trkpt lat="47.1686" lon="4.96272">
        <ele>239.5</ele>
        <time>2021-05-20T05:59:24Z</time>
      </trkpt>
      <trkpt lat="47.16855" lon="4.96277">
        <ele>238.1</ele>
        <time>2021-05-20T05:59:30Z</time>
      </trkpt>
      <trkpt lat="47.16848" lon="4.96275">
        <ele>239.4</ele>
        <time>2021-05-20T05:59:36Z</time>
      </trkpt>
      <trkpt lat="47.16842" lon="4.96275">
        <ele>243.5</ele>
        <time>2021-05-20T05:59:39Z</time>
      </trkpt>
      <trkpt lat="47.16837" lon="4.96274">
        <ele>243.2</ele>
        <time>2021-05-20T05:59:42Z</time>
      </trkpt>
      <trkpt lat="47.16831" lon="4.9627">
        <ele>244</ele>
        <time>2021-05-20T05:59:50Z</time>
      </trkpt>
      <trkpt lat="47.16827" lon="4.96271">
        <ele>243.9</ele>
        <time>2021-05-20T05:59:54Z</time>
      </trkpt>
      <trkpt lat="47.16821" lon="4.96274">
        <ele>244.3</ele>
        <time>2021-05-20T05:59:57Z</time>
      </trkpt>
      <trkpt lat="47.16816" lon="4.96276">
        <ele>243.8</ele>
        <time>2021-05-20T05:59:59Z</time>
      </trkpt>
      <trkpt lat="47.1681" lon="4.96278">
        <ele>247.3</ele>
        <time>2021-05-20T06:00:07Z</time>
      </trkpt>
      <trkpt lat="47.16803" lon="4.96279">
        <ele>244.8</ele>
        <time>2021-05-20T06:00:12Z</time>
      </trkpt>
      <trkpt lat="47.16795" lon="4.9628">
        <ele>245</ele>
        <time>2021-05-20T06:00:16Z</time>
      </trkpt>
      <trkpt lat="47.16791" lon="4.96282">
        <ele>245.4</ele>
        <time>2021-05-20T06:00:22Z</time>
      </trkpt>
      <trkpt lat="47.16785" lon="4.96283">
        <ele>245.7</ele>
        <time>2021-05-20T06:00:26Z</time>
      </trkpt>
      <trkpt lat="47.16779" lon="4.96283">
        <ele>244</ele>
        <time>2021-05-20T06:00:29Z</time>
      </trkpt>
      <trkpt lat="47.16775" lon="4.96282">
        <ele>244.7</ele>
        <time>2021-05-20T06:00:32Z</time>
      </trkpt>
      <trkpt lat="47.1677" lon="4.96281">
        <ele>239.8</ele>
        <time>2021-05-20T06:00:35Z</time>
      </trkpt>
      <trkpt lat="47.16765" lon="4.96283">
        <ele>239.1</ele>
        <time>2021-05-20T06:00:41Z</time>
      </trkpt>
      <trkpt lat="47.16761" lon="4.96276">
        <ele>239.8</ele>
        <time>2021-05-20T06:00:45Z</time>
      </trkpt>
      <trkpt lat="47.16761" lon="4.96266">
        <ele>238.1</ele>
        <time>2021-05-20T06:00:48Z</time>
      </trkpt>
      <trkpt lat="47.16763" lon="4.96257">
        <ele>239.1</ele>
        <time>2021-05-20T06:00:51Z</time>
      </trkpt>
      <trkpt lat="47.16766" lon="4.96249">
        <ele>241.1</ele>
        <time>2021-05-20T06:00:57Z</time>
      </trkpt>
      <trkpt lat="47.16767" lon="4.96241">
        <ele>242.8</ele>
        <time>2021-05-20T06:01:01Z</time>
      </trkpt>
      <trkpt lat="47.16768" lon="4.96232">
        <ele>243.4</ele>
        <time>2021-05-20T06:01:05Z</time>
      </trkpt>
      <trkpt lat="47.16768" lon="4.96225">
        <ele>243</ele>
        <time>2021-05-20T06:01:09Z</time>
      </trkpt>
      <trkpt lat="47.16769" lon="4.96217">
        <ele>242.3</ele>
        <time>2021-05-20T06:01:14Z</time>
      </trkpt>
      <trkpt lat="47.16769" lon="4.9621">
        <ele>242.4</ele>
        <time>2021-05-20T06:01:18Z</time>
      </trkpt>
      <trkpt lat="47.1677" lon="4.96201">
        <ele>240</ele>
        <time>2021-05-20T06:01:23Z</time>
      </trkpt>
      <trkpt lat="47.16771" lon="4.96192">
        <ele>239.6</ele>
        <time>2021-05-20T06:01:28Z</time>
      </trkpt>
      <trkpt lat="47.16771" lon="4.96184">
        <ele>239</ele>
        <time>2021-05-20T06:01:32Z</time>
      </trkpt>
      <trkpt lat="47.16771" lon="4.96176">
        <ele>238.1</ele>
        <time>2021-05-20T06:01:37Z</time>
      </trkpt>
      <trkpt lat="47.16771" lon="4.96167">
        <ele>241.3</ele>
        <time>2021-05-20T06:01:42Z</time>
      </trkpt>
      <trkpt lat="47.16771" lon="4.96161">
        <ele>241.4</ele>
        <time>2021-05-20T06:01:46Z</time>
      </trkpt>
      <trkpt lat="47.16772" lon="4.96153">
        <ele>241.9</ele>
        <time>2021-05-20T06:01:50Z</time>
      </trkpt>
      <trkpt lat="47.16773" lon="4.96146">
        <ele>243.3</ele>
        <time>2021-05-20T06:01:55Z</time>
      </trkpt>
      <trkpt lat="47.16773" lon="4.96137">
        <ele>241.7</ele>
        <time>2021-05-20T06:02:00Z</time>
      </trkpt>
      <trkpt lat="47.16773" lon="4.96129">
        <ele>243.6</ele>
        <time>2021-05-20T06:02:06Z</time>
      </trkpt>
      <trkpt lat="47.16775" lon="4.96122">
        <ele>243</ele>
        <time>2021-05-20T06:02:11Z</time>
      </trkpt>
      <trkpt lat="47.16776" lon="4.96113">
        <ele>240.7</ele>
        <time>2021-05-20T06:02:16Z</time>
      </trkpt>
      <trkpt lat="47.16777" lon="4.96105">
        <ele>240.6</ele>
        <time>2021-05-20T06:02:20Z</time>
      </trkpt>
      <trkpt lat="47.16778" lon="4.96098">
        <ele>242.1</ele>
        <time>2021-05-20T06:02:24Z</time>
      </trkpt>
      <trkpt lat="47.16779" lon="4.96091">
        <ele>243.2</ele>
        <time>2021-05-20T06:02:27Z</time>
      </trkpt>
      <trkpt lat="47.16779" lon="4.96082">
        <ele>244.9</ele>
        <time>2021-05-20T06:02:31Z</time>
      </trkpt>
      <trkpt lat="47.16778" lon="4.96074">
        <ele>244.8</ele>
        <time>2021-05-20T06:02:35Z</time>
      </trkpt>
      <trkpt lat="47.16778" lon="4.96065">
        <ele>246.3</ele>
        <time>2021-05-20T06:02:39Z</time>
      </trkpt>
      <trkpt lat="47.16778" lon="4.96056">
        <ele>245.7</ele>
        <time>2021-05-20T06:02:44Z</time>
      </trkpt>
      <trkpt lat="47.16778" lon="4.96048">
        <ele>244.8</ele>
        <time>2021-05-20T06:02:49Z</time>
      </trkpt>
      <trkpt lat="47.16779" lon="4.96041">
        <ele>245.1</ele>
        <time>2021-05-20T06:02:54Z</time>
      </trkpt>
      <trkpt lat="47.16779" lon="4.96033">
        <ele>245.1</ele>
        <time>2021-05-20T06:02:59Z</time>
      </trkpt>
      <trkpt lat="47.1678" lon="4.96026">
        <ele>245</ele>
        <time>2021-05-20T06:03:35Z</time>
      </trkpt>
      <trkpt lat="47.16781" lon="4.96018">
        <ele>246.4</ele>
        <time>2021-05-20T06:03:40Z</time>
      </trkpt>
      <trkpt lat="47.16782" lon="4.9601">
        <ele>246.2</ele>
        <time>2021-05-20T06:03:44Z</time>
      </trkpt>
      <trkpt lat="47.16783" lon="4.96002">
        <ele>247.6</ele>
        <time>2021-05-20T06:03:48Z</time>
      </trkpt>
      <trkpt lat="47.16784" lon="4.95995">
        <ele>248.2</ele>
        <time>2021-05-20T06:03:52Z</time>
      </trkpt>
      <trkpt lat="47.16785" lon="4.95988">
        <ele>246.3</ele>
        <time>2021-05-20T06:03:57Z</time>
      </trkpt>
      <trkpt lat="47.16785" lon="4.95979">
        <ele>248.2</ele>
        <time>2021-05-20T06:04:06Z</time>
      </trkpt>
      <trkpt lat="47.16786" lon="4.95971">
        <ele>249.9</ele>
        <time>2021-05-20T06:04:08Z</time>
      </trkpt>
      <trkpt lat="47.16787" lon="4.95964">
        <ele>247.1</ele>
        <time>2021-05-20T06:04:11Z</time>
      </trkpt>
      <trkpt lat="47.16788" lon="4.95957">
        <ele>247.5</ele>
        <time>2021-05-20T06:04:17Z</time>
      </trkpt>
      <trkpt lat="47.1679" lon="4.9595">
        <ele>247.3</ele>
        <time>2021-05-20T06:04:21Z</time>
      </trkpt>
      <trkpt lat="47.16792" lon="4.9594">
        <ele>244.9</ele>
        <time>2021-05-20T06:04:25Z</time>
      </trkpt>
      <trkpt lat="47.16794" lon="4.95932">
        <ele>245.1</ele>
        <time>2021-05-20T06:04:28Z</time>
      </trkpt>
      <trkpt lat="47.16797" lon="4.95926">
        <ele>242.8</ele>
        <time>2021-05-20T06:04:33Z</time>
      </trkpt>
      <trkpt lat="47.16798" lon="4.95918">
        <ele>242.7</ele>
        <time>2021-05-20T06:04:38Z</time>
      </trkpt>
      <trkpt lat="47.168" lon="4.95908">
        <ele>239</ele>
        <time>2021-05-20T06:04:42Z</time>
      </trkpt>
      <trkpt lat="47.16801" lon="4.95899">
        <ele>239.4</ele>
        <time>2021-05-20T06:04:45Z</time>
      </trkpt>
      <trkpt lat="47.16801" lon="4.95892">
        <ele>244.9</ele>
        <time>2021-05-20T06:04:52Z</time>
      </trkpt>
      <trkpt lat="47.16801" lon="4.95883">
        <ele>241.3</ele>
        <time>2021-05-20T06:04:59Z</time>
      </trkpt>
      <trkpt lat="47.16803" lon="4.95877">
        <ele>241.1</ele>
        <time>2021-05-20T06:05:05Z</time>
      </trkpt>
      <trkpt lat="47.16806" lon="4.95866">
        <ele>239.4</ele>
        <time>2021-05-20T06:05:14Z</time>
      </trkpt>
      <trkpt lat="47.16806" lon="4.95857">
        <ele>241.2</ele>
        <time>2021-05-20T06:05:17Z</time>
      </trkpt>
      <trkpt lat="47.16802" lon="4.95852">
        <ele>243.4</ele>
        <time>2021-05-20T06:05:24Z</time>
      </trkpt>
      <trkpt lat="47.16803" lon="4.95844">
        <ele>247</ele>
        <time>2021-05-20T06:05:43Z</time>
      </trkpt>
      <trkpt lat="47.16803" lon="4.95837">
        <ele>242.3</ele>
        <time>2021-05-20T06:05:45Z</time>
      </trkpt>
      <trkpt lat="47.16804" lon="4.9583">
        <ele>243.9</ele>
        <time>2021-05-20T06:06:02Z</time>
      </trkpt>
      <trkpt lat="47.16805" lon="4.9582">
        <ele>243.3</ele>
        <time>2021-05-20T06:06:05Z</time>
      </trkpt>
      <trkpt lat="47.16806" lon="4.95814">
        <ele>244.4</ele>
        <time>2021-05-20T06:06:08Z</time>
      </trkpt>
      <trkpt lat="47.16805" lon="4.95806">
        <ele>246.5</ele>
        <time>2021-05-20T06:06:14Z</time>
      </trkpt>
      <trkpt lat="47.16806" lon="4.95799">
        <ele>245.3</ele>
        <time>2021-05-20T06:06:17Z</time>
      </trkpt>
      <trkpt lat="47.16807" lon="4.95792">
        <ele>246</ele>
        <time>2021-05-20T06:06:21Z</time>
      </trkpt>
      <trkpt lat="47.16809" lon="4.95786">
        <ele>245.8</ele>
        <time>2021-05-20T06:06:26Z</time>
      </trkpt>
      <trkpt lat="47.16812" lon="4.95778">
        <ele>246.1</ele>
        <time>2021-05-20T06:06:28Z</time>
      </trkpt>
      <trkpt lat="47.16815" lon="4.95769">
        <ele>248.2</ele>
        <time>2021-05-20T06:06:32Z</time>
      </trkpt>
      <trkpt lat="47.16817" lon="4.95762">
        <ele>248.1</ele>
        <time>2021-05-20T06:06:34Z</time>
      </trkpt>
      <trkpt lat="47.16823" lon="4.95757">
        <ele>252.6</ele>
        <time>2021-05-20T06:06:42Z</time>
      </trkpt>
      <trkpt lat="47.16828" lon="4.95752">
        <ele>252.8</ele>
        <time>2021-05-20T06:06:45Z</time>
      </trkpt>
      <trkpt lat="47.16833" lon="4.95748">
        <ele>253.4</ele>
        <time>2021-05-20T06:06:47Z</time>
      </trkpt>
      <trkpt lat="47.16837" lon="4.95747">
        <ele>251.9</ele>
        <time>2021-05-20T06:06:52Z</time>
      </trkpt>
      <trkpt lat="47.16842" lon="4.95746">
        <ele>252.1</ele>
        <time>2021-05-20T06:06:56Z</time>
      </trkpt>
      <trkpt lat="47.16848" lon="4.95747">
        <ele>253.2</ele>
        <time>2021-05-20T06:07:00Z</time>
      </trkpt>
      <trkpt lat="47.16854" lon="4.95748">
        <ele>248.2</ele>
        <time>2021-05-20T06:07:05Z</time>
      </trkpt>
      <trkpt lat="47.16859" lon="4.9575">
        <ele>248.7</ele>
        <time>2021-05-20T06:07:12Z</time>
      </trkpt>
      <trkpt lat="47.16864" lon="4.95748">
        <ele>247.9</ele>
        <time>2021-05-20T06:07:16Z</time>
      </trkpt>
      <trkpt lat="47.16868" lon="4.95742">
        <ele>247.9</ele>
        <time>2021-05-20T06:07:18Z</time>
      </trkpt>
      <trkpt lat="47.16871" lon="4.95735">
        <ele>248.4</ele>
        <time>2021-05-20T06:07:21Z</time>
      </trkpt>
      <trkpt lat="47.16872" lon="4.95727">
        <ele>250.4</ele>
        <time>2021-05-20T06:07:27Z</time>
      </trkpt>
      <trkpt lat="47.16871" lon="4.95718">
        <ele>247.5</ele>
        <time>2021-05-20T06:07:31Z</time>
      </trkpt>
      <trkpt lat="47.16871" lon="4.95708">
        <ele>248.4</ele>
        <time>2021-05-20T06:07:35Z</time>
      </trkpt>
      <trkpt lat="47.16871" lon="4.95699">
        <ele>255.2</ele>
        <time>2021-05-20T06:07:38Z</time>
      </trkpt>
      <trkpt lat="47.1687" lon="4.95692">
        <ele>256.4</ele>
        <time>2021-05-20T06:07:46Z</time>
      </trkpt>
      <trkpt lat="47.1687" lon="4.95684">
        <ele>251.6</ele>
        <time>2021-05-20T06:07:50Z</time>
      </trkpt>
      <trkpt lat="47.16872" lon="4.95676">
        <ele>251.8</ele>
        <time>2021-05-20T06:07:53Z</time>
      </trkpt>
      <trkpt lat="47.16873" lon="4.95669">
        <ele>252.6</ele>
        <time>2021-05-20T06:07:59Z</time>
      </trkpt>
      <trkpt lat="47.16875" lon="4.9566">
        <ele>252.3</ele>
        <time>2021-05-20T06:08:06Z</time>
      </trkpt>
      <trkpt lat="47.16875" lon="4.95653">
        <ele>252</ele>
        <time>2021-05-20T06:08:09Z</time>
      </trkpt>
      <trkpt lat="47.16875" lon="4.95644">
        <ele>249.6</ele>
        <time>2021-05-20T06:08:12Z</time>
      </trkpt>
      <trkpt lat="47.16875" lon="4.95637">
        <ele>250.1</ele>
        <time>2021-05-20T06:08:18Z</time>
      </trkpt>
      <trkpt lat="47.16878" lon="4.95628">
        <ele>245.8</ele>
        <time>2021-05-20T06:08:24Z</time>
      </trkpt>
      <trkpt lat="47.16879" lon="4.95621">
        <ele>246.9</ele>
        <time>2021-05-20T06:08:28Z</time>
      </trkpt>
      <trkpt lat="47.16879" lon="4.95611">
        <ele>250.8</ele>
        <time>2021-05-20T06:08:34Z</time>
      </trkpt>
      <trkpt lat="47.16879" lon="4.95604">
        <ele>251.3</ele>
        <time>2021-05-20T06:08:37Z</time>
      </trkpt>
      <trkpt lat="47.1688" lon="4.95594">
        <ele>253.5</ele>
        <time>2021-05-20T06:08:42Z</time>
      </trkpt>
      <trkpt lat="47.16879" lon="4.95586">
        <ele>258.3</ele>
        <time>2021-05-20T06:08:48Z</time>
      </trkpt>
      <trkpt lat="47.1688" lon="4.95579">
        <ele>259.8</ele>
        <time>2021-05-20T06:08:51Z</time>
      </trkpt>
      <trkpt lat="47.1688" lon="4.95572">
        <ele>258.1</ele>
        <time>2021-05-20T06:08:54Z</time>
      </trkpt>
      <trkpt lat="47.16883" lon="4.95563">
        <ele>258</ele>
        <time>2021-05-20T06:08:58Z</time>
      </trkpt>
      <trkpt lat="47.16886" lon="4.95556">
        <ele>258</ele>
        <time>2021-05-20T06:09:05Z</time>
      </trkpt>
      <trkpt lat="47.16892" lon="4.95554">
        <ele>256.8</ele>
        <time>2021-05-20T06:09:09Z</time>
      </trkpt>
      <trkpt lat="47.16897" lon="4.95557">
        <ele>253.7</ele>
        <time>2021-05-20T06:09:14Z</time>
      </trkpt>
      <trkpt lat="47.16901" lon="4.95559">
        <ele>255.5</ele>
        <time>2021-05-20T06:09:20Z</time>
      </trkpt>
      <trkpt lat="47.16907" lon="4.9556">
        <ele>256.7</ele>
        <time>2021-05-20T06:09:24Z</time>
      </trkpt>
      <trkpt lat="47.16913" lon="4.95561">
        <ele>257.9</ele>
        <time>2021-05-20T06:09:27Z</time>
      </trkpt>
      <trkpt lat="47.16918" lon="4.9556">
        <ele>257.6</ele>
        <time>2021-05-20T06:09:30Z</time>
      </trkpt>
      <trkpt lat="47.16924" lon="4.95558">
        <ele>258.5</ele>
        <time>2021-05-20T06:09:37Z</time>
      </trkpt>
      <trkpt lat="47.1693" lon="4.95557">
        <ele>259</ele>
        <time>2021-05-20T06:09:41Z</time>
      </trkpt>
      <trkpt lat="47.16935" lon="4.95557">
        <ele>256.8</ele>
        <time>2021-05-20T06:09:44Z</time>
      </trkpt>
      <trkpt lat="47.16941" lon="4.95556">
        <ele>256.1</ele>
        <time>2021-05-20T06:09:50Z</time>
      </trkpt>
      <trkpt lat="47.16945" lon="4.95555">
        <ele>255.6</ele>
        <time>2021-05-20T06:09:53Z</time>
      </trkpt>
      <trkpt lat="47.1695" lon="4.95555">
        <ele>256.1</ele>
        <time>2021-05-20T06:09:55Z</time>
      </trkpt>
      <trkpt lat="47.16955" lon="4.95554">
        <ele>253.4</ele>
        <time>2021-05-20T06:10:02Z</time>
      </trkpt>
      <trkpt lat="47.1696" lon="4.95551">
        <ele>255</ele>
        <time>2021-05-20T06:10:06Z</time>
      </trkpt>
      <trkpt lat="47.16964" lon="4.95547">
        <ele>255.8</ele>
        <time>2021-05-20T06:10:08Z</time>
      </trkpt>
      <trkpt lat="47.16969" lon="4.95546">
        <ele>255.6</ele>
        <time>2021-05-20T06:10:10Z</time>
      </trkpt>
      <trkpt lat="47.16974" lon="4.95546">
        <ele>256</ele>
        <time>2021-05-20T06:10:13Z</time>
      </trkpt>
      <trkpt lat="47.16981" lon="4.9555">
        <ele>257.1</ele>
        <time>2021-05-20T06:10:22Z</time>
      </trkpt>
      <trkpt lat="47.16987" lon="4.95553">
        <ele>260.1</ele>
        <time>2021-05-20T06:10:26Z</time>
      </trkpt>
      <trkpt lat="47.16995" lon="4.95555">
        <ele>257.2</ele>
        <time>2021-05-20T06:10:29Z</time>
      </trkpt>
      <trkpt lat="47.17" lon="4.95556">
        <ele>255.7</ele>
        <time>2021-05-20T06:10:32Z</time>
      </trkpt>
      <trkpt lat="47.17005" lon="4.95558">
        <ele>252</ele>
        <time>2021-05-20T06:10:40Z</time>
      </trkpt>
      <trkpt lat="47.17011" lon="4.95561">
        <ele>255.6</ele>
        <time>2021-05-20T06:10:44Z</time>
      </trkpt>
      <trkpt lat="47.17017" lon="4.95562">
        <ele>255.4</ele>
        <time>2021-05-20T06:10:47Z</time>
      </trkpt>
      <trkpt lat="47.17022" lon="4.95562">
        <ele>254.6</ele>
        <time>2021-05-20T06:10:50Z</time>
      </trkpt>
      <trkpt lat="47.17026" lon="4.95559">
        <ele>253.8</ele>
        <time>2021-05-20T06:10:55Z</time>
      </trkpt>
      <trkpt lat="47.17031" lon="4.9556">
        <ele>250.9</ele>
        <time>2021-05-20T06:10:59Z</time>
      </trkpt>
      <trkpt lat="47.17037" lon="4.95562">
        <ele>253.8</ele>
        <time>2021-05-20T06:11:03Z</time>
      </trkpt>
      <trkpt lat="47.17041" lon="4.95564">
        <ele>253.7</ele>
        <time>2021-05-20T06:11:06Z</time>
      </trkpt>
      <trkpt lat="47.17046" lon="4.95564">
        <ele>249.6</ele>
        <time>2021-05-20T06:11:11Z</time>
      </trkpt>
      <trkpt lat="47.17051" lon="4.95563">
        <ele>250.1</ele>
        <time>2021-05-20T06:11:15Z</time>
      </trkpt>
      <trkpt lat="47.17057" lon="4.95561">
        <ele>250.7</ele>
        <time>2021-05-20T06:11:18Z</time>
      </trkpt>
      <trkpt lat="47.17062" lon="4.95562">
        <ele>252.3</ele>
        <time>2021-05-20T06:11:21Z</time>
      </trkpt>
      <trkpt lat="47.17067" lon="4.95561">
        <ele>252.5</ele>
        <time>2021-05-20T06:11:27Z</time>
      </trkpt>
      <trkpt lat="47.17071" lon="4.95558">
        <ele>253.5</ele>
        <time>2021-05-20T06:11:31Z</time>
      </trkpt>
      <trkpt lat="47.17077" lon="4.95556">
        <ele>254.3</ele>
        <time>2021-05-20T06:11:34Z</time>
      </trkpt>
      <trkpt lat="47.17082" lon="4.95552">
        <ele>255.5</ele>
        <time>2021-05-20T06:11:38Z</time>
      </trkpt>
      <trkpt lat="47.17086" lon="4.9555">
        <ele>257.9</ele>
        <time>2021-05-20T06:11:44Z</time>
      </trkpt>
      <trkpt lat="47.17093" lon="4.95545">
        <ele>257.3</ele>
        <time>2021-05-20T06:11:50Z</time>
      </trkpt>
      <trkpt lat="47.17098" lon="4.95541">
        <ele>256.2</ele>
        <time>2021-05-20T06:11:57Z</time>
      </trkpt>
      <trkpt lat="47.17102" lon="4.95538">
        <ele>254.8</ele>
        <time>2021-05-20T06:12:00Z</time>
      </trkpt>
      <trkpt lat="47.17107" lon="4.95534">
        <ele>256.8</ele>
        <time>2021-05-20T06:12:04Z</time>
      </trkpt>
      <trkpt lat="47.17112" lon="4.95531">
        <ele>255.3</ele>
        <time>2021-05-20T06:12:12Z</time>
      </trkpt>
      <trkpt lat="47.17117" lon="4.95529">
        <ele>254.6</ele>
        <time>2021-05-20T06:12:16Z</time>
      </trkpt>
      <trkpt lat="47.17121" lon="4.95524">
        <ele>252.2</ele>
        <time>2021-05-20T06:12:21Z</time>
      </trkpt>
      <trkpt lat="47.17125" lon="4.95519">
        <ele>250.7</ele>
        <time>2021-05-20T06:12:25Z</time>
      </trkpt>
      <trkpt lat="47.17129" lon="4.95516">
        <ele>249.7</ele>
        <time>2021-05-20T06:12:29Z</time>
      </trkpt>
      <trkpt lat="47.17133" lon="4.95513">
        <ele>250.6</ele>
        <time>2021-05-20T06:12:31Z</time>
      </trkpt>
      <trkpt lat="47.17138" lon="4.9551">
        <ele>255.4</ele>
        <time>2021-05-20T06:12:37Z</time>
      </trkpt>
      <trkpt lat="47.17142" lon="4.95506">
        <ele>253.3</ele>
        <time>2021-05-20T06:12:41Z</time>
      </trkpt>
      <trkpt lat="47.17146" lon="4.95502">
        <ele>253.4</ele>
        <time>2021-05-20T06:12:45Z</time>
      </trkpt>
      <trkpt lat="47.1715" lon="4.95498">
        <ele>256</ele>
        <time>2021-05-20T06:12:51Z</time>
      </trkpt>
      <trkpt lat="47.17155" lon="4.95495">
        <ele>258.1</ele>
        <time>2021-05-20T06:12:55Z</time>
      </trkpt>
      <trkpt lat="47.1716" lon="4.95491">
        <ele>254.1</ele>
        <time>2021-05-20T06:12:58Z</time>
      </trkpt>
      <trkpt lat="47.17165" lon="4.95488">
        <ele>253.7</ele>
        <time>2021-05-20T06:13:01Z</time>
      </trkpt>
      <trkpt lat="47.17169" lon="4.95483">
        <ele>253.7</ele>
        <time>2021-05-20T06:13:06Z</time>
      </trkpt>
      <trkpt lat="47.17175" lon="4.95478">
        <ele>254.4</ele>
        <time>2021-05-20T06:13:11Z</time>
      </trkpt>
      <trkpt lat="47.17179" lon="4.95473">
        <ele>253.5</ele>
        <time>2021-05-20T06:13:13Z</time>
      </trkpt>
      <trkpt lat="47.17184" lon="4.95468">
        <ele>254.7</ele>
        <time>2021-05-20T06:13:17Z</time>
      </trkpt>
      <trkpt lat="47.17188" lon="4.95463">
        <ele>256.7</ele>
        <time>2021-05-20T06:13:22Z</time>
      </trkpt>
      <trkpt lat="47.17192" lon="4.9546">
        <ele>256.6</ele>
        <time>2021-05-20T06:13:25Z</time>
      </trkpt>
      <trkpt lat="47.17198" lon="4.95456">
        <ele>256.7</ele>
        <time>2021-05-20T06:13:29Z</time>
      </trkpt>
      <trkpt lat="47.17203" lon="4.95454">
        <ele>259.5</ele>
        <time>2021-05-20T06:13:36Z</time>
      </trkpt>
      <trkpt lat="47.17208" lon="4.9545">
        <ele>258.2</ele>
        <time>2021-05-20T06:13:41Z</time>
      </trkpt>
      <trkpt lat="47.17213" lon="4.95446">
        <ele>258.4</ele>
        <time>2021-05-20T06:13:47Z</time>
      </trkpt>
      <trkpt lat="47.17217" lon="4.95443">
        <ele>257.8</ele>
        <time>2021-05-20T06:13:51Z</time>
      </trkpt>
      <trkpt lat="47.17222" lon="4.95434">
        <ele>259.5</ele>
        <time>2021-05-20T06:13:57Z</time>
      </trkpt>
      <trkpt lat="47.17225" lon="4.95428">
        <ele>258.7</ele>
        <time>2021-05-20T06:14:03Z</time>
      </trkpt>
      <trkpt lat="47.17228" lon="4.95423">
        <ele>260.9</ele>
        <time>2021-05-20T06:14:09Z</time>
      </trkpt>
      <trkpt lat="47.17232" lon="4.9542">
        <ele>260.1</ele>
        <time>2021-05-20T06:14:13Z</time>
      </trkpt>
      <trkpt lat="47.17237" lon="4.95415">
        <ele>262.4</ele>
        <time>2021-05-20T06:14:19Z</time>
      </trkpt>
      <trkpt lat="47.1724" lon="4.95409">
        <ele>262.8</ele>
        <time>2021-05-20T06:14:22Z</time>
      </trkpt>
      <trkpt lat="47.17243" lon="4.95401">
        <ele>261.6</ele>
        <time>2021-05-20T06:14:27Z</time>
      </trkpt>
      <trkpt lat="47.17245" lon="4.95393">
        <ele>261.8</ele>
        <time>2021-05-20T06:14:31Z</time>
      </trkpt>
      <trkpt lat="47.1725" lon="4.95388">
        <ele>262.3</ele>
        <time>2021-05-20T06:14:36Z</time>
      </trkpt>
      <trkpt lat="47.17253" lon="4.95383">
        <ele>261.6</ele>
        <time>2021-05-20T06:14:42Z</time>
      </trkpt>
      <trkpt lat="47.17257" lon="4.95378">
        <ele>263.2</ele>
        <time>2021-05-20T06:14:46Z</time>
      </trkpt>
      <trkpt lat="47.17262" lon="4.95373">
        <ele>261.2</ele>
        <time>2021-05-20T06:14:51Z</time>
      </trkpt>
      <trkpt lat="47.17265" lon="4.95368">
        <ele>261.3</ele>
        <time>2021-05-20T06:14:54Z</time>
      </trkpt>
      <trkpt lat="47.17268" lon="4.95362">
        <ele>262.5</ele>
        <time>2021-05-20T06:14:59Z</time>
      </trkpt>
      <trkpt lat="47.17273" lon="4.95358">
        <ele>265.2</ele>
        <time>2021-05-20T06:15:05Z</time>
      </trkpt>
      <trkpt lat="47.17279" lon="4.95355">
        <ele>263.5</ele>
        <time>2021-05-20T06:15:10Z</time>
      </trkpt>
      <trkpt lat="47.17284" lon="4.95353">
        <ele>260.5</ele>
        <time>2021-05-20T06:15:14Z</time>
      </trkpt>
      <trkpt lat="47.1729" lon="4.9535">
        <ele>261.6</ele>
        <time>2021-05-20T06:15:20Z</time>
      </trkpt>
      <trkpt lat="47.17296" lon="4.95346">
        <ele>262</ele>
        <time>2021-05-20T06:15:25Z</time>
      </trkpt>
      <trkpt lat="47.173" lon="4.95343">
        <ele>263.1</ele>
        <time>2021-05-20T06:15:29Z</time>
      </trkpt>
      <trkpt lat="47.17306" lon="4.9534">
        <ele>264.2</ele>
        <time>2021-05-20T06:15:33Z</time>
      </trkpt>
      <trkpt lat="47.1731" lon="4.95336">
        <ele>263.4</ele>
        <time>2021-05-20T06:15:37Z</time>
      </trkpt>
      <trkpt lat="47.17315" lon="4.95333">
        <ele>262.8</ele>
        <time>2021-05-20T06:15:41Z</time>
      </trkpt>
      <trkpt lat="47.1732" lon="4.95329">
        <ele>263.1</ele>
        <time>2021-05-20T06:15:45Z</time>
      </trkpt>
      <trkpt lat="47.17323" lon="4.95324">
        <ele>263.5</ele>
        <time>2021-05-20T06:15:48Z</time>
      </trkpt>
      <trkpt lat="47.17327" lon="4.95316">
        <ele>263.1</ele>
        <time>2021-05-20T06:15:52Z</time>
      </trkpt>
      <trkpt lat="47.1733" lon="4.95312">
        <ele>263</ele>
        <time>2021-05-20T06:15:56Z</time>
      </trkpt>
      <trkpt lat="47.1733" lon="4.95304">
        <ele>262.9</ele>
        <time>2021-05-20T06:16:00Z</time>
      </trkpt>
      <trkpt lat="47.17328" lon="4.95297">
        <ele>263.8</ele>
        <time>2021-05-20T06:16:04Z</time>
      </trkpt>
      <trkpt lat="47.17329" lon="4.95289">
        <ele>264.2</ele>
        <time>2021-05-20T06:16:08Z</time>
      </trkpt>
      <trkpt lat="47.17329" lon="4.95281">
        <ele>264.8</ele>
        <time>2021-05-20T06:16:14Z</time>
      </trkpt>
      <trkpt lat="47.17328" lon="4.95274">
        <ele>266.2</ele>
        <time>2021-05-20T06:16:18Z</time>
      </trkpt>
      <trkpt lat="47.17329" lon="4.95265">
        <ele>265.2</ele>
        <time>2021-05-20T06:16:23Z</time>
      </trkpt>
      <trkpt lat="47.17329" lon="4.95258">
        <ele>264.5</ele>
        <time>2021-05-20T06:16:27Z</time>
      </trkpt>
      <trkpt lat="47.17327" lon="4.95251">
        <ele>265.5</ele>
        <time>2021-05-20T06:16:31Z</time>
      </trkpt>
      <trkpt lat="47.17327" lon="4.95245">
        <ele>265.6</ele>
        <time>2021-05-20T06:16:34Z</time>
      </trkpt>
      <trkpt lat="47.17325" lon="4.95236">
        <ele>264.5</ele>
        <time>2021-05-20T06:16:40Z</time>
      </trkpt>
      <trkpt lat="47.17322" lon="4.95228">
        <ele>263.6</ele>
        <time>2021-05-20T06:16:45Z</time>
      </trkpt>
      <trkpt lat="47.17321" lon="4.95222">
        <ele>264.8</ele>
        <time>2021-05-20T06:16:48Z</time>
      </trkpt>
      <trkpt lat="47.17319" lon="4.95214">
        <ele>264.9</ele>
        <time>2021-05-20T06:16:52Z</time>
      </trkpt>
      <trkpt lat="47.17318" lon="4.95207">
        <ele>267.9</ele>
        <time>2021-05-20T06:16:56Z</time>
      </trkpt>
      <trkpt lat="47.17318" lon="4.95201">
        <ele>264.7</ele>
        <time>2021-05-20T06:17:00Z</time>
      </trkpt>
      <trkpt lat="47.17319" lon="4.95194">
        <ele>268.1</ele>
        <time>2021-05-20T06:17:04Z</time>
      </trkpt>
      <trkpt lat="47.1732" lon="4.95187">
        <ele>269.8</ele>
        <time>2021-05-20T06:17:08Z</time>
      </trkpt>
      <trkpt lat="47.1732" lon="4.95179">
        <ele>268.6</ele>
        <time>2021-05-20T06:17:13Z</time>
      </trkpt>
      <trkpt lat="47.1732" lon="4.9517">
        <ele>267.6</ele>
        <time>2021-05-20T06:17:18Z</time>
      </trkpt>
      <trkpt lat="47.17318" lon="4.95162">
        <ele>266.8</ele>
        <time>2021-05-20T06:17:23Z</time>
      </trkpt>
      <trkpt lat="47.17317" lon="4.95155">
        <ele>265.4</ele>
        <time>2021-05-20T06:17:26Z</time>
      </trkpt>
      <trkpt lat="47.17314" lon="4.95149">
        <ele>265.6</ele>
        <time>2021-05-20T06:17:30Z</time>
      </trkpt>
      <trkpt lat="47.1731" lon="4.95145">
        <ele>268.4</ele>
        <time>2021-05-20T06:17:35Z</time>
      </trkpt>
      <trkpt lat="47.17308" lon="4.95138">
        <ele>268.1</ele>
        <time>2021-05-20T06:17:38Z</time>
      </trkpt>
      <trkpt lat="47.17306" lon="4.95131">
        <ele>268.1</ele>
        <time>2021-05-20T06:17:44Z</time>
      </trkpt>
      <trkpt lat="47.17304" lon="4.95123">
        <ele>267.1</ele>
        <time>2021-05-20T06:17:48Z</time>
      </trkpt>
      <trkpt lat="47.17304" lon="4.95115">
        <ele>269.8</ele>
        <time>2021-05-20T06:17:52Z</time>
      </trkpt>
      <trkpt lat="47.17305" lon="4.95106">
        <ele>272.2</ele>
        <time>2021-05-20T06:17:57Z</time>
      </trkpt>
      <trkpt lat="47.17306" lon="4.95097">
        <ele>270.3</ele>
        <time>2021-05-20T06:18:01Z</time>
      </trkpt>
      <trkpt lat="47.17307" lon="4.95088">
        <ele>271</ele>
        <time>2021-05-20T06:18:06Z</time>
      </trkpt>
      <trkpt lat="47.17308" lon="4.95081">
        <ele>268.9</ele>
        <time>2021-05-20T06:18:10Z</time>
      </trkpt>
      <trkpt lat="47.1731" lon="4.95074">
        <ele>269.1</ele>
        <time>2021-05-20T06:18:15Z</time>
      </trkpt>
      <trkpt lat="47.17312" lon="4.95068">
        <ele>269.3</ele>
        <time>2021-05-20T06:18:18Z</time>
      </trkpt>
      <trkpt lat="47.17314" lon="4.95061">
        <ele>268.4</ele>
        <time>2021-05-20T06:18:21Z</time>
      </trkpt>
      <trkpt lat="47.17316" lon="4.95053">
        <ele>270.3</ele>
        <time>2021-05-20T06:18:27Z</time>
      </trkpt>
      <trkpt lat="47.17318" lon="4.95045">
        <ele>269</ele>
        <time>2021-05-20T06:18:30Z</time>
      </trkpt>
      <trkpt lat="47.17318" lon="4.95038">
        <ele>272</ele>
        <time>2021-05-20T06:18:35Z</time>
      </trkpt>
      <trkpt lat="47.17319" lon="4.95029">
        <ele>272.1</ele>
        <time>2021-05-20T06:18:40Z</time>
      </trkpt>
      <trkpt lat="47.1732" lon="4.95022">
        <ele>271.3</ele>
        <time>2021-05-20T06:18:43Z</time>
      </trkpt>
      <trkpt lat="47.17319" lon="4.95012">
        <ele>269.2</ele>
        <time>2021-05-20T06:18:50Z</time>
      </trkpt>
      <trkpt lat="47.17319" lon="4.95006">
        <ele>270.2</ele>
        <time>2021-05-20T06:18:52Z</time>
      </trkpt>
      <trkpt lat="47.17317" lon="4.94998">
        <ele>271.8</ele>
        <time>2021-05-20T06:18:58Z</time>
      </trkpt>
      <trkpt lat="47.17317" lon="4.94989">
        <ele>269.9</ele>
        <time>2021-05-20T06:19:03Z</time>
      </trkpt>
      <trkpt lat="47.1732" lon="4.94981">
        <ele>269.4</ele>
        <time>2021-05-20T06:19:06Z</time>
      </trkpt>
      <trkpt lat="47.17324" lon="4.94977">
        <ele>268.8</ele>
        <time>2021-05-20T06:19:14Z</time>
      </trkpt>
      <trkpt lat="47.17326" lon="4.9497">
        <ele>269.4</ele>
        <time>2021-05-20T06:19:16Z</time>
      </trkpt>
      <trkpt lat="47.17328" lon="4.94962">
        <ele>267.7</ele>
        <time>2021-05-20T06:19:19Z</time>
      </trkpt>
      <trkpt lat="47.1733" lon="4.94956">
        <ele>270</ele>
        <time>2021-05-20T06:19:24Z</time>
      </trkpt>
      <trkpt lat="47.17334" lon="4.94949">
        <ele>263.5</ele>
        <time>2021-05-20T06:19:27Z</time>
      </trkpt>
      <trkpt lat="47.17337" lon="4.94944">
        <ele>266.2</ele>
        <time>2021-05-20T06:19:30Z</time>
      </trkpt>
      <trkpt lat="47.1734" lon="4.94937">
        <ele>269.7</ele>
        <time>2021-05-20T06:19:35Z</time>
      </trkpt>
      <trkpt lat="47.17345" lon="4.94931">
        <ele>272.9</ele>
        <time>2021-05-20T06:19:39Z</time>
      </trkpt>
      <trkpt lat="47.1735" lon="4.94922">
        <ele>273.6</ele>
        <time>2021-05-20T06:19:44Z</time>
      </trkpt>
      <trkpt lat="47.17353" lon="4.94916">
        <ele>272.9</ele>
        <time>2021-05-20T06:19:49Z</time>
      </trkpt>
      <trkpt lat="47.17354" lon="4.94909">
        <ele>271.3</ele>
        <time>2021-05-20T06:19:53Z</time>
      </trkpt>
      <trkpt lat="47.17356" lon="4.94901">
        <ele>271.1</ele>
        <time>2021-05-20T06:19:57Z</time>
      </trkpt>
      <trkpt lat="47.17359" lon="4.94894">
        <ele>270.5</ele>
        <time>2021-05-20T06:20:04Z</time>
      </trkpt>
      <trkpt lat="47.1736" lon="4.94885">
        <ele>270.9</ele>
        <time>2021-05-20T06:20:08Z</time>
      </trkpt>
      <trkpt lat="47.17361" lon="4.94877">
        <ele>269.2</ele>
        <time>2021-05-20T06:20:13Z</time>
      </trkpt>
      <trkpt lat="47.17361" lon="4.9487">
        <ele>268.9</ele>
        <time>2021-05-20T06:20:17Z</time>
      </trkpt>
      <trkpt lat="47.17362" lon="4.94862">
        <ele>263</ele>
        <time>2021-05-20T06:20:22Z</time>
      </trkpt>
      <trkpt lat="47.17362" lon="4.94855">
        <ele>265.7</ele>
        <time>2021-05-20T06:20:26Z</time>
      </trkpt>
      <trkpt lat="47.17363" lon="4.94847">
        <ele>267.3</ele>
        <time>2021-05-20T06:20:31Z</time>
      </trkpt>
      <trkpt lat="47.17362" lon="4.9484">
        <ele>268.9</ele>
        <time>2021-05-20T06:20:41Z</time>
      </trkpt>
      <trkpt lat="47.17364" lon="4.9483">
        <ele>272.9</ele>
        <time>2021-05-20T06:20:46Z</time>
      </trkpt>
      <trkpt lat="47.17363" lon="4.94823">
        <ele>273.5</ele>
        <time>2021-05-20T06:20:50Z</time>
      </trkpt>
      <trkpt lat="47.17362" lon="4.94814">
        <ele>275.6</ele>
        <time>2021-05-20T06:20:54Z</time>
      </trkpt>
      <trkpt lat="47.17362" lon="4.94807">
        <ele>276.2</ele>
        <time>2021-05-20T06:20:57Z</time>
      </trkpt>
      <trkpt lat="47.17364" lon="4.94798">
        <ele>275.8</ele>
        <time>2021-05-20T06:21:03Z</time>
      </trkpt>
      <trkpt lat="47.17364" lon="4.94791">
        <ele>277.1</ele>
        <time>2021-05-20T06:21:07Z</time>
      </trkpt>
      <trkpt lat="47.17363" lon="4.94783">
        <ele>274.4</ele>
        <time>2021-05-20T06:21:12Z</time>
      </trkpt>
      <trkpt lat="47.17362" lon="4.94775">
        <ele>277.1</ele>
        <time>2021-05-20T06:21:18Z</time>
      </trkpt>
      <trkpt lat="47.17361" lon="4.94766">
        <ele>278.5</ele>
        <time>2021-05-20T06:21:23Z</time>
      </trkpt>
      <trkpt lat="47.17358" lon="4.94757">
        <ele>275.4</ele>
        <time>2021-05-20T06:21:26Z</time>
      </trkpt>
      <trkpt lat="47.1736" lon="4.94751">
        <ele>277.7</ele>
        <time>2021-05-20T06:21:32Z</time>
      </trkpt>
      <trkpt lat="47.1736" lon="4.94742">
        <ele>276.6</ele>
        <time>2021-05-20T06:21:38Z</time>
      </trkpt>
      <trkpt lat="47.17358" lon="4.94735">
        <ele>277.5</ele>
        <time>2021-05-20T06:21:41Z</time>
      </trkpt>
      <trkpt lat="47.17359" lon="4.94727">
        <ele>277.1</ele>
        <time>2021-05-20T06:21:45Z</time>
      </trkpt>
      <trkpt lat="47.17357" lon="4.9472">
        <ele>276.9</ele>
        <time>2021-05-20T06:21:48Z</time>
      </trkpt>
      <trkpt lat="47.17357" lon="4.94713">
        <ele>277.9</ele>
        <time>2021-05-20T06:21:51Z</time>
      </trkpt>
      <trkpt lat="47.17358" lon="4.94704">
        <ele>277.7</ele>
        <time>2021-05-20T06:21:57Z</time>
      </trkpt>
      <trkpt lat="47.17357" lon="4.94697">
        <ele>277.2</ele>
        <time>2021-05-20T06:22:00Z</time>
      </trkpt>
      <trkpt lat="47.17356" lon="4.94689">
        <ele>279.1</ele>
        <time>2021-05-20T06:22:06Z</time>
      </trkpt>
      <trkpt lat="47.17356" lon="4.94682">
        <ele>277.9</ele>
        <time>2021-05-20T06:22:12Z</time>
      </trkpt>
      <trkpt lat="47.17357" lon="4.94675">
        <ele>274.8</ele>
        <time>2021-05-20T06:22:15Z</time>
      </trkpt>
      <trkpt lat="47.17357" lon="4.94667">
        <ele>276.2</ele>
        <time>2021-05-20T06:22:19Z</time>
      </trkpt>
      <trkpt lat="47.17357" lon="4.94659">
        <ele>270.2</ele>
        <time>2021-05-20T06:22:25Z</time>
      </trkpt>
      <trkpt lat="47.17358" lon="4.9465">
        <ele>274</ele>
        <time>2021-05-20T06:22:29Z</time>
      </trkpt>
      <trkpt lat="47.17359" lon="4.94643">
        <ele>276.6</ele>
        <time>2021-05-20T06:22:34Z</time>
      </trkpt>
      <trkpt lat="47.17359" lon="4.94636">
        <ele>279.5</ele>
        <time>2021-05-20T06:22:37Z</time>
      </trkpt>
      <trkpt lat="47.17358" lon="4.94628">
        <ele>261.2</ele>
        <time>2021-05-20T06:22:42Z</time>
      </trkpt>
      <trkpt lat="47.17357" lon="4.9462">
        <ele>274.4</ele>
        <time>2021-05-20T06:22:47Z</time>
      </trkpt>
      <trkpt lat="47.17357" lon="4.94613">
        <ele>278.2</ele>
        <time>2021-05-20T06:22:50Z</time>
      </trkpt>
      <trkpt lat="47.17358" lon="4.94605">
        <ele>279.2</ele>
        <time>2021-05-20T06:22:53Z</time>
      </trkpt>
      <trkpt lat="47.17359" lon="4.94597">
        <ele>278.5</ele>
        <time>2021-05-20T06:22:58Z</time>
      </trkpt>
      <trkpt lat="47.1736" lon="4.9459">
        <ele>278.6</ele>
        <time>2021-05-20T06:23:02Z</time>
      </trkpt>
      <trkpt lat="47.17361" lon="4.94583">
        <ele>275.3</ele>
        <time>2021-05-20T06:23:07Z</time>
      </trkpt>
      <trkpt lat="47.1736" lon="4.94575">
        <ele>274.5</ele>
        <time>2021-05-20T06:23:11Z</time>
      </trkpt>
      <trkpt lat="47.1736" lon="4.94566">
        <ele>275.1</ele>
        <time>2021-05-20T06:23:14Z</time>
      </trkpt>
      <trkpt lat="47.17357" lon="4.94559">
        <ele>275.2</ele>
        <time>2021-05-20T06:23:22Z</time>
      </trkpt>
      <trkpt lat="47.17355" lon="4.94552">
        <ele>272.8</ele>
        <time>2021-05-20T06:23:25Z</time>
      </trkpt>
      <trkpt lat="47.17353" lon="4.94546">
        <ele>273.8</ele>
        <time>2021-05-20T06:23:30Z</time>
      </trkpt>
      <trkpt lat="47.17352" lon="4.94539">
        <ele>274</ele>
        <time>2021-05-20T06:23:33Z</time>
      </trkpt>
      <trkpt lat="47.17354" lon="4.9453">
        <ele>275.2</ele>
        <time>2021-05-20T06:23:38Z</time>
      </trkpt>
      <trkpt lat="47.17355" lon="4.94523">
        <ele>274.9</ele>
        <time>2021-05-20T06:23:42Z</time>
      </trkpt>
      <trkpt lat="47.17354" lon="4.94516">
        <ele>276.1</ele>
        <time>2021-05-20T06:23:46Z</time>
      </trkpt>
      <trkpt lat="47.17358" lon="4.94512">
        <ele>278</ele>
        <time>2021-05-20T06:23:53Z</time>
      </trkpt>
      <trkpt lat="47.17361" lon="4.94504">
        <ele>276.7</ele>
        <time>2021-05-20T06:23:57Z</time>
      </trkpt>
      <trkpt lat="47.17364" lon="4.94497">
        <ele>239</ele>
        <time>2021-05-20T06:24:00Z</time>
      </trkpt>
      <trkpt lat="47.17366" lon="4.94491">
        <ele>260.3</ele>
        <time>2021-05-20T06:24:03Z</time>
      </trkpt>
      <trkpt lat="47.17367" lon="4.94483">
        <ele>272.2</ele>
        <time>2021-05-20T06:24:09Z</time>
      </trkpt>
      <trkpt lat="47.17367" lon="4.94477">
        <ele>272.9</ele>
        <time>2021-05-20T06:24:11Z</time>
      </trkpt>
      <trkpt lat="47.17367" lon="4.94468">
        <ele>274.4</ele>
        <time>2021-05-20T06:24:16Z</time>
      </trkpt>
      <trkpt lat="47.17368" lon="4.9446">
        <ele>278</ele>
        <time>2021-05-20T06:24:21Z</time>
      </trkpt>
      <trkpt lat="47.17369" lon="4.94454">
        <ele>276.1</ele>
        <time>2021-05-20T06:24:25Z</time>
      </trkpt>
      <trkpt lat="47.17371" lon="4.94446">
        <ele>275.6</ele>
        <time>2021-05-20T06:24:33Z</time>
      </trkpt>
      <trkpt lat="47.17371" lon="4.94438">
        <ele>282.4</ele>
        <time>2021-05-20T06:24:38Z</time>
      </trkpt>
      <trkpt lat="47.17371" lon="4.94431">
        <ele>279.5</ele>
        <time>2021-05-20T06:24:43Z</time>
      </trkpt>
      <trkpt lat="47.17369" lon="4.94421">
        <ele>279</ele>
        <time>2021-05-20T06:24:48Z</time>
      </trkpt>
      <trkpt lat="47.17368" lon="4.94413">
        <ele>277.1</ele>
        <time>2021-05-20T06:24:52Z</time>
      </trkpt>
      <trkpt lat="47.17367" lon="4.94404">
        <ele>278.8</ele>
        <time>2021-05-20T06:24:56Z</time>
      </trkpt>
      <trkpt lat="47.17372" lon="4.94401">
        <ele>280</ele>
        <time>2021-05-20T06:25:01Z</time>
      </trkpt>
      <trkpt lat="47.17373" lon="4.94392">
        <ele>282.4</ele>
        <time>2021-05-20T06:25:06Z</time>
      </trkpt>
      <trkpt lat="47.17374" lon="4.94386">
        <ele>283.3</ele>
        <time>2021-05-20T06:25:10Z</time>
      </trkpt>
      <trkpt lat="47.17373" lon="4.94377">
        <ele>285.7</ele>
        <time>2021-05-20T06:25:14Z</time>
      </trkpt>
      <trkpt lat="47.17374" lon="4.94369">
        <ele>283.2</ele>
        <time>2021-05-20T06:25:19Z</time>
      </trkpt>
      <trkpt lat="47.17377" lon="4.94364">
        <ele>284.1</ele>
        <time>2021-05-20T06:25:23Z</time>
      </trkpt>
      <trkpt lat="47.17379" lon="4.94357">
        <ele>286.1</ele>
        <time>2021-05-20T06:25:30Z</time>
      </trkpt>
      <trkpt lat="47.17379" lon="4.94348">
        <ele>283</ele>
        <time>2021-05-20T06:25:35Z</time>
      </trkpt>
      <trkpt lat="47.17378" lon="4.9434">
        <ele>284.3</ele>
        <time>2021-05-20T06:25:38Z</time>
      </trkpt>
      <trkpt lat="47.17379" lon="4.94332">
        <ele>280.7</ele>
        <time>2021-05-20T06:25:43Z</time>
      </trkpt>
      <trkpt lat="47.17382" lon="4.94326">
        <ele>277.5</ele>
        <time>2021-05-20T06:25:46Z</time>
      </trkpt>
      <trkpt lat="47.17389" lon="4.94324">
        <ele>276.3</ele>
        <time>2021-05-20T06:25:50Z</time>
      </trkpt>
      <trkpt lat="47.17391" lon="4.94317">
        <ele>274.1</ele>
        <time>2021-05-20T06:25:54Z</time>
      </trkpt>
      <trkpt lat="47.17393" lon="4.94312">
        <ele>277.8</ele>
        <time>2021-05-20T06:25:58Z</time>
      </trkpt>
      <trkpt lat="47.17397" lon="4.94304">
        <ele>276.8</ele>
        <time>2021-05-20T06:26:02Z</time>
      </trkpt>
      <trkpt lat="47.17401" lon="4.94298">
        <ele>277.4</ele>
        <time>2021-05-20T06:26:05Z</time>
      </trkpt>
      <trkpt lat="47.17405" lon="4.94292">
        <ele>279.5</ele>
        <time>2021-05-20T06:26:10Z</time>
      </trkpt>
      <trkpt lat="47.17408" lon="4.94287">
        <ele>279.7</ele>
        <time>2021-05-20T06:26:15Z</time>
      </trkpt>
      <trkpt lat="47.1741" lon="4.94281">
        <ele>280.1</ele>
        <time>2021-05-20T06:26:20Z</time>
      </trkpt>
      <trkpt lat="47.17414" lon="4.94275">
        <ele>281.3</ele>
        <time>2021-05-20T06:26:25Z</time>
      </trkpt>
      <trkpt lat="47.17418" lon="4.94271">
        <ele>250.2</ele>
        <time>2021-05-20T06:26:30Z</time>
      </trkpt>
      <trkpt lat="47.17421" lon="4.94266">
        <ele>269.8</ele>
        <time>2021-05-20T06:26:35Z</time>
      </trkpt>
      <trkpt lat="47.1742" lon="4.94259">
        <ele>276.8</ele>
        <time>2021-05-20T06:26:39Z</time>
      </trkpt>
      <trkpt lat="47.17418" lon="4.94251">
        <ele>281.5</ele>
        <time>2021-05-20T06:26:43Z</time>
      </trkpt>
      <trkpt lat="47.17422" lon="4.94245">
        <ele>288</ele>
        <time>2021-05-20T06:26:49Z</time>
      </trkpt>
      <trkpt lat="47.17427" lon="4.9424">
        <ele>288.9</ele>
        <time>2021-05-20T06:26:54Z</time>
      </trkpt>
      <trkpt lat="47.1743" lon="4.94234">
        <ele>290.7</ele>
        <time>2021-05-20T06:26:59Z</time>
      </trkpt>
      <trkpt lat="47.17434" lon="4.9423">
        <ele>291.5</ele>
        <time>2021-05-20T06:27:04Z</time>
      </trkpt>
      <trkpt lat="47.17438" lon="4.94225">
        <ele>294</ele>
        <time>2021-05-20T06:27:09Z</time>
      </trkpt>
      <trkpt lat="47.17442" lon="4.94221">
        <ele>295.3</ele>
        <time>2021-05-20T06:27:15Z</time>
      </trkpt>
      <trkpt lat="47.17447" lon="4.94217">
        <ele>298.6</ele>
        <time>2021-05-20T06:27:20Z</time>
      </trkpt>
      <trkpt lat="47.17453" lon="4.94214">
        <ele>298.9</ele>
        <time>2021-05-20T06:27:24Z</time>
      </trkpt>
      <trkpt lat="47.17457" lon="4.94213">
        <ele>300.9</ele>
        <time>2021-05-20T06:27:29Z</time>
      </trkpt>
      <trkpt lat="47.17463" lon="4.94211">
        <ele>303.3</ele>
        <time>2021-05-20T06:27:33Z</time>
      </trkpt>
      <trkpt lat="47.17467" lon="4.94209">
        <ele>303.7</ele>
        <time>2021-05-20T06:27:38Z</time>
      </trkpt>
      <trkpt lat="47.17472" lon="4.94204">
        <ele>305.4</ele>
        <time>2021-05-20T06:27:44Z</time>
      </trkpt>
      <trkpt lat="47.17478" lon="4.94202">
        <ele>306.4</ele>
        <time>2021-05-20T06:27:49Z</time>
      </trkpt>
      <trkpt lat="47.17483" lon="4.94201">
        <ele>308</ele>
        <time>2021-05-20T06:27:54Z</time>
      </trkpt>
      <trkpt lat="47.17493" lon="4.94185">
        <ele>266.2</ele>
        <time>2021-05-20T06:28:06Z</time>
      </trkpt>
      <trkpt lat="47.17497" lon="4.9418">
        <ele>290.2</ele>
        <time>2021-05-20T06:28:10Z</time>
      </trkpt>
      <trkpt lat="47.175" lon="4.94175">
        <ele>297.5</ele>
        <time>2021-05-20T06:28:15Z</time>
      </trkpt>
      <trkpt lat="47.17504" lon="4.94169">
        <ele>302.1</ele>
        <time>2021-05-20T06:28:21Z</time>
      </trkpt>
      <trkpt lat="47.17508" lon="4.94165">
        <ele>306.1</ele>
        <time>2021-05-20T06:28:27Z</time>
      </trkpt>
      <trkpt lat="47.17511" lon="4.9416">
        <ele>304.9</ele>
        <time>2021-05-20T06:28:32Z</time>
      </trkpt>
      <trkpt lat="47.17515" lon="4.94154">
        <ele>304.9</ele>
        <time>2021-05-20T06:28:36Z</time>
      </trkpt>
      <trkpt lat="47.17519" lon="4.94148">
        <ele>307.8</ele>
        <time>2021-05-20T06:28:40Z</time>
      </trkpt>
      <trkpt lat="47.17523" lon="4.94144">
        <ele>307</ele>
        <time>2021-05-20T06:28:44Z</time>
      </trkpt>
      <trkpt lat="47.17527" lon="4.94139">
        <ele>301.1</ele>
        <time>2021-05-20T06:28:48Z</time>
      </trkpt>
      <trkpt lat="47.17542" lon="4.94129">
        <ele>298.8</ele>
        <time>2021-05-20T06:28:59Z</time>
      </trkpt>
      <trkpt lat="47.17546" lon="4.94125">
        <ele>297.6</ele>
        <time>2021-05-20T06:29:04Z</time>
      </trkpt>
      <trkpt lat="47.1755" lon="4.9412">
        <ele>298.4</ele>
        <time>2021-05-20T06:29:09Z</time>
      </trkpt>
      <trkpt lat="47.17554" lon="4.94114">
        <ele>303.5</ele>
        <time>2021-05-20T06:29:14Z</time>
      </trkpt>
      <trkpt lat="47.17558" lon="4.9411">
        <ele>304.1</ele>
        <time>2021-05-20T06:29:18Z</time>
      </trkpt>
      <trkpt lat="47.17562" lon="4.941">
        <ele>307.2</ele>
        <time>2021-05-20T06:29:22Z</time>
      </trkpt>
      <trkpt lat="47.17566" lon="4.94093">
        <ele>308.3</ele>
        <time>2021-05-20T06:29:27Z</time>
      </trkpt>
      <trkpt lat="47.17569" lon="4.94088">
        <ele>308</ele>
        <time>2021-05-20T06:29:30Z</time>
      </trkpt>
      <trkpt lat="47.17572" lon="4.94082">
        <ele>312.2</ele>
        <time>2021-05-20T06:29:35Z</time>
      </trkpt>
      <trkpt lat="47.17574" lon="4.94076">
        <ele>310.6</ele>
        <time>2021-05-20T06:29:39Z</time>
      </trkpt>
      <trkpt lat="47.17576" lon="4.94069">
        <ele>308.5</ele>
        <time>2021-05-20T06:29:43Z</time>
      </trkpt>
      <trkpt lat="47.17579" lon="4.94062">
        <ele>307.6</ele>
        <time>2021-05-20T06:29:48Z</time>
      </trkpt>
      <trkpt lat="47.17581" lon="4.94055">
        <ele>307.8</ele>
        <time>2021-05-20T06:29:51Z</time>
      </trkpt>
      <trkpt lat="47.17582" lon="4.94048">
        <ele>305.9</ele>
        <time>2021-05-20T06:29:57Z</time>
      </trkpt>
      <trkpt lat="47.17586" lon="4.94033">
        <ele>307.3</ele>
        <time>2021-05-20T06:30:06Z</time>
      </trkpt>
      <trkpt lat="47.17588" lon="4.94027">
        <ele>310.3</ele>
        <time>2021-05-20T06:30:10Z</time>
      </trkpt>
      <trkpt lat="47.1759" lon="4.9402">
        <ele>310.2</ele>
        <time>2021-05-20T06:30:15Z</time>
      </trkpt>
      <trkpt lat="47.17592" lon="4.94013">
        <ele>310.4</ele>
        <time>2021-05-20T06:30:21Z</time>
      </trkpt>
      <trkpt lat="47.17595" lon="4.94007">
        <ele>310.5</ele>
        <time>2021-05-20T06:30:26Z</time>
      </trkpt>
      <trkpt lat="47.17598" lon="4.94002">
        <ele>310.5</ele>
        <time>2021-05-20T06:30:31Z</time>
      </trkpt>
      <trkpt lat="47.17601" lon="4.93996">
        <ele>311.8</ele>
        <time>2021-05-20T06:30:36Z</time>
      </trkpt>
      <trkpt lat="47.17606" lon="4.94001">
        <ele>312.4</ele>
        <time>2021-05-20T06:30:44Z</time>
      </trkpt>
      <trkpt lat="47.17604" lon="4.94007">
        <ele>314</ele>
        <time>2021-05-20T06:30:54Z</time>
      </trkpt>
      <trkpt lat="47.17599" lon="4.94007">
        <ele>311.6</ele>
        <time>2021-05-20T06:31:01Z</time>
      </trkpt>
      <trkpt lat="47.17595" lon="4.94009">
        <ele>313.9</ele>
        <time>2021-05-20T06:31:37Z</time>
      </trkpt>
      <trkpt lat="47.17599" lon="4.94007">
        <ele>317.1</ele>
        <time>2021-05-20T06:32:12Z</time>
      </trkpt>
      <trkpt lat="47.17604" lon="4.94011">
        <ele>314.7</ele>
        <time>2021-05-20T06:32:20Z</time>
      </trkpt>
      <trkpt lat="47.17609" lon="4.94014">
        <ele>313.3</ele>
        <time>2021-05-20T06:32:27Z</time>
      </trkpt>
      <trkpt lat="47.17611" lon="4.9402">
        <ele>313.6</ele>
        <time>2021-05-20T06:32:34Z</time>
      </trkpt>
      <trkpt lat="47.17613" lon="4.94026">
        <ele>318.9</ele>
        <time>2021-05-20T06:33:36Z</time>
      </trkpt>
      <trkpt lat="47.17615" lon="4.94032">
        <ele>318.5</ele>
        <time>2021-05-20T06:33:49Z</time>
      </trkpt>
      <trkpt lat="47.1762" lon="4.94037">
        <ele>320.6</ele>
        <time>2021-05-20T06:34:00Z</time>
      </trkpt>
      <trkpt lat="47.17624" lon="4.94042">
        <ele>323.2</ele>
        <time>2021-05-20T06:34:16Z</time>
      </trkpt>
      <trkpt lat="47.17628" lon="4.94042">
        <ele>329.9</ele>
        <time>2021-05-20T06:34:34Z</time>
      </trkpt>
      <trkpt lat="47.17633" lon="4.94043">
        <ele>326.4</ele>
        <time>2021-05-20T06:35:08Z</time>
      </trkpt>
      <trkpt lat="47.17637" lon="4.94042">
        <ele>332.7</ele>
        <time>2021-05-20T06:35:21Z</time>
      </trkpt>
      <trkpt lat="47.17642" lon="4.94041">
        <ele>330.8</ele>
        <time>2021-05-20T06:35:29Z</time>
      </trkpt>
      <trkpt lat="47.17647" lon="4.94039">
        <ele>331.9</ele>
        <time>2021-05-20T06:35:59Z</time>
      </trkpt>
      <trkpt lat="47.17648" lon="4.94046">
        <ele>336.2</ele>
        <time>2021-05-20T06:36:08Z</time>
      </trkpt>
      <trkpt lat="47.17648" lon="4.94053">
        <ele>336.6</ele>
        <time>2021-05-20T06:36:19Z</time>
      </trkpt>
      <trkpt lat="47.17651" lon="4.94058">
        <ele>341.3</ele>
        <time>2021-05-20T06:36:50Z</time>
      </trkpt>
      <trkpt lat="47.17655" lon="4.94063">
        <ele>340.5</ele>
        <time>2021-05-20T06:37:08Z</time>
      </trkpt>
      <trkpt lat="47.17658" lon="4.94069">
        <ele>332</ele>
        <time>2021-05-20T06:37:15Z</time>
      </trkpt>
      <trkpt lat="47.17661" lon="4.94074">
        <ele>335.7</ele>
        <time>2021-05-20T06:37:22Z</time>
      </trkpt>
      <trkpt lat="47.17665" lon="4.94076">
        <ele>339</ele>
        <time>2021-05-20T06:37:32Z</time>
      </trkpt>
      <trkpt lat="47.17668" lon="4.94082">
        <ele>342</ele>
        <time>2021-05-20T06:37:52Z</time>
      </trkpt>
      <trkpt lat="47.1767" lon="4.94088">
        <ele>335.8</ele>
        <time>2021-05-20T06:38:00Z</time>
      </trkpt>
      <trkpt lat="47.17675" lon="4.94088">
        <ele>345.5</ele>
        <time>2021-05-20T06:38:36Z</time>
      </trkpt>
      <trkpt lat="47.17679" lon="4.94092">
        <ele>339.3</ele>
        <time>2021-05-20T06:38:50Z</time>
      </trkpt>
      <trkpt lat="47.17682" lon="4.94099">
        <ele>358.4</ele>
        <time>2021-05-20T06:39:06Z</time>
      </trkpt>
      <trkpt lat="47.17683" lon="4.94107">
        <ele>356</ele>
        <time>2021-05-20T06:39:15Z</time>
      </trkpt>
      <trkpt lat="47.17683" lon="4.94114">
        <ele>360.2</ele>
        <time>2021-05-20T06:39:21Z</time>
      </trkpt>
      <trkpt lat="47.17686" lon="4.94121">
        <ele>361.5</ele>
        <time>2021-05-20T06:39:43Z</time>
      </trkpt>
      <trkpt lat="47.17688" lon="4.94128">
        <ele>359.9</ele>
        <time>2021-05-20T06:39:52Z</time>
      </trkpt>
      <trkpt lat="47.1769" lon="4.94134">
        <ele>360.8</ele>
        <time>2021-05-20T06:40:09Z</time>
      </trkpt>
      <trkpt lat="47.17693" lon="4.94138">
        <ele>365</ele>
        <time>2021-05-20T06:40:20Z</time>
      </trkpt>
      <trkpt lat="47.17693" lon="4.94145">
        <ele>363.6</ele>
        <time>2021-05-20T06:40:40Z</time>
      </trkpt>
      <trkpt lat="47.17697" lon="4.94149">
        <ele>366.9</ele>
        <time>2021-05-20T06:41:05Z</time>
      </trkpt>
      <trkpt lat="47.17702" lon="4.9415">
        <ele>368.8</ele>
        <time>2021-05-20T06:41:12Z</time>
      </trkpt>
      <trkpt lat="47.17706" lon="4.94148">
        <ele>373.4</ele>
        <time>2021-05-20T06:41:25Z</time>
      </trkpt>
      <trkpt lat="47.17711" lon="4.94148">
        <ele>373</ele>
        <time>2021-05-20T06:41:50Z</time>
      </trkpt>
      <trkpt lat="47.17716" lon="4.9415">
        <ele>374.6</ele>
        <time>2021-05-20T06:41:57Z</time>
      </trkpt>
      <trkpt lat="47.1772" lon="4.94152">
        <ele>375</ele>
        <time>2021-05-20T06:42:18Z</time>
      </trkpt>
      <trkpt lat="47.17726" lon="4.94152">
        <ele>379.7</ele>
        <time>2021-05-20T06:42:30Z</time>
      </trkpt>
      <trkpt lat="47.1773" lon="4.9415">
        <ele>381.2</ele>
        <time>2021-05-20T06:42:41Z</time>
      </trkpt>
      <trkpt lat="47.17735" lon="4.94152">
        <ele>381.7</ele>
        <time>2021-05-20T06:43:35Z</time>
      </trkpt>
      <trkpt lat="47.17739" lon="4.94149">
        <ele>383.3</ele>
        <time>2021-05-20T06:43:41Z</time>
      </trkpt>
      <trkpt lat="47.17744" lon="4.94151">
        <ele>383.4</ele>
        <time>2021-05-20T06:43:49Z</time>
      </trkpt>
      <trkpt lat="47.17748" lon="4.94155">
        <ele>383.5</ele>
        <time>2021-05-20T06:43:54Z</time>
      </trkpt>
      <trkpt lat="47.17753" lon="4.94159">
        <ele>385.1</ele>
        <time>2021-05-20T06:44:18Z</time>
      </trkpt>
      <trkpt lat="47.17757" lon="4.94159">
        <ele>385.4</ele>
        <time>2021-05-20T06:44:24Z</time>
      </trkpt>
      <trkpt lat="47.17762" lon="4.94159">
        <ele>385.4</ele>
        <time>2021-05-20T06:44:30Z</time>
      </trkpt>
      <trkpt lat="47.17767" lon="4.94161">
        <ele>384.9</ele>
        <time>2021-05-20T06:44:38Z</time>
      </trkpt>
      <trkpt lat="47.17772" lon="4.94156">
        <ele>384</ele>
        <time>2021-05-20T06:44:48Z</time>
      </trkpt>
      <trkpt lat="47.17774" lon="4.94148">
        <ele>359.3</ele>
        <time>2021-05-20T06:44:53Z</time>
      </trkpt>
      <trkpt lat="47.17778" lon="4.94143">
        <ele>379.3</ele>
        <time>2021-05-20T06:44:58Z</time>
      </trkpt>
      <trkpt lat="47.17783" lon="4.94142">
        <ele>383.9</ele>
        <time>2021-05-20T06:45:04Z</time>
      </trkpt>
      <trkpt lat="47.17788" lon="4.94142">
        <ele>386.4</ele>
        <time>2021-05-20T06:45:09Z</time>
      </trkpt>
      <trkpt lat="47.17793" lon="4.94143">
        <ele>388.4</ele>
        <time>2021-05-20T06:45:14Z</time>
      </trkpt>
      <trkpt lat="47.17798" lon="4.94147">
        <ele>388.6</ele>
        <time>2021-05-20T06:45:20Z</time>
      </trkpt>
      <trkpt lat="47.17801" lon="4.94152">
        <ele>388.8</ele>
        <time>2021-05-20T06:45:25Z</time>
      </trkpt>
      <trkpt lat="47.17805" lon="4.9416">
        <ele>388.7</ele>
        <time>2021-05-20T06:45:31Z</time>
      </trkpt>
      <trkpt lat="47.17809" lon="4.94165">
        <ele>389.7</ele>
        <time>2021-05-20T06:45:36Z</time>
      </trkpt>
      <trkpt lat="47.17812" lon="4.94171">
        <ele>389.2</ele>
        <time>2021-05-20T06:45:44Z</time>
      </trkpt>
      <trkpt lat="47.17817" lon="4.94175">
        <ele>387.2</ele>
        <time>2021-05-20T06:45:50Z</time>
      </trkpt>
      <trkpt lat="47.17821" lon="4.94182">
        <ele>389.2</ele>
        <time>2021-05-20T06:45:54Z</time>
      </trkpt>
      <trkpt lat="47.17825" lon="4.94185">
        <ele>355</ele>
        <time>2021-05-20T06:46:00Z</time>
      </trkpt>
      <trkpt lat="47.17829" lon="4.94191">
        <ele>380.9</ele>
        <time>2021-05-20T06:46:04Z</time>
      </trkpt>
      <trkpt lat="47.17834" lon="4.94196">
        <ele>387</ele>
        <time>2021-05-20T06:46:10Z</time>
      </trkpt>
      <trkpt lat="47.17839" lon="4.94199">
        <ele>387.7</ele>
        <time>2021-05-20T06:46:16Z</time>
      </trkpt>
      <trkpt lat="47.17845" lon="4.942">
        <ele>376.2</ele>
        <time>2021-05-20T06:46:21Z</time>
      </trkpt>
      <trkpt lat="47.1785" lon="4.94201">
        <ele>385.2</ele>
        <time>2021-05-20T06:46:26Z</time>
      </trkpt>
      <trkpt lat="47.17855" lon="4.94204">
        <ele>388.9</ele>
        <time>2021-05-20T06:46:31Z</time>
      </trkpt>
      <trkpt lat="47.1786" lon="4.94208">
        <ele>387.8</ele>
        <time>2021-05-20T06:46:35Z</time>
      </trkpt>
      <trkpt lat="47.17864" lon="4.94212">
        <ele>389.7</ele>
        <time>2021-05-20T06:46:40Z</time>
      </trkpt>
      <trkpt lat="47.17868" lon="4.94216">
        <ele>389.1</ele>
        <time>2021-05-20T06:46:45Z</time>
      </trkpt>
      <trkpt lat="47.17872" lon="4.9422">
        <ele>389.5</ele>
        <time>2021-05-20T06:46:52Z</time>
      </trkpt>
      <trkpt lat="47.17877" lon="4.94225">
        <ele>388</ele>
        <time>2021-05-20T06:46:56Z</time>
      </trkpt>
      <trkpt lat="47.1788" lon="4.94231">
        <ele>388.3</ele>
        <time>2021-05-20T06:47:01Z</time>
      </trkpt>
      <trkpt lat="47.17883" lon="4.94237">
        <ele>389.3</ele>
        <time>2021-05-20T06:47:05Z</time>
      </trkpt>
      <trkpt lat="47.17889" lon="4.94242">
        <ele>387.5</ele>
        <time>2021-05-20T06:47:21Z</time>
      </trkpt>
      <trkpt lat="47.17892" lon="4.94248">
        <ele>387</ele>
        <time>2021-05-20T06:47:26Z</time>
      </trkpt>
      <trkpt lat="47.17896" lon="4.94252">
        <ele>384.4</ele>
        <time>2021-05-20T06:47:31Z</time>
      </trkpt>
      <trkpt lat="47.17897" lon="4.94259">
        <ele>380</ele>
        <time>2021-05-20T06:47:36Z</time>
      </trkpt>
      <trkpt lat="47.179" lon="4.94266">
        <ele>383.9</ele>
        <time>2021-05-20T06:47:40Z</time>
      </trkpt>
      <trkpt lat="47.17901" lon="4.94274">
        <ele>384.4</ele>
        <time>2021-05-20T06:47:44Z</time>
      </trkpt>
      <trkpt lat="47.179" lon="4.94283">
        <ele>383.2</ele>
        <time>2021-05-20T06:47:49Z</time>
      </trkpt>
      <trkpt lat="47.17903" lon="4.9429">
        <ele>383.5</ele>
        <time>2021-05-20T06:47:54Z</time>
      </trkpt>
      <trkpt lat="47.17908" lon="4.94292">
        <ele>385.3</ele>
        <time>2021-05-20T06:48:01Z</time>
      </trkpt>
      <trkpt lat="47.17911" lon="4.943">
        <ele>385.8</ele>
        <time>2021-05-20T06:48:05Z</time>
      </trkpt>
      <trkpt lat="47.17912" lon="4.94309">
        <ele>383.5</ele>
        <time>2021-05-20T06:48:09Z</time>
      </trkpt>
      <trkpt lat="47.17913" lon="4.94316">
        <ele>390.2</ele>
        <time>2021-05-20T06:48:13Z</time>
      </trkpt>
      <trkpt lat="47.17916" lon="4.94324">
        <ele>390</ele>
        <time>2021-05-20T06:48:18Z</time>
      </trkpt>
      <trkpt lat="47.17917" lon="4.94332">
        <ele>361.9</ele>
        <time>2021-05-20T06:48:24Z</time>
      </trkpt>
      <trkpt lat="47.17915" lon="4.9434">
        <ele>378.8</ele>
        <time>2021-05-20T06:48:28Z</time>
      </trkpt>
      <trkpt lat="47.17915" lon="4.94347">
        <ele>383.3</ele>
        <time>2021-05-20T06:48:32Z</time>
      </trkpt>
      <trkpt lat="47.17918" lon="4.94353">
        <ele>384.5</ele>
        <time>2021-05-20T06:48:36Z</time>
      </trkpt>
      <trkpt lat="47.17921" lon="4.9436">
        <ele>385.8</ele>
        <time>2021-05-20T06:48:39Z</time>
      </trkpt>
      <trkpt lat="47.17923" lon="4.94368">
        <ele>385.8</ele>
        <time>2021-05-20T06:48:43Z</time>
      </trkpt>
      <trkpt lat="47.17928" lon="4.9437">
        <ele>309.6</ele>
        <time>2021-05-20T06:48:47Z</time>
      </trkpt>
      <trkpt lat="47.17929" lon="4.94378">
        <ele>377.3</ele>
        <time>2021-05-20T06:48:52Z</time>
      </trkpt>
      <trkpt lat="47.17929" lon="4.94387">
        <ele>381.9</ele>
        <time>2021-05-20T06:48:55Z</time>
      </trkpt>
      <trkpt lat="47.17931" lon="4.94394">
        <ele>381.3</ele>
        <time>2021-05-20T06:49:00Z</time>
      </trkpt>
      <trkpt lat="47.17933" lon="4.94401">
        <ele>379</ele>
        <time>2021-05-20T06:49:04Z</time>
      </trkpt>
      <trkpt lat="47.17934" lon="4.94408">
        <ele>374.1</ele>
        <time>2021-05-20T06:49:08Z</time>
      </trkpt>
      <trkpt lat="47.17936" lon="4.94415">
        <ele>373.7</ele>
        <time>2021-05-20T06:49:12Z</time>
      </trkpt>
      <trkpt lat="47.17938" lon="4.94422">
        <ele>357.1</ele>
        <time>2021-05-20T06:49:19Z</time>
      </trkpt>
      <trkpt lat="47.17939" lon="4.9443">
        <ele>375.8</ele>
        <time>2021-05-20T06:49:23Z</time>
      </trkpt>
      <trkpt lat="47.17942" lon="4.94437">
        <ele>376.1</ele>
        <time>2021-05-20T06:49:26Z</time>
      </trkpt>
      <trkpt lat="47.17945" lon="4.94441">
        <ele>374.7</ele>
        <time>2021-05-20T06:49:30Z</time>
      </trkpt>
      <trkpt lat="47.17947" lon="4.94448">
        <ele>354</ele>
        <time>2021-05-20T06:49:35Z</time>
      </trkpt>
      <trkpt lat="47.17946" lon="4.94457">
        <ele>365.3</ele>
        <time>2021-05-20T06:49:40Z</time>
      </trkpt>
      <trkpt lat="47.17947" lon="4.94464">
        <ele>374</ele>
        <time>2021-05-20T06:49:45Z</time>
      </trkpt>
      <trkpt lat="47.17943" lon="4.94468">
        <ele>344.5</ele>
        <time>2021-05-20T06:50:03Z</time>
      </trkpt>
      <trkpt lat="47.17938" lon="4.94467">
        <ele>372.1</ele>
        <time>2021-05-20T06:50:47Z</time>
      </trkpt>
      <trkpt lat="47.17943" lon="4.9447">
        <ele>359.9</ele>
        <time>2021-05-20T06:51:02Z</time>
      </trkpt>
      <trkpt lat="47.17946" lon="4.94477">
        <ele>373.4</ele>
        <time>2021-05-20T06:51:07Z</time>
      </trkpt>
      <trkpt lat="47.17951" lon="4.94481">
        <ele>376</ele>
        <time>2021-05-20T06:51:11Z</time>
      </trkpt>
      <trkpt lat="47.17956" lon="4.94476">
        <ele>376.5</ele>
        <time>2021-05-20T06:51:15Z</time>
      </trkpt>
      <trkpt lat="47.17959" lon="4.9447">
        <ele>377</ele>
        <time>2021-05-20T06:51:19Z</time>
      </trkpt>
      <trkpt lat="47.17962" lon="4.94466">
        <ele>363.2</ele>
        <time>2021-05-20T06:51:28Z</time>
      </trkpt>
      <trkpt lat="47.17964" lon="4.9446">
        <ele>375.5</ele>
        <time>2021-05-20T06:51:33Z</time>
      </trkpt>
      <trkpt lat="47.17966" lon="4.94451">
        <ele>375.5</ele>
        <time>2021-05-20T06:51:38Z</time>
      </trkpt>
      <trkpt lat="47.17967" lon="4.94444">
        <ele>375.6</ele>
        <time>2021-05-20T06:51:42Z</time>
      </trkpt>
      <trkpt lat="47.17967" lon="4.94437">
        <ele>378.3</ele>
        <time>2021-05-20T06:51:47Z</time>
      </trkpt>
      <trkpt lat="47.17968" lon="4.94429">
        <ele>377.4</ele>
        <time>2021-05-20T06:51:52Z</time>
      </trkpt>
      <trkpt lat="47.1797" lon="4.94422">
        <ele>378</ele>
        <time>2021-05-20T06:51:56Z</time>
      </trkpt>
      <trkpt lat="47.17974" lon="4.94416">
        <ele>378.9</ele>
        <time>2021-05-20T06:52:03Z</time>
      </trkpt>
      <trkpt lat="47.17978" lon="4.94412">
        <ele>380.6</ele>
        <time>2021-05-20T06:52:07Z</time>
      </trkpt>
      <trkpt lat="47.17981" lon="4.94407">
        <ele>381.4</ele>
        <time>2021-05-20T06:52:12Z</time>
      </trkpt>
      <trkpt lat="47.17985" lon="4.94402">
        <ele>381.1</ele>
        <time>2021-05-20T06:52:17Z</time>
      </trkpt>
      <trkpt lat="47.17988" lon="4.94397">
        <ele>381.8</ele>
        <time>2021-05-20T06:52:22Z</time>
      </trkpt>
      <trkpt lat="47.17991" lon="4.94392">
        <ele>347</ele>
        <time>2021-05-20T06:52:27Z</time>
      </trkpt>
      <trkpt lat="47.17993" lon="4.94383">
        <ele>374.4</ele>
        <time>2021-05-20T06:52:33Z</time>
      </trkpt>
      <trkpt lat="47.17996" lon="4.94377">
        <ele>378.8</ele>
        <time>2021-05-20T06:52:38Z</time>
      </trkpt>
      <trkpt lat="47.18" lon="4.94372">
        <ele>379.1</ele>
        <time>2021-05-20T06:52:42Z</time>
      </trkpt>
      <trkpt lat="47.18002" lon="4.94367">
        <ele>380.6</ele>
        <time>2021-05-20T06:52:46Z</time>
      </trkpt>
      <trkpt lat="47.18005" lon="4.94361">
        <ele>382.4</ele>
        <time>2021-05-20T06:52:51Z</time>
      </trkpt>
      <trkpt lat="47.18009" lon="4.94355">
        <ele>382.9</ele>
        <time>2021-05-20T06:52:56Z</time>
      </trkpt>
      <trkpt lat="47.18011" lon="4.94349">
        <ele>382.6</ele>
        <time>2021-05-20T06:53:01Z</time>
      </trkpt>
      <trkpt lat="47.18012" lon="4.94342">
        <ele>382.4</ele>
        <time>2021-05-20T06:53:06Z</time>
      </trkpt>
      <trkpt lat="47.18013" lon="4.94336">
        <ele>382.7</ele>
        <time>2021-05-20T06:53:11Z</time>
      </trkpt>
      <trkpt lat="47.18016" lon="4.94328">
        <ele>381.2</ele>
        <time>2021-05-20T06:53:18Z</time>
      </trkpt>
      <trkpt lat="47.18018" lon="4.94322">
        <ele>382.5</ele>
        <time>2021-05-20T06:53:24Z</time>
      </trkpt>
      <trkpt lat="47.18022" lon="4.94318">
        <ele>360.7</ele>
        <time>2021-05-20T06:53:28Z</time>
      </trkpt>
      <trkpt lat="47.18025" lon="4.94312">
        <ele>378.9</ele>
        <time>2021-05-20T06:53:33Z</time>
      </trkpt>
      <trkpt lat="47.18027" lon="4.94304">
        <ele>384.6</ele>
        <time>2021-05-20T06:53:47Z</time>
      </trkpt>
      <trkpt lat="47.1803" lon="4.94297">
        <ele>384.6</ele>
        <time>2021-05-20T06:53:51Z</time>
      </trkpt>
      <trkpt lat="47.18031" lon="4.9429">
        <ele>386.6</ele>
        <time>2021-05-20T06:53:58Z</time>
      </trkpt>
      <trkpt lat="47.18032" lon="4.94283">
        <ele>386.2</ele>
        <time>2021-05-20T06:54:03Z</time>
      </trkpt>
      <trkpt lat="47.18032" lon="4.94276">
        <ele>388.3</ele>
        <time>2021-05-20T06:54:07Z</time>
      </trkpt>
      <trkpt lat="47.18031" lon="4.94267">
        <ele>385.8</ele>
        <time>2021-05-20T06:54:13Z</time>
      </trkpt>
      <trkpt lat="47.18031" lon="4.9426">
        <ele>387.1</ele>
        <time>2021-05-20T06:54:18Z</time>
      </trkpt>
      <trkpt lat="47.18036" lon="4.94258">
        <ele>388.1</ele>
        <time>2021-05-20T06:54:22Z</time>
      </trkpt>
      <trkpt lat="47.18041" lon="4.94255">
        <ele>388.7</ele>
        <time>2021-05-20T06:54:27Z</time>
      </trkpt>
      <trkpt lat="47.18046" lon="4.94252">
        <ele>390.2</ele>
        <time>2021-05-20T06:54:32Z</time>
      </trkpt>
      <trkpt lat="47.1805" lon="4.94249">
        <ele>391.6</ele>
        <time>2021-05-20T06:54:37Z</time>
      </trkpt>
      <trkpt lat="47.18055" lon="4.94246">
        <ele>392.2</ele>
        <time>2021-05-20T06:54:41Z</time>
      </trkpt>
      <trkpt lat="47.18059" lon="4.94243">
        <ele>392.2</ele>
        <time>2021-05-20T06:54:45Z</time>
      </trkpt>
      <trkpt lat="47.18063" lon="4.94239">
        <ele>392.4</ele>
        <time>2021-05-20T06:54:49Z</time>
      </trkpt>
      <trkpt lat="47.18068" lon="4.94234">
        <ele>393.5</ele>
        <time>2021-05-20T06:54:55Z</time>
      </trkpt>
      <trkpt lat="47.18072" lon="4.94229">
        <ele>392.5</ele>
        <time>2021-05-20T06:55:00Z</time>
      </trkpt>
      <trkpt lat="47.18073" lon="4.94221">
        <ele>391.2</ele>
        <time>2021-05-20T06:55:05Z</time>
      </trkpt>
      <trkpt lat="47.18075" lon="4.94214">
        <ele>390.2</ele>
        <time>2021-05-20T06:55:12Z</time>
      </trkpt>
      <trkpt lat="47.18079" lon="4.94208">
        <ele>393</ele>
        <time>2021-05-20T06:55:18Z</time>
      </trkpt>
      <trkpt lat="47.18083" lon="4.94202">
        <ele>390.5</ele>
        <time>2021-05-20T06:55:23Z</time>
      </trkpt>
      <trkpt lat="47.18086" lon="4.94196">
        <ele>391.3</ele>
        <time>2021-05-20T06:55:28Z</time>
      </trkpt>
      <trkpt lat="47.18091" lon="4.9419">
        <ele>393.8</ele>
        <time>2021-05-20T06:55:33Z</time>
      </trkpt>
      <trkpt lat="47.18094" lon="4.94184">
        <ele>394.4</ele>
        <time>2021-05-20T06:55:37Z</time>
      </trkpt>
      <trkpt lat="47.18097" lon="4.94179">
        <ele>393</ele>
        <time>2021-05-20T06:55:42Z</time>
      </trkpt>
      <trkpt lat="47.18102" lon="4.94176">
        <ele>395.9</ele>
        <time>2021-05-20T06:55:48Z</time>
      </trkpt>
      <trkpt lat="47.18107" lon="4.94171">
        <ele>397.5</ele>
        <time>2021-05-20T06:55:53Z</time>
      </trkpt>
      <trkpt lat="47.18111" lon="4.94166">
        <ele>398.8</ele>
        <time>2021-05-20T06:55:57Z</time>
      </trkpt>
      <trkpt lat="47.18115" lon="4.9416">
        <ele>399.6</ele>
        <time>2021-05-20T06:56:03Z</time>
      </trkpt>
      <trkpt lat="47.1812" lon="4.94156">
        <ele>400.3</ele>
        <time>2021-05-20T06:56:08Z</time>
      </trkpt>
      <trkpt lat="47.18125" lon="4.94153">
        <ele>399.1</ele>
        <time>2021-05-20T06:56:14Z</time>
      </trkpt>
      <trkpt lat="47.1813" lon="4.94152">
        <ele>399.8</ele>
        <time>2021-05-20T06:56:18Z</time>
      </trkpt>
      <trkpt lat="47.18135" lon="4.94149">
        <ele>398.5</ele>
        <time>2021-05-20T06:56:24Z</time>
      </trkpt>
      <trkpt lat="47.18139" lon="4.94146">
        <ele>397.2</ele>
        <time>2021-05-20T06:56:29Z</time>
      </trkpt>
      <trkpt lat="47.18146" lon="4.94141">
        <ele>396.3</ele>
        <time>2021-05-20T06:56:35Z</time>
      </trkpt>
      <trkpt lat="47.1815" lon="4.94136">
        <ele>396.5</ele>
        <time>2021-05-20T06:56:41Z</time>
      </trkpt>
      <trkpt lat="47.18155" lon="4.94133">
        <ele>397.2</ele>
        <time>2021-05-20T06:56:46Z</time>
      </trkpt>
      <trkpt lat="47.18159" lon="4.94129">
        <ele>395.5</ele>
        <time>2021-05-20T06:56:51Z</time>
      </trkpt>
      <trkpt lat="47.18162" lon="4.94123">
        <ele>399.2</ele>
        <time>2021-05-20T06:56:55Z</time>
      </trkpt>
      <trkpt lat="47.18167" lon="4.94119">
        <ele>399.8</ele>
        <time>2021-05-20T06:56:59Z</time>
      </trkpt>
      <trkpt lat="47.18172" lon="4.94118">
        <ele>399.8</ele>
        <time>2021-05-20T06:57:04Z</time>
      </trkpt>
      <trkpt lat="47.18177" lon="4.94115">
        <ele>398.8</ele>
        <time>2021-05-20T06:57:09Z</time>
      </trkpt>
      <trkpt lat="47.18181" lon="4.94108">
        <ele>400.1</ele>
        <time>2021-05-20T06:57:13Z</time>
      </trkpt>
      <trkpt lat="47.18186" lon="4.94108">
        <ele>399</ele>
        <time>2021-05-20T06:57:19Z</time>
      </trkpt>
      <trkpt lat="47.18189" lon="4.94101">
        <ele>397.1</ele>
        <time>2021-05-20T06:57:25Z</time>
      </trkpt>
      <trkpt lat="47.18194" lon="4.94097">
        <ele>397.7</ele>
        <time>2021-05-20T06:57:29Z</time>
      </trkpt>
      <trkpt lat="47.182" lon="4.94097">
        <ele>395.6</ele>
        <time>2021-05-20T06:57:33Z</time>
      </trkpt>
      <trkpt lat="47.18204" lon="4.94095">
        <ele>395.5</ele>
        <time>2021-05-20T06:57:37Z</time>
      </trkpt>
      <trkpt lat="47.18208" lon="4.94094">
        <ele>397.8</ele>
        <time>2021-05-20T06:57:42Z</time>
      </trkpt>
      <trkpt lat="47.18214" lon="4.94092">
        <ele>396</ele>
        <time>2021-05-20T06:57:46Z</time>
      </trkpt>
      <trkpt lat="47.18219" lon="4.94087">
        <ele>398.3</ele>
        <time>2021-05-20T06:57:52Z</time>
      </trkpt>
      <trkpt lat="47.18224" lon="4.94083">
        <ele>392.9</ele>
        <time>2021-05-20T06:57:56Z</time>
      </trkpt>
      <trkpt lat="47.18228" lon="4.94079">
        <ele>401</ele>
        <time>2021-05-20T06:58:01Z</time>
      </trkpt>
      <trkpt lat="47.18233" lon="4.9408">
        <ele>401.4</ele>
        <time>2021-05-20T06:58:06Z</time>
      </trkpt>
      <trkpt lat="47.18238" lon="4.94079">
        <ele>400.4</ele>
        <time>2021-05-20T06:58:12Z</time>
      </trkpt>
      <trkpt lat="47.18243" lon="4.94079">
        <ele>398.5</ele>
        <time>2021-05-20T06:58:16Z</time>
      </trkpt>
      <trkpt lat="47.18246" lon="4.94074">
        <ele>400.5</ele>
        <time>2021-05-20T06:58:21Z</time>
      </trkpt>
      <trkpt lat="47.1825" lon="4.94067">
        <ele>398.8</ele>
        <time>2021-05-20T06:58:25Z</time>
      </trkpt>
      <trkpt lat="47.18253" lon="4.9406">
        <ele>401.8</ele>
        <time>2021-05-20T06:58:31Z</time>
      </trkpt>
      <trkpt lat="47.18256" lon="4.94054">
        <ele>395.8</ele>
        <time>2021-05-20T06:58:35Z</time>
      </trkpt>
      <trkpt lat="47.1826" lon="4.9405">
        <ele>398</ele>
        <time>2021-05-20T06:58:41Z</time>
      </trkpt>
      <trkpt lat="47.18266" lon="4.94047">
        <ele>397.9</ele>
        <time>2021-05-20T06:58:47Z</time>
      </trkpt>
      <trkpt lat="47.18269" lon="4.94042">
        <ele>398.1</ele>
        <time>2021-05-20T06:58:51Z</time>
      </trkpt>
      <trkpt lat="47.18274" lon="4.94039">
        <ele>400.5</ele>
        <time>2021-05-20T06:58:54Z</time>
      </trkpt>
      <trkpt lat="47.18277" lon="4.94033">
        <ele>400.1</ele>
        <time>2021-05-20T06:58:59Z</time>
      </trkpt>
      <trkpt lat="47.18281" lon="4.9403">
        <ele>396.8</ele>
        <time>2021-05-20T06:59:02Z</time>
      </trkpt>
      <trkpt lat="47.18286" lon="4.94029">
        <ele>405</ele>
        <time>2021-05-20T06:59:09Z</time>
      </trkpt>
      <trkpt lat="47.18291" lon="4.94029">
        <ele>406.3</ele>
        <time>2021-05-20T06:59:15Z</time>
      </trkpt>
      <trkpt lat="47.18296" lon="4.94026">
        <ele>403.4</ele>
        <time>2021-05-20T06:59:18Z</time>
      </trkpt>
      <trkpt lat="47.183" lon="4.9402">
        <ele>401.4</ele>
        <time>2021-05-20T06:59:23Z</time>
      </trkpt>
      <trkpt lat="47.18304" lon="4.94016">
        <ele>402.4</ele>
        <time>2021-05-20T06:59:26Z</time>
      </trkpt>
      <trkpt lat="47.18307" lon="4.94012">
        <ele>401.2</ele>
        <time>2021-05-20T06:59:31Z</time>
      </trkpt>
      <trkpt lat="47.18311" lon="4.94008">
        <ele>401.7</ele>
        <time>2021-05-20T06:59:35Z</time>
      </trkpt>
      <trkpt lat="47.18316" lon="4.94006">
        <ele>400.3</ele>
        <time>2021-05-20T06:59:42Z</time>
      </trkpt>
      <trkpt lat="47.1832" lon="4.94001">
        <ele>401.4</ele>
        <time>2021-05-20T06:59:45Z</time>
      </trkpt>
      <trkpt lat="47.18324" lon="4.93994">
        <ele>404.7</ele>
        <time>2021-05-20T06:59:50Z</time>
      </trkpt>
      <trkpt lat="47.18328" lon="4.9399">
        <ele>406.6</ele>
        <time>2021-05-20T06:59:53Z</time>
      </trkpt>
      <trkpt lat="47.18332" lon="4.93987">
        <ele>402.7</ele>
        <time>2021-05-20T07:00:00Z</time>
      </trkpt>
      <trkpt lat="47.18335" lon="4.93979">
        <ele>402.8</ele>
        <time>2021-05-20T07:00:04Z</time>
      </trkpt>
      <trkpt lat="47.18338" lon="4.93972">
        <ele>401.5</ele>
        <time>2021-05-20T07:00:08Z</time>
      </trkpt>
      <trkpt lat="47.18344" lon="4.93966">
        <ele>402.2</ele>
        <time>2021-05-20T07:00:12Z</time>
      </trkpt>
      <trkpt lat="47.18349" lon="4.93963">
        <ele>404.2</ele>
        <time>2021-05-20T07:00:17Z</time>
      </trkpt>
      <trkpt lat="47.18353" lon="4.93957">
        <ele>405.4</ele>
        <time>2021-05-20T07:00:21Z</time>
      </trkpt>
      <trkpt lat="47.18358" lon="4.93952">
        <ele>401.7</ele>
        <time>2021-05-20T07:00:27Z</time>
      </trkpt>
      <trkpt lat="47.18361" lon="4.93945">
        <ele>405.9</ele>
        <time>2021-05-20T07:00:31Z</time>
      </trkpt>
      <trkpt lat="47.18365" lon="4.93938">
        <ele>404.5</ele>
        <time>2021-05-20T07:00:36Z</time>
      </trkpt>
      <trkpt lat="47.18369" lon="4.93935">
        <ele>408.1</ele>
        <time>2021-05-20T07:01:01Z</time>
      </trkpt>
      <trkpt lat="47.18372" lon="4.93928">
        <ele>406</ele>
        <time>2021-05-20T07:01:12Z</time>
      </trkpt>
      <trkpt lat="47.18375" lon="4.93922">
        <ele>406.9</ele>
        <time>2021-05-20T07:01:17Z</time>
      </trkpt>
      <trkpt lat="47.18378" lon="4.93915">
        <ele>409.1</ele>
        <time>2021-05-20T07:01:22Z</time>
      </trkpt>
      <trkpt lat="47.1838" lon="4.93909">
        <ele>410.4</ele>
        <time>2021-05-20T07:01:27Z</time>
      </trkpt>
      <trkpt lat="47.18383" lon="4.939">
        <ele>409.3</ele>
        <time>2021-05-20T07:01:33Z</time>
      </trkpt>
      <trkpt lat="47.18386" lon="4.93895">
        <ele>403.7</ele>
        <time>2021-05-20T07:01:38Z</time>
      </trkpt>
      <trkpt lat="47.1839" lon="4.93888">
        <ele>407.9</ele>
        <time>2021-05-20T07:01:42Z</time>
      </trkpt>
      <trkpt lat="47.18395" lon="4.93885">
        <ele>409.6</ele>
        <time>2021-05-20T07:01:47Z</time>
      </trkpt>
      <trkpt lat="47.18398" lon="4.93879">
        <ele>408.6</ele>
        <time>2021-05-20T07:01:53Z</time>
      </trkpt>
      <trkpt lat="47.184" lon="4.9387">
        <ele>405.6</ele>
        <time>2021-05-20T07:01:57Z</time>
      </trkpt>
      <trkpt lat="47.18403" lon="4.93863">
        <ele>408</ele>
        <time>2021-05-20T07:02:03Z</time>
      </trkpt>
      <trkpt lat="47.18407" lon="4.93861">
        <ele>410.9</ele>
        <time>2021-05-20T07:02:08Z</time>
      </trkpt>
      <trkpt lat="47.18412" lon="4.93859">
        <ele>408.9</ele>
        <time>2021-05-20T07:02:12Z</time>
      </trkpt>
      <trkpt lat="47.18416" lon="4.93854">
        <ele>408.1</ele>
        <time>2021-05-20T07:02:17Z</time>
      </trkpt>
      <trkpt lat="47.18418" lon="4.93848">
        <ele>409.7</ele>
        <time>2021-05-20T07:02:21Z</time>
      </trkpt>
      <trkpt lat="47.18421" lon="4.9384">
        <ele>411.6</ele>
        <time>2021-05-20T07:02:26Z</time>
      </trkpt>
      <trkpt lat="47.18424" lon="4.93835">
        <ele>411.6</ele>
        <time>2021-05-20T07:02:29Z</time>
      </trkpt>
      <trkpt lat="47.18427" lon="4.93829">
        <ele>410.5</ele>
        <time>2021-05-20T07:02:34Z</time>
      </trkpt>
      <trkpt lat="47.18431" lon="4.93824">
        <ele>410.2</ele>
        <time>2021-05-20T07:02:37Z</time>
      </trkpt>
      <trkpt lat="47.18434" lon="4.93819">
        <ele>409</ele>
        <time>2021-05-20T07:02:42Z</time>
      </trkpt>
      <trkpt lat="47.18438" lon="4.93816">
        <ele>409.8</ele>
        <time>2021-05-20T07:02:45Z</time>
      </trkpt>
      <trkpt lat="47.18442" lon="4.93811">
        <ele>408.4</ele>
        <time>2021-05-20T07:02:48Z</time>
      </trkpt>
      <trkpt lat="47.18446" lon="4.93807">
        <ele>409.3</ele>
        <time>2021-05-20T07:02:53Z</time>
      </trkpt>
      <trkpt lat="47.1845" lon="4.93803">
        <ele>410.1</ele>
        <time>2021-05-20T07:02:56Z</time>
      </trkpt>
      <trkpt lat="47.18455" lon="4.93797">
        <ele>407.3</ele>
        <time>2021-05-20T07:03:03Z</time>
      </trkpt>
      <trkpt lat="47.18459" lon="4.93792">
        <ele>409.3</ele>
        <time>2021-05-20T07:03:06Z</time>
      </trkpt>
      <trkpt lat="47.18464" lon="4.93789">
        <ele>411.7</ele>
        <time>2021-05-20T07:03:12Z</time>
      </trkpt>
      <trkpt lat="47.18469" lon="4.93786">
        <ele>410.1</ele>
        <time>2021-05-20T07:03:15Z</time>
      </trkpt>
      <trkpt lat="47.18474" lon="4.93784">
        <ele>402.1</ele>
        <time>2021-05-20T07:03:20Z</time>
      </trkpt>
      <trkpt lat="47.18477" lon="4.93778">
        <ele>408</ele>
        <time>2021-05-20T07:03:26Z</time>
      </trkpt>
      <trkpt lat="47.18481" lon="4.93773">
        <ele>411.5</ele>
        <time>2021-05-20T07:03:32Z</time>
      </trkpt>
      <trkpt lat="47.18486" lon="4.93768">
        <ele>413.7</ele>
        <time>2021-05-20T07:03:37Z</time>
      </trkpt>
      <trkpt lat="47.18492" lon="4.93766">
        <ele>412.7</ele>
        <time>2021-05-20T07:03:41Z</time>
      </trkpt>
      <trkpt lat="47.18496" lon="4.93764">
        <ele>413.2</ele>
        <time>2021-05-20T07:03:46Z</time>
      </trkpt>
      <trkpt lat="47.18501" lon="4.93763">
        <ele>410.8</ele>
        <time>2021-05-20T07:03:49Z</time>
      </trkpt>
      <trkpt lat="47.18506" lon="4.93759">
        <ele>413.7</ele>
        <time>2021-05-20T07:03:54Z</time>
      </trkpt>
      <trkpt lat="47.18511" lon="4.93757">
        <ele>413.7</ele>
        <time>2021-05-20T07:03:59Z</time>
      </trkpt>
      <trkpt lat="47.18516" lon="4.93754">
        <ele>414.9</ele>
        <time>2021-05-20T07:04:03Z</time>
      </trkpt>
      <trkpt lat="47.18522" lon="4.93753">
        <ele>415.7</ele>
        <time>2021-05-20T07:04:07Z</time>
      </trkpt>
      <trkpt lat="47.18527" lon="4.93751">
        <ele>418.8</ele>
        <time>2021-05-20T07:04:11Z</time>
      </trkpt>
      <trkpt lat="47.18532" lon="4.9375">
        <ele>418.8</ele>
        <time>2021-05-20T07:04:16Z</time>
      </trkpt>
      <trkpt lat="47.18537" lon="4.93747">
        <ele>418.4</ele>
        <time>2021-05-20T07:04:19Z</time>
      </trkpt>
      <trkpt lat="47.18541" lon="4.93744">
        <ele>418.3</ele>
        <time>2021-05-20T07:04:22Z</time>
      </trkpt>
      <trkpt lat="47.18546" lon="4.9374">
        <ele>418.8</ele>
        <time>2021-05-20T07:04:27Z</time>
      </trkpt>
      <trkpt lat="47.18549" lon="4.93735">
        <ele>418.1</ele>
        <time>2021-05-20T07:04:30Z</time>
      </trkpt>
      <trkpt lat="47.18552" lon="4.9373">
        <ele>417.1</ele>
        <time>2021-05-20T07:04:34Z</time>
      </trkpt>
      <trkpt lat="47.18556" lon="4.93724">
        <ele>416.8</ele>
        <time>2021-05-20T07:04:39Z</time>
      </trkpt>
      <trkpt lat="47.18558" lon="4.93717">
        <ele>415.4</ele>
        <time>2021-05-20T07:04:43Z</time>
      </trkpt>
      <trkpt lat="47.18559" lon="4.93709">
        <ele>418.6</ele>
        <time>2021-05-20T07:04:47Z</time>
      </trkpt>
      <trkpt lat="47.18558" lon="4.93701">
        <ele>419.5</ele>
        <time>2021-05-20T07:04:51Z</time>
      </trkpt>
      <trkpt lat="47.18556" lon="4.93693">
        <ele>421.5</ele>
        <time>2021-05-20T07:04:55Z</time>
      </trkpt>
      <trkpt lat="47.18557" lon="4.93685">
        <ele>420.7</ele>
        <time>2021-05-20T07:04:59Z</time>
      </trkpt>
      <trkpt lat="47.18559" lon="4.93679">
        <ele>420.7</ele>
        <time>2021-05-20T07:05:03Z</time>
      </trkpt>
      <trkpt lat="47.18563" lon="4.93672">
        <ele>420.6</ele>
        <time>2021-05-20T07:05:08Z</time>
      </trkpt>
      <trkpt lat="47.18567" lon="4.93666">
        <ele>419</ele>
        <time>2021-05-20T07:05:12Z</time>
      </trkpt>
      <trkpt lat="47.18569" lon="4.9366">
        <ele>420.6</ele>
        <time>2021-05-20T07:05:16Z</time>
      </trkpt>
      <trkpt lat="47.18572" lon="4.93654">
        <ele>420.4</ele>
        <time>2021-05-20T07:05:22Z</time>
      </trkpt>
      <trkpt lat="47.18574" lon="4.93645">
        <ele>418.8</ele>
        <time>2021-05-20T07:05:28Z</time>
      </trkpt>
      <trkpt lat="47.18574" lon="4.93637">
        <ele>419.9</ele>
        <time>2021-05-20T07:05:33Z</time>
      </trkpt>
      <trkpt lat="47.18577" lon="4.93629">
        <ele>418.4</ele>
        <time>2021-05-20T07:06:02Z</time>
      </trkpt>
      <trkpt lat="47.18576" lon="4.93622">
        <ele>415.2</ele>
        <time>2021-05-20T07:06:07Z</time>
      </trkpt>
      <trkpt lat="47.18575" lon="4.93614">
        <ele>415.9</ele>
        <time>2021-05-20T07:06:11Z</time>
      </trkpt>
      <trkpt lat="47.18575" lon="4.93607">
        <ele>416.8</ele>
        <time>2021-05-20T07:06:14Z</time>
      </trkpt>
      <trkpt lat="47.18575" lon="4.93599">
        <ele>416.6</ele>
        <time>2021-05-20T07:06:18Z</time>
      </trkpt>
      <trkpt lat="47.18576" lon="4.93593">
        <ele>418</ele>
        <time>2021-05-20T07:06:22Z</time>
      </trkpt>
      <trkpt lat="47.18576" lon="4.93586">
        <ele>417.6</ele>
        <time>2021-05-20T07:06:26Z</time>
      </trkpt>
      <trkpt lat="47.18577" lon="4.93579">
        <ele>417.3</ele>
        <time>2021-05-20T07:06:30Z</time>
      </trkpt>
      <trkpt lat="47.1858" lon="4.93571">
        <ele>419.5</ele>
        <time>2021-05-20T07:06:33Z</time>
      </trkpt>
      <trkpt lat="47.18583" lon="4.93565">
        <ele>419</ele>
        <time>2021-05-20T07:06:37Z</time>
      </trkpt>
      <trkpt lat="47.18584" lon="4.93559">
        <ele>420.4</ele>
        <time>2021-05-20T07:06:42Z</time>
      </trkpt>
      <trkpt lat="47.18588" lon="4.93553">
        <ele>421.7</ele>
        <time>2021-05-20T07:06:47Z</time>
      </trkpt>
      <trkpt lat="47.18591" lon="4.93546">
        <ele>418.8</ele>
        <time>2021-05-20T07:06:53Z</time>
      </trkpt>
      <trkpt lat="47.18592" lon="4.93539">
        <ele>419.4</ele>
        <time>2021-05-20T07:06:58Z</time>
      </trkpt>
      <trkpt lat="47.18594" lon="4.93532">
        <ele>420.2</ele>
        <time>2021-05-20T07:07:02Z</time>
      </trkpt>
      <trkpt lat="47.18596" lon="4.93524">
        <ele>420.9</ele>
        <time>2021-05-20T07:07:07Z</time>
      </trkpt>
      <trkpt lat="47.186" lon="4.93518">
        <ele>420.7</ele>
        <time>2021-05-20T07:08:00Z</time>
      </trkpt>
      <trkpt lat="47.186" lon="4.9351">
        <ele>420</ele>
        <time>2021-05-20T07:08:04Z</time>
      </trkpt>
      <trkpt lat="47.18602" lon="4.93503">
        <ele>420.5</ele>
        <time>2021-05-20T07:08:07Z</time>
      </trkpt>
      <trkpt lat="47.18602" lon="4.93496">
        <ele>420.1</ele>
        <time>2021-05-20T07:08:10Z</time>
      </trkpt>
      <trkpt lat="47.18603" lon="4.93489">
        <ele>419.8</ele>
        <time>2021-05-20T07:08:14Z</time>
      </trkpt>
      <trkpt lat="47.18604" lon="4.93482">
        <ele>421.9</ele>
        <time>2021-05-20T07:08:18Z</time>
      </trkpt>
      <trkpt lat="47.18604" lon="4.93475">
        <ele>421.5</ele>
        <time>2021-05-20T07:08:22Z</time>
      </trkpt>
      <trkpt lat="47.18605" lon="4.93467">
        <ele>419.4</ele>
        <time>2021-05-20T07:08:27Z</time>
      </trkpt>
      <trkpt lat="47.18606" lon="4.93459">
        <ele>419.4</ele>
        <time>2021-05-20T07:08:32Z</time>
      </trkpt>
      <trkpt lat="47.18609" lon="4.93453">
        <ele>421.1</ele>
        <time>2021-05-20T07:08:36Z</time>
      </trkpt>
      <trkpt lat="47.1861" lon="4.93444">
        <ele>419.5</ele>
        <time>2021-05-20T07:08:42Z</time>
      </trkpt>
      <trkpt lat="47.18612" lon="4.93436">
        <ele>421.5</ele>
        <time>2021-05-20T07:08:47Z</time>
      </trkpt>
      <trkpt lat="47.18613" lon="4.93428">
        <ele>421.3</ele>
        <time>2021-05-20T07:08:52Z</time>
      </trkpt>
      <trkpt lat="47.18614" lon="4.93421">
        <ele>423.9</ele>
        <time>2021-05-20T07:08:57Z</time>
      </trkpt>
      <trkpt lat="47.18614" lon="4.93414">
        <ele>423.1</ele>
        <time>2021-05-20T07:09:02Z</time>
      </trkpt>
      <trkpt lat="47.18615" lon="4.93405">
        <ele>421.7</ele>
        <time>2021-05-20T07:09:07Z</time>
      </trkpt>
      <trkpt lat="47.18614" lon="4.93396">
        <ele>423.6</ele>
        <time>2021-05-20T07:09:12Z</time>
      </trkpt>
      <trkpt lat="47.18613" lon="4.93389">
        <ele>423.8</ele>
        <time>2021-05-20T07:09:15Z</time>
      </trkpt>
      <trkpt lat="47.18611" lon="4.93381">
        <ele>422.6</ele>
        <time>2021-05-20T07:09:20Z</time>
      </trkpt>
      <trkpt lat="47.1861" lon="4.93372">
        <ele>422.5</ele>
        <time>2021-05-20T07:09:24Z</time>
      </trkpt>
      <trkpt lat="47.18611" lon="4.93364">
        <ele>423</ele>
        <time>2021-05-20T07:09:28Z</time>
      </trkpt>
      <trkpt lat="47.18613" lon="4.93358">
        <ele>422.3</ele>
        <time>2021-05-20T07:09:32Z</time>
      </trkpt>
      <trkpt lat="47.18614" lon="4.9335">
        <ele>422.8</ele>
        <time>2021-05-20T07:09:37Z</time>
      </trkpt>
      <trkpt lat="47.18612" lon="4.93342">
        <ele>423.9</ele>
        <time>2021-05-20T07:09:40Z</time>
      </trkpt>
      <trkpt lat="47.1861" lon="4.93334">
        <ele>423.2</ele>
        <time>2021-05-20T07:09:46Z</time>
      </trkpt>
      <trkpt lat="47.1861" lon="4.93327">
        <ele>424.2</ele>
        <time>2021-05-20T07:09:50Z</time>
      </trkpt>
      <trkpt lat="47.1861" lon="4.93321">
        <ele>425.7</ele>
        <time>2021-05-20T07:09:54Z</time>
      </trkpt>
      <trkpt lat="47.18611" lon="4.93314">
        <ele>424.3</ele>
        <time>2021-05-20T07:09:59Z</time>
      </trkpt>
      <trkpt lat="47.18613" lon="4.93308">
        <ele>425.3</ele>
        <time>2021-05-20T07:10:02Z</time>
      </trkpt>
      <trkpt lat="47.18615" lon="4.93301">
        <ele>425.2</ele>
        <time>2021-05-20T07:10:05Z</time>
      </trkpt>
      <trkpt lat="47.18616" lon="4.93293">
        <ele>426.7</ele>
        <time>2021-05-20T07:10:10Z</time>
      </trkpt>
      <trkpt lat="47.18616" lon="4.93285">
        <ele>423.2</ele>
        <time>2021-05-20T07:10:14Z</time>
      </trkpt>
      <trkpt lat="47.18614" lon="4.93277">
        <ele>426.2</ele>
        <time>2021-05-20T07:10:21Z</time>
      </trkpt>
      <trkpt lat="47.18614" lon="4.93269">
        <ele>425.2</ele>
        <time>2021-05-20T07:10:25Z</time>
      </trkpt>
      <trkpt lat="47.18614" lon="4.93261">
        <ele>427.7</ele>
        <time>2021-05-20T07:10:30Z</time>
      </trkpt>
      <trkpt lat="47.18618" lon="4.93251">
        <ele>428.4</ele>
        <time>2021-05-20T07:10:37Z</time>
      </trkpt>
      <trkpt lat="47.18619" lon="4.93245">
        <ele>430.7</ele>
        <time>2021-05-20T07:10:42Z</time>
      </trkpt>
      <trkpt lat="47.18619" lon="4.93237">
        <ele>431</ele>
        <time>2021-05-20T07:10:47Z</time>
      </trkpt>
      <trkpt lat="47.18619" lon="4.93229">
        <ele>430.8</ele>
        <time>2021-05-20T07:10:52Z</time>
      </trkpt>
      <trkpt lat="47.18619" lon="4.9322">
        <ele>429.3</ele>
        <time>2021-05-20T07:10:57Z</time>
      </trkpt>
      <trkpt lat="47.18618" lon="4.93211">
        <ele>431.5</ele>
        <time>2021-05-20T07:11:02Z</time>
      </trkpt>
      <trkpt lat="47.18618" lon="4.93203">
        <ele>434</ele>
        <time>2021-05-20T07:11:07Z</time>
      </trkpt>
      <trkpt lat="47.18618" lon="4.93194">
        <ele>432.9</ele>
        <time>2021-05-20T07:11:12Z</time>
      </trkpt>
      <trkpt lat="47.18619" lon="4.93187">
        <ele>432.8</ele>
        <time>2021-05-20T07:11:16Z</time>
      </trkpt>
      <trkpt lat="47.18619" lon="4.93181">
        <ele>432.2</ele>
        <time>2021-05-20T07:11:19Z</time>
      </trkpt>
      <trkpt lat="47.18618" lon="4.93172">
        <ele>431.8</ele>
        <time>2021-05-20T07:11:24Z</time>
      </trkpt>
      <trkpt lat="47.1862" lon="4.93165">
        <ele>432.9</ele>
        <time>2021-05-20T07:11:28Z</time>
      </trkpt>
      <trkpt lat="47.18622" lon="4.9316">
        <ele>433.2</ele>
        <time>2021-05-20T07:11:32Z</time>
      </trkpt>
      <trkpt lat="47.18625" lon="4.93154">
        <ele>434.2</ele>
        <time>2021-05-20T07:11:36Z</time>
      </trkpt>
      <trkpt lat="47.18625" lon="4.93145">
        <ele>432.1</ele>
        <time>2021-05-20T07:11:41Z</time>
      </trkpt>
      <trkpt lat="47.18624" lon="4.93137">
        <ele>432.3</ele>
        <time>2021-05-20T07:11:46Z</time>
      </trkpt>
      <trkpt lat="47.18622" lon="4.93131">
        <ele>433.3</ele>
        <time>2021-05-20T07:11:50Z</time>
      </trkpt>
      <trkpt lat="47.18621" lon="4.93124">
        <ele>434.2</ele>
        <time>2021-05-20T07:11:55Z</time>
      </trkpt>
      <trkpt lat="47.18623" lon="4.93118">
        <ele>434.3</ele>
        <time>2021-05-20T07:12:01Z</time>
      </trkpt>
      <trkpt lat="47.18626" lon="4.93112">
        <ele>437.4</ele>
        <time>2021-05-20T07:12:06Z</time>
      </trkpt>
      <trkpt lat="47.18628" lon="4.93104">
        <ele>438.7</ele>
        <time>2021-05-20T07:12:11Z</time>
      </trkpt>
      <trkpt lat="47.18627" lon="4.93095">
        <ele>436.8</ele>
        <time>2021-05-20T07:12:15Z</time>
      </trkpt>
      <trkpt lat="47.18626" lon="4.93089">
        <ele>437.9</ele>
        <time>2021-05-20T07:12:19Z</time>
      </trkpt>
      <trkpt lat="47.18626" lon="4.93081">
        <ele>437.2</ele>
        <time>2021-05-20T07:12:24Z</time>
      </trkpt>
      <trkpt lat="47.18626" lon="4.93073">
        <ele>438</ele>
        <time>2021-05-20T07:12:30Z</time>
      </trkpt>
      <trkpt lat="47.18626" lon="4.93066">
        <ele>437.6</ele>
        <time>2021-05-20T07:12:34Z</time>
      </trkpt>
      <trkpt lat="47.18626" lon="4.93058">
        <ele>438.1</ele>
        <time>2021-05-20T07:12:38Z</time>
      </trkpt>
      <trkpt lat="47.18627" lon="4.9305">
        <ele>437.6</ele>
        <time>2021-05-20T07:12:43Z</time>
      </trkpt>
      <trkpt lat="47.18633" lon="4.93035">
        <ele>438.2</ele>
        <time>2021-05-20T07:12:55Z</time>
      </trkpt>
      <trkpt lat="47.18635" lon="4.93028">
        <ele>440.3</ele>
        <time>2021-05-20T07:13:01Z</time>
      </trkpt>
      <trkpt lat="47.18633" lon="4.93021">
        <ele>436.8</ele>
        <time>2021-05-20T07:13:06Z</time>
      </trkpt>
      <trkpt lat="47.18631" lon="4.93013">
        <ele>434.9</ele>
        <time>2021-05-20T07:13:10Z</time>
      </trkpt>
      <trkpt lat="47.18629" lon="4.93004">
        <ele>434</ele>
        <time>2021-05-20T07:13:15Z</time>
      </trkpt>
      <trkpt lat="47.18628" lon="4.92997">
        <ele>433.7</ele>
        <time>2021-05-20T07:13:19Z</time>
      </trkpt>
      <trkpt lat="47.18627" lon="4.9299">
        <ele>432.4</ele>
        <time>2021-05-20T07:13:23Z</time>
      </trkpt>
      <trkpt lat="47.18624" lon="4.92983">
        <ele>434.6</ele>
        <time>2021-05-20T07:13:27Z</time>
      </trkpt>
      <trkpt lat="47.18623" lon="4.92977">
        <ele>435.7</ele>
        <time>2021-05-20T07:13:32Z</time>
      </trkpt>
      <trkpt lat="47.18623" lon="4.92969">
        <ele>434.1</ele>
        <time>2021-05-20T07:13:37Z</time>
      </trkpt>
      <trkpt lat="47.18625" lon="4.92962">
        <ele>433.2</ele>
        <time>2021-05-20T07:13:42Z</time>
      </trkpt>
      <trkpt lat="47.18627" lon="4.92955">
        <ele>434.8</ele>
        <time>2021-05-20T07:13:47Z</time>
      </trkpt>
      <trkpt lat="47.18629" lon="4.92949">
        <ele>434.5</ele>
        <time>2021-05-20T07:13:51Z</time>
      </trkpt>
      <trkpt lat="47.18628" lon="4.9294">
        <ele>433.1</ele>
        <time>2021-05-20T07:13:56Z</time>
      </trkpt>
      <trkpt lat="47.18626" lon="4.92934">
        <ele>434</ele>
        <time>2021-05-20T07:13:59Z</time>
      </trkpt>
      <trkpt lat="47.18626" lon="4.92927">
        <ele>435.3</ele>
        <time>2021-05-20T07:14:03Z</time>
      </trkpt>
      <trkpt lat="47.18626" lon="4.92918">
        <ele>433.3</ele>
        <time>2021-05-20T07:14:08Z</time>
      </trkpt>
      <trkpt lat="47.18626" lon="4.92912">
        <ele>432.4</ele>
        <time>2021-05-20T07:14:12Z</time>
      </trkpt>
      <trkpt lat="47.18626" lon="4.92905">
        <ele>431.8</ele>
        <time>2021-05-20T07:14:16Z</time>
      </trkpt>
      <trkpt lat="47.18628" lon="4.92898">
        <ele>430.2</ele>
        <time>2021-05-20T07:14:20Z</time>
      </trkpt>
      <trkpt lat="47.1863" lon="4.92891">
        <ele>431.1</ele>
        <time>2021-05-20T07:14:24Z</time>
      </trkpt>
      <trkpt lat="47.18627" lon="4.92884">
        <ele>430.1</ele>
        <time>2021-05-20T07:14:30Z</time>
      </trkpt>
      <trkpt lat="47.18627" lon="4.92877">
        <ele>429.2</ele>
        <time>2021-05-20T07:14:34Z</time>
      </trkpt>
      <trkpt lat="47.18628" lon="4.9287">
        <ele>430.9</ele>
        <time>2021-05-20T07:14:37Z</time>
      </trkpt>
      <trkpt lat="47.1863" lon="4.92861">
        <ele>431.7</ele>
        <time>2021-05-20T07:14:41Z</time>
      </trkpt>
      <trkpt lat="47.18632" lon="4.92854">
        <ele>431.1</ele>
        <time>2021-05-20T07:14:45Z</time>
      </trkpt>
      <trkpt lat="47.18632" lon="4.92847">
        <ele>431.9</ele>
        <time>2021-05-20T07:14:49Z</time>
      </trkpt>
      <trkpt lat="47.18632" lon="4.92839">
        <ele>433.5</ele>
        <time>2021-05-20T07:14:54Z</time>
      </trkpt>
      <trkpt lat="47.18635" lon="4.92834">
        <ele>433</ele>
        <time>2021-05-20T07:15:00Z</time>
      </trkpt>
      <trkpt lat="47.18636" lon="4.92821">
        <ele>435.5</ele>
        <time>2021-05-20T07:15:07Z</time>
      </trkpt>
      <trkpt lat="47.18637" lon="4.92813">
        <ele>433.9</ele>
        <time>2021-05-20T07:15:12Z</time>
      </trkpt>
      <trkpt lat="47.18638" lon="4.92805">
        <ele>434.1</ele>
        <time>2021-05-20T07:15:15Z</time>
      </trkpt>
      <trkpt lat="47.18639" lon="4.92797">
        <ele>434.1</ele>
        <time>2021-05-20T07:15:19Z</time>
      </trkpt>
      <trkpt lat="47.18639" lon="4.92789">
        <ele>435.3</ele>
        <time>2021-05-20T07:15:24Z</time>
      </trkpt>
      <trkpt lat="47.1864" lon="4.9278">
        <ele>438.6</ele>
        <time>2021-05-20T07:15:29Z</time>
      </trkpt>
      <trkpt lat="47.1864" lon="4.92773">
        <ele>440</ele>
        <time>2021-05-20T07:15:33Z</time>
      </trkpt>
      <trkpt lat="47.1864" lon="4.92766">
        <ele>441.7</ele>
        <time>2021-05-20T07:15:37Z</time>
      </trkpt>
      <trkpt lat="47.1864" lon="4.92757">
        <ele>438.6</ele>
        <time>2021-05-20T07:15:41Z</time>
      </trkpt>
      <trkpt lat="47.18641" lon="4.92749">
        <ele>437.7</ele>
        <time>2021-05-20T07:15:47Z</time>
      </trkpt>
      <trkpt lat="47.18642" lon="4.92742">
        <ele>436</ele>
        <time>2021-05-20T07:15:51Z</time>
      </trkpt>
      <trkpt lat="47.18644" lon="4.92735">
        <ele>434.3</ele>
        <time>2021-05-20T07:15:55Z</time>
      </trkpt>
      <trkpt lat="47.18644" lon="4.92726">
        <ele>436.6</ele>
        <time>2021-05-20T07:16:00Z</time>
      </trkpt>
      <trkpt lat="47.18644" lon="4.92719">
        <ele>437.5</ele>
        <time>2021-05-20T07:16:04Z</time>
      </trkpt>
      <trkpt lat="47.18643" lon="4.92712">
        <ele>436.2</ele>
        <time>2021-05-20T07:16:08Z</time>
      </trkpt>
      <trkpt lat="47.18643" lon="4.92703">
        <ele>435.2</ele>
        <time>2021-05-20T07:16:13Z</time>
      </trkpt>
      <trkpt lat="47.18643" lon="4.92696">
        <ele>435.3</ele>
        <time>2021-05-20T07:16:16Z</time>
      </trkpt>
      <trkpt lat="47.18643" lon="4.92689">
        <ele>434.5</ele>
        <time>2021-05-20T07:16:20Z</time>
      </trkpt>
      <trkpt lat="47.18644" lon="4.92682">
        <ele>433.9</ele>
        <time>2021-05-20T07:16:24Z</time>
      </trkpt>
      <trkpt lat="47.18645" lon="4.92676">
        <ele>433.1</ele>
        <time>2021-05-20T07:16:28Z</time>
      </trkpt>
      <trkpt lat="47.18646" lon="4.92668">
        <ele>432</ele>
        <time>2021-05-20T07:16:34Z</time>
      </trkpt>
      <trkpt lat="47.18645" lon="4.92661">
        <ele>430.3</ele>
        <time>2021-05-20T07:16:37Z</time>
      </trkpt>
      <trkpt lat="47.18645" lon="4.92653">
        <ele>428.7</ele>
        <time>2021-05-20T07:16:41Z</time>
      </trkpt>
      <trkpt lat="47.18646" lon="4.92646">
        <ele>429.9</ele>
        <time>2021-05-20T07:16:45Z</time>
      </trkpt>
      <trkpt lat="47.18646" lon="4.9264">
        <ele>427.9</ele>
        <time>2021-05-20T07:16:49Z</time>
      </trkpt>
      <trkpt lat="47.18646" lon="4.92631">
        <ele>431.8</ele>
        <time>2021-05-20T07:16:54Z</time>
      </trkpt>
      <trkpt lat="47.18646" lon="4.92622">
        <ele>431.8</ele>
        <time>2021-05-20T07:16:59Z</time>
      </trkpt>
      <trkpt lat="47.18647" lon="4.92613">
        <ele>432.6</ele>
        <time>2021-05-20T07:17:04Z</time>
      </trkpt>
      <trkpt lat="47.18648" lon="4.92603">
        <ele>432.1</ele>
        <time>2021-05-20T07:17:09Z</time>
      </trkpt>
      <trkpt lat="47.1865" lon="4.92596">
        <ele>431.4</ele>
        <time>2021-05-20T07:17:14Z</time>
      </trkpt>
      <trkpt lat="47.1865" lon="4.92588">
        <ele>434.2</ele>
        <time>2021-05-20T07:17:19Z</time>
      </trkpt>
      <trkpt lat="47.18649" lon="4.92581">
        <ele>433.5</ele>
        <time>2021-05-20T07:17:22Z</time>
      </trkpt>
      <trkpt lat="47.18649" lon="4.92574">
        <ele>433.3</ele>
        <time>2021-05-20T07:17:26Z</time>
      </trkpt>
      <trkpt lat="47.1865" lon="4.92566">
        <ele>435</ele>
        <time>2021-05-20T07:17:31Z</time>
      </trkpt>
      <trkpt lat="47.18651" lon="4.92558">
        <ele>435.9</ele>
        <time>2021-05-20T07:17:35Z</time>
      </trkpt>
      <trkpt lat="47.18651" lon="4.9255">
        <ele>435.1</ele>
        <time>2021-05-20T07:17:40Z</time>
      </trkpt>
      <trkpt lat="47.18648" lon="4.92544">
        <ele>433.1</ele>
        <time>2021-05-20T07:17:44Z</time>
      </trkpt>
      <trkpt lat="47.18646" lon="4.92538">
        <ele>432.5</ele>
        <time>2021-05-20T07:17:48Z</time>
      </trkpt>
      <trkpt lat="47.18646" lon="4.92531">
        <ele>428.5</ele>
        <time>2021-05-20T07:17:51Z</time>
      </trkpt>
      <trkpt lat="47.18647" lon="4.92523">
        <ele>427.4</ele>
        <time>2021-05-20T07:17:56Z</time>
      </trkpt>
      <trkpt lat="47.18649" lon="4.92517">
        <ele>426.3</ele>
        <time>2021-05-20T07:18:00Z</time>
      </trkpt>
      <trkpt lat="47.1865" lon="4.92509">
        <ele>427.3</ele>
        <time>2021-05-20T07:18:05Z</time>
      </trkpt>
      <trkpt lat="47.18648" lon="4.92501">
        <ele>426.1</ele>
        <time>2021-05-20T07:18:09Z</time>
      </trkpt>
      <trkpt lat="47.18649" lon="4.92494">
        <ele>425.1</ele>
        <time>2021-05-20T07:18:13Z</time>
      </trkpt>
      <trkpt lat="47.18649" lon="4.92486">
        <ele>426.2</ele>
        <time>2021-05-20T07:18:17Z</time>
      </trkpt>
      <trkpt lat="47.18647" lon="4.92479">
        <ele>426.9</ele>
        <time>2021-05-20T07:18:22Z</time>
      </trkpt>
      <trkpt lat="47.18644" lon="4.92474">
        <ele>425.3</ele>
        <time>2021-05-20T07:18:32Z</time>
      </trkpt>
      <trkpt lat="47.18643" lon="4.92467">
        <ele>425.5</ele>
        <time>2021-05-20T07:18:39Z</time>
      </trkpt>
      <trkpt lat="47.18647" lon="4.92462">
        <ele>425.4</ele>
        <time>2021-05-20T07:18:45Z</time>
      </trkpt>
      <trkpt lat="47.18652" lon="4.92461">
        <ele>424.4</ele>
        <time>2021-05-20T07:18:50Z</time>
      </trkpt>
      <trkpt lat="47.18658" lon="4.92459">
        <ele>424.7</ele>
        <time>2021-05-20T07:18:55Z</time>
      </trkpt>
      <trkpt lat="47.18663" lon="4.92458">
        <ele>422</ele>
        <time>2021-05-20T07:18:58Z</time>
      </trkpt>
      <trkpt lat="47.18668" lon="4.92459">
        <ele>421.5</ele>
        <time>2021-05-20T07:19:01Z</time>
      </trkpt>
      <trkpt lat="47.18672" lon="4.9246">
        <ele>422.2</ele>
        <time>2021-05-20T07:19:06Z</time>
      </trkpt>
      <trkpt lat="47.18678" lon="4.92459">
        <ele>420.7</ele>
        <time>2021-05-20T07:19:11Z</time>
      </trkpt>
      <trkpt lat="47.18683" lon="4.92454">
        <ele>420.2</ele>
        <time>2021-05-20T07:19:15Z</time>
      </trkpt>
      <trkpt lat="47.18685" lon="4.92448">
        <ele>418.9</ele>
        <time>2021-05-20T07:19:18Z</time>
      </trkpt>
      <trkpt lat="47.18689" lon="4.92442">
        <ele>422.1</ele>
        <time>2021-05-20T07:19:22Z</time>
      </trkpt>
      <trkpt lat="47.18694" lon="4.9244">
        <ele>420.5</ele>
        <time>2021-05-20T07:19:26Z</time>
      </trkpt>
      <trkpt lat="47.18699" lon="4.92439">
        <ele>421.9</ele>
        <time>2021-05-20T07:19:30Z</time>
      </trkpt>
      <trkpt lat="47.18703" lon="4.92435">
        <ele>420.5</ele>
        <time>2021-05-20T07:19:35Z</time>
      </trkpt>
      <trkpt lat="47.18709" lon="4.92433">
        <ele>420.7</ele>
        <time>2021-05-20T07:19:39Z</time>
      </trkpt>
      <trkpt lat="47.18717" lon="4.92432">
        <ele>421.7</ele>
        <time>2021-05-20T07:19:42Z</time>
      </trkpt>
      <trkpt lat="47.18722" lon="4.92431">
        <ele>420.9</ele>
        <time>2021-05-20T07:19:47Z</time>
      </trkpt>
      <trkpt lat="47.18727" lon="4.92427">
        <ele>421.6</ele>
        <time>2021-05-20T07:19:51Z</time>
      </trkpt>
      <trkpt lat="47.18731" lon="4.92421">
        <ele>423.3</ele>
        <time>2021-05-20T07:19:54Z</time>
      </trkpt>
      <trkpt lat="47.18736" lon="4.92417">
        <ele>424.2</ele>
        <time>2021-05-20T07:20:00Z</time>
      </trkpt>
      <trkpt lat="47.18739" lon="4.92409">
        <ele>425.5</ele>
        <time>2021-05-20T07:20:05Z</time>
      </trkpt>
      <trkpt lat="47.18741" lon="4.92403">
        <ele>422.1</ele>
        <time>2021-05-20T07:20:11Z</time>
      </trkpt>
      <trkpt lat="47.18744" lon="4.92396">
        <ele>423.1</ele>
        <time>2021-05-20T07:20:15Z</time>
      </trkpt>
      <trkpt lat="47.18748" lon="4.92391">
        <ele>423.7</ele>
        <time>2021-05-20T07:20:18Z</time>
      </trkpt>
      <trkpt lat="47.18753" lon="4.92388">
        <ele>427.2</ele>
        <time>2021-05-20T07:20:23Z</time>
      </trkpt>
      <trkpt lat="47.18758" lon="4.92387">
        <ele>425.4</ele>
        <time>2021-05-20T07:20:27Z</time>
      </trkpt>
      <trkpt lat="47.18766" lon="4.92384">
        <ele>428.7</ele>
        <time>2021-05-20T07:20:31Z</time>
      </trkpt>
      <trkpt lat="47.18768" lon="4.92378">
        <ele>426.6</ele>
        <time>2021-05-20T07:20:36Z</time>
      </trkpt>
      <trkpt lat="47.18772" lon="4.92376">
        <ele>427</ele>
        <time>2021-05-20T07:20:40Z</time>
      </trkpt>
      <trkpt lat="47.18777" lon="4.92372">
        <ele>423.2</ele>
        <time>2021-05-20T07:20:44Z</time>
      </trkpt>
      <trkpt lat="47.1878" lon="4.92362">
        <ele>423.1</ele>
        <time>2021-05-20T07:20:49Z</time>
      </trkpt>
      <trkpt lat="47.18781" lon="4.92356">
        <ele>420.5</ele>
        <time>2021-05-20T07:20:51Z</time>
      </trkpt>
      <trkpt lat="47.18786" lon="4.92351">
        <ele>423.1</ele>
        <time>2021-05-20T07:20:55Z</time>
      </trkpt>
      <trkpt lat="47.18792" lon="4.9235">
        <ele>422</ele>
        <time>2021-05-20T07:21:02Z</time>
      </trkpt>
      <trkpt lat="47.18796" lon="4.92347">
        <ele>423.4</ele>
        <time>2021-05-20T07:21:05Z</time>
      </trkpt>
      <trkpt lat="47.188" lon="4.92344">
        <ele>424.2</ele>
        <time>2021-05-20T07:21:08Z</time>
      </trkpt>
      <trkpt lat="47.18804" lon="4.92338">
        <ele>421.9</ele>
        <time>2021-05-20T07:21:14Z</time>
      </trkpt>
      <trkpt lat="47.18807" lon="4.92332">
        <ele>422.9</ele>
        <time>2021-05-20T07:21:17Z</time>
      </trkpt>
      <trkpt lat="47.18811" lon="4.92328">
        <ele>422.3</ele>
        <time>2021-05-20T07:21:24Z</time>
      </trkpt>
      <trkpt lat="47.18815" lon="4.92323">
        <ele>423.3</ele>
        <time>2021-05-20T07:21:27Z</time>
      </trkpt>
      <trkpt lat="47.18816" lon="4.92317">
        <ele>423.5</ele>
        <time>2021-05-20T07:21:32Z</time>
      </trkpt>
      <trkpt lat="47.18821" lon="4.92311">
        <ele>425.6</ele>
        <time>2021-05-20T07:21:37Z</time>
      </trkpt>
      <trkpt lat="47.18825" lon="4.92305">
        <ele>426.7</ele>
        <time>2021-05-20T07:21:40Z</time>
      </trkpt>
      <trkpt lat="47.18827" lon="4.92297">
        <ele>425.5</ele>
        <time>2021-05-20T07:21:43Z</time>
      </trkpt>
      <trkpt lat="47.18828" lon="4.92289">
        <ele>426.1</ele>
        <time>2021-05-20T07:21:49Z</time>
      </trkpt>
      <trkpt lat="47.18832" lon="4.92283">
        <ele>423.9</ele>
        <time>2021-05-20T07:21:53Z</time>
      </trkpt>
      <trkpt lat="47.18835" lon="4.92279">
        <ele>422.5</ele>
        <time>2021-05-20T07:21:57Z</time>
      </trkpt>
      <trkpt lat="47.18835" lon="4.92271">
        <ele>423.1</ele>
        <time>2021-05-20T07:22:02Z</time>
      </trkpt>
      <trkpt lat="47.18837" lon="4.92263">
        <ele>424.7</ele>
        <time>2021-05-20T07:22:06Z</time>
      </trkpt>
      <trkpt lat="47.18842" lon="4.9226">
        <ele>428.4</ele>
        <time>2021-05-20T07:22:10Z</time>
      </trkpt>
      <trkpt lat="47.18845" lon="4.92251">
        <ele>429.5</ele>
        <time>2021-05-20T07:22:15Z</time>
      </trkpt>
      <trkpt lat="47.18849" lon="4.92245">
        <ele>427.5</ele>
        <time>2021-05-20T07:22:19Z</time>
      </trkpt>
      <trkpt lat="47.18852" lon="4.9224">
        <ele>428.1</ele>
        <time>2021-05-20T07:22:21Z</time>
      </trkpt>
      <trkpt lat="47.18855" lon="4.92234">
        <ele>429</ele>
        <time>2021-05-20T07:22:29Z</time>
      </trkpt>
      <trkpt lat="47.1886" lon="4.92232">
        <ele>428.6</ele>
        <time>2021-05-20T07:22:33Z</time>
      </trkpt>
      <trkpt lat="47.18863" lon="4.92227">
        <ele>429.6</ele>
        <time>2021-05-20T07:22:36Z</time>
      </trkpt>
      <trkpt lat="47.18867" lon="4.92222">
        <ele>424.9</ele>
        <time>2021-05-20T07:22:41Z</time>
      </trkpt>
      <trkpt lat="47.18872" lon="4.92217">
        <ele>429.7</ele>
        <time>2021-05-20T07:22:44Z</time>
      </trkpt>
      <trkpt lat="47.18878" lon="4.92214">
        <ele>430.7</ele>
        <time>2021-05-20T07:22:48Z</time>
      </trkpt>
      <trkpt lat="47.18883" lon="4.92212">
        <ele>430.6</ele>
        <time>2021-05-20T07:22:50Z</time>
      </trkpt>
      <trkpt lat="47.18888" lon="4.9221">
        <ele>428.6</ele>
        <time>2021-05-20T07:22:53Z</time>
      </trkpt>
      <trkpt lat="47.18893" lon="4.92207">
        <ele>425.8</ele>
        <time>2021-05-20T07:22:59Z</time>
      </trkpt>
      <trkpt lat="47.18897" lon="4.92201">
        <ele>425.4</ele>
        <time>2021-05-20T07:23:04Z</time>
      </trkpt>
      <trkpt lat="47.189" lon="4.92195">
        <ele>427.1</ele>
        <time>2021-05-20T07:23:07Z</time>
      </trkpt>
      <trkpt lat="47.18903" lon="4.92188">
        <ele>426.7</ele>
        <time>2021-05-20T07:23:14Z</time>
      </trkpt>
      <trkpt lat="47.18906" lon="4.92184">
        <ele>427</ele>
        <time>2021-05-20T07:23:18Z</time>
      </trkpt>
      <trkpt lat="47.1891" lon="4.92179">
        <ele>428.2</ele>
        <time>2021-05-20T07:23:21Z</time>
      </trkpt>
      <trkpt lat="47.18916" lon="4.92176">
        <ele>431.3</ele>
        <time>2021-05-20T07:23:25Z</time>
      </trkpt>
      <trkpt lat="47.18921" lon="4.92177">
        <ele>427.7</ele>
        <time>2021-05-20T07:23:36Z</time>
      </trkpt>
      <trkpt lat="47.18926" lon="4.92172">
        <ele>421.3</ele>
        <time>2021-05-20T07:23:44Z</time>
      </trkpt>
      <trkpt lat="47.1893" lon="4.92168">
        <ele>422.1</ele>
        <time>2021-05-20T07:23:49Z</time>
      </trkpt>
      <trkpt lat="47.18935" lon="4.92165">
        <ele>423.1</ele>
        <time>2021-05-20T07:23:52Z</time>
      </trkpt>
      <trkpt lat="47.18941" lon="4.92163">
        <ele>425.1</ele>
        <time>2021-05-20T07:23:56Z</time>
      </trkpt>
      <trkpt lat="47.18952" lon="4.92157">
        <ele>422.4</ele>
        <time>2021-05-20T07:24:03Z</time>
      </trkpt>
      <trkpt lat="47.18957" lon="4.92154">
        <ele>425.5</ele>
        <time>2021-05-20T07:24:07Z</time>
      </trkpt>
      <trkpt lat="47.18965" lon="4.92142">
        <ele>425.2</ele>
        <time>2021-05-20T07:24:16Z</time>
      </trkpt>
      <trkpt lat="47.1897" lon="4.92137">
        <ele>428.9</ele>
        <time>2021-05-20T07:24:22Z</time>
      </trkpt>
      <trkpt lat="47.18975" lon="4.92135">
        <ele>428.2</ele>
        <time>2021-05-20T07:24:27Z</time>
      </trkpt>
      <trkpt lat="47.18981" lon="4.92135">
        <ele>430</ele>
        <time>2021-05-20T07:24:32Z</time>
      </trkpt>
      <trkpt lat="47.18987" lon="4.92135">
        <ele>430.7</ele>
        <time>2021-05-20T07:24:36Z</time>
      </trkpt>
      <trkpt lat="47.18992" lon="4.92135">
        <ele>430.9</ele>
        <time>2021-05-20T07:24:40Z</time>
      </trkpt>
      <trkpt lat="47.18996" lon="4.92133">
        <ele>430</ele>
        <time>2021-05-20T07:24:44Z</time>
      </trkpt>
      <trkpt lat="47.19002" lon="4.92131">
        <ele>430.6</ele>
        <time>2021-05-20T07:24:50Z</time>
      </trkpt>
      <trkpt lat="47.19006" lon="4.92131">
        <ele>429.3</ele>
        <time>2021-05-20T07:24:55Z</time>
      </trkpt>
      <trkpt lat="47.19012" lon="4.92129">
        <ele>427</ele>
        <time>2021-05-20T07:25:00Z</time>
      </trkpt>
      <trkpt lat="47.19016" lon="4.9213">
        <ele>427.6</ele>
        <time>2021-05-20T07:25:04Z</time>
      </trkpt>
      <trkpt lat="47.19022" lon="4.92131">
        <ele>428</ele>
        <time>2021-05-20T07:25:09Z</time>
      </trkpt>
      <trkpt lat="47.19027" lon="4.92129">
        <ele>427.6</ele>
        <time>2021-05-20T07:25:14Z</time>
      </trkpt>
      <trkpt lat="47.19031" lon="4.92123">
        <ele>428.8</ele>
        <time>2021-05-20T07:25:19Z</time>
      </trkpt>
      <trkpt lat="47.19035" lon="4.9212">
        <ele>428.5</ele>
        <time>2021-05-20T07:25:23Z</time>
      </trkpt>
      <trkpt lat="47.19039" lon="4.92118">
        <ele>429</ele>
        <time>2021-05-20T07:25:26Z</time>
      </trkpt>
      <trkpt lat="47.19045" lon="4.92118">
        <ele>430.4</ele>
        <time>2021-05-20T07:25:30Z</time>
      </trkpt>
      <trkpt lat="47.19049" lon="4.92118">
        <ele>431.7</ele>
        <time>2021-05-20T07:25:34Z</time>
      </trkpt>
      <trkpt lat="47.19054" lon="4.92117">
        <ele>432.1</ele>
        <time>2021-05-20T07:25:38Z</time>
      </trkpt>
      <trkpt lat="47.19059" lon="4.92119">
        <ele>434.3</ele>
        <time>2021-05-20T07:25:45Z</time>
      </trkpt>
      <trkpt lat="47.19064" lon="4.92123">
        <ele>433.5</ele>
        <time>2021-05-20T07:25:53Z</time>
      </trkpt>
      <trkpt lat="47.19069" lon="4.92124">
        <ele>431.5</ele>
        <time>2021-05-20T07:25:55Z</time>
      </trkpt>
      <trkpt lat="47.1908" lon="4.92126">
        <ele>429.8</ele>
        <time>2021-05-20T07:26:04Z</time>
      </trkpt>
      <trkpt lat="47.19085" lon="4.92126">
        <ele>429.4</ele>
        <time>2021-05-20T07:26:19Z</time>
      </trkpt>
      <trkpt lat="47.1909" lon="4.92125">
        <ele>427.5</ele>
        <time>2021-05-20T07:26:24Z</time>
      </trkpt>
      <trkpt lat="47.19095" lon="4.92124">
        <ele>425.6</ele>
        <time>2021-05-20T07:26:28Z</time>
      </trkpt>
      <trkpt lat="47.19101" lon="4.9212">
        <ele>427.1</ele>
        <time>2021-05-20T07:26:38Z</time>
      </trkpt>
      <trkpt lat="47.19106" lon="4.92118">
        <ele>425.4</ele>
        <time>2021-05-20T07:26:40Z</time>
      </trkpt>
      <trkpt lat="47.1911" lon="4.92114">
        <ele>429.6</ele>
        <time>2021-05-20T07:26:43Z</time>
      </trkpt>
      <trkpt lat="47.19116" lon="4.92112">
        <ele>429.4</ele>
        <time>2021-05-20T07:26:47Z</time>
      </trkpt>
      <trkpt lat="47.19121" lon="4.92115">
        <ele>429.9</ele>
        <time>2021-05-20T07:26:54Z</time>
      </trkpt>
      <trkpt lat="47.19126" lon="4.92116">
        <ele>429.1</ele>
        <time>2021-05-20T07:26:58Z</time>
      </trkpt>
      <trkpt lat="47.19131" lon="4.92117">
        <ele>435.9</ele>
        <time>2021-05-20T07:27:02Z</time>
      </trkpt>
      <trkpt lat="47.19137" lon="4.92119">
        <ele>435.9</ele>
        <time>2021-05-20T07:27:07Z</time>
      </trkpt>
      <trkpt lat="47.19141" lon="4.9212">
        <ele>436.8</ele>
        <time>2021-05-20T07:27:11Z</time>
      </trkpt>
      <trkpt lat="47.19146" lon="4.92122">
        <ele>433.4</ele>
        <time>2021-05-20T07:27:24Z</time>
      </trkpt>
      <trkpt lat="47.19151" lon="4.9212">
        <ele>431.2</ele>
        <time>2021-05-20T07:27:28Z</time>
      </trkpt>
      <trkpt lat="47.19157" lon="4.92117">
        <ele>429.8</ele>
        <time>2021-05-20T07:27:33Z</time>
      </trkpt>
      <trkpt lat="47.19163" lon="4.92116">
        <ele>433</ele>
        <time>2021-05-20T07:27:37Z</time>
      </trkpt>
      <trkpt lat="47.19168" lon="4.92116">
        <ele>433.7</ele>
        <time>2021-05-20T07:27:38Z</time>
      </trkpt>
      <trkpt lat="47.19174" lon="4.92117">
        <ele>436.3</ele>
        <time>2021-05-20T07:27:41Z</time>
      </trkpt>
      <trkpt lat="47.19178" lon="4.92119">
        <ele>436.3</ele>
        <time>2021-05-20T07:27:46Z</time>
      </trkpt>
      <trkpt lat="47.19183" lon="4.92119">
        <ele>436.1</ele>
        <time>2021-05-20T07:27:51Z</time>
      </trkpt>
      <trkpt lat="47.19188" lon="4.92119">
        <ele>429.9</ele>
        <time>2021-05-20T07:27:56Z</time>
      </trkpt>
      <trkpt lat="47.19193" lon="4.92117">
        <ele>431.1</ele>
        <time>2021-05-20T07:28:01Z</time>
      </trkpt>
      <trkpt lat="47.19199" lon="4.92117">
        <ele>434.1</ele>
        <time>2021-05-20T07:28:06Z</time>
      </trkpt>
      <trkpt lat="47.19204" lon="4.92114">
        <ele>429.2</ele>
        <time>2021-05-20T07:28:11Z</time>
      </trkpt>
      <trkpt lat="47.19208" lon="4.92111">
        <ele>428.4</ele>
        <time>2021-05-20T07:28:14Z</time>
      </trkpt>
      <trkpt lat="47.19214" lon="4.92108">
        <ele>430.3</ele>
        <time>2021-05-20T07:28:19Z</time>
      </trkpt>
      <trkpt lat="47.19219" lon="4.92108">
        <ele>426.8</ele>
        <time>2021-05-20T07:28:23Z</time>
      </trkpt>
      <trkpt lat="47.19224" lon="4.92107">
        <ele>426.9</ele>
        <time>2021-05-20T07:28:26Z</time>
      </trkpt>
      <trkpt lat="47.19229" lon="4.92107">
        <ele>426.1</ele>
        <time>2021-05-20T07:28:30Z</time>
      </trkpt>
      <trkpt lat="47.19233" lon="4.92104">
        <ele>433.1</ele>
        <time>2021-05-20T07:28:35Z</time>
      </trkpt>
      <trkpt lat="47.19237" lon="4.921">
        <ele>437.1</ele>
        <time>2021-05-20T07:28:42Z</time>
      </trkpt>
      <trkpt lat="47.19242" lon="4.921">
        <ele>437</ele>
        <time>2021-05-20T07:28:45Z</time>
      </trkpt>
      <trkpt lat="47.19247" lon="4.92099">
        <ele>435.6</ele>
        <time>2021-05-20T07:28:49Z</time>
      </trkpt>
      <trkpt lat="47.19252" lon="4.92097">
        <ele>437.2</ele>
        <time>2021-05-20T07:28:54Z</time>
      </trkpt>
      <trkpt lat="47.19256" lon="4.92096">
        <ele>437</ele>
        <time>2021-05-20T07:28:58Z</time>
      </trkpt>
      <trkpt lat="47.19262" lon="4.92095">
        <ele>439.3</ele>
        <time>2021-05-20T07:29:06Z</time>
      </trkpt>
      <trkpt lat="47.19267" lon="4.92094">
        <ele>439.1</ele>
        <time>2021-05-20T07:29:12Z</time>
      </trkpt>
      <trkpt lat="47.19272" lon="4.92094">
        <ele>438.4</ele>
        <time>2021-05-20T07:29:16Z</time>
      </trkpt>
      <trkpt lat="47.19277" lon="4.92097">
        <ele>437.2</ele>
        <time>2021-05-20T07:29:20Z</time>
      </trkpt>
      <trkpt lat="47.19283" lon="4.92099">
        <ele>441</ele>
        <time>2021-05-20T07:29:25Z</time>
      </trkpt>
      <trkpt lat="47.19288" lon="4.92099">
        <ele>444.4</ele>
        <time>2021-05-20T07:29:29Z</time>
      </trkpt>
      <trkpt lat="47.19293" lon="4.92098">
        <ele>443.9</ele>
        <time>2021-05-20T07:29:33Z</time>
      </trkpt>
      <trkpt lat="47.19298" lon="4.92097">
        <ele>442.1</ele>
        <time>2021-05-20T07:29:37Z</time>
      </trkpt>
      <trkpt lat="47.19302" lon="4.92096">
        <ele>443.7</ele>
        <time>2021-05-20T07:29:41Z</time>
      </trkpt>
      <trkpt lat="47.19309" lon="4.92093">
        <ele>440.5</ele>
        <time>2021-05-20T07:29:47Z</time>
      </trkpt>
      <trkpt lat="47.19315" lon="4.92091">
        <ele>442.4</ele>
        <time>2021-05-20T07:29:51Z</time>
      </trkpt>
      <trkpt lat="47.1932" lon="4.92088">
        <ele>440.8</ele>
        <time>2021-05-20T07:29:57Z</time>
      </trkpt>
      <trkpt lat="47.19324" lon="4.92086">
        <ele>439.6</ele>
        <time>2021-05-20T07:30:01Z</time>
      </trkpt>
      <trkpt lat="47.1933" lon="4.92084">
        <ele>440.4</ele>
        <time>2021-05-20T07:30:07Z</time>
      </trkpt>
      <trkpt lat="47.19335" lon="4.92082">
        <ele>438.1</ele>
        <time>2021-05-20T07:30:12Z</time>
      </trkpt>
      <trkpt lat="47.1934" lon="4.92083">
        <ele>440.7</ele>
        <time>2021-05-20T07:30:41Z</time>
      </trkpt>
      <trkpt lat="47.1934" lon="4.92075">
        <ele>437.9</ele>
        <time>2021-05-20T07:31:28Z</time>
      </trkpt>
      <trkpt lat="47.1934" lon="4.92068">
        <ele>440.3</ele>
        <time>2021-05-20T07:31:49Z</time>
      </trkpt>
      <trkpt lat="47.19336" lon="4.92073">
        <ele>438.5</ele>
        <time>2021-05-20T07:32:29Z</time>
      </trkpt>
      <trkpt lat="47.19335" lon="4.9208">
        <ele>439.5</ele>
        <time>2021-05-20T07:32:33Z</time>
      </trkpt>
      <trkpt lat="47.19336" lon="4.92087">
        <ele>439.4</ele>
        <time>2021-05-20T07:32:37Z</time>
      </trkpt>
      <trkpt lat="47.19334" lon="4.92095">
        <ele>437.8</ele>
        <time>2021-05-20T07:32:42Z</time>
      </trkpt>
      <trkpt lat="47.19338" lon="4.921">
        <ele>439.9</ele>
        <time>2021-05-20T07:32:48Z</time>
      </trkpt>
      <trkpt lat="47.19344" lon="4.92102">
        <ele>440.1</ele>
        <time>2021-05-20T07:32:52Z</time>
      </trkpt>
      <trkpt lat="47.19349" lon="4.92103">
        <ele>440.6</ele>
        <time>2021-05-20T07:32:56Z</time>
      </trkpt>
      <trkpt lat="47.19353" lon="4.92106">
        <ele>443.5</ele>
        <time>2021-05-20T07:33:00Z</time>
      </trkpt>
      <trkpt lat="47.19356" lon="4.92111">
        <ele>444.3</ele>
        <time>2021-05-20T07:33:03Z</time>
      </trkpt>
      <trkpt lat="47.1936" lon="4.92117">
        <ele>443.8</ele>
        <time>2021-05-20T07:33:07Z</time>
      </trkpt>
      <trkpt lat="47.19366" lon="4.92117">
        <ele>443.2</ele>
        <time>2021-05-20T07:33:13Z</time>
      </trkpt>
      <trkpt lat="47.19371" lon="4.92115">
        <ele>441.5</ele>
        <time>2021-05-20T07:33:16Z</time>
      </trkpt>
      <trkpt lat="47.19377" lon="4.92115">
        <ele>441.2</ele>
        <time>2021-05-20T07:33:20Z</time>
      </trkpt>
      <trkpt lat="47.19381" lon="4.92115">
        <ele>442.7</ele>
        <time>2021-05-20T07:33:23Z</time>
      </trkpt>
      <trkpt lat="47.19386" lon="4.92116">
        <ele>442.4</ele>
        <time>2021-05-20T07:33:28Z</time>
      </trkpt>
      <trkpt lat="47.19392" lon="4.92118">
        <ele>442.8</ele>
        <time>2021-05-20T07:33:33Z</time>
      </trkpt>
      <trkpt lat="47.19397" lon="4.92121">
        <ele>444.3</ele>
        <time>2021-05-20T07:33:38Z</time>
      </trkpt>
      <trkpt lat="47.19403" lon="4.92124">
        <ele>443.2</ele>
        <time>2021-05-20T07:33:42Z</time>
      </trkpt>
      <trkpt lat="47.19406" lon="4.92129">
        <ele>438.6</ele>
        <time>2021-05-20T07:33:56Z</time>
      </trkpt>
      <trkpt lat="47.19408" lon="4.92135">
        <ele>436.4</ele>
        <time>2021-05-20T07:34:01Z</time>
      </trkpt>
      <trkpt lat="47.19408" lon="4.92143">
        <ele>443.7</ele>
        <time>2021-05-20T07:34:06Z</time>
      </trkpt>
      <trkpt lat="47.19406" lon="4.92149">
        <ele>442.7</ele>
        <time>2021-05-20T07:34:11Z</time>
      </trkpt>
      <trkpt lat="47.19405" lon="4.92156">
        <ele>443.2</ele>
        <time>2021-05-20T07:34:16Z</time>
      </trkpt>
      <trkpt lat="47.19409" lon="4.92161">
        <ele>444.6</ele>
        <time>2021-05-20T07:34:19Z</time>
      </trkpt>
      <trkpt lat="47.19413" lon="4.92166">
        <ele>446.3</ele>
        <time>2021-05-20T07:34:25Z</time>
      </trkpt>
      <trkpt lat="47.19417" lon="4.92172">
        <ele>447.6</ele>
        <time>2021-05-20T07:34:28Z</time>
      </trkpt>
      <trkpt lat="47.19422" lon="4.92177">
        <ele>446.6</ele>
        <time>2021-05-20T07:34:35Z</time>
      </trkpt>
      <trkpt lat="47.19426" lon="4.9218">
        <ele>447.9</ele>
        <time>2021-05-20T07:34:38Z</time>
      </trkpt>
      <trkpt lat="47.19431" lon="4.92182">
        <ele>447.2</ele>
        <time>2021-05-20T07:34:43Z</time>
      </trkpt>
      <trkpt lat="47.19438" lon="4.92182">
        <ele>447</ele>
        <time>2021-05-20T07:34:47Z</time>
      </trkpt>
      <trkpt lat="47.19443" lon="4.92181">
        <ele>446.4</ele>
        <time>2021-05-20T07:34:51Z</time>
      </trkpt>
      <trkpt lat="47.19448" lon="4.92181">
        <ele>443.9</ele>
        <time>2021-05-20T07:34:55Z</time>
      </trkpt>
      <trkpt lat="47.19452" lon="4.92179">
        <ele>444.4</ele>
        <time>2021-05-20T07:34:59Z</time>
      </trkpt>
      <trkpt lat="47.19457" lon="4.92178">
        <ele>443</ele>
        <time>2021-05-20T07:35:02Z</time>
      </trkpt>
      <trkpt lat="47.19461" lon="4.92175">
        <ele>442.9</ele>
        <time>2021-05-20T07:35:07Z</time>
      </trkpt>
      <trkpt lat="47.19466" lon="4.92173">
        <ele>446</ele>
        <time>2021-05-20T07:35:14Z</time>
      </trkpt>
      <trkpt lat="47.19471" lon="4.92173">
        <ele>444.8</ele>
        <time>2021-05-20T07:35:18Z</time>
      </trkpt>
      <trkpt lat="47.19476" lon="4.92173">
        <ele>444.3</ele>
        <time>2021-05-20T07:35:22Z</time>
      </trkpt>
      <trkpt lat="47.19481" lon="4.92172">
        <ele>445.1</ele>
        <time>2021-05-20T07:35:26Z</time>
      </trkpt>
      <trkpt lat="47.19486" lon="4.92172">
        <ele>444.6</ele>
        <time>2021-05-20T07:35:30Z</time>
      </trkpt>
      <trkpt lat="47.19491" lon="4.92172">
        <ele>444.5</ele>
        <time>2021-05-20T07:35:34Z</time>
      </trkpt>
      <trkpt lat="47.19497" lon="4.92171">
        <ele>448</ele>
        <time>2021-05-20T07:35:39Z</time>
      </trkpt>
      <trkpt lat="47.19502" lon="4.92169">
        <ele>448.2</ele>
        <time>2021-05-20T07:35:44Z</time>
      </trkpt>
      <trkpt lat="47.19507" lon="4.92167">
        <ele>448.6</ele>
        <time>2021-05-20T07:35:49Z</time>
      </trkpt>
      <trkpt lat="47.19512" lon="4.92166">
        <ele>444.9</ele>
        <time>2021-05-20T07:35:54Z</time>
      </trkpt>
      <trkpt lat="47.19518" lon="4.92164">
        <ele>445.3</ele>
        <time>2021-05-20T07:35:59Z</time>
      </trkpt>
      <trkpt lat="47.19523" lon="4.9216">
        <ele>445.3</ele>
        <time>2021-05-20T07:36:04Z</time>
      </trkpt>
      <trkpt lat="47.19529" lon="4.92159">
        <ele>443.9</ele>
        <time>2021-05-20T07:36:10Z</time>
      </trkpt>
      <trkpt lat="47.19535" lon="4.92159">
        <ele>441.8</ele>
        <time>2021-05-20T07:36:14Z</time>
      </trkpt>
      <trkpt lat="47.19539" lon="4.92159">
        <ele>442.1</ele>
        <time>2021-05-20T07:36:18Z</time>
      </trkpt>
      <trkpt lat="47.19545" lon="4.92159">
        <ele>443.9</ele>
        <time>2021-05-20T07:36:23Z</time>
      </trkpt>
      <trkpt lat="47.1955" lon="4.92158">
        <ele>442.2</ele>
        <time>2021-05-20T07:36:28Z</time>
      </trkpt>
      <trkpt lat="47.19555" lon="4.92157">
        <ele>443.3</ele>
        <time>2021-05-20T07:36:32Z</time>
      </trkpt>
      <trkpt lat="47.1956" lon="4.92155">
        <ele>443.6</ele>
        <time>2021-05-20T07:36:37Z</time>
      </trkpt>
      <trkpt lat="47.19566" lon="4.92154">
        <ele>444.5</ele>
        <time>2021-05-20T07:36:42Z</time>
      </trkpt>
      <trkpt lat="47.19573" lon="4.92154">
        <ele>445.6</ele>
        <time>2021-05-20T07:36:48Z</time>
      </trkpt>
      <trkpt lat="47.19578" lon="4.92156">
        <ele>445.4</ele>
        <time>2021-05-20T07:36:52Z</time>
      </trkpt>
      <trkpt lat="47.19583" lon="4.92157">
        <ele>446.8</ele>
        <time>2021-05-20T07:36:57Z</time>
      </trkpt>
      <trkpt lat="47.19588" lon="4.92158">
        <ele>444.3</ele>
        <time>2021-05-20T07:37:03Z</time>
      </trkpt>
      <trkpt lat="47.19592" lon="4.9216">
        <ele>446.6</ele>
        <time>2021-05-20T07:37:08Z</time>
      </trkpt>
      <trkpt lat="47.19598" lon="4.92161">
        <ele>447.1</ele>
        <time>2021-05-20T07:37:13Z</time>
      </trkpt>
      <trkpt lat="47.19603" lon="4.92162">
        <ele>447.2</ele>
        <time>2021-05-20T07:37:17Z</time>
      </trkpt>
      <trkpt lat="47.1962" lon="4.92164">
        <ele>448.1</ele>
        <time>2021-05-20T07:37:31Z</time>
      </trkpt>
      <trkpt lat="47.19626" lon="4.92165">
        <ele>446.4</ele>
        <time>2021-05-20T07:37:37Z</time>
      </trkpt>
      <trkpt lat="47.19632" lon="4.92164">
        <ele>446.6</ele>
        <time>2021-05-20T07:37:40Z</time>
      </trkpt>
      <trkpt lat="47.19635" lon="4.9216">
        <ele>442.7</ele>
        <time>2021-05-20T07:37:50Z</time>
      </trkpt>
      <trkpt lat="47.1963" lon="4.92164">
        <ele>442.2</ele>
        <time>2021-05-20T07:38:06Z</time>
      </trkpt>
      <trkpt lat="47.19624" lon="4.92167">
        <ele>442.4</ele>
        <time>2021-05-20T07:38:11Z</time>
      </trkpt>
      <trkpt lat="47.1962" lon="4.9217">
        <ele>442.6</ele>
        <time>2021-05-20T07:38:14Z</time>
      </trkpt>
      <trkpt lat="47.19616" lon="4.92172">
        <ele>440.9</ele>
        <time>2021-05-20T07:38:18Z</time>
      </trkpt>
      <trkpt lat="47.19611" lon="4.92175">
        <ele>442.1</ele>
        <time>2021-05-20T07:38:22Z</time>
      </trkpt>
      <trkpt lat="47.19606" lon="4.92175">
        <ele>443</ele>
        <time>2021-05-20T07:38:28Z</time>
      </trkpt>
      <trkpt lat="47.196" lon="4.92176">
        <ele>440.6</ele>
        <time>2021-05-20T07:38:33Z</time>
      </trkpt>
      <trkpt lat="47.19595" lon="4.92179">
        <ele>439</ele>
        <time>2021-05-20T07:38:38Z</time>
      </trkpt>
      <trkpt lat="47.19591" lon="4.92182">
        <ele>436.4</ele>
        <time>2021-05-20T07:38:42Z</time>
      </trkpt>
      <trkpt lat="47.19587" lon="4.92186">
        <ele>435.3</ele>
        <time>2021-05-20T07:38:47Z</time>
      </trkpt>
      <trkpt lat="47.19584" lon="4.92191">
        <ele>437.6</ele>
        <time>2021-05-20T07:38:51Z</time>
      </trkpt>
      <trkpt lat="47.1958" lon="4.92195">
        <ele>440.6</ele>
        <time>2021-05-20T07:38:54Z</time>
      </trkpt>
      <trkpt lat="47.19576" lon="4.92198">
        <ele>440.7</ele>
        <time>2021-05-20T07:38:57Z</time>
      </trkpt>
      <trkpt lat="47.19571" lon="4.92201">
        <ele>440.1</ele>
        <time>2021-05-20T07:39:01Z</time>
      </trkpt>
      <trkpt lat="47.19566" lon="4.92202">
        <ele>440.3</ele>
        <time>2021-05-20T07:39:04Z</time>
      </trkpt>
      <trkpt lat="47.19561" lon="4.92207">
        <ele>442</ele>
        <time>2021-05-20T07:39:10Z</time>
      </trkpt>
      <trkpt lat="47.19558" lon="4.92213">
        <ele>444.3</ele>
        <time>2021-05-20T07:39:15Z</time>
      </trkpt>
      <trkpt lat="47.19555" lon="4.92218">
        <ele>444</ele>
        <time>2021-05-20T07:39:18Z</time>
      </trkpt>
      <trkpt lat="47.19551" lon="4.92224">
        <ele>443</ele>
        <time>2021-05-20T07:39:22Z</time>
      </trkpt>
      <trkpt lat="47.19548" lon="4.9223">
        <ele>442.1</ele>
        <time>2021-05-20T07:39:26Z</time>
      </trkpt>
      <trkpt lat="47.19545" lon="4.92236">
        <ele>443.7</ele>
        <time>2021-05-20T07:39:32Z</time>
      </trkpt>
      <trkpt lat="47.19541" lon="4.92243">
        <ele>447.2</ele>
        <time>2021-05-20T07:39:37Z</time>
      </trkpt>
      <trkpt lat="47.19536" lon="4.92247">
        <ele>448.6</ele>
        <time>2021-05-20T07:39:40Z</time>
      </trkpt>
      <trkpt lat="47.19532" lon="4.9225">
        <ele>449.6</ele>
        <time>2021-05-20T07:39:43Z</time>
      </trkpt>
      <trkpt lat="47.19527" lon="4.92253">
        <ele>450.5</ele>
        <time>2021-05-20T07:39:46Z</time>
      </trkpt>
      <trkpt lat="47.19522" lon="4.92257">
        <ele>448.9</ele>
        <time>2021-05-20T07:39:50Z</time>
      </trkpt>
      <trkpt lat="47.1952" lon="4.92263">
        <ele>441.9</ele>
        <time>2021-05-20T07:40:00Z</time>
      </trkpt>
      <trkpt lat="47.19522" lon="4.92269">
        <ele>440.3</ele>
        <time>2021-05-20T07:40:06Z</time>
      </trkpt>
      <trkpt lat="47.19523" lon="4.92277">
        <ele>440.5</ele>
        <time>2021-05-20T07:40:11Z</time>
      </trkpt>
      <trkpt lat="47.19522" lon="4.92284">
        <ele>440.1</ele>
        <time>2021-05-20T07:40:15Z</time>
      </trkpt>
      <trkpt lat="47.1952" lon="4.92292">
        <ele>437.3</ele>
        <time>2021-05-20T07:40:19Z</time>
      </trkpt>
      <trkpt lat="47.19518" lon="4.923">
        <ele>437</ele>
        <time>2021-05-20T07:40:24Z</time>
      </trkpt>
      <trkpt lat="47.19517" lon="4.92308">
        <ele>437</ele>
        <time>2021-05-20T07:40:28Z</time>
      </trkpt>
      <trkpt lat="47.19516" lon="4.92314">
        <ele>436.4</ele>
        <time>2021-05-20T07:40:34Z</time>
      </trkpt>
      <trkpt lat="47.19515" lon="4.92322">
        <ele>436.9</ele>
        <time>2021-05-20T07:40:40Z</time>
      </trkpt>
      <trkpt lat="47.19515" lon="4.9233">
        <ele>435</ele>
        <time>2021-05-20T07:40:45Z</time>
      </trkpt>
      <trkpt lat="47.19515" lon="4.92338">
        <ele>435.1</ele>
        <time>2021-05-20T07:40:50Z</time>
      </trkpt>
      <trkpt lat="47.19515" lon="4.92346">
        <ele>434.8</ele>
        <time>2021-05-20T07:40:54Z</time>
      </trkpt>
      <trkpt lat="47.19516" lon="4.92355">
        <ele>434.2</ele>
        <time>2021-05-20T07:41:00Z</time>
      </trkpt>
      <trkpt lat="47.19514" lon="4.92362">
        <ele>435</ele>
        <time>2021-05-20T07:41:05Z</time>
      </trkpt>
      <trkpt lat="47.19514" lon="4.92369">
        <ele>433.5</ele>
        <time>2021-05-20T07:41:10Z</time>
      </trkpt>
      <trkpt lat="47.19514" lon="4.92376">
        <ele>434.4</ele>
        <time>2021-05-20T07:41:14Z</time>
      </trkpt>
      <trkpt lat="47.19513" lon="4.92384">
        <ele>434.7</ele>
        <time>2021-05-20T07:41:19Z</time>
      </trkpt>
      <trkpt lat="47.19511" lon="4.92391">
        <ele>434.9</ele>
        <time>2021-05-20T07:41:23Z</time>
      </trkpt>
      <trkpt lat="47.1951" lon="4.924">
        <ele>435.9</ele>
        <time>2021-05-20T07:41:27Z</time>
      </trkpt>
      <trkpt lat="47.19509" lon="4.92408">
        <ele>435.3</ele>
        <time>2021-05-20T07:41:32Z</time>
      </trkpt>
      <trkpt lat="47.19507" lon="4.92414">
        <ele>436.5</ele>
        <time>2021-05-20T07:41:36Z</time>
      </trkpt>
      <trkpt lat="47.19504" lon="4.92419">
        <ele>439.9</ele>
        <time>2021-05-20T07:41:40Z</time>
      </trkpt>
      <trkpt lat="47.19501" lon="4.92426">
        <ele>440.6</ele>
        <time>2021-05-20T07:41:45Z</time>
      </trkpt>
      <trkpt lat="47.19498" lon="4.92432">
        <ele>440.7</ele>
        <time>2021-05-20T07:41:49Z</time>
      </trkpt>
      <trkpt lat="47.19496" lon="4.92439">
        <ele>441.6</ele>
        <time>2021-05-20T07:41:53Z</time>
      </trkpt>
      <trkpt lat="47.19494" lon="4.92447">
        <ele>441.4</ele>
        <time>2021-05-20T07:41:57Z</time>
      </trkpt>
      <trkpt lat="47.19491" lon="4.92453">
        <ele>440.7</ele>
        <time>2021-05-20T07:42:01Z</time>
      </trkpt>
      <trkpt lat="47.19489" lon="4.92459">
        <ele>441.6</ele>
        <time>2021-05-20T07:42:06Z</time>
      </trkpt>
      <trkpt lat="47.19487" lon="4.92466">
        <ele>440.9</ele>
        <time>2021-05-20T07:42:09Z</time>
      </trkpt>
      <trkpt lat="47.19486" lon="4.92474">
        <ele>440.7</ele>
        <time>2021-05-20T07:42:15Z</time>
      </trkpt>
      <trkpt lat="47.19486" lon="4.92481">
        <ele>441.7</ele>
        <time>2021-05-20T07:42:19Z</time>
      </trkpt>
      <trkpt lat="47.19483" lon="4.92488">
        <ele>439.1</ele>
        <time>2021-05-20T07:42:24Z</time>
      </trkpt>
      <trkpt lat="47.1948" lon="4.92494">
        <ele>442.7</ele>
        <time>2021-05-20T07:42:28Z</time>
      </trkpt>
      <trkpt lat="47.19477" lon="4.925">
        <ele>443.2</ele>
        <time>2021-05-20T07:42:32Z</time>
      </trkpt>
      <trkpt lat="47.19474" lon="4.92506">
        <ele>441.7</ele>
        <time>2021-05-20T07:42:37Z</time>
      </trkpt>
      <trkpt lat="47.19471" lon="4.92512">
        <ele>442.4</ele>
        <time>2021-05-20T07:42:41Z</time>
      </trkpt>
      <trkpt lat="47.19468" lon="4.92517">
        <ele>440.4</ele>
        <time>2021-05-20T07:42:45Z</time>
      </trkpt>
      <trkpt lat="47.19464" lon="4.92524">
        <ele>438.6</ele>
        <time>2021-05-20T07:42:51Z</time>
      </trkpt>
      <trkpt lat="47.1946" lon="4.9253">
        <ele>439.6</ele>
        <time>2021-05-20T07:42:56Z</time>
      </trkpt>
      <trkpt lat="47.19456" lon="4.92537">
        <ele>439.2</ele>
        <time>2021-05-20T07:43:02Z</time>
      </trkpt>
      <trkpt lat="47.19453" lon="4.92542">
        <ele>439.2</ele>
        <time>2021-05-20T07:43:06Z</time>
      </trkpt>
      <trkpt lat="47.19449" lon="4.92548">
        <ele>438.6</ele>
        <time>2021-05-20T07:43:10Z</time>
      </trkpt>
      <trkpt lat="47.19446" lon="4.92553">
        <ele>439.2</ele>
        <time>2021-05-20T07:43:14Z</time>
      </trkpt>
      <trkpt lat="47.19442" lon="4.9256">
        <ele>442.1</ele>
        <time>2021-05-20T07:43:19Z</time>
      </trkpt>
      <trkpt lat="47.19439" lon="4.92567">
        <ele>441</ele>
        <time>2021-05-20T07:43:23Z</time>
      </trkpt>
      <trkpt lat="47.19436" lon="4.92572">
        <ele>439</ele>
        <time>2021-05-20T07:43:27Z</time>
      </trkpt>
      <trkpt lat="47.19429" lon="4.92574">
        <ele>439.5</ele>
        <time>2021-05-20T07:43:32Z</time>
      </trkpt>
      <trkpt lat="47.19424" lon="4.9258">
        <ele>441</ele>
        <time>2021-05-20T07:43:36Z</time>
      </trkpt>
      <trkpt lat="47.1942" lon="4.92584">
        <ele>439.9</ele>
        <time>2021-05-20T07:43:40Z</time>
      </trkpt>
      <trkpt lat="47.19416" lon="4.92589">
        <ele>443.2</ele>
        <time>2021-05-20T07:43:47Z</time>
      </trkpt>
      <trkpt lat="47.19413" lon="4.92594">
        <ele>440.9</ele>
        <time>2021-05-20T07:43:52Z</time>
      </trkpt>
      <trkpt lat="47.19409" lon="4.92601">
        <ele>443.2</ele>
        <time>2021-05-20T07:43:58Z</time>
      </trkpt>
      <trkpt lat="47.19406" lon="4.92606">
        <ele>442</ele>
        <time>2021-05-20T07:44:02Z</time>
      </trkpt>
      <trkpt lat="47.19403" lon="4.92613">
        <ele>445.1</ele>
        <time>2021-05-20T07:44:05Z</time>
      </trkpt>
      <trkpt lat="47.19399" lon="4.9262">
        <ele>448.5</ele>
        <time>2021-05-20T07:44:10Z</time>
      </trkpt>
      <trkpt lat="47.19396" lon="4.92625">
        <ele>447.2</ele>
        <time>2021-05-20T07:44:14Z</time>
      </trkpt>
      <trkpt lat="47.1939" lon="4.92635">
        <ele>444.8</ele>
        <time>2021-05-20T07:44:20Z</time>
      </trkpt>
      <trkpt lat="47.19387" lon="4.92642">
        <ele>444</ele>
        <time>2021-05-20T07:44:24Z</time>
      </trkpt>
      <trkpt lat="47.19385" lon="4.9265">
        <ele>451.3</ele>
        <time>2021-05-20T07:44:28Z</time>
      </trkpt>
      <trkpt lat="47.19382" lon="4.92655">
        <ele>454.3</ele>
        <time>2021-05-20T07:44:32Z</time>
      </trkpt>
      <trkpt lat="47.19375" lon="4.92659">
        <ele>450.3</ele>
        <time>2021-05-20T07:44:39Z</time>
      </trkpt>
      <trkpt lat="47.19371" lon="4.92663">
        <ele>449.3</ele>
        <time>2021-05-20T07:44:43Z</time>
      </trkpt>
      <trkpt lat="47.19371" lon="4.9267">
        <ele>448.5</ele>
        <time>2021-05-20T07:44:45Z</time>
      </trkpt>
      <trkpt lat="47.1937" lon="4.92677">
        <ele>445.6</ele>
        <time>2021-05-20T07:44:49Z</time>
      </trkpt>
      <trkpt lat="47.19368" lon="4.92683">
        <ele>445.1</ele>
        <time>2021-05-20T07:44:52Z</time>
      </trkpt>
      <trkpt lat="47.19365" lon="4.92692">
        <ele>445.2</ele>
        <time>2021-05-20T07:44:57Z</time>
      </trkpt>
      <trkpt lat="47.19363" lon="4.92699">
        <ele>442.3</ele>
        <time>2021-05-20T07:45:02Z</time>
      </trkpt>
      <trkpt lat="47.19361" lon="4.92706">
        <ele>441.9</ele>
        <time>2021-05-20T07:45:07Z</time>
      </trkpt>
      <trkpt lat="47.19359" lon="4.92712">
        <ele>443.6</ele>
        <time>2021-05-20T07:45:11Z</time>
      </trkpt>
      <trkpt lat="47.19356" lon="4.92718">
        <ele>443.2</ele>
        <time>2021-05-20T07:45:16Z</time>
      </trkpt>
      <trkpt lat="47.19354" lon="4.92727">
        <ele>443</ele>
        <time>2021-05-20T07:45:22Z</time>
      </trkpt>
      <trkpt lat="47.19351" lon="4.92734">
        <ele>442.3</ele>
        <time>2021-05-20T07:45:26Z</time>
      </trkpt>
      <trkpt lat="47.19348" lon="4.92742">
        <ele>441.5</ele>
        <time>2021-05-20T07:45:30Z</time>
      </trkpt>
      <trkpt lat="47.19345" lon="4.92748">
        <ele>440.9</ele>
        <time>2021-05-20T07:45:34Z</time>
      </trkpt>
      <trkpt lat="47.19343" lon="4.92754">
        <ele>444</ele>
        <time>2021-05-20T07:45:37Z</time>
      </trkpt>
      <trkpt lat="47.19341" lon="4.92763">
        <ele>443.4</ele>
        <time>2021-05-20T07:45:41Z</time>
      </trkpt>
      <trkpt lat="47.1934" lon="4.92771">
        <ele>442.6</ele>
        <time>2021-05-20T07:45:45Z</time>
      </trkpt>
      <trkpt lat="47.19337" lon="4.92779">
        <ele>442.8</ele>
        <time>2021-05-20T07:45:51Z</time>
      </trkpt>
      <trkpt lat="47.19332" lon="4.92782">
        <ele>442</ele>
        <time>2021-05-20T07:45:55Z</time>
      </trkpt>
      <trkpt lat="47.19328" lon="4.92783">
        <ele>439.9</ele>
        <time>2021-05-20T07:45:59Z</time>
      </trkpt>
      <trkpt lat="47.19325" lon="4.92789">
        <ele>437.5</ele>
        <time>2021-05-20T07:46:03Z</time>
      </trkpt>
      <trkpt lat="47.19323" lon="4.92796">
        <ele>436.2</ele>
        <time>2021-05-20T07:46:07Z</time>
      </trkpt>
      <trkpt lat="47.19321" lon="4.92803">
        <ele>436.9</ele>
        <time>2021-05-20T07:46:12Z</time>
      </trkpt>
      <trkpt lat="47.19317" lon="4.92809">
        <ele>437</ele>
        <time>2021-05-20T07:46:16Z</time>
      </trkpt>
      <trkpt lat="47.19314" lon="4.92815">
        <ele>437.2</ele>
        <time>2021-05-20T07:46:21Z</time>
      </trkpt>
      <trkpt lat="47.19312" lon="4.9282">
        <ele>437.9</ele>
        <time>2021-05-20T07:46:24Z</time>
      </trkpt>
      <trkpt lat="47.19308" lon="4.92825">
        <ele>438.6</ele>
        <time>2021-05-20T07:46:28Z</time>
      </trkpt>
      <trkpt lat="47.19304" lon="4.92829">
        <ele>440.1</ele>
        <time>2021-05-20T07:46:32Z</time>
      </trkpt>
      <trkpt lat="47.19302" lon="4.92835">
        <ele>436.1</ele>
        <time>2021-05-20T07:46:36Z</time>
      </trkpt>
      <trkpt lat="47.193" lon="4.92843">
        <ele>435.5</ele>
        <time>2021-05-20T07:46:41Z</time>
      </trkpt>
      <trkpt lat="47.19303" lon="4.92848">
        <ele>429.8</ele>
        <time>2021-05-20T07:46:55Z</time>
      </trkpt>
      <trkpt lat="47.19299" lon="4.9285">
        <ele>427.8</ele>
        <time>2021-05-20T07:47:00Z</time>
      </trkpt>
      <trkpt lat="47.19293" lon="4.92846">
        <ele>425.6</ele>
        <time>2021-05-20T07:47:05Z</time>
      </trkpt>
      <trkpt lat="47.19288" lon="4.92842">
        <ele>425</ele>
        <time>2021-05-20T07:47:09Z</time>
      </trkpt>
      <trkpt lat="47.19283" lon="4.9284">
        <ele>423.5</ele>
        <time>2021-05-20T07:47:13Z</time>
      </trkpt>
      <trkpt lat="47.19279" lon="4.92837">
        <ele>420.7</ele>
        <time>2021-05-20T07:47:18Z</time>
      </trkpt>
      <trkpt lat="47.19274" lon="4.92835">
        <ele>418.4</ele>
        <time>2021-05-20T07:47:22Z</time>
      </trkpt>
      <trkpt lat="47.19269" lon="4.92832">
        <ele>421.2</ele>
        <time>2021-05-20T07:47:27Z</time>
      </trkpt>
      <trkpt lat="47.19264" lon="4.92833">
        <ele>420.9</ele>
        <time>2021-05-20T07:47:43Z</time>
      </trkpt>
      <trkpt lat="47.19259" lon="4.92829">
        <ele>421.4</ele>
        <time>2021-05-20T07:47:47Z</time>
      </trkpt>
      <trkpt lat="47.19255" lon="4.92825">
        <ele>422.1</ele>
        <time>2021-05-20T07:47:49Z</time>
      </trkpt>
      <trkpt lat="47.1925" lon="4.92822">
        <ele>419.6</ele>
        <time>2021-05-20T07:47:52Z</time>
      </trkpt>
      <trkpt lat="47.19245" lon="4.92818">
        <ele>418.4</ele>
        <time>2021-05-20T07:47:56Z</time>
      </trkpt>
      <trkpt lat="47.1924" lon="4.92813">
        <ele>416.6</ele>
        <time>2021-05-20T07:48:02Z</time>
      </trkpt>
      <trkpt lat="47.19238" lon="4.92806">
        <ele>417.1</ele>
        <time>2021-05-20T07:48:06Z</time>
      </trkpt>
      <trkpt lat="47.19234" lon="4.92801">
        <ele>415.2</ele>
        <time>2021-05-20T07:48:10Z</time>
      </trkpt>
      <trkpt lat="47.19231" lon="4.92795">
        <ele>413.7</ele>
        <time>2021-05-20T07:48:14Z</time>
      </trkpt>
      <trkpt lat="47.19227" lon="4.92788">
        <ele>414.4</ele>
        <time>2021-05-20T07:48:22Z</time>
      </trkpt>
      <trkpt lat="47.19223" lon="4.92783">
        <ele>413.5</ele>
        <time>2021-05-20T07:48:24Z</time>
      </trkpt>
      <trkpt lat="47.19221" lon="4.92777">
        <ele>412.1</ele>
        <time>2021-05-20T07:48:27Z</time>
      </trkpt>
      <trkpt lat="47.19222" lon="4.92769">
        <ele>414.2</ele>
        <time>2021-05-20T07:48:31Z</time>
      </trkpt>
      <trkpt lat="47.19217" lon="4.92765">
        <ele>415.2</ele>
        <time>2021-05-20T07:48:35Z</time>
      </trkpt>
      <trkpt lat="47.19213" lon="4.92761">
        <ele>414.3</ele>
        <time>2021-05-20T07:48:40Z</time>
      </trkpt>
      <trkpt lat="47.19209" lon="4.92757">
        <ele>412.5</ele>
        <time>2021-05-20T07:48:45Z</time>
      </trkpt>
      <trkpt lat="47.19204" lon="4.92755">
        <ele>410.8</ele>
        <time>2021-05-20T07:48:49Z</time>
      </trkpt>
      <trkpt lat="47.19199" lon="4.92752">
        <ele>408.3</ele>
        <time>2021-05-20T07:48:53Z</time>
      </trkpt>
      <trkpt lat="47.19195" lon="4.92747">
        <ele>402.7</ele>
        <time>2021-05-20T07:48:59Z</time>
      </trkpt>
      <trkpt lat="47.19193" lon="4.9274">
        <ele>401.5</ele>
        <time>2021-05-20T07:49:04Z</time>
      </trkpt>
      <trkpt lat="47.19192" lon="4.92732">
        <ele>401.2</ele>
        <time>2021-05-20T07:49:08Z</time>
      </trkpt>
      <trkpt lat="47.1919" lon="4.92723">
        <ele>400.8</ele>
        <time>2021-05-20T07:49:12Z</time>
      </trkpt>
      <trkpt lat="47.19189" lon="4.92716">
        <ele>403.2</ele>
        <time>2021-05-20T07:49:17Z</time>
      </trkpt>
      <trkpt lat="47.19187" lon="4.92709">
        <ele>403.8</ele>
        <time>2021-05-20T07:49:22Z</time>
      </trkpt>
      <trkpt lat="47.19183" lon="4.92704">
        <ele>407.5</ele>
        <time>2021-05-20T07:49:26Z</time>
      </trkpt>
      <trkpt lat="47.19178" lon="4.92703">
        <ele>409.9</ele>
        <time>2021-05-20T07:49:30Z</time>
      </trkpt>
      <trkpt lat="47.19165" lon="4.92705">
        <ele>412.9</ele>
        <time>2021-05-20T07:49:37Z</time>
      </trkpt>
      <trkpt lat="47.19161" lon="4.92709">
        <ele>411.8</ele>
        <time>2021-05-20T07:49:40Z</time>
      </trkpt>
      <trkpt lat="47.19156" lon="4.92716">
        <ele>411.1</ele>
        <time>2021-05-20T07:49:44Z</time>
      </trkpt>
      <trkpt lat="47.19151" lon="4.92722">
        <ele>409.4</ele>
        <time>2021-05-20T07:49:48Z</time>
      </trkpt>
      <trkpt lat="47.19146" lon="4.92728">
        <ele>410.4</ele>
        <time>2021-05-20T07:49:52Z</time>
      </trkpt>
      <trkpt lat="47.1914" lon="4.92734">
        <ele>408.7</ele>
        <time>2021-05-20T07:49:58Z</time>
      </trkpt>
      <trkpt lat="47.19135" lon="4.9274">
        <ele>411</ele>
        <time>2021-05-20T07:50:02Z</time>
      </trkpt>
      <trkpt lat="47.19132" lon="4.92745">
        <ele>408.6</ele>
        <time>2021-05-20T07:50:06Z</time>
      </trkpt>
      <trkpt lat="47.19127" lon="4.92743">
        <ele>411</ele>
        <time>2021-05-20T07:50:13Z</time>
      </trkpt>
      <trkpt lat="47.19122" lon="4.92744">
        <ele>411.6</ele>
        <time>2021-05-20T07:50:17Z</time>
      </trkpt>
      <trkpt lat="47.19117" lon="4.92746">
        <ele>411</ele>
        <time>2021-05-20T07:50:20Z</time>
      </trkpt>
      <trkpt lat="47.19112" lon="4.92748">
        <ele>414.5</ele>
        <time>2021-05-20T07:50:23Z</time>
      </trkpt>
      <trkpt lat="47.19106" lon="4.9275">
        <ele>414.5</ele>
        <time>2021-05-20T07:50:27Z</time>
      </trkpt>
      <trkpt lat="47.19102" lon="4.92754">
        <ele>414.3</ele>
        <time>2021-05-20T07:50:32Z</time>
      </trkpt>
      <trkpt lat="47.19096" lon="4.92753">
        <ele>415.8</ele>
        <time>2021-05-20T07:50:46Z</time>
      </trkpt>
      <trkpt lat="47.1909" lon="4.92755">
        <ele>418</ele>
        <time>2021-05-20T07:50:50Z</time>
      </trkpt>
      <trkpt lat="47.19085" lon="4.92756">
        <ele>420.4</ele>
        <time>2021-05-20T07:50:54Z</time>
      </trkpt>
      <trkpt lat="47.19079" lon="4.92758">
        <ele>420.2</ele>
        <time>2021-05-20T07:50:58Z</time>
      </trkpt>
      <trkpt lat="47.19075" lon="4.92761">
        <ele>418.1</ele>
        <time>2021-05-20T07:51:01Z</time>
      </trkpt>
      <trkpt lat="47.1907" lon="4.92763">
        <ele>417.9</ele>
        <time>2021-05-20T07:51:04Z</time>
      </trkpt>
      <trkpt lat="47.19065" lon="4.92765">
        <ele>420.2</ele>
        <time>2021-05-20T07:51:08Z</time>
      </trkpt>
      <trkpt lat="47.19055" lon="4.9277">
        <ele>419.3</ele>
        <time>2021-05-20T07:51:13Z</time>
      </trkpt>
      <trkpt lat="47.1905" lon="4.92773">
        <ele>416.6</ele>
        <time>2021-05-20T07:51:16Z</time>
      </trkpt>
      <trkpt lat="47.19045" lon="4.92775">
        <ele>419.2</ele>
        <time>2021-05-20T07:51:20Z</time>
      </trkpt>
      <trkpt lat="47.19038" lon="4.92779">
        <ele>418.6</ele>
        <time>2021-05-20T07:51:25Z</time>
      </trkpt>
      <trkpt lat="47.19032" lon="4.92782">
        <ele>417.7</ele>
        <time>2021-05-20T07:51:30Z</time>
      </trkpt>
      <trkpt lat="47.19028" lon="4.92786">
        <ele>415.3</ele>
        <time>2021-05-20T07:51:34Z</time>
      </trkpt>
      <trkpt lat="47.19024" lon="4.9279">
        <ele>416.8</ele>
        <time>2021-05-20T07:51:38Z</time>
      </trkpt>
      <trkpt lat="47.19021" lon="4.92795">
        <ele>417.8</ele>
        <time>2021-05-20T07:51:43Z</time>
      </trkpt>
      <trkpt lat="47.19018" lon="4.928">
        <ele>416.3</ele>
        <time>2021-05-20T07:51:46Z</time>
      </trkpt>
      <trkpt lat="47.19012" lon="4.92804">
        <ele>416.9</ele>
        <time>2021-05-20T07:51:51Z</time>
      </trkpt>
      <trkpt lat="47.19007" lon="4.92805">
        <ele>416.5</ele>
        <time>2021-05-20T07:51:55Z</time>
      </trkpt>
      <trkpt lat="47.19002" lon="4.92809">
        <ele>415.3</ele>
        <time>2021-05-20T07:52:01Z</time>
      </trkpt>
      <trkpt lat="47.18998" lon="4.92813">
        <ele>414.4</ele>
        <time>2021-05-20T07:52:04Z</time>
      </trkpt>
      <trkpt lat="47.18996" lon="4.9282">
        <ele>412.3</ele>
        <time>2021-05-20T07:52:08Z</time>
      </trkpt>
      <trkpt lat="47.18991" lon="4.92825">
        <ele>412.9</ele>
        <time>2021-05-20T07:52:12Z</time>
      </trkpt>
      <trkpt lat="47.18988" lon="4.9283">
        <ele>411.8</ele>
        <time>2021-05-20T07:52:15Z</time>
      </trkpt>
      <trkpt lat="47.18984" lon="4.92834">
        <ele>411.7</ele>
        <time>2021-05-20T07:52:18Z</time>
      </trkpt>
      <trkpt lat="47.1898" lon="4.92839">
        <ele>404.4</ele>
        <time>2021-05-20T07:52:23Z</time>
      </trkpt>
      <trkpt lat="47.18974" lon="4.92839">
        <ele>404.7</ele>
        <time>2021-05-20T07:52:29Z</time>
      </trkpt>
      <trkpt lat="47.18969" lon="4.92836">
        <ele>401.6</ele>
        <time>2021-05-20T07:52:33Z</time>
      </trkpt>
      <trkpt lat="47.18964" lon="4.92834">
        <ele>400.8</ele>
        <time>2021-05-20T07:52:39Z</time>
      </trkpt>
      <trkpt lat="47.1896" lon="4.92833">
        <ele>398.9</ele>
        <time>2021-05-20T07:52:43Z</time>
      </trkpt>
      <trkpt lat="47.18955" lon="4.92837">
        <ele>402.7</ele>
        <time>2021-05-20T07:52:51Z</time>
      </trkpt>
      <trkpt lat="47.18952" lon="4.92842">
        <ele>404.1</ele>
        <time>2021-05-20T07:52:55Z</time>
      </trkpt>
      <trkpt lat="47.18949" lon="4.92849">
        <ele>405.3</ele>
        <time>2021-05-20T07:53:00Z</time>
      </trkpt>
      <trkpt lat="47.18953" lon="4.92844">
        <ele>404.2</ele>
        <time>2021-05-20T07:53:07Z</time>
      </trkpt>
      <trkpt lat="47.18956" lon="4.92839">
        <ele>403</ele>
        <time>2021-05-20T07:53:11Z</time>
      </trkpt>
      <trkpt lat="47.18961" lon="4.92837">
        <ele>399.7</ele>
        <time>2021-05-20T07:53:19Z</time>
      </trkpt>
      <trkpt lat="47.18967" lon="4.92839">
        <ele>396.9</ele>
        <time>2021-05-20T07:53:24Z</time>
      </trkpt>
      <trkpt lat="47.18972" lon="4.9284">
        <ele>394.7</ele>
        <time>2021-05-20T07:53:28Z</time>
      </trkpt>
      <trkpt lat="47.18977" lon="4.9284">
        <ele>395.6</ele>
        <time>2021-05-20T07:53:32Z</time>
      </trkpt>
      <trkpt lat="47.18982" lon="4.92842">
        <ele>396.4</ele>
        <time>2021-05-20T07:53:36Z</time>
      </trkpt>
      <trkpt lat="47.18985" lon="4.92849">
        <ele>395.3</ele>
        <time>2021-05-20T07:53:39Z</time>
      </trkpt>
      <trkpt lat="47.18984" lon="4.92857">
        <ele>393.9</ele>
        <time>2021-05-20T07:53:44Z</time>
      </trkpt>
      <trkpt lat="47.18983" lon="4.92866">
        <ele>393.4</ele>
        <time>2021-05-20T07:53:48Z</time>
      </trkpt>
      <trkpt lat="47.18981" lon="4.92874">
        <ele>394.2</ele>
        <time>2021-05-20T07:53:53Z</time>
      </trkpt>
      <trkpt lat="47.18981" lon="4.92883">
        <ele>392.7</ele>
        <time>2021-05-20T07:53:58Z</time>
      </trkpt>
      <trkpt lat="47.18982" lon="4.92892">
        <ele>391.1</ele>
        <time>2021-05-20T07:54:03Z</time>
      </trkpt>
      <trkpt lat="47.18983" lon="4.92902">
        <ele>393.2</ele>
        <time>2021-05-20T07:54:09Z</time>
      </trkpt>
      <trkpt lat="47.18984" lon="4.92911">
        <ele>391</ele>
        <time>2021-05-20T07:54:14Z</time>
      </trkpt>
      <trkpt lat="47.18984" lon="4.92918">
        <ele>391.7</ele>
        <time>2021-05-20T07:54:17Z</time>
      </trkpt>
      <trkpt lat="47.18985" lon="4.92927">
        <ele>391.8</ele>
        <time>2021-05-20T07:54:23Z</time>
      </trkpt>
      <trkpt lat="47.18985" lon="4.92934">
        <ele>390.1</ele>
        <time>2021-05-20T07:54:28Z</time>
      </trkpt>
      <trkpt lat="47.18985" lon="4.92942">
        <ele>393.5</ele>
        <time>2021-05-20T07:54:32Z</time>
      </trkpt>
      <trkpt lat="47.18985" lon="4.9295">
        <ele>392.6</ele>
        <time>2021-05-20T07:54:36Z</time>
      </trkpt>
      <trkpt lat="47.18987" lon="4.92956">
        <ele>393.1</ele>
        <time>2021-05-20T07:54:39Z</time>
      </trkpt>
      <trkpt lat="47.18989" lon="4.92963">
        <ele>392.9</ele>
        <time>2021-05-20T07:54:44Z</time>
      </trkpt>
      <trkpt lat="47.18991" lon="4.92972">
        <ele>393.8</ele>
        <time>2021-05-20T07:54:49Z</time>
      </trkpt>
      <trkpt lat="47.18992" lon="4.92979">
        <ele>393.8</ele>
        <time>2021-05-20T07:54:53Z</time>
      </trkpt>
      <trkpt lat="47.18996" lon="4.92986">
        <ele>396.8</ele>
        <time>2021-05-20T07:54:57Z</time>
      </trkpt>
      <trkpt lat="47.18995" lon="4.92993">
        <ele>399.9</ele>
        <time>2021-05-20T07:55:05Z</time>
      </trkpt>
      <trkpt lat="47.18993" lon="4.93001">
        <ele>399.1</ele>
        <time>2021-05-20T07:55:16Z</time>
      </trkpt>
      <trkpt lat="47.18993" lon="4.93008">
        <ele>402.3</ele>
        <time>2021-05-20T07:55:18Z</time>
      </trkpt>
      <trkpt lat="47.18994" lon="4.93015">
        <ele>402.3</ele>
        <time>2021-05-20T07:55:21Z</time>
      </trkpt>
      <trkpt lat="47.18995" lon="4.93023">
        <ele>400.2</ele>
        <time>2021-05-20T07:55:25Z</time>
      </trkpt>
      <trkpt lat="47.18997" lon="4.9303">
        <ele>399.9</ele>
        <time>2021-05-20T07:55:28Z</time>
      </trkpt>
      <trkpt lat="47.18999" lon="4.93037">
        <ele>397.6</ele>
        <time>2021-05-20T07:55:31Z</time>
      </trkpt>
      <trkpt lat="47.19002" lon="4.93043">
        <ele>397.9</ele>
        <time>2021-05-20T07:55:34Z</time>
      </trkpt>
      <trkpt lat="47.19004" lon="4.9305">
        <ele>400</ele>
        <time>2021-05-20T07:55:40Z</time>
      </trkpt>
      <trkpt lat="47.19007" lon="4.93057">
        <ele>399.5</ele>
        <time>2021-05-20T07:55:43Z</time>
      </trkpt>
      <trkpt lat="47.19007" lon="4.93064">
        <ele>402.4</ele>
        <time>2021-05-20T07:55:47Z</time>
      </trkpt>
      <trkpt lat="47.19008" lon="4.93072">
        <ele>399.3</ele>
        <time>2021-05-20T07:55:51Z</time>
      </trkpt>
      <trkpt lat="47.1901" lon="4.93083">
        <ele>400</ele>
        <time>2021-05-20T07:55:57Z</time>
      </trkpt>
      <trkpt lat="47.19012" lon="4.9309">
        <ele>398.8</ele>
        <time>2021-05-20T07:56:00Z</time>
      </trkpt>
      <trkpt lat="47.19014" lon="4.93098">
        <ele>398</ele>
        <time>2021-05-20T07:56:04Z</time>
      </trkpt>
      <trkpt lat="47.19016" lon="4.93105">
        <ele>396.9</ele>
        <time>2021-05-20T07:56:08Z</time>
      </trkpt>
      <trkpt lat="47.19019" lon="4.93112">
        <ele>399.6</ele>
        <time>2021-05-20T07:56:12Z</time>
      </trkpt>
      <trkpt lat="47.1902" lon="4.93119">
        <ele>400.1</ele>
        <time>2021-05-20T07:56:16Z</time>
      </trkpt>
      <trkpt lat="47.19023" lon="4.93127">
        <ele>396.8</ele>
        <time>2021-05-20T07:56:21Z</time>
      </trkpt>
      <trkpt lat="47.19025" lon="4.93133">
        <ele>397.2</ele>
        <time>2021-05-20T07:56:26Z</time>
      </trkpt>
      <trkpt lat="47.19028" lon="4.9314">
        <ele>398</ele>
        <time>2021-05-20T07:56:34Z</time>
      </trkpt>
      <trkpt lat="47.19031" lon="4.93147">
        <ele>399.5</ele>
        <time>2021-05-20T07:56:38Z</time>
      </trkpt>
      <trkpt lat="47.19033" lon="4.93153">
        <ele>401.4</ele>
        <time>2021-05-20T07:56:41Z</time>
      </trkpt>
      <trkpt lat="47.19037" lon="4.9316">
        <ele>401.5</ele>
        <time>2021-05-20T07:56:45Z</time>
      </trkpt>
      <trkpt lat="47.19038" lon="4.93169">
        <ele>399.6</ele>
        <time>2021-05-20T07:56:49Z</time>
      </trkpt>
      <trkpt lat="47.19038" lon="4.93176">
        <ele>398.6</ele>
        <time>2021-05-20T07:56:54Z</time>
      </trkpt>
      <trkpt lat="47.19038" lon="4.93183">
        <ele>401.4</ele>
        <time>2021-05-20T07:56:58Z</time>
      </trkpt>
      <trkpt lat="47.19037" lon="4.93191">
        <ele>402.5</ele>
        <time>2021-05-20T07:57:03Z</time>
      </trkpt>
      <trkpt lat="47.19038" lon="4.93199">
        <ele>401.4</ele>
        <time>2021-05-20T07:57:08Z</time>
      </trkpt>
      <trkpt lat="47.19041" lon="4.93206">
        <ele>396.2</ele>
        <time>2021-05-20T07:57:18Z</time>
      </trkpt>
      <trkpt lat="47.19042" lon="4.93214">
        <ele>394.9</ele>
        <time>2021-05-20T07:57:22Z</time>
      </trkpt>
      <trkpt lat="47.19043" lon="4.93222">
        <ele>393.8</ele>
        <time>2021-05-20T07:57:26Z</time>
      </trkpt>
      <trkpt lat="47.19044" lon="4.9323">
        <ele>395</ele>
        <time>2021-05-20T07:57:30Z</time>
      </trkpt>
      <trkpt lat="47.19045" lon="4.93237">
        <ele>392.1</ele>
        <time>2021-05-20T07:57:33Z</time>
      </trkpt>
      <trkpt lat="47.19046" lon="4.93244">
        <ele>391.1</ele>
        <time>2021-05-20T07:57:38Z</time>
      </trkpt>
      <trkpt lat="47.19048" lon="4.9325">
        <ele>393.8</ele>
        <time>2021-05-20T07:57:41Z</time>
      </trkpt>
      <trkpt lat="47.19048" lon="4.93257">
        <ele>395.9</ele>
        <time>2021-05-20T07:57:45Z</time>
      </trkpt>
      <trkpt lat="47.19047" lon="4.93265">
        <ele>396.9</ele>
        <time>2021-05-20T07:57:50Z</time>
      </trkpt>
      <trkpt lat="47.19047" lon="4.93274">
        <ele>395.4</ele>
        <time>2021-05-20T07:57:55Z</time>
      </trkpt>
      <trkpt lat="47.19047" lon="4.93281">
        <ele>396</ele>
        <time>2021-05-20T07:57:59Z</time>
      </trkpt>
      <trkpt lat="47.19046" lon="4.93289">
        <ele>394.4</ele>
        <time>2021-05-20T07:58:03Z</time>
      </trkpt>
      <trkpt lat="47.19047" lon="4.93297">
        <ele>391.6</ele>
        <time>2021-05-20T07:58:08Z</time>
      </trkpt>
      <trkpt lat="47.19048" lon="4.93304">
        <ele>390.9</ele>
        <time>2021-05-20T07:58:13Z</time>
      </trkpt>
      <trkpt lat="47.19047" lon="4.93311">
        <ele>390</ele>
        <time>2021-05-20T07:58:17Z</time>
      </trkpt>
      <trkpt lat="47.19043" lon="4.93312">
        <ele>388.5</ele>
        <time>2021-05-20T07:58:21Z</time>
      </trkpt>
      <trkpt lat="47.19038" lon="4.93329">
        <ele>392.2</ele>
        <time>2021-05-20T07:58:32Z</time>
      </trkpt>
      <trkpt lat="47.19036" lon="4.93336">
        <ele>392.9</ele>
        <time>2021-05-20T07:58:36Z</time>
      </trkpt>
      <trkpt lat="47.19033" lon="4.93343">
        <ele>390.8</ele>
        <time>2021-05-20T07:58:40Z</time>
      </trkpt>
      <trkpt lat="47.19032" lon="4.9335">
        <ele>393.5</ele>
        <time>2021-05-20T07:58:44Z</time>
      </trkpt>
      <trkpt lat="47.1903" lon="4.93357">
        <ele>396.3</ele>
        <time>2021-05-20T07:58:48Z</time>
      </trkpt>
      <trkpt lat="47.19029" lon="4.93365">
        <ele>396.2</ele>
        <time>2021-05-20T07:58:53Z</time>
      </trkpt>
      <trkpt lat="47.19027" lon="4.93373">
        <ele>394.7</ele>
        <time>2021-05-20T07:58:57Z</time>
      </trkpt>
      <trkpt lat="47.19025" lon="4.93381">
        <ele>394.7</ele>
        <time>2021-05-20T07:59:02Z</time>
      </trkpt>
      <trkpt lat="47.19023" lon="4.93388">
        <ele>396.5</ele>
        <time>2021-05-20T07:59:07Z</time>
      </trkpt>
      <trkpt lat="47.1902" lon="4.93396">
        <ele>391.3</ele>
        <time>2021-05-20T07:59:13Z</time>
      </trkpt>
      <trkpt lat="47.19018" lon="4.93402">
        <ele>391</ele>
        <time>2021-05-20T07:59:18Z</time>
      </trkpt>
      <trkpt lat="47.19016" lon="4.93408">
        <ele>394.8</ele>
        <time>2021-05-20T07:59:22Z</time>
      </trkpt>
      <trkpt lat="47.19013" lon="4.93414">
        <ele>398.1</ele>
        <time>2021-05-20T07:59:28Z</time>
      </trkpt>
      <trkpt lat="47.1901" lon="4.93419">
        <ele>397.1</ele>
        <time>2021-05-20T07:59:32Z</time>
      </trkpt>
      <trkpt lat="47.19006" lon="4.93427">
        <ele>397.1</ele>
        <time>2021-05-20T07:59:36Z</time>
      </trkpt>
      <trkpt lat="47.19003" lon="4.93433">
        <ele>393.9</ele>
        <time>2021-05-20T07:59:40Z</time>
      </trkpt>
      <trkpt lat="47.18999" lon="4.93438">
        <ele>395.4</ele>
        <time>2021-05-20T07:59:43Z</time>
      </trkpt>
      <trkpt lat="47.18997" lon="4.93445">
        <ele>394.4</ele>
        <time>2021-05-20T07:59:48Z</time>
      </trkpt>
      <trkpt lat="47.18994" lon="4.93453">
        <ele>398.1</ele>
        <time>2021-05-20T07:59:52Z</time>
      </trkpt>
      <trkpt lat="47.1899" lon="4.93459">
        <ele>395.2</ele>
        <time>2021-05-20T07:59:57Z</time>
      </trkpt>
      <trkpt lat="47.18989" lon="4.93466">
        <ele>393.1</ele>
        <time>2021-05-20T08:00:00Z</time>
      </trkpt>
      <trkpt lat="47.18989" lon="4.93475">
        <ele>386.9</ele>
        <time>2021-05-20T08:00:06Z</time>
      </trkpt>
      <trkpt lat="47.18987" lon="4.93482">
        <ele>384.5</ele>
        <time>2021-05-20T08:00:11Z</time>
      </trkpt>
      <trkpt lat="47.18983" lon="4.93488">
        <ele>380.3</ele>
        <time>2021-05-20T08:00:15Z</time>
      </trkpt>
      <trkpt lat="47.18979" lon="4.93494">
        <ele>381.6</ele>
        <time>2021-05-20T08:00:20Z</time>
      </trkpt>
      <trkpt lat="47.18975" lon="4.93499">
        <ele>380.3</ele>
        <time>2021-05-20T08:00:24Z</time>
      </trkpt>
      <trkpt lat="47.18969" lon="4.93505">
        <ele>383.3</ele>
        <time>2021-05-20T08:00:29Z</time>
      </trkpt>
      <trkpt lat="47.18965" lon="4.93509">
        <ele>380.7</ele>
        <time>2021-05-20T08:00:32Z</time>
      </trkpt>
      <trkpt lat="47.18962" lon="4.93515">
        <ele>380</ele>
        <time>2021-05-20T08:00:37Z</time>
      </trkpt>
      <trkpt lat="47.18958" lon="4.93521">
        <ele>380.9</ele>
        <time>2021-05-20T08:00:42Z</time>
      </trkpt>
      <trkpt lat="47.18954" lon="4.93525">
        <ele>381.7</ele>
        <time>2021-05-20T08:00:46Z</time>
      </trkpt>
      <trkpt lat="47.1895" lon="4.93529">
        <ele>381.4</ele>
        <time>2021-05-20T08:00:50Z</time>
      </trkpt>
      <trkpt lat="47.18944" lon="4.93534">
        <ele>381.6</ele>
        <time>2021-05-20T08:00:56Z</time>
      </trkpt>
      <trkpt lat="47.18939" lon="4.93536">
        <ele>384.3</ele>
        <time>2021-05-20T08:00:59Z</time>
      </trkpt>
      <trkpt lat="47.18934" lon="4.93539">
        <ele>382.2</ele>
        <time>2021-05-20T08:01:03Z</time>
      </trkpt>
      <trkpt lat="47.1893" lon="4.93542">
        <ele>383.4</ele>
        <time>2021-05-20T08:01:06Z</time>
      </trkpt>
      <trkpt lat="47.18925" lon="4.93545">
        <ele>382.3</ele>
        <time>2021-05-20T08:01:11Z</time>
      </trkpt>
      <trkpt lat="47.18921" lon="4.93551">
        <ele>379.8</ele>
        <time>2021-05-20T08:01:16Z</time>
      </trkpt>
      <trkpt lat="47.18916" lon="4.93557">
        <ele>379.8</ele>
        <time>2021-05-20T08:01:21Z</time>
      </trkpt>
      <trkpt lat="47.18912" lon="4.93562">
        <ele>377.2</ele>
        <time>2021-05-20T08:01:26Z</time>
      </trkpt>
      <trkpt lat="47.1891" lon="4.93569">
        <ele>375.8</ele>
        <time>2021-05-20T08:01:31Z</time>
      </trkpt>
      <trkpt lat="47.18907" lon="4.93576">
        <ele>373.3</ele>
        <time>2021-05-20T08:01:36Z</time>
      </trkpt>
      <trkpt lat="47.18904" lon="4.93582">
        <ele>373.5</ele>
        <time>2021-05-20T08:01:41Z</time>
      </trkpt>
      <trkpt lat="47.18902" lon="4.93591">
        <ele>372.6</ele>
        <time>2021-05-20T08:01:48Z</time>
      </trkpt>
      <trkpt lat="47.18901" lon="4.936">
        <ele>371.8</ele>
        <time>2021-05-20T08:01:52Z</time>
      </trkpt>
      <trkpt lat="47.189" lon="4.93608">
        <ele>368.1</ele>
        <time>2021-05-20T08:01:57Z</time>
      </trkpt>
      <trkpt lat="47.18895" lon="4.93612">
        <ele>365.4</ele>
        <time>2021-05-20T08:02:02Z</time>
      </trkpt>
      <trkpt lat="47.1889" lon="4.93613">
        <ele>369</ele>
        <time>2021-05-20T08:02:07Z</time>
      </trkpt>
      <trkpt lat="47.18887" lon="4.93619">
        <ele>373.8</ele>
        <time>2021-05-20T08:02:16Z</time>
      </trkpt>
      <trkpt lat="47.18886" lon="4.93627">
        <ele>374.6</ele>
        <time>2021-05-20T08:02:21Z</time>
      </trkpt>
      <trkpt lat="47.18884" lon="4.93632">
        <ele>375.4</ele>
        <time>2021-05-20T08:02:25Z</time>
      </trkpt>
      <trkpt lat="47.1888" lon="4.93636">
        <ele>374</ele>
        <time>2021-05-20T08:02:28Z</time>
      </trkpt>
      <trkpt lat="47.18875" lon="4.93639">
        <ele>373.4</ele>
        <time>2021-05-20T08:02:31Z</time>
      </trkpt>
      <trkpt lat="47.18871" lon="4.93641">
        <ele>371</ele>
        <time>2021-05-20T08:02:35Z</time>
      </trkpt>
      <trkpt lat="47.18868" lon="4.93647">
        <ele>368.2</ele>
        <time>2021-05-20T08:02:39Z</time>
      </trkpt>
      <trkpt lat="47.18866" lon="4.93654">
        <ele>367.6</ele>
        <time>2021-05-20T08:02:43Z</time>
      </trkpt>
      <trkpt lat="47.18864" lon="4.93662">
        <ele>364.9</ele>
        <time>2021-05-20T08:02:47Z</time>
      </trkpt>
      <trkpt lat="47.18862" lon="4.9367">
        <ele>365.4</ele>
        <time>2021-05-20T08:02:52Z</time>
      </trkpt>
      <trkpt lat="47.1886" lon="4.93677">
        <ele>363.8</ele>
        <time>2021-05-20T08:02:57Z</time>
      </trkpt>
      <trkpt lat="47.18857" lon="4.93684">
        <ele>364.8</ele>
        <time>2021-05-20T08:03:01Z</time>
      </trkpt>
      <trkpt lat="47.18854" lon="4.93691">
        <ele>367.1</ele>
        <time>2021-05-20T08:03:04Z</time>
      </trkpt>
      <trkpt lat="47.18851" lon="4.93698">
        <ele>365.9</ele>
        <time>2021-05-20T08:03:08Z</time>
      </trkpt>
      <trkpt lat="47.1885" lon="4.93705">
        <ele>366.4</ele>
        <time>2021-05-20T08:03:12Z</time>
      </trkpt>
      <trkpt lat="47.18844" lon="4.93713">
        <ele>359.3</ele>
        <time>2021-05-20T08:03:20Z</time>
      </trkpt>
      <trkpt lat="47.18839" lon="4.93717">
        <ele>356.2</ele>
        <time>2021-05-20T08:03:25Z</time>
      </trkpt>
      <trkpt lat="47.18836" lon="4.93724">
        <ele>356.7</ele>
        <time>2021-05-20T08:03:29Z</time>
      </trkpt>
      <trkpt lat="47.18837" lon="4.93734">
        <ele>355.3</ele>
        <time>2021-05-20T08:03:32Z</time>
      </trkpt>
      <trkpt lat="47.18838" lon="4.93741">
        <ele>357.1</ele>
        <time>2021-05-20T08:03:35Z</time>
      </trkpt>
      <trkpt lat="47.1884" lon="4.9375">
        <ele>355.5</ele>
        <time>2021-05-20T08:03:37Z</time>
      </trkpt>
      <trkpt lat="47.18849" lon="4.93771">
        <ele>356.7</ele>
        <time>2021-05-20T08:03:49Z</time>
      </trkpt>
      <trkpt lat="47.1885" lon="4.93779">
        <ele>354.9</ele>
        <time>2021-05-20T08:03:54Z</time>
      </trkpt>
      <trkpt lat="47.18851" lon="4.93786">
        <ele>350.5</ele>
        <time>2021-05-20T08:03:58Z</time>
      </trkpt>
      <trkpt lat="47.18854" lon="4.93793">
        <ele>352.2</ele>
        <time>2021-05-20T08:04:01Z</time>
      </trkpt>
      <trkpt lat="47.18855" lon="4.938">
        <ele>350.3</ele>
        <time>2021-05-20T08:04:05Z</time>
      </trkpt>
      <trkpt lat="47.18855" lon="4.93807">
        <ele>347.4</ele>
        <time>2021-05-20T08:04:10Z</time>
      </trkpt>
      <trkpt lat="47.18854" lon="4.93815">
        <ele>346.2</ele>
        <time>2021-05-20T08:04:16Z</time>
      </trkpt>
      <trkpt lat="47.18855" lon="4.93823">
        <ele>347.7</ele>
        <time>2021-05-20T08:04:23Z</time>
      </trkpt>
      <trkpt lat="47.18861" lon="4.93826">
        <ele>345.7</ele>
        <time>2021-05-20T08:04:29Z</time>
      </trkpt>
      <trkpt lat="47.18863" lon="4.93832">
        <ele>346.3</ele>
        <time>2021-05-20T08:04:32Z</time>
      </trkpt>
      <trkpt lat="47.18865" lon="4.93838">
        <ele>348.7</ele>
        <time>2021-05-20T08:04:37Z</time>
      </trkpt>
      <trkpt lat="47.18863" lon="4.93845">
        <ele>346.9</ele>
        <time>2021-05-20T08:04:44Z</time>
      </trkpt>
      <trkpt lat="47.18858" lon="4.93849">
        <ele>348.5</ele>
        <time>2021-05-20T08:04:48Z</time>
      </trkpt>
      <trkpt lat="47.18853" lon="4.93852">
        <ele>346.6</ele>
        <time>2021-05-20T08:04:51Z</time>
      </trkpt>
      <trkpt lat="47.18849" lon="4.93856">
        <ele>344.4</ele>
        <time>2021-05-20T08:04:58Z</time>
      </trkpt>
      <trkpt lat="47.18846" lon="4.93861">
        <ele>344.4</ele>
        <time>2021-05-20T08:05:03Z</time>
      </trkpt>
      <trkpt lat="47.18843" lon="4.93868">
        <ele>342.6</ele>
        <time>2021-05-20T08:05:07Z</time>
      </trkpt>
      <trkpt lat="47.18841" lon="4.93875">
        <ele>339.3</ele>
        <time>2021-05-20T08:05:13Z</time>
      </trkpt>
      <trkpt lat="47.18834" lon="4.93876">
        <ele>340.6</ele>
        <time>2021-05-20T08:05:21Z</time>
      </trkpt>
      <trkpt lat="47.1883" lon="4.9388">
        <ele>340.8</ele>
        <time>2021-05-20T08:05:26Z</time>
      </trkpt>
      <trkpt lat="47.18829" lon="4.93889">
        <ele>338.2</ele>
        <time>2021-05-20T08:05:31Z</time>
      </trkpt>
      <trkpt lat="47.18829" lon="4.93897">
        <ele>336.3</ele>
        <time>2021-05-20T08:05:36Z</time>
      </trkpt>
      <trkpt lat="47.1883" lon="4.93905">
        <ele>334.9</ele>
        <time>2021-05-20T08:05:41Z</time>
      </trkpt>
      <trkpt lat="47.18831" lon="4.93914">
        <ele>331.2</ele>
        <time>2021-05-20T08:05:47Z</time>
      </trkpt>
      <trkpt lat="47.18826" lon="4.9392">
        <ele>332.1</ele>
        <time>2021-05-20T08:05:52Z</time>
      </trkpt>
      <trkpt lat="47.18824" lon="4.93928">
        <ele>331.6</ele>
        <time>2021-05-20T08:05:56Z</time>
      </trkpt>
      <trkpt lat="47.18823" lon="4.93935">
        <ele>327.8</ele>
        <time>2021-05-20T08:05:59Z</time>
      </trkpt>
      <trkpt lat="47.18822" lon="4.93942">
        <ele>327.2</ele>
        <time>2021-05-20T08:06:03Z</time>
      </trkpt>
      <trkpt lat="47.18821" lon="4.93949">
        <ele>322.9</ele>
        <time>2021-05-20T08:06:07Z</time>
      </trkpt>
      <trkpt lat="47.18821" lon="4.93957">
        <ele>317.5</ele>
        <time>2021-05-20T08:06:12Z</time>
      </trkpt>
      <trkpt lat="47.1883" lon="4.93965">
        <ele>320.5</ele>
        <time>2021-05-20T08:06:18Z</time>
      </trkpt>
      <trkpt lat="47.1883" lon="4.93972">
        <ele>319.5</ele>
        <time>2021-05-20T08:06:23Z</time>
      </trkpt>
      <trkpt lat="47.18829" lon="4.93979">
        <ele>320.1</ele>
        <time>2021-05-20T08:06:29Z</time>
      </trkpt>
      <trkpt lat="47.1883" lon="4.93986">
        <ele>320.9</ele>
        <time>2021-05-20T08:06:34Z</time>
      </trkpt>
      <trkpt lat="47.18834" lon="4.93992">
        <ele>322.9</ele>
        <time>2021-05-20T08:06:38Z</time>
      </trkpt>
      <trkpt lat="47.18837" lon="4.93997">
        <ele>322.9</ele>
        <time>2021-05-20T08:06:42Z</time>
      </trkpt>
      <trkpt lat="47.18841" lon="4.94003">
        <ele>322.5</ele>
        <time>2021-05-20T08:06:47Z</time>
      </trkpt>
      <trkpt lat="47.18842" lon="4.94011">
        <ele>320.2</ele>
        <time>2021-05-20T08:06:52Z</time>
      </trkpt>
      <trkpt lat="47.1884" lon="4.94017">
        <ele>321.1</ele>
        <time>2021-05-20T08:06:55Z</time>
      </trkpt>
      <trkpt lat="47.18838" lon="4.94023">
        <ele>319.3</ele>
        <time>2021-05-20T08:06:58Z</time>
      </trkpt>
      <trkpt lat="47.18836" lon="4.9403">
        <ele>318.7</ele>
        <time>2021-05-20T08:07:02Z</time>
      </trkpt>
      <trkpt lat="47.18836" lon="4.94038">
        <ele>316.9</ele>
        <time>2021-05-20T08:07:05Z</time>
      </trkpt>
      <trkpt lat="47.18836" lon="4.94046">
        <ele>312.4</ele>
        <time>2021-05-20T08:07:09Z</time>
      </trkpt>
      <trkpt lat="47.18838" lon="4.94053">
        <ele>310.9</ele>
        <time>2021-05-20T08:07:13Z</time>
      </trkpt>
      <trkpt lat="47.18841" lon="4.9406">
        <ele>308.2</ele>
        <time>2021-05-20T08:07:17Z</time>
      </trkpt>
      <trkpt lat="47.18842" lon="4.94069">
        <ele>310.4</ele>
        <time>2021-05-20T08:07:22Z</time>
      </trkpt>
      <trkpt lat="47.1884" lon="4.94077">
        <ele>310.8</ele>
        <time>2021-05-20T08:07:27Z</time>
      </trkpt>
      <trkpt lat="47.1884" lon="4.94086">
        <ele>311</ele>
        <time>2021-05-20T08:07:32Z</time>
      </trkpt>
      <trkpt lat="47.18839" lon="4.94094">
        <ele>309</ele>
        <time>2021-05-20T08:07:37Z</time>
      </trkpt>
      <trkpt lat="47.18838" lon="4.94102">
        <ele>310</ele>
        <time>2021-05-20T08:07:43Z</time>
      </trkpt>
      <trkpt lat="47.18837" lon="4.9411">
        <ele>311.4</ele>
        <time>2021-05-20T08:07:50Z</time>
      </trkpt>
      <trkpt lat="47.18837" lon="4.94118">
        <ele>308.7</ele>
        <time>2021-05-20T08:07:54Z</time>
      </trkpt>
      <trkpt lat="47.18839" lon="4.94125">
        <ele>308.5</ele>
        <time>2021-05-20T08:07:59Z</time>
      </trkpt>
      <trkpt lat="47.18843" lon="4.94132">
        <ele>304.9</ele>
        <time>2021-05-20T08:08:04Z</time>
      </trkpt>
      <trkpt lat="47.18847" lon="4.94137">
        <ele>305.9</ele>
        <time>2021-05-20T08:08:08Z</time>
      </trkpt>
      <trkpt lat="47.18849" lon="4.94143">
        <ele>308.3</ele>
        <time>2021-05-20T08:08:11Z</time>
      </trkpt>
      <trkpt lat="47.1885" lon="4.94151">
        <ele>306</ele>
        <time>2021-05-20T08:08:15Z</time>
      </trkpt>
      <trkpt lat="47.1885" lon="4.94158">
        <ele>306.9</ele>
        <time>2021-05-20T08:08:19Z</time>
      </trkpt>
      <trkpt lat="47.18853" lon="4.94165">
        <ele>301.9</ele>
        <time>2021-05-20T08:08:24Z</time>
      </trkpt>
      <trkpt lat="47.18856" lon="4.94172">
        <ele>306.7</ele>
        <time>2021-05-20T08:08:29Z</time>
      </trkpt>
      <trkpt lat="47.18855" lon="4.94182">
        <ele>309.7</ele>
        <time>2021-05-20T08:08:34Z</time>
      </trkpt>
      <trkpt lat="47.18855" lon="4.94188">
        <ele>306.4</ele>
        <time>2021-05-20T08:08:39Z</time>
      </trkpt>
      <trkpt lat="47.18857" lon="4.94182">
        <ele>303.8</ele>
        <time>2021-05-20T08:08:57Z</time>
      </trkpt>
      <trkpt lat="47.1886" lon="4.94177">
        <ele>304.3</ele>
        <time>2021-05-20T08:09:06Z</time>
      </trkpt>
      <trkpt lat="47.18867" lon="4.94177">
        <ele>301.7</ele>
        <time>2021-05-20T08:09:18Z</time>
      </trkpt>
      <trkpt lat="47.18872" lon="4.94179">
        <ele>303.9</ele>
        <time>2021-05-20T08:09:20Z</time>
      </trkpt>
      <trkpt lat="47.18878" lon="4.94182">
        <ele>305</ele>
        <time>2021-05-20T08:09:24Z</time>
      </trkpt>
      <trkpt lat="47.18883" lon="4.94186">
        <ele>307.9</ele>
        <time>2021-05-20T08:09:29Z</time>
      </trkpt>
      <trkpt lat="47.18888" lon="4.94187">
        <ele>306.9</ele>
        <time>2021-05-20T08:09:33Z</time>
      </trkpt>
      <trkpt lat="47.18892" lon="4.94186">
        <ele>308.2</ele>
        <time>2021-05-20T08:09:39Z</time>
      </trkpt>
      <trkpt lat="47.18896" lon="4.94183">
        <ele>312.8</ele>
        <time>2021-05-20T08:09:49Z</time>
      </trkpt>
      <trkpt lat="47.18901" lon="4.9418">
        <ele>315.8</ele>
        <time>2021-05-20T08:09:54Z</time>
      </trkpt>
      <trkpt lat="47.18906" lon="4.94178">
        <ele>314.8</ele>
        <time>2021-05-20T08:09:58Z</time>
      </trkpt>
      <trkpt lat="47.18911" lon="4.94176">
        <ele>316.2</ele>
        <time>2021-05-20T08:10:01Z</time>
      </trkpt>
      <trkpt lat="47.18917" lon="4.94173">
        <ele>316.9</ele>
        <time>2021-05-20T08:10:06Z</time>
      </trkpt>
      <trkpt lat="47.18924" lon="4.94167">
        <ele>315.2</ele>
        <time>2021-05-20T08:10:14Z</time>
      </trkpt>
      <trkpt lat="47.18929" lon="4.94164">
        <ele>314.6</ele>
        <time>2021-05-20T08:10:18Z</time>
      </trkpt>
      <trkpt lat="47.18934" lon="4.94162">
        <ele>312.1</ele>
        <time>2021-05-20T08:10:21Z</time>
      </trkpt>
      <trkpt lat="47.18939" lon="4.94159">
        <ele>315.2</ele>
        <time>2021-05-20T08:10:25Z</time>
      </trkpt>
      <trkpt lat="47.18943" lon="4.94158">
        <ele>315.3</ele>
        <time>2021-05-20T08:10:29Z</time>
      </trkpt>
      <trkpt lat="47.18949" lon="4.94156">
        <ele>312.5</ele>
        <time>2021-05-20T08:10:34Z</time>
      </trkpt>
      <trkpt lat="47.18953" lon="4.94153">
        <ele>311.8</ele>
        <time>2021-05-20T08:10:38Z</time>
      </trkpt>
      <trkpt lat="47.18959" lon="4.9415">
        <ele>314.3</ele>
        <time>2021-05-20T08:10:43Z</time>
      </trkpt>
      <trkpt lat="47.18963" lon="4.9415">
        <ele>316.6</ele>
        <time>2021-05-20T08:10:49Z</time>
      </trkpt>
      <trkpt lat="47.18967" lon="4.94146">
        <ele>313.8</ele>
        <time>2021-05-20T08:10:56Z</time>
      </trkpt>
      <trkpt lat="47.18971" lon="4.9414">
        <ele>314.4</ele>
        <time>2021-05-20T08:11:00Z</time>
      </trkpt>
      <trkpt lat="47.18973" lon="4.94133">
        <ele>316.3</ele>
        <time>2021-05-20T08:11:05Z</time>
      </trkpt>
      <trkpt lat="47.18973" lon="4.94124">
        <ele>314.3</ele>
        <time>2021-05-20T08:11:10Z</time>
      </trkpt>
      <trkpt lat="47.18974" lon="4.94117">
        <ele>308.7</ele>
        <time>2021-05-20T08:11:15Z</time>
      </trkpt>
      <trkpt lat="47.18977" lon="4.9411">
        <ele>310.2</ele>
        <time>2021-05-20T08:11:20Z</time>
      </trkpt>
      <trkpt lat="47.18978" lon="4.94103">
        <ele>311.1</ele>
        <time>2021-05-20T08:11:26Z</time>
      </trkpt>
      <trkpt lat="47.18979" lon="4.94096">
        <ele>308.6</ele>
        <time>2021-05-20T08:11:32Z</time>
      </trkpt>
      <trkpt lat="47.18982" lon="4.94087">
        <ele>309.2</ele>
        <time>2021-05-20T08:11:37Z</time>
      </trkpt>
      <trkpt lat="47.18984" lon="4.94081">
        <ele>311.6</ele>
        <time>2021-05-20T08:11:42Z</time>
      </trkpt>
      <trkpt lat="47.18987" lon="4.94074">
        <ele>311.9</ele>
        <time>2021-05-20T08:11:47Z</time>
      </trkpt>
      <trkpt lat="47.1899" lon="4.94068">
        <ele>312.1</ele>
        <time>2021-05-20T08:11:53Z</time>
      </trkpt>
      <trkpt lat="47.18992" lon="4.94062">
        <ele>312</ele>
        <time>2021-05-20T08:11:59Z</time>
      </trkpt>
      <trkpt lat="47.18993" lon="4.94055">
        <ele>310.2</ele>
        <time>2021-05-20T08:12:08Z</time>
      </trkpt>
      <trkpt lat="47.18995" lon="4.94049">
        <ele>316.1</ele>
        <time>2021-05-20T08:12:20Z</time>
      </trkpt>
      <trkpt lat="47.18996" lon="4.94042">
        <ele>316.2</ele>
        <time>2021-05-20T08:12:31Z</time>
      </trkpt>
      <trkpt lat="47.18998" lon="4.94035">
        <ele>319.9</ele>
        <time>2021-05-20T08:12:40Z</time>
      </trkpt>
      <trkpt lat="47.18997" lon="4.94028">
        <ele>317.5</ele>
        <time>2021-05-20T08:12:51Z</time>
      </trkpt>
      <trkpt lat="47.18998" lon="4.94021">
        <ele>312.2</ele>
        <time>2021-05-20T08:12:59Z</time>
      </trkpt>
      <trkpt lat="47.19003" lon="4.94002">
        <ele>315.3</ele>
        <time>2021-05-20T08:13:07Z</time>
      </trkpt>
      <trkpt lat="47.19006" lon="4.93994">
        <ele>314.5</ele>
        <time>2021-05-20T08:13:12Z</time>
      </trkpt>
      <trkpt lat="47.19008" lon="4.93987">
        <ele>318.5</ele>
        <time>2021-05-20T08:13:17Z</time>
      </trkpt>
      <trkpt lat="47.1901" lon="4.9398">
        <ele>319.4</ele>
        <time>2021-05-20T08:13:22Z</time>
      </trkpt>
      <trkpt lat="47.19012" lon="4.93974">
        <ele>319.6</ele>
        <time>2021-05-20T08:13:28Z</time>
      </trkpt>
      <trkpt lat="47.19015" lon="4.93968">
        <ele>319.3</ele>
        <time>2021-05-20T08:13:35Z</time>
      </trkpt>
      <trkpt lat="47.19017" lon="4.93962">
        <ele>315.8</ele>
        <time>2021-05-20T08:13:48Z</time>
      </trkpt>
      <trkpt lat="47.19021" lon="4.93956">
        <ele>315.8</ele>
        <time>2021-05-20T08:13:54Z</time>
      </trkpt>
      <trkpt lat="47.19024" lon="4.93951">
        <ele>319.5</ele>
        <time>2021-05-20T08:14:00Z</time>
      </trkpt>
      <trkpt lat="47.19027" lon="4.93943">
        <ele>319.6</ele>
        <time>2021-05-20T08:14:04Z</time>
      </trkpt>
      <trkpt lat="47.19028" lon="4.93935">
        <ele>323</ele>
        <time>2021-05-20T08:14:09Z</time>
      </trkpt>
      <trkpt lat="47.19029" lon="4.93928">
        <ele>322.9</ele>
        <time>2021-05-20T08:14:15Z</time>
      </trkpt>
      <trkpt lat="47.19029" lon="4.93921">
        <ele>321.2</ele>
        <time>2021-05-20T08:14:24Z</time>
      </trkpt>
      <trkpt lat="47.19031" lon="4.93914">
        <ele>324.5</ele>
        <time>2021-05-20T08:14:37Z</time>
      </trkpt>
      <trkpt lat="47.19035" lon="4.93911">
        <ele>327.4</ele>
        <time>2021-05-20T08:14:45Z</time>
      </trkpt>
      <trkpt lat="47.19031" lon="4.93912">
        <ele>331.4</ele>
        <time>2021-05-20T08:15:19Z</time>
      </trkpt>
      <trkpt lat="47.19027" lon="4.93908">
        <ele>331.8</ele>
        <time>2021-05-20T08:15:25Z</time>
      </trkpt>
      <trkpt lat="47.19031" lon="4.9391">
        <ele>333</ele>
        <time>2021-05-20T08:16:06Z</time>
      </trkpt>
      <trkpt lat="47.19036" lon="4.9391">
        <ele>333.7</ele>
        <time>2021-05-20T08:16:16Z</time>
      </trkpt>
      <trkpt lat="47.1904" lon="4.93905">
        <ele>332.1</ele>
        <time>2021-05-20T08:16:21Z</time>
      </trkpt>
      <trkpt lat="47.19045" lon="4.93904">
        <ele>328.5</ele>
        <time>2021-05-20T08:16:28Z</time>
      </trkpt>
      <trkpt lat="47.19049" lon="4.93901">
        <ele>333.3</ele>
        <time>2021-05-20T08:18:04Z</time>
      </trkpt>
      <trkpt lat="47.19054" lon="4.93903">
        <ele>346.1</ele>
        <time>2021-05-20T08:20:16Z</time>
      </trkpt>
      <trkpt lat="47.19058" lon="4.93904">
        <ele>346.1</ele>
        <time>2021-05-20T08:20:51Z</time>
      </trkpt>
      <trkpt lat="47.19062" lon="4.93909">
        <ele>346.2</ele>
        <time>2021-05-20T08:21:16Z</time>
      </trkpt>
      <trkpt lat="47.19054" lon="4.93905">
        <ele>355.5</ele>
        <time>2021-05-20T08:21:34Z</time>
      </trkpt>
      <trkpt lat="47.19058" lon="4.93902">
        <ele>359.7</ele>
        <time>2021-05-20T08:22:29Z</time>
      </trkpt>
      <trkpt lat="47.19063" lon="4.93904">
        <ele>359.7</ele>
        <time>2021-05-20T08:22:44Z</time>
      </trkpt>
      <trkpt lat="47.19067" lon="4.93908">
        <ele>359.8</ele>
        <time>2021-05-20T08:22:58Z</time>
      </trkpt>
      <trkpt lat="47.19068" lon="4.93914">
        <ele>360.1</ele>
        <time>2021-05-20T08:23:27Z</time>
      </trkpt>
      <trkpt lat="47.19062" lon="4.93909">
        <ele>360.2</ele>
        <time>2021-05-20T08:23:34Z</time>
      </trkpt>
      <trkpt lat="47.19065" lon="4.93912">
        <ele>360.2</ele>
        <time>2021-05-20T08:23:37Z</time>
      </trkpt>
      <trkpt lat="47.19062" lon="4.93931">
        <ele>361.8</ele>
        <time>2021-05-20T08:24:47Z</time>
      </trkpt>
      <trkpt lat="47.19057" lon="4.93933">
        <ele>367.4</ele>
        <time>2021-05-20T08:24:52Z</time>
      </trkpt>
      <trkpt lat="47.1906" lon="4.93938">
        <ele>368.5</ele>
        <time>2021-05-20T08:25:06Z</time>
      </trkpt>
      <trkpt lat="47.19066" lon="4.93939">
        <ele>367.7</ele>
        <time>2021-05-20T08:25:24Z</time>
      </trkpt>
      <trkpt lat="47.1907" lon="4.93935">
        <ele>366.9</ele>
        <time>2021-05-20T08:25:34Z</time>
      </trkpt>
      <trkpt lat="47.19074" lon="4.93931">
        <ele>369.9</ele>
        <time>2021-05-20T08:25:47Z</time>
      </trkpt>
      <trkpt lat="47.19075" lon="4.93924">
        <ele>379.1</ele>
        <time>2021-05-20T08:26:20Z</time>
      </trkpt>
      <trkpt lat="47.19079" lon="4.93929">
        <ele>368.2</ele>
        <time>2021-05-20T08:26:42Z</time>
      </trkpt>
      <trkpt lat="47.1908" lon="4.93923">
        <ele>379.7</ele>
        <time>2021-05-20T08:28:10Z</time>
      </trkpt>
      <trkpt lat="47.19083" lon="4.93929">
        <ele>379</ele>
        <time>2021-05-20T08:29:00Z</time>
      </trkpt>
      <trkpt lat="47.19085" lon="4.93935">
        <ele>376.2</ele>
        <time>2021-05-20T08:30:09Z</time>
      </trkpt>
      <trkpt lat="47.19091" lon="4.93937">
        <ele>376.4</ele>
        <time>2021-05-20T08:30:15Z</time>
      </trkpt>
      <trkpt lat="47.1909" lon="4.93943">
        <ele>383.6</ele>
        <time>2021-05-20T08:31:12Z</time>
      </trkpt>
      <trkpt lat="47.19094" lon="4.93946">
        <ele>385.2</ele>
        <time>2021-05-20T08:31:24Z</time>
      </trkpt>
      <trkpt lat="47.19099" lon="4.93949">
        <ele>384.9</ele>
        <time>2021-05-20T08:31:30Z</time>
      </trkpt>
      <trkpt lat="47.19103" lon="4.93952">
        <ele>383.8</ele>
        <time>2021-05-20T08:31:37Z</time>
      </trkpt>
      <trkpt lat="47.19102" lon="4.93959">
        <ele>382.7</ele>
        <time>2021-05-20T08:31:46Z</time>
      </trkpt>
      <trkpt lat="47.191" lon="4.93965">
        <ele>386.2</ele>
        <time>2021-05-20T08:32:34Z</time>
      </trkpt>
      <trkpt lat="47.19102" lon="4.93973">
        <ele>384.2</ele>
        <time>2021-05-20T08:32:41Z</time>
      </trkpt>
      <trkpt lat="47.19102" lon="4.93981">
        <ele>383.3</ele>
        <time>2021-05-20T08:32:44Z</time>
      </trkpt>
      <trkpt lat="47.19102" lon="4.93993">
        <ele>382.7</ele>
        <time>2021-05-20T08:32:47Z</time>
      </trkpt>
      <trkpt lat="47.19105" lon="4.93999">
        <ele>389.8</ele>
        <time>2021-05-20T08:33:08Z</time>
      </trkpt>
      <trkpt lat="47.19106" lon="4.94006">
        <ele>393.9</ele>
        <time>2021-05-20T08:33:17Z</time>
      </trkpt>
      <trkpt lat="47.19109" lon="4.94013">
        <ele>395.5</ele>
        <time>2021-05-20T08:33:26Z</time>
      </trkpt>
      <trkpt lat="47.19113" lon="4.94018">
        <ele>395.6</ele>
        <time>2021-05-20T08:33:32Z</time>
      </trkpt>
      <trkpt lat="47.19117" lon="4.9402">
        <ele>396.6</ele>
        <time>2021-05-20T08:33:39Z</time>
      </trkpt>
      <trkpt lat="47.19119" lon="4.94027">
        <ele>395.1</ele>
        <time>2021-05-20T08:33:49Z</time>
      </trkpt>
      <trkpt lat="47.19121" lon="4.94034">
        <ele>395.2</ele>
        <time>2021-05-20T08:33:55Z</time>
      </trkpt>
      <trkpt lat="47.19122" lon="4.94043">
        <ele>396.3</ele>
        <time>2021-05-20T08:34:01Z</time>
      </trkpt>
      <trkpt lat="47.1912" lon="4.94052">
        <ele>396.3</ele>
        <time>2021-05-20T08:34:07Z</time>
      </trkpt>
      <trkpt lat="47.19119" lon="4.94059">
        <ele>397.3</ele>
        <time>2021-05-20T08:34:13Z</time>
      </trkpt>
      <trkpt lat="47.1912" lon="4.94066">
        <ele>397</ele>
        <time>2021-05-20T08:34:18Z</time>
      </trkpt>
      <trkpt lat="47.1912" lon="4.94074">
        <ele>396.1</ele>
        <time>2021-05-20T08:34:27Z</time>
      </trkpt>
      <trkpt lat="47.19119" lon="4.94082">
        <ele>396.3</ele>
        <time>2021-05-20T08:34:32Z</time>
      </trkpt>
      <trkpt lat="47.19118" lon="4.94091">
        <ele>397.5</ele>
        <time>2021-05-20T08:34:38Z</time>
      </trkpt>
      <trkpt lat="47.19117" lon="4.94098">
        <ele>400.3</ele>
        <time>2021-05-20T08:34:42Z</time>
      </trkpt>
      <trkpt lat="47.19113" lon="4.94104">
        <ele>398.7</ele>
        <time>2021-05-20T08:34:48Z</time>
      </trkpt>
      <trkpt lat="47.19114" lon="4.94111">
        <ele>396.8</ele>
        <time>2021-05-20T08:34:52Z</time>
      </trkpt>
      <trkpt lat="47.19117" lon="4.94117">
        <ele>399.4</ele>
        <time>2021-05-20T08:34:57Z</time>
      </trkpt>
      <trkpt lat="47.19119" lon="4.94124">
        <ele>400.4</ele>
        <time>2021-05-20T08:35:03Z</time>
      </trkpt>
      <trkpt lat="47.19123" lon="4.94128">
        <ele>400.5</ele>
        <time>2021-05-20T08:35:08Z</time>
      </trkpt>
      <trkpt lat="47.19122" lon="4.94135">
        <ele>400.1</ele>
        <time>2021-05-20T08:35:12Z</time>
      </trkpt>
      <trkpt lat="47.19123" lon="4.94142">
        <ele>400.8</ele>
        <time>2021-05-20T08:35:17Z</time>
      </trkpt>
      <trkpt lat="47.19125" lon="4.9415">
        <ele>397.7</ele>
        <time>2021-05-20T08:35:22Z</time>
      </trkpt>
      <trkpt lat="47.19126" lon="4.94157">
        <ele>398.5</ele>
        <time>2021-05-20T08:35:27Z</time>
      </trkpt>
      <trkpt lat="47.19127" lon="4.94164">
        <ele>396.5</ele>
        <time>2021-05-20T08:35:33Z</time>
      </trkpt>
      <trkpt lat="47.1913" lon="4.9417">
        <ele>396.8</ele>
        <time>2021-05-20T08:35:38Z</time>
      </trkpt>
      <trkpt lat="47.19132" lon="4.94176">
        <ele>398.3</ele>
        <time>2021-05-20T08:35:44Z</time>
      </trkpt>
      <trkpt lat="47.19132" lon="4.94183">
        <ele>401.3</ele>
        <time>2021-05-20T08:35:49Z</time>
      </trkpt>
      <trkpt lat="47.19129" lon="4.9419">
        <ele>400.8</ele>
        <time>2021-05-20T08:35:55Z</time>
      </trkpt>
      <trkpt lat="47.19127" lon="4.94197">
        <ele>404.2</ele>
        <time>2021-05-20T08:36:02Z</time>
      </trkpt>
      <trkpt lat="47.19126" lon="4.94205">
        <ele>403</ele>
        <time>2021-05-20T08:36:07Z</time>
      </trkpt>
      <trkpt lat="47.19126" lon="4.94212">
        <ele>399.9</ele>
        <time>2021-05-20T08:36:13Z</time>
      </trkpt>
      <trkpt lat="47.19125" lon="4.94218">
        <ele>397.9</ele>
        <time>2021-05-20T08:36:19Z</time>
      </trkpt>
      <trkpt lat="47.19123" lon="4.94225">
        <ele>396.1</ele>
        <time>2021-05-20T08:36:25Z</time>
      </trkpt>
      <trkpt lat="47.19122" lon="4.94233">
        <ele>397</ele>
        <time>2021-05-20T08:36:30Z</time>
      </trkpt>
      <trkpt lat="47.19118" lon="4.94239">
        <ele>399.8</ele>
        <time>2021-05-20T08:36:36Z</time>
      </trkpt>
      <trkpt lat="47.19116" lon="4.94244">
        <ele>399.6</ele>
        <time>2021-05-20T08:36:43Z</time>
      </trkpt>
      <trkpt lat="47.1912" lon="4.94246">
        <ele>398.6</ele>
        <time>2021-05-20T08:36:57Z</time>
      </trkpt>
      <trkpt lat="47.19117" lon="4.94252">
        <ele>398.1</ele>
        <time>2021-05-20T08:37:16Z</time>
      </trkpt>
      <trkpt lat="47.19117" lon="4.9426">
        <ele>396.9</ele>
        <time>2021-05-20T08:37:21Z</time>
      </trkpt>
      <trkpt lat="47.1912" lon="4.94267">
        <ele>395.4</ele>
        <time>2021-05-20T08:37:53Z</time>
      </trkpt>
      <trkpt lat="47.19125" lon="4.94272">
        <ele>394.1</ele>
        <time>2021-05-20T08:38:02Z</time>
      </trkpt>
      <trkpt lat="47.19129" lon="4.94277">
        <ele>394.8</ele>
        <time>2021-05-20T08:38:07Z</time>
      </trkpt>
      <trkpt lat="47.19134" lon="4.94281">
        <ele>395.2</ele>
        <time>2021-05-20T08:38:12Z</time>
      </trkpt>
      <trkpt lat="47.19137" lon="4.94287">
        <ele>398.8</ele>
        <time>2021-05-20T08:38:19Z</time>
      </trkpt>
      <trkpt lat="47.19144" lon="4.9429">
        <ele>402.1</ele>
        <time>2021-05-20T08:38:26Z</time>
      </trkpt>
      <trkpt lat="47.19148" lon="4.94295">
        <ele>402.9</ele>
        <time>2021-05-20T08:38:31Z</time>
      </trkpt>
      <trkpt lat="47.19152" lon="4.94301">
        <ele>401.8</ele>
        <time>2021-05-20T08:38:36Z</time>
      </trkpt>
      <trkpt lat="47.19156" lon="4.94306">
        <ele>403.5</ele>
        <time>2021-05-20T08:38:43Z</time>
      </trkpt>
      <trkpt lat="47.1916" lon="4.9431">
        <ele>400.8</ele>
        <time>2021-05-20T08:38:50Z</time>
      </trkpt>
      <trkpt lat="47.19163" lon="4.94317">
        <ele>402.1</ele>
        <time>2021-05-20T08:39:38Z</time>
      </trkpt>
      <trkpt lat="47.19167" lon="4.94322">
        <ele>400.5</ele>
        <time>2021-05-20T08:39:44Z</time>
      </trkpt>
      <trkpt lat="47.19168" lon="4.94331">
        <ele>400.9</ele>
        <time>2021-05-20T08:39:49Z</time>
      </trkpt>
      <trkpt lat="47.1917" lon="4.94338">
        <ele>403.1</ele>
        <time>2021-05-20T08:39:54Z</time>
      </trkpt>
      <trkpt lat="47.19172" lon="4.94344">
        <ele>403.5</ele>
        <time>2021-05-20T08:39:59Z</time>
      </trkpt>
      <trkpt lat="47.19173" lon="4.94351">
        <ele>405.5</ele>
        <time>2021-05-20T08:40:03Z</time>
      </trkpt>
      <trkpt lat="47.19174" lon="4.94358">
        <ele>403.6</ele>
        <time>2021-05-20T08:40:07Z</time>
      </trkpt>
      <trkpt lat="47.19176" lon="4.94366">
        <ele>403.1</ele>
        <time>2021-05-20T08:40:12Z</time>
      </trkpt>
      <trkpt lat="47.19178" lon="4.94373">
        <ele>402.9</ele>
        <time>2021-05-20T08:40:17Z</time>
      </trkpt>
      <trkpt lat="47.1918" lon="4.9438">
        <ele>403.2</ele>
        <time>2021-05-20T08:40:21Z</time>
      </trkpt>
      <trkpt lat="47.19185" lon="4.94384">
        <ele>399.5</ele>
        <time>2021-05-20T08:40:26Z</time>
      </trkpt>
      <trkpt lat="47.19188" lon="4.9439">
        <ele>404.9</ele>
        <time>2021-05-20T08:40:30Z</time>
      </trkpt>
      <trkpt lat="47.19188" lon="4.94397">
        <ele>409.6</ele>
        <time>2021-05-20T08:40:34Z</time>
      </trkpt>
      <trkpt lat="47.1919" lon="4.94404">
        <ele>407.7</ele>
        <time>2021-05-20T08:40:39Z</time>
      </trkpt>
      <trkpt lat="47.19193" lon="4.94411">
        <ele>404.8</ele>
        <time>2021-05-20T08:40:44Z</time>
      </trkpt>
      <trkpt lat="47.19196" lon="4.94418">
        <ele>403.8</ele>
        <time>2021-05-20T08:40:49Z</time>
      </trkpt>
      <trkpt lat="47.192" lon="4.94425">
        <ele>403.8</ele>
        <time>2021-05-20T08:40:54Z</time>
      </trkpt>
      <trkpt lat="47.19205" lon="4.94429">
        <ele>406.6</ele>
        <time>2021-05-20T08:40:59Z</time>
      </trkpt>
      <trkpt lat="47.19209" lon="4.94433">
        <ele>405.7</ele>
        <time>2021-05-20T08:41:04Z</time>
      </trkpt>
      <trkpt lat="47.19212" lon="4.94437">
        <ele>403.9</ele>
        <time>2021-05-20T08:41:07Z</time>
      </trkpt>
      <trkpt lat="47.19216" lon="4.94441">
        <ele>405</ele>
        <time>2021-05-20T08:41:12Z</time>
      </trkpt>
      <trkpt lat="47.1922" lon="4.94447">
        <ele>404.5</ele>
        <time>2021-05-20T08:41:16Z</time>
      </trkpt>
      <trkpt lat="47.19224" lon="4.94453">
        <ele>405.7</ele>
        <time>2021-05-20T08:41:21Z</time>
      </trkpt>
      <trkpt lat="47.19228" lon="4.94457">
        <ele>407.2</ele>
        <time>2021-05-20T08:41:26Z</time>
      </trkpt>
      <trkpt lat="47.19232" lon="4.94463">
        <ele>407.2</ele>
        <time>2021-05-20T08:41:31Z</time>
      </trkpt>
      <trkpt lat="47.19235" lon="4.94469">
        <ele>404.4</ele>
        <time>2021-05-20T08:41:36Z</time>
      </trkpt>
      <trkpt lat="47.19237" lon="4.94477">
        <ele>404.3</ele>
        <time>2021-05-20T08:41:41Z</time>
      </trkpt>
      <trkpt lat="47.19241" lon="4.94481">
        <ele>406.4</ele>
        <time>2021-05-20T08:41:46Z</time>
      </trkpt>
      <trkpt lat="47.19246" lon="4.94484">
        <ele>406.6</ele>
        <time>2021-05-20T08:41:51Z</time>
      </trkpt>
      <trkpt lat="47.19249" lon="4.94488">
        <ele>406.1</ele>
        <time>2021-05-20T08:41:56Z</time>
      </trkpt>
      <trkpt lat="47.19252" lon="4.94494">
        <ele>406.5</ele>
        <time>2021-05-20T08:42:00Z</time>
      </trkpt>
      <trkpt lat="47.19256" lon="4.945">
        <ele>406.2</ele>
        <time>2021-05-20T08:42:05Z</time>
      </trkpt>
      <trkpt lat="47.1926" lon="4.94505">
        <ele>406.6</ele>
        <time>2021-05-20T08:42:10Z</time>
      </trkpt>
      <trkpt lat="47.19264" lon="4.94508">
        <ele>405.1</ele>
        <time>2021-05-20T08:42:15Z</time>
      </trkpt>
      <trkpt lat="47.19269" lon="4.94512">
        <ele>405.4</ele>
        <time>2021-05-20T08:42:23Z</time>
      </trkpt>
      <trkpt lat="47.19273" lon="4.94516">
        <ele>409.2</ele>
        <time>2021-05-20T08:42:30Z</time>
      </trkpt>
      <trkpt lat="47.19279" lon="4.94516">
        <ele>411.8</ele>
        <time>2021-05-20T08:42:39Z</time>
      </trkpt>
      <trkpt lat="47.19283" lon="4.94516">
        <ele>411</ele>
        <time>2021-05-20T08:42:43Z</time>
      </trkpt>
      <trkpt lat="47.19288" lon="4.94515">
        <ele>411.5</ele>
        <time>2021-05-20T08:42:49Z</time>
      </trkpt>
      <trkpt lat="47.19293" lon="4.94514">
        <ele>413.3</ele>
        <time>2021-05-20T08:42:53Z</time>
      </trkpt>
      <trkpt lat="47.19298" lon="4.94514">
        <ele>413.7</ele>
        <time>2021-05-20T08:42:58Z</time>
      </trkpt>
      <trkpt lat="47.19302" lon="4.9452">
        <ele>414.1</ele>
        <time>2021-05-20T08:43:06Z</time>
      </trkpt>
      <trkpt lat="47.19303" lon="4.94528">
        <ele>413</ele>
        <time>2021-05-20T08:43:11Z</time>
      </trkpt>
      <trkpt lat="47.19304" lon="4.94535">
        <ele>414.1</ele>
        <time>2021-05-20T08:43:16Z</time>
      </trkpt>
      <trkpt lat="47.19305" lon="4.94542">
        <ele>413.2</ele>
        <time>2021-05-20T08:43:20Z</time>
      </trkpt>
      <trkpt lat="47.19303" lon="4.9455">
        <ele>416.5</ele>
        <time>2021-05-20T08:43:26Z</time>
      </trkpt>
      <trkpt lat="47.19304" lon="4.94557">
        <ele>411.4</ele>
        <time>2021-05-20T08:43:31Z</time>
      </trkpt>
      <trkpt lat="47.19305" lon="4.94566">
        <ele>410.2</ele>
        <time>2021-05-20T08:43:35Z</time>
      </trkpt>
      <trkpt lat="47.19308" lon="4.94573">
        <ele>410.6</ele>
        <time>2021-05-20T08:43:41Z</time>
      </trkpt>
      <trkpt lat="47.19311" lon="4.9458">
        <ele>407.7</ele>
        <time>2021-05-20T08:43:45Z</time>
      </trkpt>
      <trkpt lat="47.19312" lon="4.94587">
        <ele>409.3</ele>
        <time>2021-05-20T08:43:50Z</time>
      </trkpt>
      <trkpt lat="47.19314" lon="4.94594">
        <ele>409.4</ele>
        <time>2021-05-20T08:43:55Z</time>
      </trkpt>
      <trkpt lat="47.19316" lon="4.94602">
        <ele>409.6</ele>
        <time>2021-05-20T08:44:00Z</time>
      </trkpt>
      <trkpt lat="47.19316" lon="4.9461">
        <ele>410.3</ele>
        <time>2021-05-20T08:44:05Z</time>
      </trkpt>
      <trkpt lat="47.19319" lon="4.94616">
        <ele>408.4</ele>
        <time>2021-05-20T08:44:10Z</time>
      </trkpt>
      <trkpt lat="47.19324" lon="4.94621">
        <ele>408.4</ele>
        <time>2021-05-20T08:44:15Z</time>
      </trkpt>
      <trkpt lat="47.19327" lon="4.94626">
        <ele>407.4</ele>
        <time>2021-05-20T08:44:18Z</time>
      </trkpt>
      <trkpt lat="47.19332" lon="4.94631">
        <ele>408.1</ele>
        <time>2021-05-20T08:44:24Z</time>
      </trkpt>
      <trkpt lat="47.19335" lon="4.94637">
        <ele>407.9</ele>
        <time>2021-05-20T08:44:28Z</time>
      </trkpt>
      <trkpt lat="47.19338" lon="4.94642">
        <ele>410.1</ele>
        <time>2021-05-20T08:44:33Z</time>
      </trkpt>
      <trkpt lat="47.19342" lon="4.94649">
        <ele>408.4</ele>
        <time>2021-05-20T08:44:37Z</time>
      </trkpt>
      <trkpt lat="47.19345" lon="4.94654">
        <ele>409</ele>
        <time>2021-05-20T08:44:41Z</time>
      </trkpt>
      <trkpt lat="47.19349" lon="4.94655">
        <ele>411</ele>
        <time>2021-05-20T08:44:46Z</time>
      </trkpt>
      <trkpt lat="47.19354" lon="4.94659">
        <ele>410.2</ele>
        <time>2021-05-20T08:44:51Z</time>
      </trkpt>
      <trkpt lat="47.19355" lon="4.94666">
        <ele>411.3</ele>
        <time>2021-05-20T08:44:56Z</time>
      </trkpt>
      <trkpt lat="47.19358" lon="4.94672">
        <ele>412.8</ele>
        <time>2021-05-20T08:45:02Z</time>
      </trkpt>
      <trkpt lat="47.19361" lon="4.94676">
        <ele>412.9</ele>
        <time>2021-05-20T08:45:06Z</time>
      </trkpt>
      <trkpt lat="47.19366" lon="4.94679">
        <ele>413.2</ele>
        <time>2021-05-20T08:45:12Z</time>
      </trkpt>
      <trkpt lat="47.19369" lon="4.94684">
        <ele>409.9</ele>
        <time>2021-05-20T08:45:16Z</time>
      </trkpt>
      <trkpt lat="47.19373" lon="4.94689">
        <ele>407.9</ele>
        <time>2021-05-20T08:45:20Z</time>
      </trkpt>
      <trkpt lat="47.19378" lon="4.94694">
        <ele>410.5</ele>
        <time>2021-05-20T08:45:26Z</time>
      </trkpt>
      <trkpt lat="47.19381" lon="4.947">
        <ele>409.8</ele>
        <time>2021-05-20T08:45:30Z</time>
      </trkpt>
      <trkpt lat="47.19383" lon="4.94708">
        <ele>408.7</ele>
        <time>2021-05-20T08:45:35Z</time>
      </trkpt>
      <trkpt lat="47.19386" lon="4.94713">
        <ele>405.1</ele>
        <time>2021-05-20T08:45:39Z</time>
      </trkpt>
      <trkpt lat="47.19391" lon="4.94717">
        <ele>408</ele>
        <time>2021-05-20T08:45:44Z</time>
      </trkpt>
      <trkpt lat="47.19395" lon="4.94722">
        <ele>409</ele>
        <time>2021-05-20T08:45:48Z</time>
      </trkpt>
      <trkpt lat="47.19398" lon="4.94729">
        <ele>411.7</ele>
        <time>2021-05-20T08:45:54Z</time>
      </trkpt>
      <trkpt lat="47.19399" lon="4.94736">
        <ele>411.4</ele>
        <time>2021-05-20T08:45:57Z</time>
      </trkpt>
      <trkpt lat="47.19402" lon="4.94741">
        <ele>411.7</ele>
        <time>2021-05-20T08:46:00Z</time>
      </trkpt>
      <trkpt lat="47.19406" lon="4.94745">
        <ele>412.9</ele>
        <time>2021-05-20T08:46:04Z</time>
      </trkpt>
      <trkpt lat="47.1941" lon="4.9475">
        <ele>412.1</ele>
        <time>2021-05-20T08:46:08Z</time>
      </trkpt>
      <trkpt lat="47.19414" lon="4.94754">
        <ele>412.8</ele>
        <time>2021-05-20T08:46:11Z</time>
      </trkpt>
      <trkpt lat="47.19416" lon="4.9476">
        <ele>414</ele>
        <time>2021-05-20T08:46:17Z</time>
      </trkpt>
      <trkpt lat="47.19421" lon="4.9476">
        <ele>413.9</ele>
        <time>2021-05-20T08:46:22Z</time>
      </trkpt>
      <trkpt lat="47.19426" lon="4.94761">
        <ele>416.8</ele>
        <time>2021-05-20T08:46:26Z</time>
      </trkpt>
      <trkpt lat="47.19431" lon="4.94765">
        <ele>415.8</ele>
        <time>2021-05-20T08:46:30Z</time>
      </trkpt>
      <trkpt lat="47.19434" lon="4.94771">
        <ele>414.5</ele>
        <time>2021-05-20T08:46:37Z</time>
      </trkpt>
      <trkpt lat="47.1944" lon="4.94775">
        <ele>415.7</ele>
        <time>2021-05-20T08:46:42Z</time>
      </trkpt>
      <trkpt lat="47.19445" lon="4.94779">
        <ele>415</ele>
        <time>2021-05-20T08:46:46Z</time>
      </trkpt>
      <trkpt lat="47.1945" lon="4.94782">
        <ele>413.1</ele>
        <time>2021-05-20T08:46:57Z</time>
      </trkpt>
      <trkpt lat="47.19455" lon="4.94782">
        <ele>413.8</ele>
        <time>2021-05-20T08:47:01Z</time>
      </trkpt>
      <trkpt lat="47.1946" lon="4.94785">
        <ele>413.1</ele>
        <time>2021-05-20T08:47:05Z</time>
      </trkpt>
      <trkpt lat="47.19465" lon="4.94787">
        <ele>412.6</ele>
        <time>2021-05-20T08:47:08Z</time>
      </trkpt>
      <trkpt lat="47.1947" lon="4.94787">
        <ele>411.3</ele>
        <time>2021-05-20T08:47:11Z</time>
      </trkpt>
      <trkpt lat="47.19475" lon="4.94787">
        <ele>412</ele>
        <time>2021-05-20T08:47:16Z</time>
      </trkpt>
      <trkpt lat="47.19481" lon="4.9479">
        <ele>415.2</ele>
        <time>2021-05-20T08:47:21Z</time>
      </trkpt>
      <trkpt lat="47.19485" lon="4.94796">
        <ele>415.6</ele>
        <time>2021-05-20T08:47:25Z</time>
      </trkpt>
      <trkpt lat="47.19487" lon="4.94805">
        <ele>415.9</ele>
        <time>2021-05-20T08:47:29Z</time>
      </trkpt>
      <trkpt lat="47.19489" lon="4.9481">
        <ele>418.1</ele>
        <time>2021-05-20T08:47:32Z</time>
      </trkpt>
      <trkpt lat="47.19494" lon="4.94814">
        <ele>416.9</ele>
        <time>2021-05-20T08:47:35Z</time>
      </trkpt>
      <trkpt lat="47.19498" lon="4.94817">
        <ele>420.2</ele>
        <time>2021-05-20T08:47:39Z</time>
      </trkpt>
      <trkpt lat="47.19502" lon="4.94824">
        <ele>420.4</ele>
        <time>2021-05-20T08:47:44Z</time>
      </trkpt>
      <trkpt lat="47.19509" lon="4.94822">
        <ele>420.2</ele>
        <time>2021-05-20T08:47:52Z</time>
      </trkpt>
      <trkpt lat="47.19514" lon="4.94823">
        <ele>418.5</ele>
        <time>2021-05-20T08:47:56Z</time>
      </trkpt>
      <trkpt lat="47.19519" lon="4.94829">
        <ele>420.8</ele>
        <time>2021-05-20T08:48:00Z</time>
      </trkpt>
      <trkpt lat="47.19524" lon="4.94832">
        <ele>420</ele>
        <time>2021-05-20T08:48:03Z</time>
      </trkpt>
      <trkpt lat="47.19528" lon="4.94837">
        <ele>421.2</ele>
        <time>2021-05-20T08:48:07Z</time>
      </trkpt>
      <trkpt lat="47.19532" lon="4.9484">
        <ele>418.8</ele>
        <time>2021-05-20T08:48:12Z</time>
      </trkpt>
      <trkpt lat="47.19537" lon="4.94842">
        <ele>418</ele>
        <time>2021-05-20T08:48:18Z</time>
      </trkpt>
      <trkpt lat="47.19542" lon="4.94843">
        <ele>419.2</ele>
        <time>2021-05-20T08:48:22Z</time>
      </trkpt>
      <trkpt lat="47.19547" lon="4.94845">
        <ele>420</ele>
        <time>2021-05-20T08:48:26Z</time>
      </trkpt>
      <trkpt lat="47.1955" lon="4.94849">
        <ele>419.4</ele>
        <time>2021-05-20T08:48:29Z</time>
      </trkpt>
      <trkpt lat="47.19554" lon="4.94854">
        <ele>421.3</ele>
        <time>2021-05-20T08:48:35Z</time>
      </trkpt>
      <trkpt lat="47.19558" lon="4.94859">
        <ele>421.5</ele>
        <time>2021-05-20T08:48:43Z</time>
      </trkpt>
      <trkpt lat="47.19563" lon="4.94865">
        <ele>422.1</ele>
        <time>2021-05-20T08:48:48Z</time>
      </trkpt>
      <trkpt lat="47.19568" lon="4.94866">
        <ele>418.5</ele>
        <time>2021-05-20T08:48:52Z</time>
      </trkpt>
      <trkpt lat="47.19573" lon="4.94862">
        <ele>417.5</ele>
        <time>2021-05-20T08:48:56Z</time>
      </trkpt>
      <trkpt lat="47.19577" lon="4.94857">
        <ele>417.3</ele>
        <time>2021-05-20T08:48:59Z</time>
      </trkpt>
      <trkpt lat="47.19581" lon="4.94853">
        <ele>416.5</ele>
        <time>2021-05-20T08:49:02Z</time>
      </trkpt>
      <trkpt lat="47.19585" lon="4.94849">
        <ele>417.4</ele>
        <time>2021-05-20T08:49:06Z</time>
      </trkpt>
      <trkpt lat="47.19591" lon="4.94845">
        <ele>421.3</ele>
        <time>2021-05-20T08:49:10Z</time>
      </trkpt>
      <trkpt lat="47.19595" lon="4.94843">
        <ele>421.3</ele>
        <time>2021-05-20T08:49:14Z</time>
      </trkpt>
      <trkpt lat="47.19601" lon="4.94841">
        <ele>422.9</ele>
        <time>2021-05-20T08:49:19Z</time>
      </trkpt>
      <trkpt lat="47.19607" lon="4.9484">
        <ele>421.1</ele>
        <time>2021-05-20T08:49:24Z</time>
      </trkpt>
      <trkpt lat="47.19611" lon="4.9484">
        <ele>421.3</ele>
        <time>2021-05-20T08:49:27Z</time>
      </trkpt>
      <trkpt lat="47.19617" lon="4.94841">
        <ele>420.5</ele>
        <time>2021-05-20T08:49:33Z</time>
      </trkpt>
      <trkpt lat="47.19619" lon="4.9483">
        <ele>417.9</ele>
        <time>2021-05-20T08:49:42Z</time>
      </trkpt>
      <trkpt lat="47.19624" lon="4.94828">
        <ele>416.4</ele>
        <time>2021-05-20T08:49:46Z</time>
      </trkpt>
      <trkpt lat="47.19629" lon="4.94834">
        <ele>417.7</ele>
        <time>2021-05-20T08:49:49Z</time>
      </trkpt>
      <trkpt lat="47.19634" lon="4.94837">
        <ele>418</ele>
        <time>2021-05-20T08:49:52Z</time>
      </trkpt>
      <trkpt lat="47.19639" lon="4.94837">
        <ele>419.3</ele>
        <time>2021-05-20T08:49:57Z</time>
      </trkpt>
      <trkpt lat="47.19644" lon="4.94835">
        <ele>419.3</ele>
        <time>2021-05-20T08:50:00Z</time>
      </trkpt>
      <trkpt lat="47.1965" lon="4.94833">
        <ele>417.1</ele>
        <time>2021-05-20T08:50:08Z</time>
      </trkpt>
      <trkpt lat="47.19654" lon="4.94829">
        <ele>417.3</ele>
        <time>2021-05-20T08:50:11Z</time>
      </trkpt>
      <trkpt lat="47.19657" lon="4.94824">
        <ele>420.6</ele>
        <time>2021-05-20T08:50:15Z</time>
      </trkpt>
      <trkpt lat="47.19662" lon="4.94819">
        <ele>422.3</ele>
        <time>2021-05-20T08:50:20Z</time>
      </trkpt>
      <trkpt lat="47.19669" lon="4.94816">
        <ele>423.3</ele>
        <time>2021-05-20T08:50:24Z</time>
      </trkpt>
      <trkpt lat="47.19673" lon="4.94814">
        <ele>423.5</ele>
        <time>2021-05-20T08:50:27Z</time>
      </trkpt>
      <trkpt lat="47.19679" lon="4.94811">
        <ele>423.9</ele>
        <time>2021-05-20T08:50:34Z</time>
      </trkpt>
      <trkpt lat="47.19683" lon="4.94807">
        <ele>425.2</ele>
        <time>2021-05-20T08:50:38Z</time>
      </trkpt>
      <trkpt lat="47.19687" lon="4.94803">
        <ele>426.3</ele>
        <time>2021-05-20T08:50:41Z</time>
      </trkpt>
      <trkpt lat="47.19691" lon="4.948">
        <ele>429</ele>
        <time>2021-05-20T08:50:51Z</time>
      </trkpt>
      <trkpt lat="47.19696" lon="4.94796">
        <ele>424.1</ele>
        <time>2021-05-20T08:50:57Z</time>
      </trkpt>
      <trkpt lat="47.19701" lon="4.94795">
        <ele>424.4</ele>
        <time>2021-05-20T08:51:01Z</time>
      </trkpt>
      <trkpt lat="47.19706" lon="4.94792">
        <ele>423.1</ele>
        <time>2021-05-20T08:51:21Z</time>
      </trkpt>
      <trkpt lat="47.19709" lon="4.94786">
        <ele>420.6</ele>
        <time>2021-05-20T08:51:30Z</time>
      </trkpt>
      <trkpt lat="47.19712" lon="4.94778">
        <ele>421.6</ele>
        <time>2021-05-20T08:51:35Z</time>
      </trkpt>
      <trkpt lat="47.19716" lon="4.94773">
        <ele>422.4</ele>
        <time>2021-05-20T08:51:39Z</time>
      </trkpt>
      <trkpt lat="47.19719" lon="4.94767">
        <ele>423.4</ele>
        <time>2021-05-20T08:51:43Z</time>
      </trkpt>
      <trkpt lat="47.19723" lon="4.94762">
        <ele>424.4</ele>
        <time>2021-05-20T08:51:48Z</time>
      </trkpt>
      <trkpt lat="47.19728" lon="4.94756">
        <ele>425.8</ele>
        <time>2021-05-20T08:51:54Z</time>
      </trkpt>
      <trkpt lat="47.19731" lon="4.94751">
        <ele>423</ele>
        <time>2021-05-20T08:52:01Z</time>
      </trkpt>
      <trkpt lat="47.19731" lon="4.94744">
        <ele>422.1</ele>
        <time>2021-05-20T08:52:11Z</time>
      </trkpt>
      <trkpt lat="47.19736" lon="4.94747">
        <ele>424</ele>
        <time>2021-05-20T08:52:16Z</time>
      </trkpt>
      <trkpt lat="47.1974" lon="4.94751">
        <ele>425.1</ele>
        <time>2021-05-20T08:52:20Z</time>
      </trkpt>
      <trkpt lat="47.19745" lon="4.94752">
        <ele>424.4</ele>
        <time>2021-05-20T08:52:25Z</time>
      </trkpt>
      <trkpt lat="47.19751" lon="4.94753">
        <ele>425.5</ele>
        <time>2021-05-20T08:52:30Z</time>
      </trkpt>
      <trkpt lat="47.19755" lon="4.94759">
        <ele>423.4</ele>
        <time>2021-05-20T08:52:34Z</time>
      </trkpt>
      <trkpt lat="47.19758" lon="4.94764">
        <ele>422.9</ele>
        <time>2021-05-20T08:52:39Z</time>
      </trkpt>
      <trkpt lat="47.1976" lon="4.94772">
        <ele>424</ele>
        <time>2021-05-20T08:52:44Z</time>
      </trkpt>
      <trkpt lat="47.19756" lon="4.94776">
        <ele>419.2</ele>
        <time>2021-05-20T08:52:59Z</time>
      </trkpt>
      <trkpt lat="47.19754" lon="4.94783">
        <ele>419.9</ele>
        <time>2021-05-20T08:53:45Z</time>
      </trkpt>
      <trkpt lat="47.19753" lon="4.9479">
        <ele>419.9</ele>
        <time>2021-05-20T08:53:50Z</time>
      </trkpt>
      <trkpt lat="47.19751" lon="4.94797">
        <ele>420.2</ele>
        <time>2021-05-20T08:53:54Z</time>
      </trkpt>
      <trkpt lat="47.19747" lon="4.94803">
        <ele>418.8</ele>
        <time>2021-05-20T08:54:00Z</time>
      </trkpt>
      <trkpt lat="47.19745" lon="4.94812">
        <ele>418.3</ele>
        <time>2021-05-20T08:54:05Z</time>
      </trkpt>
      <trkpt lat="47.19745" lon="4.94819">
        <ele>414.8</ele>
        <time>2021-05-20T08:54:10Z</time>
      </trkpt>
      <trkpt lat="47.19744" lon="4.94826">
        <ele>416.9</ele>
        <time>2021-05-20T08:54:13Z</time>
      </trkpt>
      <trkpt lat="47.19743" lon="4.94833">
        <ele>412.9</ele>
        <time>2021-05-20T08:54:23Z</time>
      </trkpt>
      <trkpt lat="47.19741" lon="4.94841">
        <ele>417.1</ele>
        <time>2021-05-20T08:54:29Z</time>
      </trkpt>
      <trkpt lat="47.19738" lon="4.94848">
        <ele>419.9</ele>
        <time>2021-05-20T08:54:34Z</time>
      </trkpt>
      <trkpt lat="47.19738" lon="4.94856">
        <ele>419.5</ele>
        <time>2021-05-20T08:54:40Z</time>
      </trkpt>
      <trkpt lat="47.19735" lon="4.94863">
        <ele>423.6</ele>
        <time>2021-05-20T08:54:45Z</time>
      </trkpt>
      <trkpt lat="47.19732" lon="4.94869">
        <ele>422</ele>
        <time>2021-05-20T08:54:51Z</time>
      </trkpt>
      <trkpt lat="47.19729" lon="4.94876">
        <ele>421.1</ele>
        <time>2021-05-20T08:54:57Z</time>
      </trkpt>
      <trkpt lat="47.19727" lon="4.94882">
        <ele>422.9</ele>
        <time>2021-05-20T08:55:01Z</time>
      </trkpt>
      <trkpt lat="47.19724" lon="4.9489">
        <ele>419.3</ele>
        <time>2021-05-20T08:55:06Z</time>
      </trkpt>
      <trkpt lat="47.1972" lon="4.94896">
        <ele>419.9</ele>
        <time>2021-05-20T08:55:11Z</time>
      </trkpt>
      <trkpt lat="47.19718" lon="4.94902">
        <ele>421.5</ele>
        <time>2021-05-20T08:55:15Z</time>
      </trkpt>
      <trkpt lat="47.19715" lon="4.94908">
        <ele>419.8</ele>
        <time>2021-05-20T08:55:21Z</time>
      </trkpt>
      <trkpt lat="47.19712" lon="4.94914">
        <ele>414.8</ele>
        <time>2021-05-20T08:55:24Z</time>
      </trkpt>
      <trkpt lat="47.1971" lon="4.94922">
        <ele>417.3</ele>
        <time>2021-05-20T08:55:27Z</time>
      </trkpt>
      <trkpt lat="47.19708" lon="4.94928">
        <ele>417.5</ele>
        <time>2021-05-20T08:55:33Z</time>
      </trkpt>
      <trkpt lat="47.19705" lon="4.94935">
        <ele>417.4</ele>
        <time>2021-05-20T08:55:37Z</time>
      </trkpt>
      <trkpt lat="47.19703" lon="4.94941">
        <ele>414.6</ele>
        <time>2021-05-20T08:55:40Z</time>
      </trkpt>
      <trkpt lat="47.19701" lon="4.94948">
        <ele>419.2</ele>
        <time>2021-05-20T08:55:46Z</time>
      </trkpt>
      <trkpt lat="47.19701" lon="4.94955">
        <ele>420.9</ele>
        <time>2021-05-20T08:55:50Z</time>
      </trkpt>
      <trkpt lat="47.19703" lon="4.94961">
        <ele>421.3</ele>
        <time>2021-05-20T08:55:53Z</time>
      </trkpt>
      <trkpt lat="47.19704" lon="4.94969">
        <ele>416.5</ele>
        <time>2021-05-20T08:56:00Z</time>
      </trkpt>
      <trkpt lat="47.19701" lon="4.94978">
        <ele>413</ele>
        <time>2021-05-20T08:56:04Z</time>
      </trkpt>
      <trkpt lat="47.19698" lon="4.94984">
        <ele>410.2</ele>
        <time>2021-05-20T08:56:09Z</time>
      </trkpt>
      <trkpt lat="47.19697" lon="4.94991">
        <ele>409.7</ele>
        <time>2021-05-20T08:56:13Z</time>
      </trkpt>
      <trkpt lat="47.19698" lon="4.94999">
        <ele>412</ele>
        <time>2021-05-20T08:56:17Z</time>
      </trkpt>
      <trkpt lat="47.197" lon="4.95005">
        <ele>411.2</ele>
        <time>2021-05-20T08:56:22Z</time>
      </trkpt>
      <trkpt lat="47.19701" lon="4.95014">
        <ele>400</ele>
        <time>2021-05-20T08:56:27Z</time>
      </trkpt>
      <trkpt lat="47.19697" lon="4.9502">
        <ele>401.5</ele>
        <time>2021-05-20T08:56:30Z</time>
      </trkpt>
      <trkpt lat="47.19703" lon="4.95027">
        <ele>404.5</ele>
        <time>2021-05-20T08:56:37Z</time>
      </trkpt>
      <trkpt lat="47.19706" lon="4.95031">
        <ele>404.7</ele>
        <time>2021-05-20T08:56:41Z</time>
      </trkpt>
      <trkpt lat="47.1971" lon="4.95036">
        <ele>405.7</ele>
        <time>2021-05-20T08:56:46Z</time>
      </trkpt>
      <trkpt lat="47.19714" lon="4.95042">
        <ele>407.8</ele>
        <time>2021-05-20T08:56:52Z</time>
      </trkpt>
      <trkpt lat="47.19715" lon="4.9505">
        <ele>412.8</ele>
        <time>2021-05-20T08:56:56Z</time>
      </trkpt>
      <trkpt lat="47.19715" lon="4.95058">
        <ele>414.1</ele>
        <time>2021-05-20T08:57:00Z</time>
      </trkpt>
      <trkpt lat="47.19723" lon="4.95059">
        <ele>415</ele>
        <time>2021-05-20T08:57:05Z</time>
      </trkpt>
      <trkpt lat="47.1973" lon="4.95059">
        <ele>419.5</ele>
        <time>2021-05-20T08:57:11Z</time>
      </trkpt>
      <trkpt lat="47.19734" lon="4.95061">
        <ele>419.8</ele>
        <time>2021-05-20T08:57:15Z</time>
      </trkpt>
      <trkpt lat="47.19742" lon="4.95063">
        <ele>412.6</ele>
        <time>2021-05-20T08:57:22Z</time>
      </trkpt>
      <trkpt lat="47.19746" lon="4.95067">
        <ele>411.3</ele>
        <time>2021-05-20T08:57:26Z</time>
      </trkpt>
      <trkpt lat="47.19751" lon="4.95071">
        <ele>412.4</ele>
        <time>2021-05-20T08:57:30Z</time>
      </trkpt>
      <trkpt lat="47.19755" lon="4.95069">
        <ele>408.9</ele>
        <time>2021-05-20T08:57:47Z</time>
      </trkpt>
      <trkpt lat="47.19761" lon="4.95069">
        <ele>410.6</ele>
        <time>2021-05-20T08:57:51Z</time>
      </trkpt>
      <trkpt lat="47.19766" lon="4.95071">
        <ele>413.3</ele>
        <time>2021-05-20T08:57:54Z</time>
      </trkpt>
      <trkpt lat="47.19771" lon="4.95073">
        <ele>411</ele>
        <time>2021-05-20T08:57:58Z</time>
      </trkpt>
      <trkpt lat="47.19776" lon="4.95073">
        <ele>410.8</ele>
        <time>2021-05-20T08:58:02Z</time>
      </trkpt>
      <trkpt lat="47.19782" lon="4.95073">
        <ele>410.6</ele>
        <time>2021-05-20T08:58:06Z</time>
      </trkpt>
      <trkpt lat="47.19787" lon="4.95074">
        <ele>410.8</ele>
        <time>2021-05-20T08:58:09Z</time>
      </trkpt>
      <trkpt lat="47.19791" lon="4.95075">
        <ele>408.3</ele>
        <time>2021-05-20T08:58:12Z</time>
      </trkpt>
      <trkpt lat="47.19796" lon="4.95077">
        <ele>412.1</ele>
        <time>2021-05-20T08:58:16Z</time>
      </trkpt>
      <trkpt lat="47.19801" lon="4.95076">
        <ele>411.3</ele>
        <time>2021-05-20T08:58:22Z</time>
      </trkpt>
      <trkpt lat="47.19806" lon="4.95075">
        <ele>410.3</ele>
        <time>2021-05-20T08:58:31Z</time>
      </trkpt>
      <trkpt lat="47.19811" lon="4.95073">
        <ele>412.7</ele>
        <time>2021-05-20T08:58:35Z</time>
      </trkpt>
      <trkpt lat="47.19817" lon="4.95073">
        <ele>411.4</ele>
        <time>2021-05-20T08:58:40Z</time>
      </trkpt>
      <trkpt lat="47.19823" lon="4.95073">
        <ele>412.8</ele>
        <time>2021-05-20T08:58:44Z</time>
      </trkpt>
      <trkpt lat="47.19827" lon="4.9507">
        <ele>410.5</ele>
        <time>2021-05-20T08:58:53Z</time>
      </trkpt>
      <trkpt lat="47.19835" lon="4.95065">
        <ele>412.5</ele>
        <time>2021-05-20T08:58:59Z</time>
      </trkpt>
      <trkpt lat="47.1984" lon="4.95061">
        <ele>411.8</ele>
        <time>2021-05-20T08:59:02Z</time>
      </trkpt>
      <trkpt lat="47.19844" lon="4.95057">
        <ele>410.4</ele>
        <time>2021-05-20T08:59:06Z</time>
      </trkpt>
      <trkpt lat="47.19849" lon="4.95051">
        <ele>409.9</ele>
        <time>2021-05-20T08:59:09Z</time>
      </trkpt>
      <trkpt lat="47.19852" lon="4.95045">
        <ele>410.6</ele>
        <time>2021-05-20T08:59:11Z</time>
      </trkpt>
      <trkpt lat="47.19857" lon="4.9504">
        <ele>411.5</ele>
        <time>2021-05-20T08:59:16Z</time>
      </trkpt>
      <trkpt lat="47.19861" lon="4.95035">
        <ele>410.3</ele>
        <time>2021-05-20T08:59:21Z</time>
      </trkpt>
      <trkpt lat="47.19865" lon="4.9503">
        <ele>412.5</ele>
        <time>2021-05-20T08:59:25Z</time>
      </trkpt>
      <trkpt lat="47.19871" lon="4.95029">
        <ele>412.9</ele>
        <time>2021-05-20T08:59:30Z</time>
      </trkpt>
      <trkpt lat="47.19876" lon="4.95028">
        <ele>412.6</ele>
        <time>2021-05-20T08:59:33Z</time>
      </trkpt>
      <trkpt lat="47.1988" lon="4.95023">
        <ele>412.2</ele>
        <time>2021-05-20T08:59:38Z</time>
      </trkpt>
      <trkpt lat="47.19884" lon="4.95018">
        <ele>413.9</ele>
        <time>2021-05-20T08:59:42Z</time>
      </trkpt>
      <trkpt lat="47.19888" lon="4.95013">
        <ele>412.9</ele>
        <time>2021-05-20T08:59:47Z</time>
      </trkpt>
      <trkpt lat="47.1989" lon="4.95005">
        <ele>411.7</ele>
        <time>2021-05-20T08:59:52Z</time>
      </trkpt>
      <trkpt lat="47.19896" lon="4.95002">
        <ele>411.8</ele>
        <time>2021-05-20T08:59:57Z</time>
      </trkpt>
      <trkpt lat="47.199" lon="4.94999">
        <ele>412.7</ele>
        <time>2021-05-20T09:00:01Z</time>
      </trkpt>
      <trkpt lat="47.19904" lon="4.94995">
        <ele>412.3</ele>
        <time>2021-05-20T09:00:06Z</time>
      </trkpt>
      <trkpt lat="47.19908" lon="4.9499">
        <ele>411.9</ele>
        <time>2021-05-20T09:00:10Z</time>
      </trkpt>
      <trkpt lat="47.19911" lon="4.94983">
        <ele>410.3</ele>
        <time>2021-05-20T09:00:15Z</time>
      </trkpt>
      <trkpt lat="47.19912" lon="4.94977">
        <ele>411.1</ele>
        <time>2021-05-20T09:00:19Z</time>
      </trkpt>
      <trkpt lat="47.19915" lon="4.9497">
        <ele>404.1</ele>
        <time>2021-05-20T09:00:24Z</time>
      </trkpt>
      <trkpt lat="47.19917" lon="4.94963">
        <ele>405.7</ele>
        <time>2021-05-20T09:00:28Z</time>
      </trkpt>
      <trkpt lat="47.19922" lon="4.94959">
        <ele>406.5</ele>
        <time>2021-05-20T09:00:33Z</time>
      </trkpt>
      <trkpt lat="47.19927" lon="4.94956">
        <ele>403.4</ele>
        <time>2021-05-20T09:00:37Z</time>
      </trkpt>
      <trkpt lat="47.19929" lon="4.94949">
        <ele>403</ele>
        <time>2021-05-20T09:00:42Z</time>
      </trkpt>
      <trkpt lat="47.1993" lon="4.94943">
        <ele>404.3</ele>
        <time>2021-05-20T09:00:47Z</time>
      </trkpt>
      <trkpt lat="47.19934" lon="4.94938">
        <ele>408.1</ele>
        <time>2021-05-20T09:00:51Z</time>
      </trkpt>
      <trkpt lat="47.19938" lon="4.94932">
        <ele>406.8</ele>
        <time>2021-05-20T09:00:56Z</time>
      </trkpt>
      <trkpt lat="47.19937" lon="4.94926">
        <ele>405.9</ele>
        <time>2021-05-20T09:01:02Z</time>
      </trkpt>
      <trkpt lat="47.19932" lon="4.94926">
        <ele>410.2</ele>
        <time>2021-05-20T09:02:00Z</time>
      </trkpt>
      <trkpt lat="47.19934" lon="4.94932">
        <ele>414.5</ele>
        <time>2021-05-20T09:03:43Z</time>
      </trkpt>
      <trkpt lat="47.1993" lon="4.94936">
        <ele>416.3</ele>
        <time>2021-05-20T09:03:48Z</time>
      </trkpt>
      <trkpt lat="47.19934" lon="4.94932">
        <ele>413.8</ele>
        <time>2021-05-20T09:03:58Z</time>
      </trkpt>
      <trkpt lat="47.19937" lon="4.94926">
        <ele>411.8</ele>
        <time>2021-05-20T09:04:03Z</time>
      </trkpt>
      <trkpt lat="47.19933" lon="4.9493">
        <ele>410.3</ele>
        <time>2021-05-20T09:05:21Z</time>
      </trkpt>
      <trkpt lat="47.19935" lon="4.94924">
        <ele>405.1</ele>
        <time>2021-05-20T09:06:04Z</time>
      </trkpt>
      <trkpt lat="47.1994" lon="4.94926">
        <ele>406.2</ele>
        <time>2021-05-20T09:07:45Z</time>
      </trkpt>
      <trkpt lat="47.19945" lon="4.94925">
        <ele>410.2</ele>
        <time>2021-05-20T09:08:30Z</time>
      </trkpt>
      <trkpt lat="47.19939" lon="4.94926">
        <ele>401.7</ele>
        <time>2021-05-20T09:09:35Z</time>
      </trkpt>
      <trkpt lat="47.19935" lon="4.94927">
        <ele>404.2</ele>
        <time>2021-05-20T09:10:12Z</time>
      </trkpt>
      <trkpt lat="47.19937" lon="4.94921">
        <ele>410.3</ele>
        <time>2021-05-20T09:10:33Z</time>
      </trkpt>
      <trkpt lat="47.19941" lon="4.94917">
        <ele>406</ele>
        <time>2021-05-20T09:15:49Z</time>
      </trkpt>
      <trkpt lat="47.19945" lon="4.94919">
        <ele>406.9</ele>
        <time>2021-05-20T09:16:13Z</time>
      </trkpt>
      <trkpt lat="47.1995" lon="4.94919">
        <ele>404.4</ele>
        <time>2021-05-20T09:16:25Z</time>
      </trkpt>
      <trkpt lat="47.19955" lon="4.94921">
        <ele>402.2</ele>
        <time>2021-05-20T09:16:45Z</time>
      </trkpt>
      <trkpt lat="47.19957" lon="4.94927">
        <ele>399.8</ele>
        <time>2021-05-20T09:16:56Z</time>
      </trkpt>
      <trkpt lat="47.19962" lon="4.94926">
        <ele>393</ele>
        <time>2021-05-20T09:17:20Z</time>
      </trkpt>
      <trkpt lat="47.19966" lon="4.94928">
        <ele>394.3</ele>
        <time>2021-05-20T09:17:29Z</time>
      </trkpt>
      <trkpt lat="47.19971" lon="4.9493">
        <ele>393.4</ele>
        <time>2021-05-20T09:17:35Z</time>
      </trkpt>
      <trkpt lat="47.19975" lon="4.94934">
        <ele>390.7</ele>
        <time>2021-05-20T09:17:40Z</time>
      </trkpt>
      <trkpt lat="47.19979" lon="4.94939">
        <ele>390.4</ele>
        <time>2021-05-20T09:17:51Z</time>
      </trkpt>
      <trkpt lat="47.1998" lon="4.94946">
        <ele>387.9</ele>
        <time>2021-05-20T09:18:01Z</time>
      </trkpt>
      <trkpt lat="47.19981" lon="4.94953">
        <ele>378.6</ele>
        <time>2021-05-20T09:18:18Z</time>
      </trkpt>
      <trkpt lat="47.19984" lon="4.94958">
        <ele>377</ele>
        <time>2021-05-20T09:18:26Z</time>
      </trkpt>
      <trkpt lat="47.19988" lon="4.94955">
        <ele>376.7</ele>
        <time>2021-05-20T09:18:31Z</time>
      </trkpt>
      <trkpt lat="47.19993" lon="4.94958">
        <ele>377.1</ele>
        <time>2021-05-20T09:18:40Z</time>
      </trkpt>
      <trkpt lat="47.19996" lon="4.94963">
        <ele>377.1</ele>
        <time>2021-05-20T09:18:48Z</time>
      </trkpt>
      <trkpt lat="47.2" lon="4.94966">
        <ele>371.3</ele>
        <time>2021-05-20T09:18:55Z</time>
      </trkpt>
      <trkpt lat="47.20004" lon="4.94972">
        <ele>369.4</ele>
        <time>2021-05-20T09:19:04Z</time>
      </trkpt>
      <trkpt lat="47.20007" lon="4.94977">
        <ele>371</ele>
        <time>2021-05-20T09:19:14Z</time>
      </trkpt>
      <trkpt lat="47.20011" lon="4.94975">
        <ele>371.2</ele>
        <time>2021-05-20T09:19:31Z</time>
      </trkpt>
      <trkpt lat="47.20016" lon="4.94976">
        <ele>369.4</ele>
        <time>2021-05-20T09:19:36Z</time>
      </trkpt>
      <trkpt lat="47.20022" lon="4.94983">
        <ele>371.5</ele>
        <time>2021-05-20T09:19:40Z</time>
      </trkpt>
      <trkpt lat="47.20027" lon="4.94987">
        <ele>371</ele>
        <time>2021-05-20T09:19:43Z</time>
      </trkpt>
      <trkpt lat="47.20031" lon="4.94993">
        <ele>368.7</ele>
        <time>2021-05-20T09:19:48Z</time>
      </trkpt>
      <trkpt lat="47.20034" lon="4.94999">
        <ele>366.2</ele>
        <time>2021-05-20T09:19:53Z</time>
      </trkpt>
      <trkpt lat="47.20039" lon="4.94997">
        <ele>361.6</ele>
        <time>2021-05-20T09:20:23Z</time>
      </trkpt>
      <trkpt lat="47.20041" lon="4.9499">
        <ele>361.5</ele>
        <time>2021-05-20T09:20:48Z</time>
      </trkpt>
      <trkpt lat="47.20043" lon="4.94983">
        <ele>362.1</ele>
        <time>2021-05-20T09:20:56Z</time>
      </trkpt>
      <trkpt lat="47.20045" lon="4.94977">
        <ele>361.2</ele>
        <time>2021-05-20T09:21:01Z</time>
      </trkpt>
      <trkpt lat="47.20048" lon="4.94971">
        <ele>362</ele>
        <time>2021-05-20T09:21:06Z</time>
      </trkpt>
      <trkpt lat="47.20051" lon="4.94963">
        <ele>362.8</ele>
        <time>2021-05-20T09:21:13Z</time>
      </trkpt>
      <trkpt lat="47.20053" lon="4.94957">
        <ele>364.8</ele>
        <time>2021-05-20T09:21:28Z</time>
      </trkpt>
      <trkpt lat="47.20055" lon="4.9495">
        <ele>369.7</ele>
        <time>2021-05-20T09:21:38Z</time>
      </trkpt>
      <trkpt lat="47.20055" lon="4.94942">
        <ele>369.8</ele>
        <time>2021-05-20T09:21:47Z</time>
      </trkpt>
      <trkpt lat="47.20056" lon="4.94935">
        <ele>370.7</ele>
        <time>2021-05-20T09:21:54Z</time>
      </trkpt>
      <trkpt lat="47.20059" lon="4.94929">
        <ele>372.3</ele>
        <time>2021-05-20T09:22:02Z</time>
      </trkpt>
      <trkpt lat="47.20062" lon="4.94924">
        <ele>377.5</ele>
        <time>2021-05-20T09:22:15Z</time>
      </trkpt>
      <trkpt lat="47.20062" lon="4.94917">
        <ele>378.6</ele>
        <time>2021-05-20T09:22:49Z</time>
      </trkpt>
      <trkpt lat="47.20064" lon="4.94909">
        <ele>385.4</ele>
        <time>2021-05-20T09:23:08Z</time>
      </trkpt>
      <trkpt lat="47.20065" lon="4.94902">
        <ele>382.2</ele>
        <time>2021-05-20T09:23:18Z</time>
      </trkpt>
      <trkpt lat="47.20068" lon="4.94897">
        <ele>382.6</ele>
        <time>2021-05-20T09:23:40Z</time>
      </trkpt>
      <trkpt lat="47.20072" lon="4.94893">
        <ele>388.3</ele>
        <time>2021-05-20T09:24:15Z</time>
      </trkpt>
      <trkpt lat="47.20076" lon="4.94889">
        <ele>389.8</ele>
        <time>2021-05-20T09:24:52Z</time>
      </trkpt>
      <trkpt lat="47.20081" lon="4.9489">
        <ele>391.5</ele>
        <time>2021-05-20T09:25:01Z</time>
      </trkpt>
      <trkpt lat="47.20081" lon="4.94896">
        <ele>395.4</ele>
        <time>2021-05-20T09:25:13Z</time>
      </trkpt>
      <trkpt lat="47.20083" lon="4.94903">
        <ele>395.5</ele>
        <time>2021-05-20T09:26:03Z</time>
      </trkpt>
      <trkpt lat="47.20083" lon="4.9491">
        <ele>401.2</ele>
        <time>2021-05-20T09:26:13Z</time>
      </trkpt>
      <trkpt lat="47.20083" lon="4.94917">
        <ele>396.6</ele>
        <time>2021-05-20T09:26:33Z</time>
      </trkpt>
      <trkpt lat="47.20083" lon="4.94924">
        <ele>397.8</ele>
        <time>2021-05-20T09:27:29Z</time>
      </trkpt>
      <trkpt lat="47.20084" lon="4.94934">
        <ele>396</ele>
        <time>2021-05-20T09:28:17Z</time>
      </trkpt>
      <trkpt lat="47.20083" lon="4.94942">
        <ele>394.2</ele>
        <time>2021-05-20T09:28:22Z</time>
      </trkpt>
      <trkpt lat="47.20084" lon="4.9495">
        <ele>394</ele>
        <time>2021-05-20T09:28:29Z</time>
      </trkpt>
      <trkpt lat="47.20086" lon="4.94956">
        <ele>392.6</ele>
        <time>2021-05-20T09:28:36Z</time>
      </trkpt>
      <trkpt lat="47.2009" lon="4.94959">
        <ele>393.1</ele>
        <time>2021-05-20T09:28:43Z</time>
      </trkpt>
      <trkpt lat="47.20093" lon="4.94966">
        <ele>396.2</ele>
        <time>2021-05-20T09:29:14Z</time>
      </trkpt>
      <trkpt lat="47.20097" lon="4.94972">
        <ele>397.6</ele>
        <time>2021-05-20T09:29:20Z</time>
      </trkpt>
      <trkpt lat="47.20096" lon="4.9498">
        <ele>395.2</ele>
        <time>2021-05-20T09:29:29Z</time>
      </trkpt>
      <trkpt lat="47.20095" lon="4.94988">
        <ele>392.7</ele>
        <time>2021-05-20T09:29:36Z</time>
      </trkpt>
      <trkpt lat="47.20098" lon="4.94994">
        <ele>391.1</ele>
        <time>2021-05-20T09:29:41Z</time>
      </trkpt>
      <trkpt lat="47.20101" lon="4.94998">
        <ele>394.2</ele>
        <time>2021-05-20T09:29:51Z</time>
      </trkpt>
      <trkpt lat="47.20102" lon="4.95005">
        <ele>394.8</ele>
        <time>2021-05-20T09:29:58Z</time>
      </trkpt>
      <trkpt lat="47.20104" lon="4.95012">
        <ele>393.6</ele>
        <time>2021-05-20T09:30:07Z</time>
      </trkpt>
      <trkpt lat="47.20109" lon="4.95014">
        <ele>395.9</ele>
        <time>2021-05-20T09:30:23Z</time>
      </trkpt>
      <trkpt lat="47.20112" lon="4.95018">
        <ele>401.7</ele>
        <time>2021-05-20T09:31:45Z</time>
      </trkpt>
      <trkpt lat="47.20113" lon="4.95012">
        <ele>399</ele>
        <time>2021-05-20T09:32:22Z</time>
      </trkpt>
      <trkpt lat="47.20108" lon="4.95017">
        <ele>386.2</ele>
        <time>2021-05-20T10:03:43Z</time>
      </trkpt>
      <trkpt lat="47.20113" lon="4.95019">
        <ele>393.3</ele>
        <time>2021-05-20T10:03:53Z</time>
      </trkpt>
      <trkpt lat="47.20116" lon="4.95015">
        <ele>398.8</ele>
        <time>2021-05-20T10:04:22Z</time>
      </trkpt>
      <trkpt lat="47.20117" lon="4.95022">
        <ele>394.7</ele>
        <time>2021-05-20T10:04:43Z</time>
      </trkpt>
      <trkpt lat="47.20121" lon="4.95028">
        <ele>395.8</ele>
        <time>2021-05-20T10:04:48Z</time>
      </trkpt>
      <trkpt lat="47.20121" lon="4.95036">
        <ele>393.3</ele>
        <time>2021-05-20T10:04:54Z</time>
      </trkpt>
      <trkpt lat="47.20125" lon="4.9504">
        <ele>397.3</ele>
        <time>2021-05-20T10:04:58Z</time>
      </trkpt>
      <trkpt lat="47.2013" lon="4.95043">
        <ele>399.9</ele>
        <time>2021-05-20T10:05:03Z</time>
      </trkpt>
      <trkpt lat="47.20134" lon="4.95049">
        <ele>387.5</ele>
        <time>2021-05-20T10:05:08Z</time>
      </trkpt>
      <trkpt lat="47.20139" lon="4.95049">
        <ele>394.8</ele>
        <time>2021-05-20T10:05:12Z</time>
      </trkpt>
      <trkpt lat="47.20143" lon="4.95051">
        <ele>392.4</ele>
        <time>2021-05-20T10:05:24Z</time>
      </trkpt>
      <trkpt lat="47.20144" lon="4.95059">
        <ele>398.5</ele>
        <time>2021-05-20T10:05:30Z</time>
      </trkpt>
      <trkpt lat="47.20145" lon="4.95066">
        <ele>398.4</ele>
        <time>2021-05-20T10:05:36Z</time>
      </trkpt>
      <trkpt lat="47.20147" lon="4.95074">
        <ele>397.9</ele>
        <time>2021-05-20T10:05:41Z</time>
      </trkpt>
      <trkpt lat="47.20149" lon="4.95083">
        <ele>399.1</ele>
        <time>2021-05-20T10:05:46Z</time>
      </trkpt>
      <trkpt lat="47.20149" lon="4.95091">
        <ele>398.8</ele>
        <time>2021-05-20T10:05:52Z</time>
      </trkpt>
      <trkpt lat="47.20148" lon="4.95098">
        <ele>397.8</ele>
        <time>2021-05-20T10:05:56Z</time>
      </trkpt>
      <trkpt lat="47.20149" lon="4.95106">
        <ele>396.7</ele>
        <time>2021-05-20T10:06:03Z</time>
      </trkpt>
      <trkpt lat="47.20152" lon="4.95112">
        <ele>397.4</ele>
        <time>2021-05-20T10:06:07Z</time>
      </trkpt>
      <trkpt lat="47.20155" lon="4.95116">
        <ele>397.5</ele>
        <time>2021-05-20T10:06:11Z</time>
      </trkpt>
      <trkpt lat="47.2016" lon="4.9512">
        <ele>398.1</ele>
        <time>2021-05-20T10:06:15Z</time>
      </trkpt>
      <trkpt lat="47.20164" lon="4.9512">
        <ele>398.7</ele>
        <time>2021-05-20T10:06:21Z</time>
      </trkpt>
      <trkpt lat="47.20169" lon="4.95124">
        <ele>398.7</ele>
        <time>2021-05-20T10:06:25Z</time>
      </trkpt>
      <trkpt lat="47.20174" lon="4.95126">
        <ele>396.4</ele>
        <time>2021-05-20T10:06:31Z</time>
      </trkpt>
      <trkpt lat="47.20178" lon="4.9513">
        <ele>398.2</ele>
        <time>2021-05-20T10:06:36Z</time>
      </trkpt>
      <trkpt lat="47.20181" lon="4.95137">
        <ele>396.7</ele>
        <time>2021-05-20T10:06:41Z</time>
      </trkpt>
      <trkpt lat="47.20185" lon="4.95141">
        <ele>398.5</ele>
        <time>2021-05-20T10:06:45Z</time>
      </trkpt>
      <trkpt lat="47.20186" lon="4.95149">
        <ele>398.3</ele>
        <time>2021-05-20T10:06:51Z</time>
      </trkpt>
      <trkpt lat="47.20191" lon="4.95154">
        <ele>382.3</ele>
        <time>2021-05-20T10:06:56Z</time>
      </trkpt>
      <trkpt lat="47.20195" lon="4.95157">
        <ele>394</ele>
        <time>2021-05-20T10:07:00Z</time>
      </trkpt>
      <trkpt lat="47.202" lon="4.9516">
        <ele>397.9</ele>
        <time>2021-05-20T10:07:06Z</time>
      </trkpt>
      <trkpt lat="47.20205" lon="4.9516">
        <ele>361.7</ele>
        <time>2021-05-20T10:07:11Z</time>
      </trkpt>
      <trkpt lat="47.20211" lon="4.95158">
        <ele>394.4</ele>
        <time>2021-05-20T10:07:17Z</time>
      </trkpt>
      <trkpt lat="47.20216" lon="4.95157">
        <ele>399.8</ele>
        <time>2021-05-20T10:07:22Z</time>
      </trkpt>
      <trkpt lat="47.2022" lon="4.95162">
        <ele>400.6</ele>
        <time>2021-05-20T10:07:28Z</time>
      </trkpt>
      <trkpt lat="47.20224" lon="4.95168">
        <ele>388</ele>
        <time>2021-05-20T10:07:33Z</time>
      </trkpt>
      <trkpt lat="47.20228" lon="4.95171">
        <ele>395.9</ele>
        <time>2021-05-20T10:07:37Z</time>
      </trkpt>
      <trkpt lat="47.20233" lon="4.95173">
        <ele>362.7</ele>
        <time>2021-05-20T10:07:40Z</time>
      </trkpt>
      <trkpt lat="47.20237" lon="4.95177">
        <ele>400</ele>
        <time>2021-05-20T10:07:46Z</time>
      </trkpt>
      <trkpt lat="47.20242" lon="4.9518">
        <ele>402.5</ele>
        <time>2021-05-20T10:07:52Z</time>
      </trkpt>
      <trkpt lat="47.20247" lon="4.95178">
        <ele>403.8</ele>
        <time>2021-05-20T10:07:56Z</time>
      </trkpt>
      <trkpt lat="47.20251" lon="4.95175">
        <ele>403.1</ele>
        <time>2021-05-20T10:08:02Z</time>
      </trkpt>
      <trkpt lat="47.20257" lon="4.95176">
        <ele>404.9</ele>
        <time>2021-05-20T10:08:07Z</time>
      </trkpt>
      <trkpt lat="47.20262" lon="4.95177">
        <ele>400.2</ele>
        <time>2021-05-20T10:08:12Z</time>
      </trkpt>
      <trkpt lat="47.20267" lon="4.9518">
        <ele>404.4</ele>
        <time>2021-05-20T10:08:17Z</time>
      </trkpt>
      <trkpt lat="47.20271" lon="4.95182">
        <ele>404.3</ele>
        <time>2021-05-20T10:08:23Z</time>
      </trkpt>
      <trkpt lat="47.20277" lon="4.95182">
        <ele>404</ele>
        <time>2021-05-20T10:08:28Z</time>
      </trkpt>
      <trkpt lat="47.20281" lon="4.95185">
        <ele>406.5</ele>
        <time>2021-05-20T10:08:34Z</time>
      </trkpt>
      <trkpt lat="47.20286" lon="4.95189">
        <ele>407.4</ele>
        <time>2021-05-20T10:08:38Z</time>
      </trkpt>
      <trkpt lat="47.20288" lon="4.95195">
        <ele>406</ele>
        <time>2021-05-20T10:08:43Z</time>
      </trkpt>
      <trkpt lat="47.20292" lon="4.95203">
        <ele>401.9</ele>
        <time>2021-05-20T10:08:50Z</time>
      </trkpt>
      <trkpt lat="47.20295" lon="4.95211">
        <ele>407.3</ele>
        <time>2021-05-20T10:08:56Z</time>
      </trkpt>
      <trkpt lat="47.20297" lon="4.9522">
        <ele>409</ele>
        <time>2021-05-20T10:09:00Z</time>
      </trkpt>
      <trkpt lat="47.20296" lon="4.95227">
        <ele>407.5</ele>
        <time>2021-05-20T10:09:05Z</time>
      </trkpt>
      <trkpt lat="47.20297" lon="4.95235">
        <ele>407.4</ele>
        <time>2021-05-20T10:09:09Z</time>
      </trkpt>
      <trkpt lat="47.20299" lon="4.95241">
        <ele>406.9</ele>
        <time>2021-05-20T10:09:15Z</time>
      </trkpt>
      <trkpt lat="47.20303" lon="4.95247">
        <ele>403.5</ele>
        <time>2021-05-20T10:09:19Z</time>
      </trkpt>
      <trkpt lat="47.20306" lon="4.95253">
        <ele>404.6</ele>
        <time>2021-05-20T10:09:23Z</time>
      </trkpt>
      <trkpt lat="47.20308" lon="4.95259">
        <ele>403.8</ele>
        <time>2021-05-20T10:09:27Z</time>
      </trkpt>
      <trkpt lat="47.20312" lon="4.95265">
        <ele>403.7</ele>
        <time>2021-05-20T10:09:31Z</time>
      </trkpt>
      <trkpt lat="47.20317" lon="4.95269">
        <ele>401.9</ele>
        <time>2021-05-20T10:09:36Z</time>
      </trkpt>
      <trkpt lat="47.2032" lon="4.95274">
        <ele>401.5</ele>
        <time>2021-05-20T10:09:39Z</time>
      </trkpt>
      <trkpt lat="47.20323" lon="4.9528">
        <ele>400.6</ele>
        <time>2021-05-20T10:09:44Z</time>
      </trkpt>
      <trkpt lat="47.20328" lon="4.9528">
        <ele>400.4</ele>
        <time>2021-05-20T10:09:52Z</time>
      </trkpt>
      <trkpt lat="47.2033" lon="4.95288">
        <ele>401.3</ele>
        <time>2021-05-20T10:09:57Z</time>
      </trkpt>
      <trkpt lat="47.20331" lon="4.95294">
        <ele>400.9</ele>
        <time>2021-05-20T10:10:03Z</time>
      </trkpt>
      <trkpt lat="47.20332" lon="4.95301">
        <ele>400.3</ele>
        <time>2021-05-20T10:10:08Z</time>
      </trkpt>
      <trkpt lat="47.20335" lon="4.95307">
        <ele>399.5</ele>
        <time>2021-05-20T10:10:12Z</time>
      </trkpt>
      <trkpt lat="47.20337" lon="4.95315">
        <ele>398.9</ele>
        <time>2021-05-20T10:10:18Z</time>
      </trkpt>
      <trkpt lat="47.20339" lon="4.95322">
        <ele>399.1</ele>
        <time>2021-05-20T10:10:35Z</time>
      </trkpt>
      <trkpt lat="47.20342" lon="4.95329">
        <ele>398.5</ele>
        <time>2021-05-20T10:10:40Z</time>
      </trkpt>
      <trkpt lat="47.20344" lon="4.95336">
        <ele>398.8</ele>
        <time>2021-05-20T10:10:46Z</time>
      </trkpt>
      <trkpt lat="47.20347" lon="4.95345">
        <ele>396.5</ele>
        <time>2021-05-20T10:10:51Z</time>
      </trkpt>
      <trkpt lat="47.20348" lon="4.95352">
        <ele>396.5</ele>
        <time>2021-05-20T10:10:56Z</time>
      </trkpt>
      <trkpt lat="47.20348" lon="4.95359">
        <ele>390.5</ele>
        <time>2021-05-20T10:11:01Z</time>
      </trkpt>
      <trkpt lat="47.20351" lon="4.95367">
        <ele>395.6</ele>
        <time>2021-05-20T10:11:06Z</time>
      </trkpt>
      <trkpt lat="47.20353" lon="4.95374">
        <ele>396.2</ele>
        <time>2021-05-20T10:11:11Z</time>
      </trkpt>
      <trkpt lat="47.20355" lon="4.9538">
        <ele>394.5</ele>
        <time>2021-05-20T10:11:16Z</time>
      </trkpt>
      <trkpt lat="47.20353" lon="4.95388">
        <ele>392.8</ele>
        <time>2021-05-20T10:11:21Z</time>
      </trkpt>
      <trkpt lat="47.20354" lon="4.95395">
        <ele>345.7</ele>
        <time>2021-05-20T10:11:26Z</time>
      </trkpt>
      <trkpt lat="47.20352" lon="4.95402">
        <ele>393.6</ele>
        <time>2021-05-20T10:11:30Z</time>
      </trkpt>
      <trkpt lat="47.20349" lon="4.9541">
        <ele>391.2</ele>
        <time>2021-05-20T10:11:36Z</time>
      </trkpt>
      <trkpt lat="47.20348" lon="4.95418">
        <ele>390.2</ele>
        <time>2021-05-20T10:11:41Z</time>
      </trkpt>
      <trkpt lat="47.20347" lon="4.95426">
        <ele>390.6</ele>
        <time>2021-05-20T10:11:46Z</time>
      </trkpt>
      <trkpt lat="47.20345" lon="4.95432">
        <ele>390</ele>
        <time>2021-05-20T10:11:50Z</time>
      </trkpt>
      <trkpt lat="47.20348" lon="4.95439">
        <ele>387.7</ele>
        <time>2021-05-20T10:11:56Z</time>
      </trkpt>
      <trkpt lat="47.20352" lon="4.95444">
        <ele>386.1</ele>
        <time>2021-05-20T10:12:03Z</time>
      </trkpt>
      <trkpt lat="47.20351" lon="4.95451">
        <ele>386.9</ele>
        <time>2021-05-20T10:12:09Z</time>
      </trkpt>
      <trkpt lat="47.2035" lon="4.95458">
        <ele>385.8</ele>
        <time>2021-05-20T10:12:13Z</time>
      </trkpt>
      <trkpt lat="47.20348" lon="4.95465">
        <ele>384.3</ele>
        <time>2021-05-20T10:12:17Z</time>
      </trkpt>
      <trkpt lat="47.20348" lon="4.95471">
        <ele>383.9</ele>
        <time>2021-05-20T10:12:21Z</time>
      </trkpt>
      <trkpt lat="47.20348" lon="4.95481">
        <ele>384.1</ele>
        <time>2021-05-20T10:12:26Z</time>
      </trkpt>
      <trkpt lat="47.20349" lon="4.9549">
        <ele>380.5</ele>
        <time>2021-05-20T10:12:30Z</time>
      </trkpt>
      <trkpt lat="47.20349" lon="4.95498">
        <ele>381.1</ele>
        <time>2021-05-20T10:12:33Z</time>
      </trkpt>
      <trkpt lat="47.20351" lon="4.95506">
        <ele>381.5</ele>
        <time>2021-05-20T10:12:37Z</time>
      </trkpt>
      <trkpt lat="47.20355" lon="4.95513">
        <ele>379.6</ele>
        <time>2021-05-20T10:12:43Z</time>
      </trkpt>
      <trkpt lat="47.20357" lon="4.95519">
        <ele>380.8</ele>
        <time>2021-05-20T10:12:47Z</time>
      </trkpt>
      <trkpt lat="47.20359" lon="4.95526">
        <ele>380.4</ele>
        <time>2021-05-20T10:12:53Z</time>
      </trkpt>
      <trkpt lat="47.20362" lon="4.95533">
        <ele>380.8</ele>
        <time>2021-05-20T10:12:58Z</time>
      </trkpt>
      <trkpt lat="47.20363" lon="4.95541">
        <ele>380.8</ele>
        <time>2021-05-20T10:13:03Z</time>
      </trkpt>
      <trkpt lat="47.20364" lon="4.95548">
        <ele>380.8</ele>
        <time>2021-05-20T10:13:07Z</time>
      </trkpt>
      <trkpt lat="47.20364" lon="4.95562">
        <ele>380.6</ele>
        <time>2021-05-20T10:13:17Z</time>
      </trkpt>
      <trkpt lat="47.20366" lon="4.9557">
        <ele>379.5</ele>
        <time>2021-05-20T10:13:22Z</time>
      </trkpt>
      <trkpt lat="47.20369" lon="4.95576">
        <ele>379.3</ele>
        <time>2021-05-20T10:13:26Z</time>
      </trkpt>
      <trkpt lat="47.20371" lon="4.95584">
        <ele>378.9</ele>
        <time>2021-05-20T10:13:31Z</time>
      </trkpt>
      <trkpt lat="47.20372" lon="4.95591">
        <ele>380</ele>
        <time>2021-05-20T10:13:36Z</time>
      </trkpt>
      <trkpt lat="47.20367" lon="4.95606">
        <ele>378.3</ele>
        <time>2021-05-20T10:13:46Z</time>
      </trkpt>
      <trkpt lat="47.20362" lon="4.95607">
        <ele>378.6</ele>
        <time>2021-05-20T10:13:51Z</time>
      </trkpt>
      <trkpt lat="47.20356" lon="4.95605">
        <ele>375.4</ele>
        <time>2021-05-20T10:13:55Z</time>
      </trkpt>
      <trkpt lat="47.2035" lon="4.95603">
        <ele>375.2</ele>
        <time>2021-05-20T10:13:59Z</time>
      </trkpt>
      <trkpt lat="47.20344" lon="4.95602">
        <ele>378.3</ele>
        <time>2021-05-20T10:14:04Z</time>
      </trkpt>
      <trkpt lat="47.20339" lon="4.95601">
        <ele>376.4</ele>
        <time>2021-05-20T10:14:08Z</time>
      </trkpt>
      <trkpt lat="47.20335" lon="4.95599">
        <ele>375.8</ele>
        <time>2021-05-20T10:14:12Z</time>
      </trkpt>
      <trkpt lat="47.2033" lon="4.95599">
        <ele>373.9</ele>
        <time>2021-05-20T10:14:16Z</time>
      </trkpt>
      <trkpt lat="47.20323" lon="4.95599">
        <ele>372.5</ele>
        <time>2021-05-20T10:14:22Z</time>
      </trkpt>
      <trkpt lat="47.20319" lon="4.956">
        <ele>371.8</ele>
        <time>2021-05-20T10:14:26Z</time>
      </trkpt>
      <trkpt lat="47.20311" lon="4.95601">
        <ele>372.6</ele>
        <time>2021-05-20T10:14:35Z</time>
      </trkpt>
      <trkpt lat="47.20306" lon="4.95602">
        <ele>373.7</ele>
        <time>2021-05-20T10:14:39Z</time>
      </trkpt>
      <trkpt lat="47.20298" lon="4.95608">
        <ele>373.3</ele>
        <time>2021-05-20T10:14:47Z</time>
      </trkpt>
      <trkpt lat="47.20292" lon="4.9561">
        <ele>375</ele>
        <time>2021-05-20T10:14:52Z</time>
      </trkpt>
      <trkpt lat="47.20277" lon="4.95609">
        <ele>373.8</ele>
        <time>2021-05-20T10:15:04Z</time>
      </trkpt>
      <trkpt lat="47.20272" lon="4.95605">
        <ele>369.3</ele>
        <time>2021-05-20T10:15:09Z</time>
      </trkpt>
      <trkpt lat="47.20267" lon="4.95606">
        <ele>366.1</ele>
        <time>2021-05-20T10:15:14Z</time>
      </trkpt>
      <trkpt lat="47.20262" lon="4.95605">
        <ele>370.2</ele>
        <time>2021-05-20T10:15:18Z</time>
      </trkpt>
      <trkpt lat="47.20257" lon="4.95606">
        <ele>370.9</ele>
        <time>2021-05-20T10:15:21Z</time>
      </trkpt>
      <trkpt lat="47.20252" lon="4.95606">
        <ele>341.6</ele>
        <time>2021-05-20T10:15:26Z</time>
      </trkpt>
      <trkpt lat="47.20248" lon="4.95602">
        <ele>364.2</ele>
        <time>2021-05-20T10:15:30Z</time>
      </trkpt>
      <trkpt lat="47.20243" lon="4.95599">
        <ele>366.4</ele>
        <time>2021-05-20T10:15:36Z</time>
      </trkpt>
      <trkpt lat="47.20239" lon="4.95603">
        <ele>362.4</ele>
        <time>2021-05-20T10:15:41Z</time>
      </trkpt>
      <trkpt lat="47.20234" lon="4.95607">
        <ele>362.1</ele>
        <time>2021-05-20T10:15:46Z</time>
      </trkpt>
      <trkpt lat="47.20229" lon="4.95607">
        <ele>361.2</ele>
        <time>2021-05-20T10:15:51Z</time>
      </trkpt>
      <trkpt lat="47.20225" lon="4.95607">
        <ele>363.2</ele>
        <time>2021-05-20T10:15:55Z</time>
      </trkpt>
      <trkpt lat="47.20219" lon="4.95606">
        <ele>360.8</ele>
        <time>2021-05-20T10:15:59Z</time>
      </trkpt>
      <trkpt lat="47.20214" lon="4.95603">
        <ele>360.2</ele>
        <time>2021-05-20T10:16:04Z</time>
      </trkpt>
      <trkpt lat="47.2021" lon="4.95599">
        <ele>366.9</ele>
        <time>2021-05-20T10:16:10Z</time>
      </trkpt>
      <trkpt lat="47.20206" lon="4.95597">
        <ele>363.1</ele>
        <time>2021-05-20T10:16:15Z</time>
      </trkpt>
      <trkpt lat="47.20199" lon="4.95594">
        <ele>364.7</ele>
        <time>2021-05-20T10:16:19Z</time>
      </trkpt>
      <trkpt lat="47.20195" lon="4.95593">
        <ele>366.8</ele>
        <time>2021-05-20T10:16:22Z</time>
      </trkpt>
      <trkpt lat="47.2019" lon="4.95594">
        <ele>362.9</ele>
        <time>2021-05-20T10:16:27Z</time>
      </trkpt>
      <trkpt lat="47.20184" lon="4.95594">
        <ele>364.6</ele>
        <time>2021-05-20T10:16:31Z</time>
      </trkpt>
      <trkpt lat="47.20179" lon="4.95594">
        <ele>363.6</ele>
        <time>2021-05-20T10:16:34Z</time>
      </trkpt>
      <trkpt lat="47.20174" lon="4.95597">
        <ele>359.1</ele>
        <time>2021-05-20T10:16:39Z</time>
      </trkpt>
      <trkpt lat="47.2017" lon="4.95601">
        <ele>359.2</ele>
        <time>2021-05-20T10:16:42Z</time>
      </trkpt>
      <trkpt lat="47.20165" lon="4.95604">
        <ele>356.1</ele>
        <time>2021-05-20T10:16:48Z</time>
      </trkpt>
      <trkpt lat="47.2016" lon="4.95606">
        <ele>358.3</ele>
        <time>2021-05-20T10:16:52Z</time>
      </trkpt>
      <trkpt lat="47.20155" lon="4.9561">
        <ele>354</ele>
        <time>2021-05-20T10:16:58Z</time>
      </trkpt>
      <trkpt lat="47.2015" lon="4.95611">
        <ele>354.1</ele>
        <time>2021-05-20T10:17:03Z</time>
      </trkpt>
      <trkpt lat="47.20144" lon="4.95609">
        <ele>356.9</ele>
        <time>2021-05-20T10:17:08Z</time>
      </trkpt>
      <trkpt lat="47.20139" lon="4.95609">
        <ele>354.3</ele>
        <time>2021-05-20T10:17:12Z</time>
      </trkpt>
      <trkpt lat="47.20135" lon="4.95607">
        <ele>355.6</ele>
        <time>2021-05-20T10:17:16Z</time>
      </trkpt>
      <trkpt lat="47.20131" lon="4.95603">
        <ele>354.8</ele>
        <time>2021-05-20T10:17:19Z</time>
      </trkpt>
      <trkpt lat="47.20127" lon="4.95598">
        <ele>355.7</ele>
        <time>2021-05-20T10:17:23Z</time>
      </trkpt>
      <trkpt lat="47.20123" lon="4.95594">
        <ele>355.7</ele>
        <time>2021-05-20T10:17:28Z</time>
      </trkpt>
      <trkpt lat="47.20119" lon="4.9559">
        <ele>353.5</ele>
        <time>2021-05-20T10:17:34Z</time>
      </trkpt>
      <trkpt lat="47.20115" lon="4.95586">
        <ele>351.8</ele>
        <time>2021-05-20T10:17:40Z</time>
      </trkpt>
      <trkpt lat="47.20111" lon="4.9558">
        <ele>352.2</ele>
        <time>2021-05-20T10:17:46Z</time>
      </trkpt>
      <trkpt lat="47.20108" lon="4.95572">
        <ele>351.9</ele>
        <time>2021-05-20T10:17:51Z</time>
      </trkpt>
      <trkpt lat="47.20104" lon="4.95566">
        <ele>349</ele>
        <time>2021-05-20T10:17:57Z</time>
      </trkpt>
      <trkpt lat="47.201" lon="4.95563">
        <ele>347.8</ele>
        <time>2021-05-20T10:18:01Z</time>
      </trkpt>
      <trkpt lat="47.20097" lon="4.95558">
        <ele>345.5</ele>
        <time>2021-05-20T10:18:08Z</time>
      </trkpt>
      <trkpt lat="47.20095" lon="4.9555">
        <ele>343</ele>
        <time>2021-05-20T10:18:17Z</time>
      </trkpt>
      <trkpt lat="47.20096" lon="4.9554">
        <ele>341.3</ele>
        <time>2021-05-20T10:18:22Z</time>
      </trkpt>
      <trkpt lat="47.20095" lon="4.95533">
        <ele>340.9</ele>
        <time>2021-05-20T10:18:26Z</time>
      </trkpt>
      <trkpt lat="47.20095" lon="4.95525">
        <ele>342.3</ele>
        <time>2021-05-20T10:18:30Z</time>
      </trkpt>
      <trkpt lat="47.20095" lon="4.95517">
        <ele>339.9</ele>
        <time>2021-05-20T10:18:35Z</time>
      </trkpt>
      <trkpt lat="47.2009" lon="4.95517">
        <ele>338.2</ele>
        <time>2021-05-20T10:18:39Z</time>
      </trkpt>
      <trkpt lat="47.20085" lon="4.95522">
        <ele>335.1</ele>
        <time>2021-05-20T10:18:43Z</time>
      </trkpt>
      <trkpt lat="47.20083" lon="4.95528">
        <ele>334.3</ele>
        <time>2021-05-20T10:18:46Z</time>
      </trkpt>
      <trkpt lat="47.2008" lon="4.95537">
        <ele>336.2</ele>
        <time>2021-05-20T10:18:50Z</time>
      </trkpt>
      <trkpt lat="47.20076" lon="4.95543">
        <ele>316.9</ele>
        <time>2021-05-20T10:18:55Z</time>
      </trkpt>
      <trkpt lat="47.20073" lon="4.95548">
        <ele>344</ele>
        <time>2021-05-20T10:18:58Z</time>
      </trkpt>
      <trkpt lat="47.20071" lon="4.95555">
        <ele>337.4</ele>
        <time>2021-05-20T10:19:03Z</time>
      </trkpt>
      <trkpt lat="47.2007" lon="4.95563">
        <ele>335.1</ele>
        <time>2021-05-20T10:19:08Z</time>
      </trkpt>
      <trkpt lat="47.2007" lon="4.95571">
        <ele>335.5</ele>
        <time>2021-05-20T10:19:14Z</time>
      </trkpt>
      <trkpt lat="47.20069" lon="4.95577">
        <ele>322.9</ele>
        <time>2021-05-20T10:19:17Z</time>
      </trkpt>
      <trkpt lat="47.20069" lon="4.95585">
        <ele>332</ele>
        <time>2021-05-20T10:19:21Z</time>
      </trkpt>
      <trkpt lat="47.20067" lon="4.95592">
        <ele>335</ele>
        <time>2021-05-20T10:19:26Z</time>
      </trkpt>
      <trkpt lat="47.20066" lon="4.95599">
        <ele>310.3</ele>
        <time>2021-05-20T10:19:30Z</time>
      </trkpt>
      <trkpt lat="47.20066" lon="4.95607">
        <ele>327.1</ele>
        <time>2021-05-20T10:19:35Z</time>
      </trkpt>
      <trkpt lat="47.20065" lon="4.95615">
        <ele>336.2</ele>
        <time>2021-05-20T10:19:40Z</time>
      </trkpt>
      <trkpt lat="47.20065" lon="4.95625">
        <ele>325.3</ele>
        <time>2021-05-20T10:19:46Z</time>
      </trkpt>
      <trkpt lat="47.20063" lon="4.95632">
        <ele>330.4</ele>
        <time>2021-05-20T10:19:51Z</time>
      </trkpt>
      <trkpt lat="47.20063" lon="4.95639">
        <ele>329.6</ele>
        <time>2021-05-20T10:19:55Z</time>
      </trkpt>
      <trkpt lat="47.20066" lon="4.95644">
        <ele>329.1</ele>
        <time>2021-05-20T10:20:18Z</time>
      </trkpt>
      <trkpt lat="47.20065" lon="4.95651">
        <ele>327.5</ele>
        <time>2021-05-20T10:20:21Z</time>
      </trkpt>
      <trkpt lat="47.20063" lon="4.95657">
        <ele>327.1</ele>
        <time>2021-05-20T10:20:25Z</time>
      </trkpt>
      <trkpt lat="47.20063" lon="4.95666">
        <ele>327.5</ele>
        <time>2021-05-20T10:20:30Z</time>
      </trkpt>
      <trkpt lat="47.20061" lon="4.95672">
        <ele>327.2</ele>
        <time>2021-05-20T10:20:35Z</time>
      </trkpt>
      <trkpt lat="47.20063" lon="4.95679">
        <ele>311.6</ele>
        <time>2021-05-20T10:20:41Z</time>
      </trkpt>
      <trkpt lat="47.20064" lon="4.95687">
        <ele>319.8</ele>
        <time>2021-05-20T10:20:46Z</time>
      </trkpt>
      <trkpt lat="47.20065" lon="4.95694">
        <ele>312.7</ele>
        <time>2021-05-20T10:20:50Z</time>
      </trkpt>
      <trkpt lat="47.20066" lon="4.95701">
        <ele>318.6</ele>
        <time>2021-05-20T10:20:56Z</time>
      </trkpt>
      <trkpt lat="47.20066" lon="4.9571">
        <ele>319.1</ele>
        <time>2021-05-20T10:21:01Z</time>
      </trkpt>
      <trkpt lat="47.20066" lon="4.95718">
        <ele>321.2</ele>
        <time>2021-05-20T10:21:06Z</time>
      </trkpt>
      <trkpt lat="47.20064" lon="4.95725">
        <ele>299.4</ele>
        <time>2021-05-20T10:21:11Z</time>
      </trkpt>
      <trkpt lat="47.20063" lon="4.95733">
        <ele>317.1</ele>
        <time>2021-05-20T10:21:15Z</time>
      </trkpt>
      <trkpt lat="47.20064" lon="4.9574">
        <ele>321.1</ele>
        <time>2021-05-20T10:21:24Z</time>
      </trkpt>
      <trkpt lat="47.20066" lon="4.95748">
        <ele>318.8</ele>
        <time>2021-05-20T10:21:30Z</time>
      </trkpt>
      <trkpt lat="47.20066" lon="4.95757">
        <ele>316.8</ele>
        <time>2021-05-20T10:21:35Z</time>
      </trkpt>
      <trkpt lat="47.20067" lon="4.95764">
        <ele>316.5</ele>
        <time>2021-05-20T10:21:38Z</time>
      </trkpt>
      <trkpt lat="47.20068" lon="4.95772">
        <ele>316.2</ele>
        <time>2021-05-20T10:21:45Z</time>
      </trkpt>
      <trkpt lat="47.20069" lon="4.95779">
        <ele>314.7</ele>
        <time>2021-05-20T10:21:49Z</time>
      </trkpt>
      <trkpt lat="47.20071" lon="4.95786">
        <ele>313.9</ele>
        <time>2021-05-20T10:21:53Z</time>
      </trkpt>
      <trkpt lat="47.20072" lon="4.95793">
        <ele>316.8</ele>
        <time>2021-05-20T10:21:57Z</time>
      </trkpt>
      <trkpt lat="47.20074" lon="4.958">
        <ele>316.1</ele>
        <time>2021-05-20T10:22:02Z</time>
      </trkpt>
      <trkpt lat="47.20076" lon="4.95805">
        <ele>317.1</ele>
        <time>2021-05-20T10:22:07Z</time>
      </trkpt>
      <trkpt lat="47.2008" lon="4.9581">
        <ele>319</ele>
        <time>2021-05-20T10:22:12Z</time>
      </trkpt>
      <trkpt lat="47.20084" lon="4.95814">
        <ele>317.7</ele>
        <time>2021-05-20T10:22:18Z</time>
      </trkpt>
      <trkpt lat="47.20086" lon="4.95822">
        <ele>315.7</ele>
        <time>2021-05-20T10:22:22Z</time>
      </trkpt>
      <trkpt lat="47.20085" lon="4.9583">
        <ele>315.9</ele>
        <time>2021-05-20T10:22:26Z</time>
      </trkpt>
      <trkpt lat="47.20083" lon="4.95837">
        <ele>314.7</ele>
        <time>2021-05-20T10:22:30Z</time>
      </trkpt>
      <trkpt lat="47.20081" lon="4.95845">
        <ele>315.6</ele>
        <time>2021-05-20T10:22:35Z</time>
      </trkpt>
      <trkpt lat="47.20081" lon="4.95852">
        <ele>315.2</ele>
        <time>2021-05-20T10:22:40Z</time>
      </trkpt>
      <trkpt lat="47.20079" lon="4.9586">
        <ele>315.9</ele>
        <time>2021-05-20T10:22:45Z</time>
      </trkpt>
      <trkpt lat="47.20074" lon="4.95862">
        <ele>316.1</ele>
        <time>2021-05-20T10:22:50Z</time>
      </trkpt>
      <trkpt lat="47.20068" lon="4.95861">
        <ele>315.7</ele>
        <time>2021-05-20T10:22:54Z</time>
      </trkpt>
      <trkpt lat="47.20063" lon="4.95862">
        <ele>316</ele>
        <time>2021-05-20T10:22:59Z</time>
      </trkpt>
      <trkpt lat="47.20059" lon="4.95864">
        <ele>314.8</ele>
        <time>2021-05-20T10:23:04Z</time>
      </trkpt>
      <trkpt lat="47.20054" lon="4.95866">
        <ele>311.1</ele>
        <time>2021-05-20T10:23:10Z</time>
      </trkpt>
      <trkpt lat="47.20048" lon="4.95868">
        <ele>313.2</ele>
        <time>2021-05-20T10:23:16Z</time>
      </trkpt>
      <trkpt lat="47.20044" lon="4.95869">
        <ele>312.5</ele>
        <time>2021-05-20T10:23:22Z</time>
      </trkpt>
      <trkpt lat="47.20039" lon="4.95871">
        <ele>309.6</ele>
        <time>2021-05-20T10:23:27Z</time>
      </trkpt>
      <trkpt lat="47.20034" lon="4.95873">
        <ele>308.9</ele>
        <time>2021-05-20T10:23:35Z</time>
      </trkpt>
      <trkpt lat="47.20029" lon="4.95872">
        <ele>306.3</ele>
        <time>2021-05-20T10:23:39Z</time>
      </trkpt>
      <trkpt lat="47.20023" lon="4.95869">
        <ele>304.7</ele>
        <time>2021-05-20T10:23:45Z</time>
      </trkpt>
      <trkpt lat="47.20019" lon="4.95863">
        <ele>303</ele>
        <time>2021-05-20T10:23:49Z</time>
      </trkpt>
      <trkpt lat="47.20018" lon="4.95856">
        <ele>303.5</ele>
        <time>2021-05-20T10:23:54Z</time>
      </trkpt>
      <trkpt lat="47.20018" lon="4.95848">
        <ele>302.6</ele>
        <time>2021-05-20T10:24:03Z</time>
      </trkpt>
      <trkpt lat="47.20018" lon="4.95841">
        <ele>304.5</ele>
        <time>2021-05-20T10:24:09Z</time>
      </trkpt>
      <trkpt lat="47.20018" lon="4.95835">
        <ele>304</ele>
        <time>2021-05-20T10:24:33Z</time>
      </trkpt>
      <trkpt lat="47.2002" lon="4.95828">
        <ele>304</ele>
        <time>2021-05-20T10:24:45Z</time>
      </trkpt>
      <trkpt lat="47.20022" lon="4.95819">
        <ele>305.2</ele>
        <time>2021-05-20T10:24:51Z</time>
      </trkpt>
      <trkpt lat="47.20024" lon="4.95811">
        <ele>305.5</ele>
        <time>2021-05-20T10:24:57Z</time>
      </trkpt>
      <trkpt lat="47.20028" lon="4.95805">
        <ele>305</ele>
        <time>2021-05-20T10:25:03Z</time>
      </trkpt>
      <trkpt lat="47.2003" lon="4.95799">
        <ele>305.5</ele>
        <time>2021-05-20T10:25:08Z</time>
      </trkpt>
      <trkpt lat="47.20029" lon="4.95791">
        <ele>305.8</ele>
        <time>2021-05-20T10:25:14Z</time>
      </trkpt>
      <trkpt lat="47.2003" lon="4.95784">
        <ele>309.6</ele>
        <time>2021-05-20T10:25:21Z</time>
      </trkpt>
      <trkpt lat="47.20029" lon="4.95776">
        <ele>308.5</ele>
        <time>2021-05-20T10:25:27Z</time>
      </trkpt>
      <trkpt lat="47.20027" lon="4.9577">
        <ele>309.3</ele>
        <time>2021-05-20T10:25:31Z</time>
      </trkpt>
      <trkpt lat="47.20026" lon="4.95762">
        <ele>308.1</ele>
        <time>2021-05-20T10:25:35Z</time>
      </trkpt>
      <trkpt lat="47.20024" lon="4.95754">
        <ele>309</ele>
        <time>2021-05-20T10:25:39Z</time>
      </trkpt>
      <trkpt lat="47.20022" lon="4.95748">
        <ele>307.7</ele>
        <time>2021-05-20T10:25:43Z</time>
      </trkpt>
      <trkpt lat="47.20019" lon="4.95741">
        <ele>310.3</ele>
        <time>2021-05-20T10:25:49Z</time>
      </trkpt>
      <trkpt lat="47.20019" lon="4.95733">
        <ele>308.7</ele>
        <time>2021-05-20T10:25:55Z</time>
      </trkpt>
      <trkpt lat="47.20016" lon="4.95727">
        <ele>307.1</ele>
        <time>2021-05-20T10:25:59Z</time>
      </trkpt>
      <trkpt lat="47.20012" lon="4.95721">
        <ele>309.6</ele>
        <time>2021-05-20T10:26:05Z</time>
      </trkpt>
      <trkpt lat="47.2001" lon="4.95714">
        <ele>310.8</ele>
        <time>2021-05-20T10:26:09Z</time>
      </trkpt>
      <trkpt lat="47.20005" lon="4.95709">
        <ele>301.7</ele>
        <time>2021-05-20T10:26:14Z</time>
      </trkpt>
      <trkpt lat="47.2" lon="4.9571">
        <ele>316.8</ele>
        <time>2021-05-20T10:26:20Z</time>
      </trkpt>
      <trkpt lat="47.19995" lon="4.95712">
        <ele>316.3</ele>
        <time>2021-05-20T10:26:24Z</time>
      </trkpt>
      <trkpt lat="47.1999" lon="4.95714">
        <ele>317.1</ele>
        <time>2021-05-20T10:26:28Z</time>
      </trkpt>
      <trkpt lat="47.19984" lon="4.95718">
        <ele>328</ele>
        <time>2021-05-20T10:26:36Z</time>
      </trkpt>
      <trkpt lat="47.19979" lon="4.9572">
        <ele>372.6</ele>
        <time>2021-05-20T10:26:40Z</time>
      </trkpt>
      <trkpt lat="47.19974" lon="4.95719">
        <ele>325.4</ele>
        <time>2021-05-20T10:26:45Z</time>
      </trkpt>
      <trkpt lat="47.19969" lon="4.9572">
        <ele>303.8</ele>
        <time>2021-05-20T10:26:48Z</time>
      </trkpt>
      <trkpt lat="47.19963" lon="4.95721">
        <ele>310.3</ele>
        <time>2021-05-20T10:26:56Z</time>
      </trkpt>
      <trkpt lat="47.19959" lon="4.95726">
        <ele>319.5</ele>
        <time>2021-05-20T10:27:08Z</time>
      </trkpt>
      <trkpt lat="47.19954" lon="4.95725">
        <ele>321</ele>
        <time>2021-05-20T10:27:14Z</time>
      </trkpt>
      <trkpt lat="47.19949" lon="4.95725">
        <ele>322.5</ele>
        <time>2021-05-20T10:27:21Z</time>
      </trkpt>
      <trkpt lat="47.19943" lon="4.95726">
        <ele>321</ele>
        <time>2021-05-20T10:27:27Z</time>
      </trkpt>
      <trkpt lat="47.19939" lon="4.95728">
        <ele>322.1</ele>
        <time>2021-05-20T10:27:31Z</time>
      </trkpt>
      <trkpt lat="47.19933" lon="4.95729">
        <ele>322.2</ele>
        <time>2021-05-20T10:27:38Z</time>
      </trkpt>
      <trkpt lat="47.19928" lon="4.95729">
        <ele>322.3</ele>
        <time>2021-05-20T10:27:43Z</time>
      </trkpt>
      <trkpt lat="47.19922" lon="4.95728">
        <ele>323.9</ele>
        <time>2021-05-20T10:27:49Z</time>
      </trkpt>
      <trkpt lat="47.19917" lon="4.95728">
        <ele>324.9</ele>
        <time>2021-05-20T10:27:54Z</time>
      </trkpt>
      <trkpt lat="47.19911" lon="4.95726">
        <ele>324.3</ele>
        <time>2021-05-20T10:28:01Z</time>
      </trkpt>
      <trkpt lat="47.19906" lon="4.95726">
        <ele>322.1</ele>
        <time>2021-05-20T10:28:07Z</time>
      </trkpt>
      <trkpt lat="47.19901" lon="4.95726">
        <ele>324.1</ele>
        <time>2021-05-20T10:28:12Z</time>
      </trkpt>
      <trkpt lat="47.19895" lon="4.95722">
        <ele>325.3</ele>
        <time>2021-05-20T10:28:17Z</time>
      </trkpt>
      <trkpt lat="47.1989" lon="4.95722">
        <ele>325.5</ele>
        <time>2021-05-20T10:28:22Z</time>
      </trkpt>
      <trkpt lat="47.19886" lon="4.95723">
        <ele>324.8</ele>
        <time>2021-05-20T10:28:27Z</time>
      </trkpt>
      <trkpt lat="47.19881" lon="4.95724">
        <ele>324.5</ele>
        <time>2021-05-20T10:28:32Z</time>
      </trkpt>
      <trkpt lat="47.19874" lon="4.95723">
        <ele>321.8</ele>
        <time>2021-05-20T10:29:16Z</time>
      </trkpt>
      <trkpt lat="47.19869" lon="4.95723">
        <ele>322.3</ele>
        <time>2021-05-20T10:29:20Z</time>
      </trkpt>
      <trkpt lat="47.19864" lon="4.95721">
        <ele>322.1</ele>
        <time>2021-05-20T10:29:24Z</time>
      </trkpt>
      <trkpt lat="47.19859" lon="4.95722">
        <ele>323.1</ele>
        <time>2021-05-20T10:29:28Z</time>
      </trkpt>
      <trkpt lat="47.19854" lon="4.95726">
        <ele>323.5</ele>
        <time>2021-05-20T10:29:34Z</time>
      </trkpt>
      <trkpt lat="47.19849" lon="4.95725">
        <ele>325.2</ele>
        <time>2021-05-20T10:29:40Z</time>
      </trkpt>
      <trkpt lat="47.19843" lon="4.95727">
        <ele>326.9</ele>
        <time>2021-05-20T10:29:46Z</time>
      </trkpt>
      <trkpt lat="47.19839" lon="4.9573">
        <ele>327</ele>
        <time>2021-05-20T10:29:50Z</time>
      </trkpt>
      <trkpt lat="47.19834" lon="4.95733">
        <ele>328.7</ele>
        <time>2021-05-20T10:29:57Z</time>
      </trkpt>
      <trkpt lat="47.19829" lon="4.95734">
        <ele>328.8</ele>
        <time>2021-05-20T10:30:02Z</time>
      </trkpt>
      <trkpt lat="47.19823" lon="4.95733">
        <ele>329</ele>
        <time>2021-05-20T10:30:08Z</time>
      </trkpt>
      <trkpt lat="47.19819" lon="4.95732">
        <ele>325.9</ele>
        <time>2021-05-20T10:32:07Z</time>
      </trkpt>
      <trkpt lat="47.19815" lon="4.95728">
        <ele>318.9</ele>
        <time>2021-05-20T10:33:09Z</time>
      </trkpt>
      <trkpt lat="47.1981" lon="4.95727">
        <ele>322.8</ele>
        <time>2021-05-20T10:34:37Z</time>
      </trkpt>
      <trkpt lat="47.19807" lon="4.95723">
        <ele>322.2</ele>
        <time>2021-05-20T10:35:43Z</time>
      </trkpt>
      <trkpt lat="47.19804" lon="4.95728">
        <ele>325.9</ele>
        <time>2021-05-20T10:37:53Z</time>
      </trkpt>
      <trkpt lat="47.19798" lon="4.95728">
        <ele>327.5</ele>
        <time>2021-05-20T10:38:54Z</time>
      </trkpt>
      <trkpt lat="47.19793" lon="4.95729">
        <ele>328.1</ele>
        <time>2021-05-20T10:38:58Z</time>
      </trkpt>
      <trkpt lat="47.19788" lon="4.9573">
        <ele>328</ele>
        <time>2021-05-20T10:39:02Z</time>
      </trkpt>
      <trkpt lat="47.19783" lon="4.95735">
        <ele>329.6</ele>
        <time>2021-05-20T10:39:08Z</time>
      </trkpt>
      <trkpt lat="47.19779" lon="4.95734">
        <ele>330.7</ele>
        <time>2021-05-20T10:39:12Z</time>
      </trkpt>
      <trkpt lat="47.19775" lon="4.9573">
        <ele>331.5</ele>
        <time>2021-05-20T10:39:16Z</time>
      </trkpt>
      <trkpt lat="47.19769" lon="4.9573">
        <ele>331.1</ele>
        <time>2021-05-20T10:39:22Z</time>
      </trkpt>
      <trkpt lat="47.19764" lon="4.95728">
        <ele>328.8</ele>
        <time>2021-05-20T10:39:26Z</time>
      </trkpt>
      <trkpt lat="47.19759" lon="4.95725">
        <ele>327.6</ele>
        <time>2021-05-20T10:39:29Z</time>
      </trkpt>
      <trkpt lat="47.19754" lon="4.95725">
        <ele>328.1</ele>
        <time>2021-05-20T10:39:33Z</time>
      </trkpt>
      <trkpt lat="47.19749" lon="4.95725">
        <ele>328.5</ele>
        <time>2021-05-20T10:39:36Z</time>
      </trkpt>
      <trkpt lat="47.19744" lon="4.95725">
        <ele>328.1</ele>
        <time>2021-05-20T10:39:42Z</time>
      </trkpt>
      <trkpt lat="47.19738" lon="4.95725">
        <ele>326.7</ele>
        <time>2021-05-20T10:39:47Z</time>
      </trkpt>
      <trkpt lat="47.19733" lon="4.95724">
        <ele>323.7</ele>
        <time>2021-05-20T10:39:52Z</time>
      </trkpt>
      <trkpt lat="47.19728" lon="4.95723">
        <ele>323.9</ele>
        <time>2021-05-20T10:39:56Z</time>
      </trkpt>
      <trkpt lat="47.19724" lon="4.95722">
        <ele>325.6</ele>
        <time>2021-05-20T10:40:00Z</time>
      </trkpt>
      <trkpt lat="47.19719" lon="4.95721">
        <ele>326.1</ele>
        <time>2021-05-20T10:40:03Z</time>
      </trkpt>
      <trkpt lat="47.19715" lon="4.95724">
        <ele>326.5</ele>
        <time>2021-05-20T10:40:09Z</time>
      </trkpt>
      <trkpt lat="47.19711" lon="4.9572">
        <ele>327.5</ele>
        <time>2021-05-20T10:40:12Z</time>
      </trkpt>
      <trkpt lat="47.19708" lon="4.95714">
        <ele>327.4</ele>
        <time>2021-05-20T10:40:18Z</time>
      </trkpt>
      <trkpt lat="47.19709" lon="4.95706">
        <ele>329.1</ele>
        <time>2021-05-20T10:40:25Z</time>
      </trkpt>
      <trkpt lat="47.19707" lon="4.95698">
        <ele>341</ele>
        <time>2021-05-20T10:40:35Z</time>
      </trkpt>
      <trkpt lat="47.1971" lon="4.95691">
        <ele>333.5</ele>
        <time>2021-05-20T10:40:41Z</time>
      </trkpt>
      <trkpt lat="47.19711" lon="4.95684">
        <ele>318.5</ele>
        <time>2021-05-20T10:40:48Z</time>
      </trkpt>
      <trkpt lat="47.19708" lon="4.9568">
        <ele>335.4</ele>
        <time>2021-05-20T10:41:12Z</time>
      </trkpt>
      <trkpt lat="47.19703" lon="4.95678">
        <ele>334.7</ele>
        <time>2021-05-20T10:43:07Z</time>
      </trkpt>
      <trkpt lat="47.19708" lon="4.95675">
        <ele>332.5</ele>
        <time>2021-05-20T10:46:00Z</time>
      </trkpt>
      <trkpt lat="47.19709" lon="4.95668">
        <ele>335.5</ele>
        <time>2021-05-20T10:46:04Z</time>
      </trkpt>
      <trkpt lat="47.19707" lon="4.95662">
        <ele>339.3</ele>
        <time>2021-05-20T10:46:11Z</time>
      </trkpt>
      <trkpt lat="47.19707" lon="4.95654">
        <ele>339</ele>
        <time>2021-05-20T10:46:25Z</time>
      </trkpt>
      <trkpt lat="47.19708" lon="4.95647">
        <ele>334.4</ele>
        <time>2021-05-20T10:46:31Z</time>
      </trkpt>
      <trkpt lat="47.1971" lon="4.9564">
        <ele>339</ele>
        <time>2021-05-20T10:46:37Z</time>
      </trkpt>
      <trkpt lat="47.19712" lon="4.95632">
        <ele>342</ele>
        <time>2021-05-20T10:46:45Z</time>
      </trkpt>
      <trkpt lat="47.19714" lon="4.95625">
        <ele>334.4</ele>
        <time>2021-05-20T10:46:51Z</time>
      </trkpt>
      <trkpt lat="47.19711" lon="4.95616">
        <ele>336.3</ele>
        <time>2021-05-20T10:46:58Z</time>
      </trkpt>
      <trkpt lat="47.1971" lon="4.95609">
        <ele>348.8</ele>
        <time>2021-05-20T10:47:06Z</time>
      </trkpt>
      <trkpt lat="47.19709" lon="4.95602">
        <ele>341.5</ele>
        <time>2021-05-20T10:47:17Z</time>
      </trkpt>
      <trkpt lat="47.19711" lon="4.95593">
        <ele>351.7</ele>
        <time>2021-05-20T10:47:24Z</time>
      </trkpt>
      <trkpt lat="47.19709" lon="4.95587">
        <ele>353.1</ele>
        <time>2021-05-20T10:47:34Z</time>
      </trkpt>
      <trkpt lat="47.19707" lon="4.95581">
        <ele>356.9</ele>
        <time>2021-05-20T10:47:44Z</time>
      </trkpt>
      <trkpt lat="47.19702" lon="4.95576">
        <ele>355</ele>
        <time>2021-05-20T10:47:54Z</time>
      </trkpt>
      <trkpt lat="47.19698" lon="4.9557">
        <ele>356.2</ele>
        <time>2021-05-20T10:48:01Z</time>
      </trkpt>
      <trkpt lat="47.19694" lon="4.95565">
        <ele>352.7</ele>
        <time>2021-05-20T10:48:09Z</time>
      </trkpt>
      <trkpt lat="47.19688" lon="4.95565">
        <ele>348.6</ele>
        <time>2021-05-20T10:48:17Z</time>
      </trkpt>
      <trkpt lat="47.19684" lon="4.9556">
        <ele>352.6</ele>
        <time>2021-05-20T10:48:23Z</time>
      </trkpt>
      <trkpt lat="47.19678" lon="4.95557">
        <ele>359.1</ele>
        <time>2021-05-20T10:48:34Z</time>
      </trkpt>
      <trkpt lat="47.19672" lon="4.95557">
        <ele>355.3</ele>
        <time>2021-05-20T10:48:38Z</time>
      </trkpt>
      <trkpt lat="47.19668" lon="4.95555">
        <ele>359.8</ele>
        <time>2021-05-20T10:48:42Z</time>
      </trkpt>
      <trkpt lat="47.19663" lon="4.95551">
        <ele>359.2</ele>
        <time>2021-05-20T10:48:45Z</time>
      </trkpt>
      <trkpt lat="47.19658" lon="4.95547">
        <ele>351</ele>
        <time>2021-05-20T10:48:51Z</time>
      </trkpt>
      <trkpt lat="47.19653" lon="4.95543">
        <ele>360</ele>
        <time>2021-05-20T10:48:56Z</time>
      </trkpt>
      <trkpt lat="47.19648" lon="4.95541">
        <ele>360</ele>
        <time>2021-05-20T10:49:00Z</time>
      </trkpt>
      <trkpt lat="47.19644" lon="4.95538">
        <ele>364.1</ele>
        <time>2021-05-20T10:49:04Z</time>
      </trkpt>
      <trkpt lat="47.1964" lon="4.95532">
        <ele>363.8</ele>
        <time>2021-05-20T10:49:10Z</time>
      </trkpt>
      <trkpt lat="47.19635" lon="4.95529">
        <ele>359.1</ele>
        <time>2021-05-20T10:49:14Z</time>
      </trkpt>
      <trkpt lat="47.19629" lon="4.95528">
        <ele>367.1</ele>
        <time>2021-05-20T10:49:30Z</time>
      </trkpt>
      <trkpt lat="47.19623" lon="4.95527">
        <ele>368.5</ele>
        <time>2021-05-20T10:49:34Z</time>
      </trkpt>
      <trkpt lat="47.19618" lon="4.95525">
        <ele>368.2</ele>
        <time>2021-05-20T10:49:38Z</time>
      </trkpt>
      <trkpt lat="47.19613" lon="4.95521">
        <ele>366.6</ele>
        <time>2021-05-20T10:49:42Z</time>
      </trkpt>
      <trkpt lat="47.19609" lon="4.95515">
        <ele>362.2</ele>
        <time>2021-05-20T10:49:46Z</time>
      </trkpt>
      <trkpt lat="47.19608" lon="4.95508">
        <ele>360.8</ele>
        <time>2021-05-20T10:49:51Z</time>
      </trkpt>
      <trkpt lat="47.19604" lon="4.95503">
        <ele>360.1</ele>
        <time>2021-05-20T10:49:55Z</time>
      </trkpt>
      <trkpt lat="47.19598" lon="4.95501">
        <ele>357.5</ele>
        <time>2021-05-20T10:49:59Z</time>
      </trkpt>
      <trkpt lat="47.19592" lon="4.95501">
        <ele>356.8</ele>
        <time>2021-05-20T10:50:03Z</time>
      </trkpt>
      <trkpt lat="47.19587" lon="4.95498">
        <ele>362.5</ele>
        <time>2021-05-20T10:50:07Z</time>
      </trkpt>
      <trkpt lat="47.19582" lon="4.955">
        <ele>363.9</ele>
        <time>2021-05-20T10:50:12Z</time>
      </trkpt>
      <trkpt lat="47.19577" lon="4.95499">
        <ele>364.2</ele>
        <time>2021-05-20T10:50:15Z</time>
      </trkpt>
      <trkpt lat="47.19572" lon="4.95498">
        <ele>366</ele>
        <time>2021-05-20T10:50:21Z</time>
      </trkpt>
      <trkpt lat="47.19567" lon="4.95496">
        <ele>356.7</ele>
        <time>2021-05-20T10:50:25Z</time>
      </trkpt>
      <trkpt lat="47.19564" lon="4.95491">
        <ele>364.5</ele>
        <time>2021-05-20T10:50:33Z</time>
      </trkpt>
      <trkpt lat="47.19561" lon="4.95483">
        <ele>365.3</ele>
        <time>2021-05-20T10:50:37Z</time>
      </trkpt>
      <trkpt lat="47.19559" lon="4.95473">
        <ele>364.9</ele>
        <time>2021-05-20T10:50:41Z</time>
      </trkpt>
      <trkpt lat="47.19556" lon="4.95467">
        <ele>362.9</ele>
        <time>2021-05-20T10:50:46Z</time>
      </trkpt>
      <trkpt lat="47.19552" lon="4.95463">
        <ele>360.9</ele>
        <time>2021-05-20T10:50:51Z</time>
      </trkpt>
      <trkpt lat="47.19549" lon="4.95457">
        <ele>364.4</ele>
        <time>2021-05-20T10:50:56Z</time>
      </trkpt>
      <trkpt lat="47.19545" lon="4.95452">
        <ele>364.6</ele>
        <time>2021-05-20T10:51:01Z</time>
      </trkpt>
      <trkpt lat="47.19541" lon="4.95447">
        <ele>366.1</ele>
        <time>2021-05-20T10:51:05Z</time>
      </trkpt>
      <trkpt lat="47.19536" lon="4.95444">
        <ele>350</ele>
        <time>2021-05-20T10:51:09Z</time>
      </trkpt>
      <trkpt lat="47.19531" lon="4.95442">
        <ele>361.8</ele>
        <time>2021-05-20T10:51:13Z</time>
      </trkpt>
      <trkpt lat="47.19526" lon="4.95438">
        <ele>364.5</ele>
        <time>2021-05-20T10:51:16Z</time>
      </trkpt>
      <trkpt lat="47.19525" lon="4.95432">
        <ele>365.2</ele>
        <time>2021-05-20T10:51:20Z</time>
      </trkpt>
      <trkpt lat="47.19519" lon="4.95429">
        <ele>365</ele>
        <time>2021-05-20T10:51:24Z</time>
      </trkpt>
      <trkpt lat="47.19514" lon="4.95428">
        <ele>365</ele>
        <time>2021-05-20T10:51:29Z</time>
      </trkpt>
      <trkpt lat="47.19509" lon="4.95424">
        <ele>367.9</ele>
        <time>2021-05-20T10:51:35Z</time>
      </trkpt>
      <trkpt lat="47.19504" lon="4.9542">
        <ele>366.8</ele>
        <time>2021-05-20T10:51:39Z</time>
      </trkpt>
      <trkpt lat="47.19499" lon="4.95417">
        <ele>368.2</ele>
        <time>2021-05-20T10:51:44Z</time>
      </trkpt>
      <trkpt lat="47.19494" lon="4.95415">
        <ele>369</ele>
        <time>2021-05-20T10:51:49Z</time>
      </trkpt>
      <trkpt lat="47.1949" lon="4.95411">
        <ele>366.9</ele>
        <time>2021-05-20T10:51:54Z</time>
      </trkpt>
      <trkpt lat="47.19487" lon="4.95407">
        <ele>367</ele>
        <time>2021-05-20T10:51:59Z</time>
      </trkpt>
      <trkpt lat="47.19482" lon="4.95402">
        <ele>364.7</ele>
        <time>2021-05-20T10:52:04Z</time>
      </trkpt>
      <trkpt lat="47.19477" lon="4.95398">
        <ele>366</ele>
        <time>2021-05-20T10:52:08Z</time>
      </trkpt>
      <trkpt lat="47.19473" lon="4.95396">
        <ele>365.9</ele>
        <time>2021-05-20T10:52:14Z</time>
      </trkpt>
      <trkpt lat="47.19468" lon="4.95395">
        <ele>365.9</ele>
        <time>2021-05-20T10:52:18Z</time>
      </trkpt>
      <trkpt lat="47.19463" lon="4.95392">
        <ele>365.2</ele>
        <time>2021-05-20T10:52:22Z</time>
      </trkpt>
      <trkpt lat="47.19459" lon="4.95389">
        <ele>363.7</ele>
        <time>2021-05-20T10:52:25Z</time>
      </trkpt>
      <trkpt lat="47.19454" lon="4.95386">
        <ele>363.5</ele>
        <time>2021-05-20T10:52:29Z</time>
      </trkpt>
      <trkpt lat="47.1945" lon="4.95383">
        <ele>363.6</ele>
        <time>2021-05-20T10:52:33Z</time>
      </trkpt>
      <trkpt lat="47.19446" lon="4.95379">
        <ele>365.8</ele>
        <time>2021-05-20T10:52:37Z</time>
      </trkpt>
      <trkpt lat="47.19441" lon="4.95375">
        <ele>365.3</ele>
        <time>2021-05-20T10:52:42Z</time>
      </trkpt>
      <trkpt lat="47.19436" lon="4.95369">
        <ele>363.7</ele>
        <time>2021-05-20T10:52:49Z</time>
      </trkpt>
      <trkpt lat="47.19433" lon="4.95363">
        <ele>363.7</ele>
        <time>2021-05-20T10:52:53Z</time>
      </trkpt>
      <trkpt lat="47.1943" lon="4.95358">
        <ele>362.7</ele>
        <time>2021-05-20T10:52:59Z</time>
      </trkpt>
      <trkpt lat="47.19426" lon="4.9535">
        <ele>362.4</ele>
        <time>2021-05-20T10:53:04Z</time>
      </trkpt>
      <trkpt lat="47.19422" lon="4.95348">
        <ele>362.9</ele>
        <time>2021-05-20T10:53:08Z</time>
      </trkpt>
      <trkpt lat="47.19419" lon="4.95342">
        <ele>363.9</ele>
        <time>2021-05-20T10:53:11Z</time>
      </trkpt>
      <trkpt lat="47.19417" lon="4.95336">
        <ele>365.1</ele>
        <time>2021-05-20T10:53:16Z</time>
      </trkpt>
      <trkpt lat="47.19413" lon="4.95332">
        <ele>364.5</ele>
        <time>2021-05-20T10:53:20Z</time>
      </trkpt>
      <trkpt lat="47.1941" lon="4.95328">
        <ele>364.1</ele>
        <time>2021-05-20T10:53:24Z</time>
      </trkpt>
      <trkpt lat="47.19406" lon="4.95322">
        <ele>365.1</ele>
        <time>2021-05-20T10:53:29Z</time>
      </trkpt>
      <trkpt lat="47.19404" lon="4.95316">
        <ele>366.7</ele>
        <time>2021-05-20T10:53:35Z</time>
      </trkpt>
      <trkpt lat="47.194" lon="4.95311">
        <ele>367.7</ele>
        <time>2021-05-20T10:53:40Z</time>
      </trkpt>
      <trkpt lat="47.19396" lon="4.95306">
        <ele>367.2</ele>
        <time>2021-05-20T10:53:44Z</time>
      </trkpt>
      <trkpt lat="47.19392" lon="4.95301">
        <ele>366.4</ele>
        <time>2021-05-20T10:53:50Z</time>
      </trkpt>
      <trkpt lat="47.19388" lon="4.95295">
        <ele>366.6</ele>
        <time>2021-05-20T10:53:55Z</time>
      </trkpt>
      <trkpt lat="47.19384" lon="4.9529">
        <ele>369.9</ele>
        <time>2021-05-20T10:54:01Z</time>
      </trkpt>
      <trkpt lat="47.1938" lon="4.95284">
        <ele>371.5</ele>
        <time>2021-05-20T10:54:06Z</time>
      </trkpt>
      <trkpt lat="47.19377" lon="4.95277">
        <ele>369.3</ele>
        <time>2021-05-20T10:54:13Z</time>
      </trkpt>
      <trkpt lat="47.19373" lon="4.95273">
        <ele>367.6</ele>
        <time>2021-05-20T10:54:17Z</time>
      </trkpt>
      <trkpt lat="47.19369" lon="4.95268">
        <ele>368.2</ele>
        <time>2021-05-20T10:54:21Z</time>
      </trkpt>
      <trkpt lat="47.19365" lon="4.95261">
        <ele>369.1</ele>
        <time>2021-05-20T10:54:26Z</time>
      </trkpt>
      <trkpt lat="47.19362" lon="4.95256">
        <ele>368.9</ele>
        <time>2021-05-20T10:54:31Z</time>
      </trkpt>
      <trkpt lat="47.19358" lon="4.95251">
        <ele>369.9</ele>
        <time>2021-05-20T10:54:36Z</time>
      </trkpt>
      <trkpt lat="47.19354" lon="4.95245">
        <ele>368.6</ele>
        <time>2021-05-20T10:54:42Z</time>
      </trkpt>
      <trkpt lat="47.1935" lon="4.95241">
        <ele>366.5</ele>
        <time>2021-05-20T10:54:47Z</time>
      </trkpt>
      <trkpt lat="47.19345" lon="4.95237">
        <ele>367.1</ele>
        <time>2021-05-20T10:54:51Z</time>
      </trkpt>
      <trkpt lat="47.19342" lon="4.95231">
        <ele>367</ele>
        <time>2021-05-20T10:54:56Z</time>
      </trkpt>
      <trkpt lat="47.19339" lon="4.95224">
        <ele>367.3</ele>
        <time>2021-05-20T10:55:01Z</time>
      </trkpt>
      <trkpt lat="47.19335" lon="4.95218">
        <ele>367.9</ele>
        <time>2021-05-20T10:55:06Z</time>
      </trkpt>
      <trkpt lat="47.1933" lon="4.95214">
        <ele>369.6</ele>
        <time>2021-05-20T10:55:11Z</time>
      </trkpt>
      <trkpt lat="47.19326" lon="4.95211">
        <ele>369</ele>
        <time>2021-05-20T10:55:16Z</time>
      </trkpt>
      <trkpt lat="47.19323" lon="4.95206">
        <ele>371.1</ele>
        <time>2021-05-20T10:55:20Z</time>
      </trkpt>
      <trkpt lat="47.19319" lon="4.95201">
        <ele>371.7</ele>
        <time>2021-05-20T10:55:25Z</time>
      </trkpt>
      <trkpt lat="47.19316" lon="4.95195">
        <ele>373.7</ele>
        <time>2021-05-20T10:55:29Z</time>
      </trkpt>
      <trkpt lat="47.19313" lon="4.95188">
        <ele>373.4</ele>
        <time>2021-05-20T10:55:34Z</time>
      </trkpt>
      <trkpt lat="47.19309" lon="4.95184">
        <ele>373.7</ele>
        <time>2021-05-20T10:55:38Z</time>
      </trkpt>
      <trkpt lat="47.19304" lon="4.95183">
        <ele>374.2</ele>
        <time>2021-05-20T10:55:43Z</time>
      </trkpt>
      <trkpt lat="47.19298" lon="4.9518">
        <ele>373.4</ele>
        <time>2021-05-20T10:55:48Z</time>
      </trkpt>
      <trkpt lat="47.19293" lon="4.95179">
        <ele>373.8</ele>
        <time>2021-05-20T10:55:52Z</time>
      </trkpt>
      <trkpt lat="47.19287" lon="4.95178">
        <ele>375.8</ele>
        <time>2021-05-20T10:55:57Z</time>
      </trkpt>
      <trkpt lat="47.19282" lon="4.95176">
        <ele>374.6</ele>
        <time>2021-05-20T10:56:01Z</time>
      </trkpt>
      <trkpt lat="47.19277" lon="4.95174">
        <ele>370.6</ele>
        <time>2021-05-20T10:56:06Z</time>
      </trkpt>
      <trkpt lat="47.19272" lon="4.95172">
        <ele>370.6</ele>
        <time>2021-05-20T10:56:10Z</time>
      </trkpt>
      <trkpt lat="47.19267" lon="4.9517">
        <ele>371.8</ele>
        <time>2021-05-20T10:56:17Z</time>
      </trkpt>
      <trkpt lat="47.19262" lon="4.95167">
        <ele>370.4</ele>
        <time>2021-05-20T10:56:23Z</time>
      </trkpt>
      <trkpt lat="47.19257" lon="4.95163">
        <ele>371.6</ele>
        <time>2021-05-20T10:56:27Z</time>
      </trkpt>
      <trkpt lat="47.19252" lon="4.95159">
        <ele>370.8</ele>
        <time>2021-05-20T10:56:32Z</time>
      </trkpt>
      <trkpt lat="47.19248" lon="4.95155">
        <ele>371.2</ele>
        <time>2021-05-20T10:56:36Z</time>
      </trkpt>
      <trkpt lat="47.19243" lon="4.95151">
        <ele>370.9</ele>
        <time>2021-05-20T10:56:40Z</time>
      </trkpt>
      <trkpt lat="47.19238" lon="4.95147">
        <ele>371.5</ele>
        <time>2021-05-20T10:56:45Z</time>
      </trkpt>
      <trkpt lat="47.19233" lon="4.95144">
        <ele>372.3</ele>
        <time>2021-05-20T10:56:50Z</time>
      </trkpt>
      <trkpt lat="47.19228" lon="4.9514">
        <ele>371.7</ele>
        <time>2021-05-20T10:56:55Z</time>
      </trkpt>
      <trkpt lat="47.19224" lon="4.95137">
        <ele>369.7</ele>
        <time>2021-05-20T10:56:59Z</time>
      </trkpt>
      <trkpt lat="47.1922" lon="4.95134">
        <ele>368.6</ele>
        <time>2021-05-20T10:57:03Z</time>
      </trkpt>
      <trkpt lat="47.19216" lon="4.95129">
        <ele>369.2</ele>
        <time>2021-05-20T10:57:08Z</time>
      </trkpt>
      <trkpt lat="47.19212" lon="4.95126">
        <ele>365.8</ele>
        <time>2021-05-20T10:57:12Z</time>
      </trkpt>
      <trkpt lat="47.19207" lon="4.95124">
        <ele>367.4</ele>
        <time>2021-05-20T10:57:16Z</time>
      </trkpt>
      <trkpt lat="47.19203" lon="4.95121">
        <ele>367.1</ele>
        <time>2021-05-20T10:57:20Z</time>
      </trkpt>
      <trkpt lat="47.19199" lon="4.95118">
        <ele>368.1</ele>
        <time>2021-05-20T10:57:25Z</time>
      </trkpt>
      <trkpt lat="47.19194" lon="4.95115">
        <ele>368.6</ele>
        <time>2021-05-20T10:57:29Z</time>
      </trkpt>
      <trkpt lat="47.1919" lon="4.95111">
        <ele>368.5</ele>
        <time>2021-05-20T10:57:34Z</time>
      </trkpt>
      <trkpt lat="47.19185" lon="4.95107">
        <ele>363.4</ele>
        <time>2021-05-20T10:57:38Z</time>
      </trkpt>
      <trkpt lat="47.1918" lon="4.95103">
        <ele>367.4</ele>
        <time>2021-05-20T10:57:43Z</time>
      </trkpt>
      <trkpt lat="47.19175" lon="4.95101">
        <ele>368.4</ele>
        <time>2021-05-20T10:57:47Z</time>
      </trkpt>
      <trkpt lat="47.1917" lon="4.95098">
        <ele>347.1</ele>
        <time>2021-05-20T10:57:51Z</time>
      </trkpt>
      <trkpt lat="47.19165" lon="4.95094">
        <ele>362.5</ele>
        <time>2021-05-20T10:57:56Z</time>
      </trkpt>
      <trkpt lat="47.19161" lon="4.95092">
        <ele>364.5</ele>
        <time>2021-05-20T10:58:00Z</time>
      </trkpt>
      <trkpt lat="47.19155" lon="4.95091">
        <ele>364.9</ele>
        <time>2021-05-20T10:58:04Z</time>
      </trkpt>
      <trkpt lat="47.19151" lon="4.95088">
        <ele>364.4</ele>
        <time>2021-05-20T10:58:09Z</time>
      </trkpt>
      <trkpt lat="47.19147" lon="4.95086">
        <ele>364.6</ele>
        <time>2021-05-20T10:58:14Z</time>
      </trkpt>
      <trkpt lat="47.19141" lon="4.95084">
        <ele>365.6</ele>
        <time>2021-05-20T10:58:20Z</time>
      </trkpt>
      <trkpt lat="47.19137" lon="4.95079">
        <ele>368.4</ele>
        <time>2021-05-20T10:58:50Z</time>
      </trkpt>
      <trkpt lat="47.1913" lon="4.9508">
        <ele>368.8</ele>
        <time>2021-05-20T10:58:55Z</time>
      </trkpt>
      <trkpt lat="47.19125" lon="4.9508">
        <ele>364.4</ele>
        <time>2021-05-20T10:58:59Z</time>
      </trkpt>
      <trkpt lat="47.19121" lon="4.95081">
        <ele>364.3</ele>
        <time>2021-05-20T10:59:03Z</time>
      </trkpt>
      <trkpt lat="47.19116" lon="4.95082">
        <ele>367.5</ele>
        <time>2021-05-20T10:59:07Z</time>
      </trkpt>
      <trkpt lat="47.19111" lon="4.95086">
        <ele>367.8</ele>
        <time>2021-05-20T10:59:11Z</time>
      </trkpt>
      <trkpt lat="47.19107" lon="4.95089">
        <ele>368.4</ele>
        <time>2021-05-20T10:59:16Z</time>
      </trkpt>
      <trkpt lat="47.19103" lon="4.95093">
        <ele>368.6</ele>
        <time>2021-05-20T10:59:22Z</time>
      </trkpt>
      <trkpt lat="47.19099" lon="4.95096">
        <ele>371.2</ele>
        <time>2021-05-20T10:59:26Z</time>
      </trkpt>
      <trkpt lat="47.19094" lon="4.95099">
        <ele>368.8</ele>
        <time>2021-05-20T10:59:31Z</time>
      </trkpt>
      <trkpt lat="47.1909" lon="4.95095">
        <ele>362.6</ele>
        <time>2021-05-20T10:59:42Z</time>
      </trkpt>
      <trkpt lat="47.19085" lon="4.95092">
        <ele>363.5</ele>
        <time>2021-05-20T10:59:45Z</time>
      </trkpt>
      <trkpt lat="47.19081" lon="4.95089">
        <ele>365.4</ele>
        <time>2021-05-20T10:59:50Z</time>
      </trkpt>
      <trkpt lat="47.19076" lon="4.95086">
        <ele>364.1</ele>
        <time>2021-05-20T10:59:54Z</time>
      </trkpt>
      <trkpt lat="47.19071" lon="4.95086">
        <ele>365.4</ele>
        <time>2021-05-20T10:59:59Z</time>
      </trkpt>
      <trkpt lat="47.19065" lon="4.95086">
        <ele>365.4</ele>
        <time>2021-05-20T11:00:05Z</time>
      </trkpt>
      <trkpt lat="47.19059" lon="4.95084">
        <ele>364.1</ele>
        <time>2021-05-20T11:00:10Z</time>
      </trkpt>
      <trkpt lat="47.19053" lon="4.9508">
        <ele>363</ele>
        <time>2021-05-20T11:01:42Z</time>
      </trkpt>
      <trkpt lat="47.19048" lon="4.95079">
        <ele>363.2</ele>
        <time>2021-05-20T11:01:47Z</time>
      </trkpt>
      <trkpt lat="47.19043" lon="4.95077">
        <ele>363</ele>
        <time>2021-05-20T11:01:51Z</time>
      </trkpt>
      <trkpt lat="47.19038" lon="4.95073">
        <ele>362.8</ele>
        <time>2021-05-20T11:01:55Z</time>
      </trkpt>
      <trkpt lat="47.19034" lon="4.95069">
        <ele>363.2</ele>
        <time>2021-05-20T11:02:01Z</time>
      </trkpt>
      <trkpt lat="47.19029" lon="4.95066">
        <ele>366.2</ele>
        <time>2021-05-20T11:04:53Z</time>
      </trkpt>
      <trkpt lat="47.19024" lon="4.95063">
        <ele>366</ele>
        <time>2021-05-20T11:04:58Z</time>
      </trkpt>
      <trkpt lat="47.19019" lon="4.95061">
        <ele>366.9</ele>
        <time>2021-05-20T11:05:02Z</time>
      </trkpt>
      <trkpt lat="47.19014" lon="4.95059">
        <ele>368</ele>
        <time>2021-05-20T11:05:05Z</time>
      </trkpt>
      <trkpt lat="47.1901" lon="4.95056">
        <ele>369</ele>
        <time>2021-05-20T11:05:09Z</time>
      </trkpt>
      <trkpt lat="47.19006" lon="4.95052">
        <ele>368.8</ele>
        <time>2021-05-20T11:05:14Z</time>
      </trkpt>
      <trkpt lat="47.19002" lon="4.95046">
        <ele>308.5</ele>
        <time>2021-05-20T11:05:18Z</time>
      </trkpt>
      <trkpt lat="47.18997" lon="4.9504">
        <ele>354.3</ele>
        <time>2021-05-20T11:05:24Z</time>
      </trkpt>
      <trkpt lat="47.18993" lon="4.95038">
        <ele>355.3</ele>
        <time>2021-05-20T11:05:28Z</time>
      </trkpt>
      <trkpt lat="47.18986" lon="4.95036">
        <ele>361.9</ele>
        <time>2021-05-20T11:05:33Z</time>
      </trkpt>
      <trkpt lat="47.1898" lon="4.95035">
        <ele>362.9</ele>
        <time>2021-05-20T11:05:38Z</time>
      </trkpt>
      <trkpt lat="47.18976" lon="4.95032">
        <ele>365.3</ele>
        <time>2021-05-20T11:05:42Z</time>
      </trkpt>
      <trkpt lat="47.18972" lon="4.95026">
        <ele>364.3</ele>
        <time>2021-05-20T11:05:47Z</time>
      </trkpt>
      <trkpt lat="47.1897" lon="4.95021">
        <ele>365</ele>
        <time>2021-05-20T11:05:51Z</time>
      </trkpt>
      <trkpt lat="47.18967" lon="4.95014">
        <ele>355.2</ele>
        <time>2021-05-20T11:05:56Z</time>
      </trkpt>
      <trkpt lat="47.18963" lon="4.9501">
        <ele>358.6</ele>
        <time>2021-05-20T11:06:02Z</time>
      </trkpt>
      <trkpt lat="47.18958" lon="4.95009">
        <ele>361.8</ele>
        <time>2021-05-20T11:06:07Z</time>
      </trkpt>
      <trkpt lat="47.18954" lon="4.95004">
        <ele>365.3</ele>
        <time>2021-05-20T11:06:12Z</time>
      </trkpt>
      <trkpt lat="47.18949" lon="4.95">
        <ele>364</ele>
        <time>2021-05-20T11:06:15Z</time>
      </trkpt>
      <trkpt lat="47.18945" lon="4.94997">
        <ele>367.1</ele>
        <time>2021-05-20T11:06:20Z</time>
      </trkpt>
      <trkpt lat="47.1894" lon="4.94996">
        <ele>368.9</ele>
        <time>2021-05-20T11:06:25Z</time>
      </trkpt>
      <trkpt lat="47.18933" lon="4.94993">
        <ele>367.7</ele>
        <time>2021-05-20T11:06:31Z</time>
      </trkpt>
      <trkpt lat="47.1893" lon="4.94988">
        <ele>367.6</ele>
        <time>2021-05-20T11:06:36Z</time>
      </trkpt>
      <trkpt lat="47.18925" lon="4.94984">
        <ele>367</ele>
        <time>2021-05-20T11:06:41Z</time>
      </trkpt>
      <trkpt lat="47.18919" lon="4.94983">
        <ele>366.9</ele>
        <time>2021-05-20T11:06:48Z</time>
      </trkpt>
      <trkpt lat="47.18914" lon="4.94982">
        <ele>368.1</ele>
        <time>2021-05-20T11:06:52Z</time>
      </trkpt>
      <trkpt lat="47.18906" lon="4.94977">
        <ele>368.7</ele>
        <time>2021-05-20T11:06:58Z</time>
      </trkpt>
      <trkpt lat="47.18903" lon="4.94973">
        <ele>369</ele>
        <time>2021-05-20T11:07:02Z</time>
      </trkpt>
      <trkpt lat="47.18897" lon="4.9497">
        <ele>364.3</ele>
        <time>2021-05-20T11:07:06Z</time>
      </trkpt>
      <trkpt lat="47.18891" lon="4.94968">
        <ele>362.5</ele>
        <time>2021-05-20T11:07:10Z</time>
      </trkpt>
      <trkpt lat="47.18886" lon="4.94967">
        <ele>360.5</ele>
        <time>2021-05-20T11:07:14Z</time>
      </trkpt>
      <trkpt lat="47.18881" lon="4.94963">
        <ele>360.2</ele>
        <time>2021-05-20T11:07:20Z</time>
      </trkpt>
      <trkpt lat="47.18877" lon="4.9496">
        <ele>359.7</ele>
        <time>2021-05-20T11:07:25Z</time>
      </trkpt>
      <trkpt lat="47.18873" lon="4.94958">
        <ele>366.2</ele>
        <time>2021-05-20T11:07:33Z</time>
      </trkpt>
      <trkpt lat="47.18874" lon="4.94951">
        <ele>361.5</ele>
        <time>2021-05-20T11:07:59Z</time>
      </trkpt>
      <trkpt lat="47.18872" lon="4.94944">
        <ele>359.3</ele>
        <time>2021-05-20T11:08:03Z</time>
      </trkpt>
      <trkpt lat="47.18867" lon="4.94942">
        <ele>359.9</ele>
        <time>2021-05-20T11:08:07Z</time>
      </trkpt>
      <trkpt lat="47.18863" lon="4.94938">
        <ele>361.4</ele>
        <time>2021-05-20T11:08:12Z</time>
      </trkpt>
      <trkpt lat="47.18859" lon="4.94933">
        <ele>360.4</ele>
        <time>2021-05-20T11:08:16Z</time>
      </trkpt>
      <trkpt lat="47.18854" lon="4.94932">
        <ele>363.6</ele>
        <time>2021-05-20T11:08:22Z</time>
      </trkpt>
      <trkpt lat="47.18851" lon="4.94927">
        <ele>366.4</ele>
        <time>2021-05-20T11:08:30Z</time>
      </trkpt>
      <trkpt lat="47.18846" lon="4.94922">
        <ele>366.8</ele>
        <time>2021-05-20T11:08:39Z</time>
      </trkpt>
      <trkpt lat="47.18843" lon="4.94915">
        <ele>366.7</ele>
        <time>2021-05-20T11:08:45Z</time>
      </trkpt>
      <trkpt lat="47.18839" lon="4.94911">
        <ele>366.6</ele>
        <time>2021-05-20T11:08:49Z</time>
      </trkpt>
      <trkpt lat="47.18834" lon="4.94913">
        <ele>357.1</ele>
        <time>2021-05-20T11:08:57Z</time>
      </trkpt>
      <trkpt lat="47.18835" lon="4.94921">
        <ele>363.6</ele>
        <time>2021-05-20T11:09:01Z</time>
      </trkpt>
      <trkpt lat="47.1883" lon="4.94923">
        <ele>364.4</ele>
        <time>2021-05-20T11:09:05Z</time>
      </trkpt>
      <trkpt lat="47.18824" lon="4.94923">
        <ele>365.3</ele>
        <time>2021-05-20T11:09:12Z</time>
      </trkpt>
      <trkpt lat="47.1882" lon="4.94926">
        <ele>366.3</ele>
        <time>2021-05-20T11:09:17Z</time>
      </trkpt>
      <trkpt lat="47.18815" lon="4.94927">
        <ele>366.6</ele>
        <time>2021-05-20T11:09:22Z</time>
      </trkpt>
      <trkpt lat="47.1881" lon="4.94929">
        <ele>363.1</ele>
        <time>2021-05-20T11:09:53Z</time>
      </trkpt>
      <trkpt lat="47.18805" lon="4.94932">
        <ele>366.5</ele>
        <time>2021-05-20T11:09:57Z</time>
      </trkpt>
      <trkpt lat="47.18806" lon="4.94939">
        <ele>356.4</ele>
        <time>2021-05-20T11:12:45Z</time>
      </trkpt>
      <trkpt lat="47.18803" lon="4.94946">
        <ele>362.9</ele>
        <time>2021-05-20T11:12:53Z</time>
      </trkpt>
      <trkpt lat="47.18799" lon="4.94952">
        <ele>362.4</ele>
        <time>2021-05-20T11:12:57Z</time>
      </trkpt>
      <trkpt lat="47.18796" lon="4.94959">
        <ele>362.1</ele>
        <time>2021-05-20T11:13:01Z</time>
      </trkpt>
      <trkpt lat="47.18793" lon="4.94964">
        <ele>380.4</ele>
        <time>2021-05-20T11:13:04Z</time>
      </trkpt>
      <trkpt lat="47.18787" lon="4.94965">
        <ele>333.8</ele>
        <time>2021-05-20T11:13:11Z</time>
      </trkpt>
      <trkpt lat="47.18782" lon="4.94968">
        <ele>351.6</ele>
        <time>2021-05-20T11:13:17Z</time>
      </trkpt>
      <trkpt lat="47.18777" lon="4.94972">
        <ele>353.2</ele>
        <time>2021-05-20T11:13:22Z</time>
      </trkpt>
      <trkpt lat="47.18773" lon="4.94975">
        <ele>352.9</ele>
        <time>2021-05-20T11:13:28Z</time>
      </trkpt>
      <trkpt lat="47.18772" lon="4.94983">
        <ele>354.5</ele>
        <time>2021-05-20T11:13:33Z</time>
      </trkpt>
      <trkpt lat="47.18768" lon="4.94989">
        <ele>355.3</ele>
        <time>2021-05-20T11:13:40Z</time>
      </trkpt>
      <trkpt lat="47.18764" lon="4.94993">
        <ele>353.6</ele>
        <time>2021-05-20T11:13:43Z</time>
      </trkpt>
      <trkpt lat="47.18759" lon="4.95">
        <ele>351.1</ele>
        <time>2021-05-20T11:13:57Z</time>
      </trkpt>
      <trkpt lat="47.18755" lon="4.95006">
        <ele>349</ele>
        <time>2021-05-20T11:14:01Z</time>
      </trkpt>
      <trkpt lat="47.18751" lon="4.9501">
        <ele>349.7</ele>
        <time>2021-05-20T11:14:06Z</time>
      </trkpt>
      <trkpt lat="47.18746" lon="4.95012">
        <ele>339.9</ele>
        <time>2021-05-20T11:14:09Z</time>
      </trkpt>
      <trkpt lat="47.1874" lon="4.95016">
        <ele>337.8</ele>
        <time>2021-05-20T11:14:13Z</time>
      </trkpt>
      <trkpt lat="47.18735" lon="4.95021">
        <ele>340.2</ele>
        <time>2021-05-20T11:14:16Z</time>
      </trkpt>
      <trkpt lat="47.18731" lon="4.95024">
        <ele>345.2</ele>
        <time>2021-05-20T11:14:41Z</time>
      </trkpt>
      <trkpt lat="47.18725" lon="4.95024">
        <ele>343</ele>
        <time>2021-05-20T11:14:47Z</time>
      </trkpt>
      <trkpt lat="47.18722" lon="4.95029">
        <ele>341.8</ele>
        <time>2021-05-20T11:14:52Z</time>
      </trkpt>
      <trkpt lat="47.18717" lon="4.95029">
        <ele>338.8</ele>
        <time>2021-05-20T11:15:15Z</time>
      </trkpt>
      <trkpt lat="47.18718" lon="4.95036">
        <ele>340.8</ele>
        <time>2021-05-20T11:15:47Z</time>
      </trkpt>
      <trkpt lat="47.18717" lon="4.95044">
        <ele>340.1</ele>
        <time>2021-05-20T11:15:52Z</time>
      </trkpt>
      <trkpt lat="47.18719" lon="4.95051">
        <ele>339.1</ele>
        <time>2021-05-20T11:15:58Z</time>
      </trkpt>
      <trkpt lat="47.1872" lon="4.95059">
        <ele>343.1</ele>
        <time>2021-05-20T11:16:02Z</time>
      </trkpt>
      <trkpt lat="47.18719" lon="4.95067">
        <ele>341.1</ele>
        <time>2021-05-20T11:16:09Z</time>
      </trkpt>
      <trkpt lat="47.18721" lon="4.95075">
        <ele>337.3</ele>
        <time>2021-05-20T11:16:19Z</time>
      </trkpt>
      <trkpt lat="47.1872" lon="4.95083">
        <ele>335.8</ele>
        <time>2021-05-20T11:16:29Z</time>
      </trkpt>
      <trkpt lat="47.18715" lon="4.95088">
        <ele>338.4</ele>
        <time>2021-05-20T11:16:35Z</time>
      </trkpt>
      <trkpt lat="47.18713" lon="4.95093">
        <ele>334.1</ele>
        <time>2021-05-20T11:16:41Z</time>
      </trkpt>
      <trkpt lat="47.18713" lon="4.95101">
        <ele>334</ele>
        <time>2021-05-20T11:16:46Z</time>
      </trkpt>
      <trkpt lat="47.18711" lon="4.95108">
        <ele>330.6</ele>
        <time>2021-05-20T11:16:53Z</time>
      </trkpt>
      <trkpt lat="47.18711" lon="4.95116">
        <ele>324.6</ele>
        <time>2021-05-20T11:17:02Z</time>
      </trkpt>
      <trkpt lat="47.18707" lon="4.95121">
        <ele>322.7</ele>
        <time>2021-05-20T11:17:08Z</time>
      </trkpt>
      <trkpt lat="47.18705" lon="4.95128">
        <ele>319.1</ele>
        <time>2021-05-20T11:17:19Z</time>
      </trkpt>
      <trkpt lat="47.18706" lon="4.95135">
        <ele>316.2</ele>
        <time>2021-05-20T11:17:24Z</time>
      </trkpt>
      <trkpt lat="47.18705" lon="4.95143">
        <ele>314.6</ele>
        <time>2021-05-20T11:17:39Z</time>
      </trkpt>
      <trkpt lat="47.187" lon="4.9514">
        <ele>314.4</ele>
        <time>2021-05-20T11:17:46Z</time>
      </trkpt>
      <trkpt lat="47.18698" lon="4.95133">
        <ele>312.4</ele>
        <time>2021-05-20T11:17:51Z</time>
      </trkpt>
      <trkpt lat="47.18693" lon="4.95129">
        <ele>313.1</ele>
        <time>2021-05-20T11:17:59Z</time>
      </trkpt>
      <trkpt lat="47.1869" lon="4.95123">
        <ele>308.9</ele>
        <time>2021-05-20T11:18:07Z</time>
      </trkpt>
      <trkpt lat="47.18685" lon="4.9512">
        <ele>308.1</ele>
        <time>2021-05-20T11:18:12Z</time>
      </trkpt>
      <trkpt lat="47.18682" lon="4.95114">
        <ele>305.8</ele>
        <time>2021-05-20T11:18:16Z</time>
      </trkpt>
      <trkpt lat="47.18681" lon="4.95107">
        <ele>305.2</ele>
        <time>2021-05-20T11:18:24Z</time>
      </trkpt>
      <trkpt lat="47.18678" lon="4.95101">
        <ele>304.3</ele>
        <time>2021-05-20T11:18:29Z</time>
      </trkpt>
      <trkpt lat="47.18676" lon="4.95095">
        <ele>301.6</ele>
        <time>2021-05-20T11:18:33Z</time>
      </trkpt>
      <trkpt lat="47.18674" lon="4.95088">
        <ele>299.1</ele>
        <time>2021-05-20T11:18:37Z</time>
      </trkpt>
      <trkpt lat="47.18672" lon="4.9508">
        <ele>297.7</ele>
        <time>2021-05-20T11:18:43Z</time>
      </trkpt>
      <trkpt lat="47.1867" lon="4.95073">
        <ele>297.4</ele>
        <time>2021-05-20T11:18:47Z</time>
      </trkpt>
      <trkpt lat="47.18669" lon="4.95066">
        <ele>296.8</ele>
        <time>2021-05-20T11:18:52Z</time>
      </trkpt>
      <trkpt lat="47.18667" lon="4.9506">
        <ele>300.7</ele>
        <time>2021-05-20T11:18:58Z</time>
      </trkpt>
      <trkpt lat="47.18664" lon="4.95055">
        <ele>300.1</ele>
        <time>2021-05-20T11:19:04Z</time>
      </trkpt>
      <trkpt lat="47.18662" lon="4.95048">
        <ele>299.1</ele>
        <time>2021-05-20T11:19:08Z</time>
      </trkpt>
      <trkpt lat="47.18663" lon="4.95041">
        <ele>298.1</ele>
        <time>2021-05-20T11:19:15Z</time>
      </trkpt>
      <trkpt lat="47.18664" lon="4.95033">
        <ele>296.9</ele>
        <time>2021-05-20T11:19:19Z</time>
      </trkpt>
      <trkpt lat="47.18662" lon="4.95025">
        <ele>294.9</ele>
        <time>2021-05-20T11:19:23Z</time>
      </trkpt>
      <trkpt lat="47.18658" lon="4.95021">
        <ele>293.8</ele>
        <time>2021-05-20T11:19:27Z</time>
      </trkpt>
      <trkpt lat="47.18654" lon="4.95016">
        <ele>291</ele>
        <time>2021-05-20T11:19:34Z</time>
      </trkpt>
      <trkpt lat="47.18652" lon="4.95009">
        <ele>287.4</ele>
        <time>2021-05-20T11:19:39Z</time>
      </trkpt>
      <trkpt lat="47.18647" lon="4.95009">
        <ele>289.2</ele>
        <time>2021-05-20T11:19:46Z</time>
      </trkpt>
      <trkpt lat="47.18642" lon="4.95011">
        <ele>291</ele>
        <time>2021-05-20T11:19:51Z</time>
      </trkpt>
      <trkpt lat="47.18639" lon="4.95005">
        <ele>289.6</ele>
        <time>2021-05-20T11:19:55Z</time>
      </trkpt>
      <trkpt lat="47.18635" lon="4.95002">
        <ele>289.7</ele>
        <time>2021-05-20T11:20:00Z</time>
      </trkpt>
      <trkpt lat="47.1863" lon="4.95005">
        <ele>287.7</ele>
        <time>2021-05-20T11:20:07Z</time>
      </trkpt>
      <trkpt lat="47.18623" lon="4.95004">
        <ele>287.5</ele>
        <time>2021-05-20T11:20:12Z</time>
      </trkpt>
      <trkpt lat="47.18618" lon="4.95004">
        <ele>287</ele>
        <time>2021-05-20T11:20:17Z</time>
      </trkpt>
      <trkpt lat="47.18613" lon="4.95007">
        <ele>286.2</ele>
        <time>2021-05-20T11:20:27Z</time>
      </trkpt>
      <trkpt lat="47.18609" lon="4.9501">
        <ele>285.1</ele>
        <time>2021-05-20T11:20:32Z</time>
      </trkpt>
      <trkpt lat="47.18603" lon="4.95013">
        <ele>283.5</ele>
        <time>2021-05-20T11:20:38Z</time>
      </trkpt>
      <trkpt lat="47.18598" lon="4.95015">
        <ele>281.9</ele>
        <time>2021-05-20T11:20:43Z</time>
      </trkpt>
      <trkpt lat="47.18594" lon="4.95018">
        <ele>282.5</ele>
        <time>2021-05-20T11:20:48Z</time>
      </trkpt>
      <trkpt lat="47.18589" lon="4.95018">
        <ele>284.2</ele>
        <time>2021-05-20T11:20:55Z</time>
      </trkpt>
      <trkpt lat="47.18584" lon="4.95019">
        <ele>283.2</ele>
        <time>2021-05-20T11:21:01Z</time>
      </trkpt>
      <trkpt lat="47.18579" lon="4.95017">
        <ele>282.2</ele>
        <time>2021-05-20T11:21:06Z</time>
      </trkpt>
      <trkpt lat="47.18575" lon="4.95019">
        <ele>273.7</ele>
        <time>2021-05-20T11:21:10Z</time>
      </trkpt>
      <trkpt lat="47.1857" lon="4.95023">
        <ele>281</ele>
        <time>2021-05-20T11:21:15Z</time>
      </trkpt>
      <trkpt lat="47.18564" lon="4.95023">
        <ele>291.6</ele>
        <time>2021-05-20T11:21:33Z</time>
      </trkpt>
      <trkpt lat="47.18559" lon="4.95022">
        <ele>284.5</ele>
        <time>2021-05-20T11:21:37Z</time>
      </trkpt>
      <trkpt lat="47.18554" lon="4.95019">
        <ele>283.4</ele>
        <time>2021-05-20T11:21:42Z</time>
      </trkpt>
      <trkpt lat="47.18549" lon="4.9502">
        <ele>283.7</ele>
        <time>2021-05-20T11:21:47Z</time>
      </trkpt>
      <trkpt lat="47.18544" lon="4.95022">
        <ele>284.4</ele>
        <time>2021-05-20T11:21:53Z</time>
      </trkpt>
      <trkpt lat="47.18539" lon="4.95024">
        <ele>281.5</ele>
        <time>2021-05-20T11:21:57Z</time>
      </trkpt>
      <trkpt lat="47.18533" lon="4.95025">
        <ele>281</ele>
        <time>2021-05-20T11:22:02Z</time>
      </trkpt>
      <trkpt lat="47.18528" lon="4.95026">
        <ele>280</ele>
        <time>2021-05-20T11:22:07Z</time>
      </trkpt>
      <trkpt lat="47.18524" lon="4.9503">
        <ele>279.6</ele>
        <time>2021-05-20T11:22:12Z</time>
      </trkpt>
      <trkpt lat="47.18518" lon="4.95032">
        <ele>282.4</ele>
        <time>2021-05-20T11:22:18Z</time>
      </trkpt>
      <trkpt lat="47.18513" lon="4.95028">
        <ele>282.9</ele>
        <time>2021-05-20T11:22:22Z</time>
      </trkpt>
      <trkpt lat="47.18511" lon="4.95022">
        <ele>284</ele>
        <time>2021-05-20T11:22:28Z</time>
      </trkpt>
      <trkpt lat="47.18506" lon="4.95021">
        <ele>285</ele>
        <time>2021-05-20T11:22:34Z</time>
      </trkpt>
      <trkpt lat="47.18501" lon="4.95019">
        <ele>284.6</ele>
        <time>2021-05-20T11:22:43Z</time>
      </trkpt>
      <trkpt lat="47.18496" lon="4.95017">
        <ele>284.7</ele>
        <time>2021-05-20T11:22:47Z</time>
      </trkpt>
      <trkpt lat="47.18492" lon="4.95014">
        <ele>286.8</ele>
        <time>2021-05-20T11:26:06Z</time>
      </trkpt>
      <trkpt lat="47.18494" lon="4.95021">
        <ele>291.7</ele>
        <time>2021-05-20T11:28:59Z</time>
      </trkpt>
      <trkpt lat="47.18495" lon="4.95014">
        <ele>286.3</ele>
        <time>2021-05-20T11:30:53Z</time>
      </trkpt>
      <trkpt lat="47.18493" lon="4.95021">
        <ele>290.2</ele>
        <time>2021-05-20T11:34:38Z</time>
      </trkpt>
      <trkpt lat="47.18493" lon="4.95014">
        <ele>289.2</ele>
        <time>2021-05-20T11:41:14Z</time>
      </trkpt>
      <trkpt lat="47.18496" lon="4.95019">
        <ele>287.3</ele>
        <time>2021-05-20T11:43:21Z</time>
      </trkpt>
      <trkpt lat="47.18492" lon="4.95018">
        <ele>288.7</ele>
        <time>2021-05-20T11:44:25Z</time>
      </trkpt>
      <trkpt lat="47.18485" lon="4.95018">
        <ele>291.1</ele>
        <time>2021-05-20T11:44:29Z</time>
      </trkpt>
      <trkpt lat="47.18479" lon="4.9502">
        <ele>292.7</ele>
        <time>2021-05-20T11:44:33Z</time>
      </trkpt>
      <trkpt lat="47.18473" lon="4.95019">
        <ele>292.8</ele>
        <time>2021-05-20T11:44:38Z</time>
      </trkpt>
      <trkpt lat="47.18473" lon="4.95012">
        <ele>294.9</ele>
        <time>2021-05-20T11:44:55Z</time>
      </trkpt>
      <trkpt lat="47.18471" lon="4.95005">
        <ele>297</ele>
        <time>2021-05-20T11:45:53Z</time>
      </trkpt>
      <trkpt lat="47.18466" lon="4.95005">
        <ele>297.6</ele>
        <time>2021-05-20T11:46:20Z</time>
      </trkpt>
      <trkpt lat="47.1846" lon="4.95005">
        <ele>293.5</ele>
        <time>2021-05-20T11:46:27Z</time>
      </trkpt>
      <trkpt lat="47.18455" lon="4.95009">
        <ele>291.5</ele>
        <time>2021-05-20T11:46:30Z</time>
      </trkpt>
      <trkpt lat="47.1845" lon="4.95012">
        <ele>293.7</ele>
        <time>2021-05-20T11:46:34Z</time>
      </trkpt>
      <trkpt lat="47.18444" lon="4.95014">
        <ele>296.4</ele>
        <time>2021-05-20T11:46:38Z</time>
      </trkpt>
      <trkpt lat="47.18439" lon="4.95011">
        <ele>297</ele>
        <time>2021-05-20T11:46:42Z</time>
      </trkpt>
      <trkpt lat="47.18434" lon="4.95008">
        <ele>296.6</ele>
        <time>2021-05-20T11:46:45Z</time>
      </trkpt>
      <trkpt lat="47.1843" lon="4.95009">
        <ele>297.2</ele>
        <time>2021-05-20T11:46:50Z</time>
      </trkpt>
      <trkpt lat="47.18425" lon="4.9501">
        <ele>298.7</ele>
        <time>2021-05-20T11:46:55Z</time>
      </trkpt>
      <trkpt lat="47.1842" lon="4.95011">
        <ele>300.3</ele>
        <time>2021-05-20T11:47:00Z</time>
      </trkpt>
      <trkpt lat="47.18414" lon="4.95011">
        <ele>300.5</ele>
        <time>2021-05-20T11:47:05Z</time>
      </trkpt>
      <trkpt lat="47.1841" lon="4.95011">
        <ele>301.5</ele>
        <time>2021-05-20T11:47:10Z</time>
      </trkpt>
      <trkpt lat="47.18405" lon="4.9501">
        <ele>299.2</ele>
        <time>2021-05-20T11:47:15Z</time>
      </trkpt>
      <trkpt lat="47.18399" lon="4.95011">
        <ele>299.2</ele>
        <time>2021-05-20T11:47:20Z</time>
      </trkpt>
      <trkpt lat="47.18394" lon="4.95012">
        <ele>296.9</ele>
        <time>2021-05-20T11:47:26Z</time>
      </trkpt>
      <trkpt lat="47.18388" lon="4.95013">
        <ele>298.4</ele>
        <time>2021-05-20T11:47:30Z</time>
      </trkpt>
      <trkpt lat="47.18383" lon="4.95012">
        <ele>298.5</ele>
        <time>2021-05-20T11:47:35Z</time>
      </trkpt>
      <trkpt lat="47.18379" lon="4.95009">
        <ele>297.5</ele>
        <time>2021-05-20T11:47:38Z</time>
      </trkpt>
      <trkpt lat="47.18375" lon="4.95008">
        <ele>296.9</ele>
        <time>2021-05-20T11:47:42Z</time>
      </trkpt>
      <trkpt lat="47.1837" lon="4.95008">
        <ele>293.4</ele>
        <time>2021-05-20T11:47:47Z</time>
      </trkpt>
      <trkpt lat="47.18364" lon="4.95009">
        <ele>298.2</ele>
        <time>2021-05-20T11:47:53Z</time>
      </trkpt>
      <trkpt lat="47.1836" lon="4.9501">
        <ele>297.6</ele>
        <time>2021-05-20T11:47:58Z</time>
      </trkpt>
      <trkpt lat="47.18354" lon="4.9501">
        <ele>296.5</ele>
        <time>2021-05-20T11:48:03Z</time>
      </trkpt>
      <trkpt lat="47.18349" lon="4.95007">
        <ele>298.2</ele>
        <time>2021-05-20T11:48:08Z</time>
      </trkpt>
      <trkpt lat="47.18344" lon="4.95004">
        <ele>297.6</ele>
        <time>2021-05-20T11:48:13Z</time>
      </trkpt>
      <trkpt lat="47.1834" lon="4.95002">
        <ele>297.4</ele>
        <time>2021-05-20T11:48:17Z</time>
      </trkpt>
      <trkpt lat="47.18334" lon="4.95">
        <ele>297.4</ele>
        <time>2021-05-20T11:48:22Z</time>
      </trkpt>
      <trkpt lat="47.18325" lon="4.94992">
        <ele>299.5</ele>
        <time>2021-05-20T11:48:31Z</time>
      </trkpt>
      <trkpt lat="47.18321" lon="4.94987">
        <ele>300.6</ele>
        <time>2021-05-20T11:48:36Z</time>
      </trkpt>
      <trkpt lat="47.18316" lon="4.94983">
        <ele>299.5</ele>
        <time>2021-05-20T11:48:41Z</time>
      </trkpt>
      <trkpt lat="47.18312" lon="4.94981">
        <ele>300.1</ele>
        <time>2021-05-20T11:48:46Z</time>
      </trkpt>
      <trkpt lat="47.18307" lon="4.9498">
        <ele>299.8</ele>
        <time>2021-05-20T11:48:51Z</time>
      </trkpt>
      <trkpt lat="47.18301" lon="4.94979">
        <ele>300.2</ele>
        <time>2021-05-20T11:48:56Z</time>
      </trkpt>
      <trkpt lat="47.18297" lon="4.94978">
        <ele>300.1</ele>
        <time>2021-05-20T11:49:00Z</time>
      </trkpt>
      <trkpt lat="47.18291" lon="4.94974">
        <ele>300.7</ele>
        <time>2021-05-20T11:49:05Z</time>
      </trkpt>
      <trkpt lat="47.18286" lon="4.94972">
        <ele>300.5</ele>
        <time>2021-05-20T11:49:08Z</time>
      </trkpt>
      <trkpt lat="47.18282" lon="4.9497">
        <ele>300.5</ele>
        <time>2021-05-20T11:49:12Z</time>
      </trkpt>
      <trkpt lat="47.18277" lon="4.94967">
        <ele>302.6</ele>
        <time>2021-05-20T11:49:17Z</time>
      </trkpt>
      <trkpt lat="47.18273" lon="4.94963">
        <ele>303.3</ele>
        <time>2021-05-20T11:49:22Z</time>
      </trkpt>
      <trkpt lat="47.1827" lon="4.94956">
        <ele>302.7</ele>
        <time>2021-05-20T11:49:27Z</time>
      </trkpt>
      <trkpt lat="47.18266" lon="4.94951">
        <ele>303.4</ele>
        <time>2021-05-20T11:49:31Z</time>
      </trkpt>
      <trkpt lat="47.18263" lon="4.94944">
        <ele>303.5</ele>
        <time>2021-05-20T11:49:37Z</time>
      </trkpt>
      <trkpt lat="47.1826" lon="4.94937">
        <ele>304.4</ele>
        <time>2021-05-20T11:49:41Z</time>
      </trkpt>
      <trkpt lat="47.18257" lon="4.94931">
        <ele>304.9</ele>
        <time>2021-05-20T11:49:46Z</time>
      </trkpt>
      <trkpt lat="47.18253" lon="4.94924">
        <ele>306.6</ele>
        <time>2021-05-20T11:49:51Z</time>
      </trkpt>
      <trkpt lat="47.18248" lon="4.94919">
        <ele>309.9</ele>
        <time>2021-05-20T11:49:57Z</time>
      </trkpt>
      <trkpt lat="47.18244" lon="4.94915">
        <ele>310.6</ele>
        <time>2021-05-20T11:50:01Z</time>
      </trkpt>
      <trkpt lat="47.18238" lon="4.94911">
        <ele>312</ele>
        <time>2021-05-20T11:50:08Z</time>
      </trkpt>
      <trkpt lat="47.18232" lon="4.94909">
        <ele>310.6</ele>
        <time>2021-05-20T11:50:13Z</time>
      </trkpt>
      <trkpt lat="47.18226" lon="4.94907">
        <ele>311.6</ele>
        <time>2021-05-20T11:50:18Z</time>
      </trkpt>
      <trkpt lat="47.1822" lon="4.94904">
        <ele>311.6</ele>
        <time>2021-05-20T11:50:23Z</time>
      </trkpt>
      <trkpt lat="47.18216" lon="4.94901">
        <ele>312.1</ele>
        <time>2021-05-20T11:50:28Z</time>
      </trkpt>
      <trkpt lat="47.18211" lon="4.94899">
        <ele>313</ele>
        <time>2021-05-20T11:50:31Z</time>
      </trkpt>
      <trkpt lat="47.18206" lon="4.94897">
        <ele>312.7</ele>
        <time>2021-05-20T11:50:36Z</time>
      </trkpt>
      <trkpt lat="47.18201" lon="4.94895">
        <ele>312.2</ele>
        <time>2021-05-20T11:50:39Z</time>
      </trkpt>
      <trkpt lat="47.18195" lon="4.9489">
        <ele>311.8</ele>
        <time>2021-05-20T11:50:45Z</time>
      </trkpt>
      <trkpt lat="47.1819" lon="4.94888">
        <ele>313.9</ele>
        <time>2021-05-20T11:50:49Z</time>
      </trkpt>
      <trkpt lat="47.18186" lon="4.9489">
        <ele>313.5</ele>
        <time>2021-05-20T11:50:52Z</time>
      </trkpt>
      <trkpt lat="47.18182" lon="4.94892">
        <ele>313.2</ele>
        <time>2021-05-20T11:50:56Z</time>
      </trkpt>
      <trkpt lat="47.18176" lon="4.94895">
        <ele>311.4</ele>
        <time>2021-05-20T11:51:00Z</time>
      </trkpt>
      <trkpt lat="47.18171" lon="4.94898">
        <ele>312.1</ele>
        <time>2021-05-20T11:51:04Z</time>
      </trkpt>
      <trkpt lat="47.18167" lon="4.94901">
        <ele>310.9</ele>
        <time>2021-05-20T11:51:08Z</time>
      </trkpt>
      <trkpt lat="47.18163" lon="4.94904">
        <ele>312.5</ele>
        <time>2021-05-20T11:51:11Z</time>
      </trkpt>
      <trkpt lat="47.18159" lon="4.94911">
        <ele>312.1</ele>
        <time>2021-05-20T11:51:14Z</time>
      </trkpt>
      <trkpt lat="47.18157" lon="4.94917">
        <ele>312.2</ele>
        <time>2021-05-20T11:51:18Z</time>
      </trkpt>
      <trkpt lat="47.18154" lon="4.94924">
        <ele>313.2</ele>
        <time>2021-05-20T11:51:24Z</time>
      </trkpt>
      <trkpt lat="47.18152" lon="4.9493">
        <ele>313.8</ele>
        <time>2021-05-20T11:51:30Z</time>
      </trkpt>
      <trkpt lat="47.18152" lon="4.94939">
        <ele>313.1</ele>
        <time>2021-05-20T11:51:36Z</time>
      </trkpt>
      <trkpt lat="47.18147" lon="4.94942">
        <ele>313</ele>
        <time>2021-05-20T11:51:44Z</time>
      </trkpt>
      <trkpt lat="47.18143" lon="4.94948">
        <ele>312.7</ele>
        <time>2021-05-20T11:51:47Z</time>
      </trkpt>
      <trkpt lat="47.18142" lon="4.94955">
        <ele>311.7</ele>
        <time>2021-05-20T11:51:51Z</time>
      </trkpt>
      <trkpt lat="47.1814" lon="4.94962">
        <ele>311</ele>
        <time>2021-05-20T11:51:55Z</time>
      </trkpt>
      <trkpt lat="47.18138" lon="4.9497">
        <ele>311</ele>
        <time>2021-05-20T11:52:00Z</time>
      </trkpt>
      <trkpt lat="47.18136" lon="4.94977">
        <ele>311.7</ele>
        <time>2021-05-20T11:52:05Z</time>
      </trkpt>
      <trkpt lat="47.18134" lon="4.94984">
        <ele>310.3</ele>
        <time>2021-05-20T11:52:10Z</time>
      </trkpt>
      <trkpt lat="47.18132" lon="4.9499">
        <ele>310.5</ele>
        <time>2021-05-20T11:52:14Z</time>
      </trkpt>
      <trkpt lat="47.18129" lon="4.94997">
        <ele>310.1</ele>
        <time>2021-05-20T11:52:19Z</time>
      </trkpt>
      <trkpt lat="47.18127" lon="4.95004">
        <ele>310.4</ele>
        <time>2021-05-20T11:52:23Z</time>
      </trkpt>
      <trkpt lat="47.18126" lon="4.9501">
        <ele>311.2</ele>
        <time>2021-05-20T11:52:27Z</time>
      </trkpt>
      <trkpt lat="47.18123" lon="4.95018">
        <ele>310.4</ele>
        <time>2021-05-20T11:52:32Z</time>
      </trkpt>
      <trkpt lat="47.18121" lon="4.95024">
        <ele>311.5</ele>
        <time>2021-05-20T11:52:36Z</time>
      </trkpt>
      <trkpt lat="47.18118" lon="4.9503">
        <ele>309.2</ele>
        <time>2021-05-20T11:52:39Z</time>
      </trkpt>
      <trkpt lat="47.18115" lon="4.95038">
        <ele>310.5</ele>
        <time>2021-05-20T11:52:44Z</time>
      </trkpt>
      <trkpt lat="47.18112" lon="4.95045">
        <ele>311.3</ele>
        <time>2021-05-20T11:52:49Z</time>
      </trkpt>
      <trkpt lat="47.1811" lon="4.95053">
        <ele>310.1</ele>
        <time>2021-05-20T11:52:54Z</time>
      </trkpt>
      <trkpt lat="47.18108" lon="4.95061">
        <ele>309.7</ele>
        <time>2021-05-20T11:52:58Z</time>
      </trkpt>
      <trkpt lat="47.18106" lon="4.95069">
        <ele>309.7</ele>
        <time>2021-05-20T11:53:02Z</time>
      </trkpt>
      <trkpt lat="47.18104" lon="4.95074">
        <ele>310.3</ele>
        <time>2021-05-20T11:53:07Z</time>
      </trkpt>
      <trkpt lat="47.18101" lon="4.95081">
        <ele>310.2</ele>
        <time>2021-05-20T11:53:11Z</time>
      </trkpt>
      <trkpt lat="47.181" lon="4.9509">
        <ele>309.4</ele>
        <time>2021-05-20T11:53:16Z</time>
      </trkpt>
      <trkpt lat="47.18097" lon="4.95097">
        <ele>308.8</ele>
        <time>2021-05-20T11:53:20Z</time>
      </trkpt>
      <trkpt lat="47.18095" lon="4.95104">
        <ele>309.3</ele>
        <time>2021-05-20T11:53:25Z</time>
      </trkpt>
      <trkpt lat="47.18094" lon="4.9511">
        <ele>307.5</ele>
        <time>2021-05-20T11:53:28Z</time>
      </trkpt>
      <trkpt lat="47.18092" lon="4.95118">
        <ele>307.1</ele>
        <time>2021-05-20T11:53:32Z</time>
      </trkpt>
      <trkpt lat="47.1809" lon="4.95125">
        <ele>307.3</ele>
        <time>2021-05-20T11:53:36Z</time>
      </trkpt>
      <trkpt lat="47.18088" lon="4.95133">
        <ele>306.5</ele>
        <time>2021-05-20T11:53:41Z</time>
      </trkpt>
      <trkpt lat="47.18086" lon="4.9514">
        <ele>306.6</ele>
        <time>2021-05-20T11:53:45Z</time>
      </trkpt>
      <trkpt lat="47.18084" lon="4.95147">
        <ele>305.9</ele>
        <time>2021-05-20T11:53:49Z</time>
      </trkpt>
      <trkpt lat="47.18082" lon="4.95154">
        <ele>304.6</ele>
        <time>2021-05-20T11:53:53Z</time>
      </trkpt>
      <trkpt lat="47.18081" lon="4.95161">
        <ele>304.5</ele>
        <time>2021-05-20T11:53:56Z</time>
      </trkpt>
      <trkpt lat="47.18079" lon="4.95168">
        <ele>303.8</ele>
        <time>2021-05-20T11:54:00Z</time>
      </trkpt>
      <trkpt lat="47.18076" lon="4.95175">
        <ele>304.2</ele>
        <time>2021-05-20T11:54:05Z</time>
      </trkpt>
      <trkpt lat="47.18074" lon="4.95182">
        <ele>303.9</ele>
        <time>2021-05-20T11:54:09Z</time>
      </trkpt>
      <trkpt lat="47.18073" lon="4.9519">
        <ele>303.4</ele>
        <time>2021-05-20T11:54:13Z</time>
      </trkpt>
      <trkpt lat="47.18071" lon="4.95197">
        <ele>303.8</ele>
        <time>2021-05-20T11:54:17Z</time>
      </trkpt>
      <trkpt lat="47.18069" lon="4.95204">
        <ele>305.1</ele>
        <time>2021-05-20T11:54:22Z</time>
      </trkpt>
      <trkpt lat="47.18067" lon="4.95212">
        <ele>306.4</ele>
        <time>2021-05-20T11:54:27Z</time>
      </trkpt>
      <trkpt lat="47.18064" lon="4.95218">
        <ele>306.6</ele>
        <time>2021-05-20T11:54:31Z</time>
      </trkpt>
      <trkpt lat="47.18062" lon="4.95225">
        <ele>307.7</ele>
        <time>2021-05-20T11:54:36Z</time>
      </trkpt>
      <trkpt lat="47.1806" lon="4.95232">
        <ele>309</ele>
        <time>2021-05-20T11:54:40Z</time>
      </trkpt>
      <trkpt lat="47.18058" lon="4.95239">
        <ele>309.3</ele>
        <time>2021-05-20T11:54:43Z</time>
      </trkpt>
      <trkpt lat="47.18056" lon="4.95247">
        <ele>309.3</ele>
        <time>2021-05-20T11:54:48Z</time>
      </trkpt>
      <trkpt lat="47.18051" lon="4.95253">
        <ele>309.6</ele>
        <time>2021-05-20T11:54:54Z</time>
      </trkpt>
      <trkpt lat="47.18047" lon="4.95258">
        <ele>306.8</ele>
        <time>2021-05-20T11:54:58Z</time>
      </trkpt>
      <trkpt lat="47.18042" lon="4.95257">
        <ele>308</ele>
        <time>2021-05-20T11:55:01Z</time>
      </trkpt>
      <trkpt lat="47.18038" lon="4.95255">
        <ele>307.3</ele>
        <time>2021-05-20T11:55:04Z</time>
      </trkpt>
      <trkpt lat="47.18033" lon="4.95256">
        <ele>306.4</ele>
        <time>2021-05-20T11:55:09Z</time>
      </trkpt>
      <trkpt lat="47.18029" lon="4.95262">
        <ele>306.3</ele>
        <time>2021-05-20T11:55:14Z</time>
      </trkpt>
      <trkpt lat="47.18025" lon="4.95267">
        <ele>307.3</ele>
        <time>2021-05-20T11:55:19Z</time>
      </trkpt>
      <trkpt lat="47.1802" lon="4.95269">
        <ele>309.3</ele>
        <time>2021-05-20T11:55:24Z</time>
      </trkpt>
      <trkpt lat="47.18014" lon="4.95269">
        <ele>308.5</ele>
        <time>2021-05-20T11:55:31Z</time>
      </trkpt>
      <trkpt lat="47.1801" lon="4.95271">
        <ele>309.9</ele>
        <time>2021-05-20T11:55:35Z</time>
      </trkpt>
      <trkpt lat="47.18005" lon="4.95274">
        <ele>309.3</ele>
        <time>2021-05-20T11:55:41Z</time>
      </trkpt>
      <trkpt lat="47.18" lon="4.9528">
        <ele>307.7</ele>
        <time>2021-05-20T11:55:46Z</time>
      </trkpt>
      <trkpt lat="47.17995" lon="4.95284">
        <ele>309.7</ele>
        <time>2021-05-20T11:55:52Z</time>
      </trkpt>
      <trkpt lat="47.17989" lon="4.95283">
        <ele>310.5</ele>
        <time>2021-05-20T11:55:56Z</time>
      </trkpt>
      <trkpt lat="47.17984" lon="4.95285">
        <ele>311.1</ele>
        <time>2021-05-20T11:56:01Z</time>
      </trkpt>
      <trkpt lat="47.1798" lon="4.95289">
        <ele>310.6</ele>
        <time>2021-05-20T11:56:06Z</time>
      </trkpt>
      <trkpt lat="47.17976" lon="4.95292">
        <ele>310.4</ele>
        <time>2021-05-20T11:56:10Z</time>
      </trkpt>
      <trkpt lat="47.1797" lon="4.95296">
        <ele>309</ele>
        <time>2021-05-20T11:56:15Z</time>
      </trkpt>
      <trkpt lat="47.17965" lon="4.95299">
        <ele>308.9</ele>
        <time>2021-05-20T11:56:19Z</time>
      </trkpt>
      <trkpt lat="47.1796" lon="4.95302">
        <ele>307.7</ele>
        <time>2021-05-20T11:56:24Z</time>
      </trkpt>
      <trkpt lat="47.17954" lon="4.95303">
        <ele>306.9</ele>
        <time>2021-05-20T11:56:29Z</time>
      </trkpt>
      <trkpt lat="47.1795" lon="4.95306">
        <ele>307.7</ele>
        <time>2021-05-20T11:56:32Z</time>
      </trkpt>
      <trkpt lat="47.17945" lon="4.95308">
        <ele>306.6</ele>
        <time>2021-05-20T11:56:37Z</time>
      </trkpt>
      <trkpt lat="47.17941" lon="4.95314">
        <ele>306.2</ele>
        <time>2021-05-20T11:56:42Z</time>
      </trkpt>
      <trkpt lat="47.17936" lon="4.95317">
        <ele>305.5</ele>
        <time>2021-05-20T11:56:47Z</time>
      </trkpt>
      <trkpt lat="47.17931" lon="4.9532">
        <ele>304.8</ele>
        <time>2021-05-20T11:56:50Z</time>
      </trkpt>
      <trkpt lat="47.17926" lon="4.95322">
        <ele>303.2</ele>
        <time>2021-05-20T11:56:54Z</time>
      </trkpt>
      <trkpt lat="47.17921" lon="4.95325">
        <ele>303.6</ele>
        <time>2021-05-20T11:56:59Z</time>
      </trkpt>
      <trkpt lat="47.17916" lon="4.95327">
        <ele>308.9</ele>
        <time>2021-05-20T11:57:03Z</time>
      </trkpt>
      <trkpt lat="47.17912" lon="4.95331">
        <ele>305.9</ele>
        <time>2021-05-20T11:57:09Z</time>
      </trkpt>
      <trkpt lat="47.17916" lon="4.95336">
        <ele>295.7</ele>
        <time>2021-05-20T11:57:36Z</time>
      </trkpt>
      <trkpt lat="47.17911" lon="4.95339">
        <ele>297.6</ele>
        <time>2021-05-20T11:57:41Z</time>
      </trkpt>
      <trkpt lat="47.17907" lon="4.95341">
        <ele>297.4</ele>
        <time>2021-05-20T11:57:46Z</time>
      </trkpt>
      <trkpt lat="47.17901" lon="4.95338">
        <ele>297</ele>
        <time>2021-05-20T11:57:50Z</time>
      </trkpt>
      <trkpt lat="47.17896" lon="4.95335">
        <ele>296.8</ele>
        <time>2021-05-20T11:57:54Z</time>
      </trkpt>
      <trkpt lat="47.17891" lon="4.95334">
        <ele>294.8</ele>
        <time>2021-05-20T11:58:21Z</time>
      </trkpt>
      <trkpt lat="47.17887" lon="4.9533">
        <ele>295.5</ele>
        <time>2021-05-20T11:58:24Z</time>
      </trkpt>
      <trkpt lat="47.17881" lon="4.95332">
        <ele>297.8</ele>
        <time>2021-05-20T11:58:56Z</time>
      </trkpt>
      <trkpt lat="47.17876" lon="4.9533">
        <ele>297</ele>
        <time>2021-05-20T11:58:59Z</time>
      </trkpt>
      <trkpt lat="47.1787" lon="4.95327">
        <ele>294.6</ele>
        <time>2021-05-20T11:59:05Z</time>
      </trkpt>
      <trkpt lat="47.17863" lon="4.95329">
        <ele>294.5</ele>
        <time>2021-05-20T11:59:08Z</time>
      </trkpt>
      <trkpt lat="47.17858" lon="4.9533">
        <ele>291.7</ele>
        <time>2021-05-20T11:59:12Z</time>
      </trkpt>
      <trkpt lat="47.17852" lon="4.9533">
        <ele>291.2</ele>
        <time>2021-05-20T11:59:15Z</time>
      </trkpt>
      <trkpt lat="47.17847" lon="4.9533">
        <ele>288.9</ele>
        <time>2021-05-20T11:59:23Z</time>
      </trkpt>
      <trkpt lat="47.17842" lon="4.95327">
        <ele>287</ele>
        <time>2021-05-20T11:59:27Z</time>
      </trkpt>
      <trkpt lat="47.17836" lon="4.95325">
        <ele>287.3</ele>
        <time>2021-05-20T11:59:31Z</time>
      </trkpt>
      <trkpt lat="47.17832" lon="4.95325">
        <ele>296.4</ele>
        <time>2021-05-20T11:59:36Z</time>
      </trkpt>
      <trkpt lat="47.17826" lon="4.95325">
        <ele>292.1</ele>
        <time>2021-05-20T11:59:46Z</time>
      </trkpt>
      <trkpt lat="47.17821" lon="4.95324">
        <ele>292.3</ele>
        <time>2021-05-20T11:59:48Z</time>
      </trkpt>
      <trkpt lat="47.17816" lon="4.95324">
        <ele>292.4</ele>
        <time>2021-05-20T11:59:51Z</time>
      </trkpt>
      <trkpt lat="47.17811" lon="4.95323">
        <ele>291.3</ele>
        <time>2021-05-20T11:59:59Z</time>
      </trkpt>
      <trkpt lat="47.17806" lon="4.95322">
        <ele>292.6</ele>
        <time>2021-05-20T12:00:02Z</time>
      </trkpt>
      <trkpt lat="47.17802" lon="4.95317">
        <ele>291.1</ele>
        <time>2021-05-20T12:00:10Z</time>
      </trkpt>
      <trkpt lat="47.17796" lon="4.95318">
        <ele>289</ele>
        <time>2021-05-20T12:00:26Z</time>
      </trkpt>
      <trkpt lat="47.1779" lon="4.95318">
        <ele>291.5</ele>
        <time>2021-05-20T12:00:28Z</time>
      </trkpt>
      <trkpt lat="47.17784" lon="4.95316">
        <ele>292.3</ele>
        <time>2021-05-20T12:00:31Z</time>
      </trkpt>
      <trkpt lat="47.17779" lon="4.95315">
        <ele>292.2</ele>
        <time>2021-05-20T12:00:33Z</time>
      </trkpt>
      <trkpt lat="47.17772" lon="4.95314">
        <ele>290.3</ele>
        <time>2021-05-20T12:00:36Z</time>
      </trkpt>
      <trkpt lat="47.17766" lon="4.95314">
        <ele>292.6</ele>
        <time>2021-05-20T12:00:39Z</time>
      </trkpt>
      <trkpt lat="47.17762" lon="4.95316">
        <ele>293.4</ele>
        <time>2021-05-20T12:00:43Z</time>
      </trkpt>
      <trkpt lat="47.17757" lon="4.95319">
        <ele>289.1</ele>
        <time>2021-05-20T12:00:50Z</time>
      </trkpt>
      <trkpt lat="47.17752" lon="4.95315">
        <ele>268.7</ele>
        <time>2021-05-20T12:00:54Z</time>
      </trkpt>
      <trkpt lat="47.17748" lon="4.95312">
        <ele>276.6</ele>
        <time>2021-05-20T12:00:56Z</time>
      </trkpt>
      <trkpt lat="47.17743" lon="4.9531">
        <ele>279.2</ele>
        <time>2021-05-20T12:01:00Z</time>
      </trkpt>
      <trkpt lat="47.17738" lon="4.9531">
        <ele>278.4</ele>
        <time>2021-05-20T12:01:02Z</time>
      </trkpt>
      <trkpt lat="47.17734" lon="4.95315">
        <ele>278.4</ele>
        <time>2021-05-20T12:01:06Z</time>
      </trkpt>
      <trkpt lat="47.17733" lon="4.95325">
        <ele>277.3</ele>
        <time>2021-05-20T12:01:10Z</time>
      </trkpt>
      <trkpt lat="47.17734" lon="4.95334">
        <ele>278.4</ele>
        <time>2021-05-20T12:01:13Z</time>
      </trkpt>
      <trkpt lat="47.17736" lon="4.95341">
        <ele>279.1</ele>
        <time>2021-05-20T12:01:15Z</time>
      </trkpt>
      <trkpt lat="47.17741" lon="4.95346">
        <ele>279.7</ele>
        <time>2021-05-20T12:01:19Z</time>
      </trkpt>
      <trkpt lat="47.17743" lon="4.95352">
        <ele>274.1</ele>
        <time>2021-05-20T12:01:29Z</time>
      </trkpt>
      <trkpt lat="47.17741" lon="4.9536">
        <ele>278.2</ele>
        <time>2021-05-20T12:01:32Z</time>
      </trkpt>
      <trkpt lat="47.17741" lon="4.95369">
        <ele>278</ele>
        <time>2021-05-20T12:01:36Z</time>
      </trkpt>
      <trkpt lat="47.17741" lon="4.95376">
        <ele>279.7</ele>
        <time>2021-05-20T12:01:40Z</time>
      </trkpt>
      <trkpt lat="47.17741" lon="4.95384">
        <ele>277.7</ele>
        <time>2021-05-20T12:01:43Z</time>
      </trkpt>
      <trkpt lat="47.17741" lon="4.95392">
        <ele>277.8</ele>
        <time>2021-05-20T12:01:46Z</time>
      </trkpt>
      <trkpt lat="47.1774" lon="4.95399">
        <ele>275.2</ele>
        <time>2021-05-20T12:01:48Z</time>
      </trkpt>
      <trkpt lat="47.17736" lon="4.95407">
        <ele>275.6</ele>
        <time>2021-05-20T12:02:00Z</time>
      </trkpt>
      <trkpt lat="47.17733" lon="4.95416">
        <ele>271</ele>
        <time>2021-05-20T12:02:04Z</time>
      </trkpt>
      <trkpt lat="47.17731" lon="4.95423">
        <ele>267.8</ele>
        <time>2021-05-20T12:02:08Z</time>
      </trkpt>
      <trkpt lat="47.17729" lon="4.9543">
        <ele>267.3</ele>
        <time>2021-05-20T12:02:13Z</time>
      </trkpt>
      <trkpt lat="47.17729" lon="4.95437">
        <ele>266.8</ele>
        <time>2021-05-20T12:02:15Z</time>
      </trkpt>
      <trkpt lat="47.17727" lon="4.95444">
        <ele>267.3</ele>
        <time>2021-05-20T12:02:18Z</time>
      </trkpt>
      <trkpt lat="47.17726" lon="4.95451">
        <ele>266.7</ele>
        <time>2021-05-20T12:02:23Z</time>
      </trkpt>
      <trkpt lat="47.17723" lon="4.95457">
        <ele>268.7</ele>
        <time>2021-05-20T12:02:30Z</time>
      </trkpt>
      <trkpt lat="47.1772" lon="4.95463">
        <ele>270.1</ele>
        <time>2021-05-20T12:02:34Z</time>
      </trkpt>
      <trkpt lat="47.17717" lon="4.9547">
        <ele>268</ele>
        <time>2021-05-20T12:02:38Z</time>
      </trkpt>
      <trkpt lat="47.17711" lon="4.95475">
        <ele>265.3</ele>
        <time>2021-05-20T12:02:42Z</time>
      </trkpt>
      <trkpt lat="47.17707" lon="4.95478">
        <ele>265.4</ele>
        <time>2021-05-20T12:02:44Z</time>
      </trkpt>
      <trkpt lat="47.17705" lon="4.95492">
        <ele>264.9</ele>
        <time>2021-05-20T12:02:50Z</time>
      </trkpt>
      <trkpt lat="47.177" lon="4.95491">
        <ele>262.8</ele>
        <time>2021-05-20T12:02:59Z</time>
      </trkpt>
      <trkpt lat="47.17695" lon="4.95489">
        <ele>264.1</ele>
        <time>2021-05-20T12:03:02Z</time>
      </trkpt>
      <trkpt lat="47.17689" lon="4.95486">
        <ele>263.9</ele>
        <time>2021-05-20T12:03:05Z</time>
      </trkpt>
      <trkpt lat="47.17683" lon="4.95486">
        <ele>266.2</ele>
        <time>2021-05-20T12:03:13Z</time>
      </trkpt>
      <trkpt lat="47.17678" lon="4.95484">
        <ele>262.9</ele>
        <time>2021-05-20T12:03:16Z</time>
      </trkpt>
      <trkpt lat="47.17672" lon="4.95484">
        <ele>260.6</ele>
        <time>2021-05-20T12:03:20Z</time>
      </trkpt>
      <trkpt lat="47.17667" lon="4.95484">
        <ele>260.9</ele>
        <time>2021-05-20T12:03:23Z</time>
      </trkpt>
      <trkpt lat="47.1766" lon="4.95484">
        <ele>260.7</ele>
        <time>2021-05-20T12:03:26Z</time>
      </trkpt>
      <trkpt lat="47.17655" lon="4.95484">
        <ele>261.7</ele>
        <time>2021-05-20T12:03:29Z</time>
      </trkpt>
      <trkpt lat="47.17652" lon="4.9549">
        <ele>258.7</ele>
        <time>2021-05-20T12:03:36Z</time>
      </trkpt>
      <trkpt lat="47.17645" lon="4.95494">
        <ele>258.6</ele>
        <time>2021-05-20T12:03:40Z</time>
      </trkpt>
      <trkpt lat="47.17641" lon="4.95495">
        <ele>263.5</ele>
        <time>2021-05-20T12:03:47Z</time>
      </trkpt>
      <trkpt lat="47.17635" lon="4.95498">
        <ele>260.4</ele>
        <time>2021-05-20T12:03:52Z</time>
      </trkpt>
      <trkpt lat="47.1763" lon="4.95505">
        <ele>259.5</ele>
        <time>2021-05-20T12:03:55Z</time>
      </trkpt>
      <trkpt lat="47.17629" lon="4.95511">
        <ele>259</ele>
        <time>2021-05-20T12:03:57Z</time>
      </trkpt>
      <trkpt lat="47.17632" lon="4.95518">
        <ele>259</ele>
        <time>2021-05-20T12:04:06Z</time>
      </trkpt>
      <trkpt lat="47.17632" lon="4.95525">
        <ele>256.9</ele>
        <time>2021-05-20T12:04:09Z</time>
      </trkpt>
      <trkpt lat="47.17633" lon="4.95532">
        <ele>253.5</ele>
        <time>2021-05-20T12:04:14Z</time>
      </trkpt>
      <trkpt lat="47.17635" lon="4.95541">
        <ele>254.6</ele>
        <time>2021-05-20T12:04:17Z</time>
      </trkpt>
      <trkpt lat="47.17637" lon="4.95551">
        <ele>253</ele>
        <time>2021-05-20T12:04:21Z</time>
      </trkpt>
      <trkpt lat="47.17637" lon="4.95558">
        <ele>253.6</ele>
        <time>2021-05-20T12:04:23Z</time>
      </trkpt>
      <trkpt lat="47.17639" lon="4.95565">
        <ele>257.3</ele>
        <time>2021-05-20T12:04:27Z</time>
      </trkpt>
      <trkpt lat="47.17643" lon="4.9557">
        <ele>254.6</ele>
        <time>2021-05-20T12:04:36Z</time>
      </trkpt>
      <trkpt lat="47.17645" lon="4.95578">
        <ele>256.5</ele>
        <time>2021-05-20T12:04:40Z</time>
      </trkpt>
      <trkpt lat="47.17645" lon="4.95586">
        <ele>257.1</ele>
        <time>2021-05-20T12:04:44Z</time>
      </trkpt>
      <trkpt lat="47.17645" lon="4.95595">
        <ele>257.6</ele>
        <time>2021-05-20T12:04:48Z</time>
      </trkpt>
      <trkpt lat="47.17644" lon="4.95605">
        <ele>256.5</ele>
        <time>2021-05-20T12:04:52Z</time>
      </trkpt>
      <trkpt lat="47.17642" lon="4.95611">
        <ele>255.6</ele>
        <time>2021-05-20T12:04:56Z</time>
      </trkpt>
      <trkpt lat="47.17642" lon="4.9562">
        <ele>255.3</ele>
        <time>2021-05-20T12:05:07Z</time>
      </trkpt>
      <trkpt lat="47.1764" lon="4.95629">
        <ele>251.5</ele>
        <time>2021-05-20T12:05:10Z</time>
      </trkpt>
      <trkpt lat="47.17639" lon="4.95637">
        <ele>249.4</ele>
        <time>2021-05-20T12:05:14Z</time>
      </trkpt>
      <trkpt lat="47.17637" lon="4.95643">
        <ele>251.9</ele>
        <time>2021-05-20T12:05:17Z</time>
      </trkpt>
      <trkpt lat="47.17637" lon="4.95652">
        <ele>253.7</ele>
        <time>2021-05-20T12:05:21Z</time>
      </trkpt>
      <trkpt lat="47.17634" lon="4.95659">
        <ele>255.7</ele>
        <time>2021-05-20T12:05:24Z</time>
      </trkpt>
      <trkpt lat="47.17631" lon="4.95666">
        <ele>264.4</ele>
        <time>2021-05-20T12:05:34Z</time>
      </trkpt>
      <trkpt lat="47.17634" lon="4.95672">
        <ele>256.7</ele>
        <time>2021-05-20T12:05:50Z</time>
      </trkpt>
      <trkpt lat="47.1764" lon="4.95673">
        <ele>256.3</ele>
        <time>2021-05-20T12:05:53Z</time>
      </trkpt>
      <trkpt lat="47.17644" lon="4.95679">
        <ele>255.5</ele>
        <time>2021-05-20T12:05:57Z</time>
      </trkpt>
      <trkpt lat="47.17647" lon="4.95685">
        <ele>249.6</ele>
        <time>2021-05-20T12:06:01Z</time>
      </trkpt>
      <trkpt lat="47.17648" lon="4.95692">
        <ele>250.9</ele>
        <time>2021-05-20T12:06:05Z</time>
      </trkpt>
      <trkpt lat="47.17651" lon="4.95698">
        <ele>251.5</ele>
        <time>2021-05-20T12:06:09Z</time>
      </trkpt>
      <trkpt lat="47.17654" lon="4.95703">
        <ele>252.2</ele>
        <time>2021-05-20T12:06:13Z</time>
      </trkpt>
      <trkpt lat="47.17661" lon="4.95709">
        <ele>249.5</ele>
        <time>2021-05-20T12:06:17Z</time>
      </trkpt>
      <trkpt lat="47.17665" lon="4.95715">
        <ele>247.8</ele>
        <time>2021-05-20T12:06:20Z</time>
      </trkpt>
      <trkpt lat="47.17669" lon="4.95719">
        <ele>248.4</ele>
        <time>2021-05-20T12:06:23Z</time>
      </trkpt>
      <trkpt lat="47.17673" lon="4.95719">
        <ele>244.7</ele>
        <time>2021-05-20T12:06:37Z</time>
      </trkpt>
      <trkpt lat="47.17677" lon="4.95726">
        <ele>245</ele>
        <time>2021-05-20T12:06:42Z</time>
      </trkpt>
      <trkpt lat="47.17678" lon="4.95736">
        <ele>245.1</ele>
        <time>2021-05-20T12:06:45Z</time>
      </trkpt>
      <trkpt lat="47.17679" lon="4.95745">
        <ele>245.2</ele>
        <time>2021-05-20T12:06:48Z</time>
      </trkpt>
      <trkpt lat="47.1768" lon="4.95752">
        <ele>243.8</ele>
        <time>2021-05-20T12:06:51Z</time>
      </trkpt>
      <trkpt lat="47.17682" lon="4.95762">
        <ele>245</ele>
        <time>2021-05-20T12:06:55Z</time>
      </trkpt>
      <trkpt lat="47.17684" lon="4.95774">
        <ele>245.8</ele>
        <time>2021-05-20T12:06:58Z</time>
      </trkpt>
      <trkpt lat="47.17687" lon="4.95781">
        <ele>244.1</ele>
        <time>2021-05-20T12:07:01Z</time>
      </trkpt>
      <trkpt lat="47.1769" lon="4.95786">
        <ele>242.2</ele>
        <time>2021-05-20T12:07:05Z</time>
      </trkpt>
      <trkpt lat="47.17693" lon="4.95792">
        <ele>241.8</ele>
        <time>2021-05-20T12:07:15Z</time>
      </trkpt>
      <trkpt lat="47.17695" lon="4.958">
        <ele>243.3</ele>
        <time>2021-05-20T12:07:19Z</time>
      </trkpt>
      <trkpt lat="47.17698" lon="4.95808">
        <ele>243.4</ele>
        <time>2021-05-20T12:07:24Z</time>
      </trkpt>
      <trkpt lat="47.17701" lon="4.95816">
        <ele>242.6</ele>
        <time>2021-05-20T12:07:28Z</time>
      </trkpt>
      <trkpt lat="47.17705" lon="4.95823">
        <ele>241</ele>
        <time>2021-05-20T12:07:31Z</time>
      </trkpt>
      <trkpt lat="47.17707" lon="4.9583">
        <ele>238.9</ele>
        <time>2021-05-20T12:07:34Z</time>
      </trkpt>
      <trkpt lat="47.1771" lon="4.95838">
        <ele>237.3</ele>
        <time>2021-05-20T12:07:39Z</time>
      </trkpt>
      <trkpt lat="47.17711" lon="4.95846">
        <ele>240.5</ele>
        <time>2021-05-20T12:07:48Z</time>
      </trkpt>
      <trkpt lat="47.17712" lon="4.95853">
        <ele>240.7</ele>
        <time>2021-05-20T12:07:52Z</time>
      </trkpt>
      <trkpt lat="47.17715" lon="4.9586">
        <ele>243.3</ele>
        <time>2021-05-20T12:07:55Z</time>
      </trkpt>
      <trkpt lat="47.17718" lon="4.95866">
        <ele>241.3</ele>
        <time>2021-05-20T12:07:58Z</time>
      </trkpt>
      <trkpt lat="47.1772" lon="4.95874">
        <ele>241.2</ele>
        <time>2021-05-20T12:08:01Z</time>
      </trkpt>
      <trkpt lat="47.17722" lon="4.95882">
        <ele>239</ele>
        <time>2021-05-20T12:08:03Z</time>
      </trkpt>
      <trkpt lat="47.17725" lon="4.9589">
        <ele>237.5</ele>
        <time>2021-05-20T12:08:14Z</time>
      </trkpt>
      <trkpt lat="47.17727" lon="4.95896">
        <ele>239</ele>
        <time>2021-05-20T12:08:17Z</time>
      </trkpt>
      <trkpt lat="47.17728" lon="4.95903">
        <ele>239.6</ele>
        <time>2021-05-20T12:08:21Z</time>
      </trkpt>
      <trkpt lat="47.17731" lon="4.95912">
        <ele>239.2</ele>
        <time>2021-05-20T12:08:24Z</time>
      </trkpt>
      <trkpt lat="47.17732" lon="4.95919">
        <ele>238</ele>
        <time>2021-05-20T12:08:27Z</time>
      </trkpt>
      <trkpt lat="47.17735" lon="4.95926">
        <ele>235.5</ele>
        <time>2021-05-20T12:08:30Z</time>
      </trkpt>
      <trkpt lat="47.17737" lon="4.95934">
        <ele>236.4</ele>
        <time>2021-05-20T12:08:42Z</time>
      </trkpt>
      <trkpt lat="47.17738" lon="4.95942">
        <ele>233.1</ele>
        <time>2021-05-20T12:08:45Z</time>
      </trkpt>
      <trkpt lat="47.1774" lon="4.95948">
        <ele>234.7</ele>
        <time>2021-05-20T12:08:47Z</time>
      </trkpt>
      <trkpt lat="47.17742" lon="4.95954">
        <ele>237.8</ele>
        <time>2021-05-20T12:08:50Z</time>
      </trkpt>
      <trkpt lat="47.17745" lon="4.95961">
        <ele>237.1</ele>
        <time>2021-05-20T12:08:52Z</time>
      </trkpt>
      <trkpt lat="47.17748" lon="4.95967">
        <ele>237.3</ele>
        <time>2021-05-20T12:08:55Z</time>
      </trkpt>
      <trkpt lat="47.17749" lon="4.95975">
        <ele>237.4</ele>
        <time>2021-05-20T12:09:07Z</time>
      </trkpt>
      <trkpt lat="47.17748" lon="4.95984">
        <ele>238.9</ele>
        <time>2021-05-20T12:09:10Z</time>
      </trkpt>
      <trkpt lat="47.1775" lon="4.95991">
        <ele>239.1</ele>
        <time>2021-05-20T12:09:13Z</time>
      </trkpt>
      <trkpt lat="47.17752" lon="4.96">
        <ele>236.8</ele>
        <time>2021-05-20T12:09:17Z</time>
      </trkpt>
      <trkpt lat="47.17753" lon="4.96007">
        <ele>240.3</ele>
        <time>2021-05-20T12:09:20Z</time>
      </trkpt>
      <trkpt lat="47.17754" lon="4.96013">
        <ele>240.1</ele>
        <time>2021-05-20T12:09:22Z</time>
      </trkpt>
      <trkpt lat="47.17756" lon="4.96022">
        <ele>239.1</ele>
        <time>2021-05-20T12:09:25Z</time>
      </trkpt>
      <trkpt lat="47.17755" lon="4.96029">
        <ele>238.1</ele>
        <time>2021-05-20T12:09:34Z</time>
      </trkpt>
      <trkpt lat="47.17756" lon="4.96038">
        <ele>235.7</ele>
        <time>2021-05-20T12:09:38Z</time>
      </trkpt>
      <trkpt lat="47.17757" lon="4.96047">
        <ele>233.7</ele>
        <time>2021-05-20T12:09:42Z</time>
      </trkpt>
      <trkpt lat="47.17753" lon="4.9605">
        <ele>235.5</ele>
        <time>2021-05-20T12:09:53Z</time>
      </trkpt>
      <trkpt lat="47.17758" lon="4.96051">
        <ele>236.5</ele>
        <time>2021-05-20T12:10:06Z</time>
      </trkpt>
      <trkpt lat="47.17761" lon="4.96059">
        <ele>235.8</ele>
        <time>2021-05-20T12:10:11Z</time>
      </trkpt>
      <trkpt lat="47.17763" lon="4.96068">
        <ele>230.2</ele>
        <time>2021-05-20T12:10:15Z</time>
      </trkpt>
      <trkpt lat="47.17763" lon="4.96076">
        <ele>233.7</ele>
        <time>2021-05-20T12:10:18Z</time>
      </trkpt>
      <trkpt lat="47.17764" lon="4.96083">
        <ele>236</ele>
        <time>2021-05-20T12:10:25Z</time>
      </trkpt>
      <trkpt lat="47.17764" lon="4.96091">
        <ele>236.3</ele>
        <time>2021-05-20T12:10:29Z</time>
      </trkpt>
      <trkpt lat="47.17762" lon="4.96098">
        <ele>235.5</ele>
        <time>2021-05-20T12:10:32Z</time>
      </trkpt>
      <trkpt lat="47.1776" lon="4.96105">
        <ele>234</ele>
        <time>2021-05-20T12:10:35Z</time>
      </trkpt>
      <trkpt lat="47.17758" lon="4.96116">
        <ele>232.7</ele>
        <time>2021-05-20T12:10:38Z</time>
      </trkpt>
      <trkpt lat="47.17757" lon="4.96122">
        <ele>233.9</ele>
        <time>2021-05-20T12:10:41Z</time>
      </trkpt>
      <trkpt lat="47.17755" lon="4.96129">
        <ele>235.7</ele>
        <time>2021-05-20T12:10:45Z</time>
      </trkpt>
      <trkpt lat="47.17753" lon="4.96136">
        <ele>237.5</ele>
        <time>2021-05-20T12:10:53Z</time>
      </trkpt>
      <trkpt lat="47.17748" lon="4.96143">
        <ele>238.2</ele>
        <time>2021-05-20T12:10:57Z</time>
      </trkpt>
      <trkpt lat="47.17746" lon="4.96149">
        <ele>241</ele>
        <time>2021-05-20T12:11:00Z</time>
      </trkpt>
      <trkpt lat="47.17744" lon="4.96157">
        <ele>242.8</ele>
        <time>2021-05-20T12:11:03Z</time>
      </trkpt>
      <trkpt lat="47.17744" lon="4.96165">
        <ele>241.3</ele>
        <time>2021-05-20T12:11:07Z</time>
      </trkpt>
      <trkpt lat="47.17743" lon="4.96174">
        <ele>240.8</ele>
        <time>2021-05-20T12:11:14Z</time>
      </trkpt>
      <trkpt lat="47.17738" lon="4.96179">
        <ele>237.6</ele>
        <time>2021-05-20T12:11:18Z</time>
      </trkpt>
      <trkpt lat="47.17736" lon="4.96186">
        <ele>237.2</ele>
        <time>2021-05-20T12:11:21Z</time>
      </trkpt>
      <trkpt lat="47.17733" lon="4.96192">
        <ele>239.3</ele>
        <time>2021-05-20T12:11:26Z</time>
      </trkpt>
      <trkpt lat="47.17731" lon="4.962">
        <ele>244.6</ele>
        <time>2021-05-20T12:11:36Z</time>
      </trkpt>
      <trkpt lat="47.1773" lon="4.96207">
        <ele>245.3</ele>
        <time>2021-05-20T12:11:40Z</time>
      </trkpt>
      <trkpt lat="47.1773" lon="4.96216">
        <ele>241.3</ele>
        <time>2021-05-20T12:11:43Z</time>
      </trkpt>
      <trkpt lat="47.1773" lon="4.96223">
        <ele>242.1</ele>
        <time>2021-05-20T12:11:46Z</time>
      </trkpt>
      <trkpt lat="47.1773" lon="4.96231">
        <ele>241.7</ele>
        <time>2021-05-20T12:11:50Z</time>
      </trkpt>
      <trkpt lat="47.17728" lon="4.96238">
        <ele>236.5</ele>
        <time>2021-05-20T12:11:59Z</time>
      </trkpt>
      <trkpt lat="47.17725" lon="4.96246">
        <ele>237.8</ele>
        <time>2021-05-20T12:12:02Z</time>
      </trkpt>
      <trkpt lat="47.17719" lon="4.96278">
        <ele>234.3</ele>
        <time>2021-05-20T12:12:20Z</time>
      </trkpt>
      <trkpt lat="47.17718" lon="4.96287">
        <ele>232.9</ele>
        <time>2021-05-20T12:12:24Z</time>
      </trkpt>
      <trkpt lat="47.17716" lon="4.96295">
        <ele>233.1</ele>
        <time>2021-05-20T12:12:27Z</time>
      </trkpt>
      <trkpt lat="47.17714" lon="4.96305">
        <ele>230.8</ele>
        <time>2021-05-20T12:12:31Z</time>
      </trkpt>
      <trkpt lat="47.17711" lon="4.96312">
        <ele>232.3</ele>
        <time>2021-05-20T12:12:33Z</time>
      </trkpt>
      <trkpt lat="47.17713" lon="4.96318">
        <ele>235.6</ele>
        <time>2021-05-20T12:12:40Z</time>
      </trkpt>
      <trkpt lat="47.17715" lon="4.96324">
        <ele>238.2</ele>
        <time>2021-05-20T12:12:43Z</time>
      </trkpt>
      <trkpt lat="47.17717" lon="4.96333">
        <ele>243.7</ele>
        <time>2021-05-20T12:12:49Z</time>
      </trkpt>
      <trkpt lat="47.17715" lon="4.9634">
        <ele>243.9</ele>
        <time>2021-05-20T12:12:53Z</time>
      </trkpt>
      <trkpt lat="47.17713" lon="4.96347">
        <ele>242.9</ele>
        <time>2021-05-20T12:12:57Z</time>
      </trkpt>
      <trkpt lat="47.1771" lon="4.96355">
        <ele>241</ele>
        <time>2021-05-20T12:13:03Z</time>
      </trkpt>
      <trkpt lat="47.17713" lon="4.96361">
        <ele>240.1</ele>
        <time>2021-05-20T12:13:09Z</time>
      </trkpt>
      <trkpt lat="47.17708" lon="4.96367">
        <ele>234.4</ele>
        <time>2021-05-20T12:13:15Z</time>
      </trkpt>
      <trkpt lat="47.17703" lon="4.96366">
        <ele>234.4</ele>
        <time>2021-05-20T12:13:19Z</time>
      </trkpt>
      <trkpt lat="47.17699" lon="4.96364">
        <ele>234.9</ele>
        <time>2021-05-20T12:13:23Z</time>
      </trkpt>
      <trkpt lat="47.17694" lon="4.96364">
        <ele>236.2</ele>
        <time>2021-05-20T12:13:28Z</time>
      </trkpt>
      <trkpt lat="47.17689" lon="4.96364">
        <ele>237.1</ele>
        <time>2021-05-20T12:13:32Z</time>
      </trkpt>
      <trkpt lat="47.17683" lon="4.96363">
        <ele>237.7</ele>
        <time>2021-05-20T12:13:38Z</time>
      </trkpt>
      <trkpt lat="47.17677" lon="4.96363">
        <ele>238.4</ele>
        <time>2021-05-20T12:13:42Z</time>
      </trkpt>
      <trkpt lat="47.17671" lon="4.96363">
        <ele>237.2</ele>
        <time>2021-05-20T12:13:45Z</time>
      </trkpt>
      <trkpt lat="47.17666" lon="4.96365">
        <ele>237.5</ele>
        <time>2021-05-20T12:13:49Z</time>
      </trkpt>
      <trkpt lat="47.17662" lon="4.96368">
        <ele>238.8</ele>
        <time>2021-05-20T12:14:00Z</time>
      </trkpt>
      <trkpt lat="47.17656" lon="4.96365">
        <ele>238.1</ele>
        <time>2021-05-20T12:14:05Z</time>
      </trkpt>
      <trkpt lat="47.17651" lon="4.96361">
        <ele>236.6</ele>
        <time>2021-05-20T12:14:09Z</time>
      </trkpt>
      <trkpt lat="47.17645" lon="4.96357">
        <ele>238.4</ele>
        <time>2021-05-20T12:14:14Z</time>
      </trkpt>
      <trkpt lat="47.17639" lon="4.96358">
        <ele>240</ele>
        <time>2021-05-20T12:14:18Z</time>
      </trkpt>
      <trkpt lat="47.17634" lon="4.96358">
        <ele>239.9</ele>
        <time>2021-05-20T12:14:22Z</time>
      </trkpt>
      <trkpt lat="47.17627" lon="4.96357">
        <ele>240.1</ele>
        <time>2021-05-20T12:14:26Z</time>
      </trkpt>
      <trkpt lat="47.17622" lon="4.96356">
        <ele>240</ele>
        <time>2021-05-20T12:14:30Z</time>
      </trkpt>
      <trkpt lat="47.17616" lon="4.96357">
        <ele>239.2</ele>
        <time>2021-05-20T12:14:34Z</time>
      </trkpt>
      <trkpt lat="47.17612" lon="4.96359">
        <ele>239.4</ele>
        <time>2021-05-20T12:14:37Z</time>
      </trkpt>
      <trkpt lat="47.17607" lon="4.96359">
        <ele>238.4</ele>
        <time>2021-05-20T12:14:44Z</time>
      </trkpt>
      <trkpt lat="47.17602" lon="4.9636">
        <ele>238.6</ele>
        <time>2021-05-20T12:14:48Z</time>
      </trkpt>
      <trkpt lat="47.17597" lon="4.96357">
        <ele>235.7</ele>
        <time>2021-05-20T12:14:52Z</time>
      </trkpt>
      <trkpt lat="47.17593" lon="4.96352">
        <ele>236.7</ele>
        <time>2021-05-20T12:14:56Z</time>
      </trkpt>
      <trkpt lat="47.17588" lon="4.9635">
        <ele>240.2</ele>
        <time>2021-05-20T12:15:00Z</time>
      </trkpt>
      <trkpt lat="47.17583" lon="4.9635">
        <ele>244.8</ele>
        <time>2021-05-20T12:15:39Z</time>
      </trkpt>
      <trkpt lat="47.17577" lon="4.96351">
        <ele>247.4</ele>
        <time>2021-05-20T12:15:44Z</time>
      </trkpt>
      <trkpt lat="47.17571" lon="4.96355">
        <ele>244</ele>
        <time>2021-05-20T12:15:49Z</time>
      </trkpt>
      <trkpt lat="47.17566" lon="4.96353">
        <ele>243.2</ele>
        <time>2021-05-20T12:15:54Z</time>
      </trkpt>
      <trkpt lat="47.1756" lon="4.9635">
        <ele>241.4</ele>
        <time>2021-05-20T12:15:57Z</time>
      </trkpt>
      <trkpt lat="47.17555" lon="4.96348">
        <ele>240.6</ele>
        <time>2021-05-20T12:16:00Z</time>
      </trkpt>
      <trkpt lat="47.1755" lon="4.96345">
        <ele>239.2</ele>
        <time>2021-05-20T12:16:04Z</time>
      </trkpt>
      <trkpt lat="47.17543" lon="4.96342">
        <ele>241.1</ele>
        <time>2021-05-20T12:16:10Z</time>
      </trkpt>
      <trkpt lat="47.17538" lon="4.96343">
        <ele>238.9</ele>
        <time>2021-05-20T12:16:13Z</time>
      </trkpt>
      <trkpt lat="47.17533" lon="4.96347">
        <ele>239.6</ele>
        <time>2021-05-20T12:16:16Z</time>
      </trkpt>
      <trkpt lat="47.17529" lon="4.96351">
        <ele>240.5</ele>
        <time>2021-05-20T12:16:20Z</time>
      </trkpt>
      <trkpt lat="47.17526" lon="4.96357">
        <ele>243.7</ele>
        <time>2021-05-20T12:16:26Z</time>
      </trkpt>
      <trkpt lat="47.17526" lon="4.96365">
        <ele>243.2</ele>
        <time>2021-05-20T12:16:30Z</time>
      </trkpt>
      <trkpt lat="47.17527" lon="4.96373">
        <ele>243.5</ele>
        <time>2021-05-20T12:16:34Z</time>
      </trkpt>
      <trkpt lat="47.17529" lon="4.9638">
        <ele>240.8</ele>
        <time>2021-05-20T12:16:38Z</time>
      </trkpt>
      <trkpt lat="47.17533" lon="4.96384">
        <ele>240</ele>
        <time>2021-05-20T12:16:41Z</time>
      </trkpt>
    </trkseg>
  </trk>
</gpx>